<?xml version="1.0" encoding="UTF-8" standalone="no" ?>
<gpx xmlns="http://www.topografix.com/GPX/1/1" xmlns:xsi="http://www.w3.org/2001/XMLSchema-instance" xsi:schemaLocation="http://www.topografix.com/GPX/1/1 http://www.topografix.com/GPX/1/1/gpx.xsd" version="1.1" creator="VisuGPX - https://www.visugpx.com">
  <metadata>
    <name>Marche GASCOUGNOLLES VAUMOREAU</name>
    <desc><![CDATA[Marche au alentour de gascougnolles vaumoreau par un matin très froid]]></desc>
  </metadata>
  <trk>
    <name><![CDATA[Entraînement libre]]></name>
    <trkseg>
      <trkpt lat="46.30713" lon="-0.34271">
        <ele>75.3091</ele>
        <time>2010-12-04T08:32:01Z</time>
      </trkpt>
      <trkpt lat="46.30714" lon="-0.3427">
        <ele>75.0806</ele>
        <time>2010-12-04T08:32:02Z</time>
      </trkpt>
      <trkpt lat="46.30715" lon="-0.34268">
        <ele>74.8418</ele>
        <time>2010-12-04T08:32:03Z</time>
      </trkpt>
      <trkpt lat="46.30716" lon="-0.34267">
        <ele>74.5663</ele>
        <time>2010-12-04T08:32:04Z</time>
      </trkpt>
      <trkpt lat="46.30717" lon="-0.34266">
        <ele>74.32</ele>
        <time>2010-12-04T08:32:05Z</time>
      </trkpt>
      <trkpt lat="46.30718" lon="-0.34264">
        <ele>74.0163</ele>
        <time>2010-12-04T08:32:06Z</time>
      </trkpt>
      <trkpt lat="46.30719" lon="-0.34263">
        <ele>73.7783</ele>
        <time>2010-12-04T08:32:07Z</time>
      </trkpt>
      <trkpt lat="46.30719" lon="-0.34261">
        <ele>73.6632</ele>
        <time>2010-12-04T08:32:08Z</time>
      </trkpt>
      <trkpt lat="46.3072" lon="-0.34259">
        <ele>73.59</ele>
        <time>2010-12-04T08:32:09Z</time>
      </trkpt>
      <trkpt lat="46.30721" lon="-0.34258">
        <ele>73.5106</ele>
        <time>2010-12-04T08:32:10Z</time>
      </trkpt>
      <trkpt lat="46.30721" lon="-0.34256">
        <ele>73.4117</ele>
        <time>2010-12-04T08:32:11Z</time>
      </trkpt>
      <trkpt lat="46.30722" lon="-0.34254">
        <ele>73.3626</ele>
        <time>2010-12-04T08:32:12Z</time>
      </trkpt>
      <trkpt lat="46.30722" lon="-0.34252">
        <ele>73.3623</ele>
        <time>2010-12-04T08:32:13Z</time>
      </trkpt>
      <trkpt lat="46.30723" lon="-0.34251">
        <ele>73.3603</ele>
        <time>2010-12-04T08:32:14Z</time>
      </trkpt>
      <trkpt lat="46.30723" lon="-0.34249">
        <ele>73.3572</ele>
        <time>2010-12-04T08:32:15Z</time>
      </trkpt>
      <trkpt lat="46.30723" lon="-0.34247">
        <ele>73.3532</ele>
        <time>2010-12-04T08:32:16Z</time>
      </trkpt>
      <trkpt lat="46.30724" lon="-0.34246">
        <ele>73.3473</ele>
        <time>2010-12-04T08:32:17Z</time>
      </trkpt>
      <trkpt lat="46.30724" lon="-0.34244">
        <ele>73.3395</ele>
        <time>2010-12-04T08:32:18Z</time>
      </trkpt>
      <trkpt lat="46.30725" lon="-0.34242">
        <ele>73.3312</ele>
        <time>2010-12-04T08:32:19Z</time>
      </trkpt>
      <trkpt lat="46.30726" lon="-0.34241">
        <ele>73.3206</ele>
        <time>2010-12-04T08:32:20Z</time>
      </trkpt>
      <trkpt lat="46.30726" lon="-0.34239">
        <ele>73.3084</ele>
        <time>2010-12-04T08:32:21Z</time>
      </trkpt>
      <trkpt lat="46.30727" lon="-0.34237">
        <ele>73.2968</ele>
        <time>2010-12-04T08:32:22Z</time>
      </trkpt>
      <trkpt lat="46.30727" lon="-0.34235">
        <ele>73.283</ele>
        <time>2010-12-04T08:32:23Z</time>
      </trkpt>
      <trkpt lat="46.30728" lon="-0.34233">
        <ele>73.2681</ele>
        <time>2010-12-04T08:32:24Z</time>
      </trkpt>
      <trkpt lat="46.30728" lon="-0.34231">
        <ele>73.2527</ele>
        <time>2010-12-04T08:32:25Z</time>
      </trkpt>
      <trkpt lat="46.30728" lon="-0.3423">
        <ele>73.2388</ele>
        <time>2010-12-04T08:32:26Z</time>
      </trkpt>
      <trkpt lat="46.30729" lon="-0.34228">
        <ele>73.2246</ele>
        <time>2010-12-04T08:32:27Z</time>
      </trkpt>
      <trkpt lat="46.30729" lon="-0.34226">
        <ele>73.2101</ele>
        <time>2010-12-04T08:32:28Z</time>
      </trkpt>
      <trkpt lat="46.30729" lon="-0.34224">
        <ele>73.194</ele>
        <time>2010-12-04T08:32:29Z</time>
      </trkpt>
      <trkpt lat="46.30729" lon="-0.34222">
        <ele>73.1668</ele>
        <time>2010-12-04T08:32:30Z</time>
      </trkpt>
      <trkpt lat="46.3073" lon="-0.34221">
        <ele>73.1402</ele>
        <time>2010-12-04T08:32:31Z</time>
      </trkpt>
      <trkpt lat="46.3073" lon="-0.34219">
        <ele>73.1128</ele>
        <time>2010-12-04T08:32:32Z</time>
      </trkpt>
      <trkpt lat="46.3073" lon="-0.34217">
        <ele>73.083</ele>
        <time>2010-12-04T08:32:33Z</time>
      </trkpt>
      <trkpt lat="46.3073" lon="-0.34216">
        <ele>73.0532</ele>
        <time>2010-12-04T08:32:34Z</time>
      </trkpt>
      <trkpt lat="46.3073" lon="-0.34214">
        <ele>73.0231</ele>
        <time>2010-12-04T08:32:35Z</time>
      </trkpt>
      <trkpt lat="46.3073" lon="-0.34212">
        <ele>72.9935</ele>
        <time>2010-12-04T08:32:36Z</time>
      </trkpt>
      <trkpt lat="46.30731" lon="-0.3421">
        <ele>72.9603</ele>
        <time>2010-12-04T08:32:37Z</time>
      </trkpt>
      <trkpt lat="46.30731" lon="-0.34208">
        <ele>72.9241</ele>
        <time>2010-12-04T08:32:38Z</time>
      </trkpt>
      <trkpt lat="46.30731" lon="-0.34206">
        <ele>72.8877</ele>
        <time>2010-12-04T08:32:39Z</time>
      </trkpt>
      <trkpt lat="46.30732" lon="-0.34204">
        <ele>72.8509</ele>
        <time>2010-12-04T08:32:40Z</time>
      </trkpt>
      <trkpt lat="46.30732" lon="-0.34202">
        <ele>72.8128</ele>
        <time>2010-12-04T08:32:41Z</time>
      </trkpt>
      <trkpt lat="46.30732" lon="-0.342">
        <ele>72.7749</ele>
        <time>2010-12-04T08:32:42Z</time>
      </trkpt>
      <trkpt lat="46.30732" lon="-0.34198">
        <ele>72.7372</ele>
        <time>2010-12-04T08:32:43Z</time>
      </trkpt>
      <trkpt lat="46.30732" lon="-0.34196">
        <ele>72.6984</ele>
        <time>2010-12-04T08:32:44Z</time>
      </trkpt>
      <trkpt lat="46.30732" lon="-0.34195">
        <ele>72.6587</ele>
        <time>2010-12-04T08:32:45Z</time>
      </trkpt>
      <trkpt lat="46.30732" lon="-0.34193">
        <ele>72.6182</ele>
        <time>2010-12-04T08:32:46Z</time>
      </trkpt>
      <trkpt lat="46.30733" lon="-0.34191">
        <ele>72.578</ele>
        <time>2010-12-04T08:32:47Z</time>
      </trkpt>
      <trkpt lat="46.30732" lon="-0.3419">
        <ele>72.5387</ele>
        <time>2010-12-04T08:32:48Z</time>
      </trkpt>
      <trkpt lat="46.30733" lon="-0.34188">
        <ele>72.4969</ele>
        <time>2010-12-04T08:32:49Z</time>
      </trkpt>
      <trkpt lat="46.30733" lon="-0.34186">
        <ele>72.4523</ele>
        <time>2010-12-04T08:32:50Z</time>
      </trkpt>
      <trkpt lat="46.30733" lon="-0.34184">
        <ele>72.4067</ele>
        <time>2010-12-04T08:32:51Z</time>
      </trkpt>
      <trkpt lat="46.30733" lon="-0.34183">
        <ele>72.3624</ele>
        <time>2010-12-04T08:32:52Z</time>
      </trkpt>
      <trkpt lat="46.30733" lon="-0.34181">
        <ele>72.3194</ele>
        <time>2010-12-04T08:32:53Z</time>
      </trkpt>
      <trkpt lat="46.30733" lon="-0.34179">
        <ele>72.2777</ele>
        <time>2010-12-04T08:32:54Z</time>
      </trkpt>
      <trkpt lat="46.30733" lon="-0.34178">
        <ele>72.2352</ele>
        <time>2010-12-04T08:32:55Z</time>
      </trkpt>
      <trkpt lat="46.30733" lon="-0.34177">
        <ele>72.1929</ele>
        <time>2010-12-04T08:32:56Z</time>
      </trkpt>
      <trkpt lat="46.30734" lon="-0.34175">
        <ele>72.1509</ele>
        <time>2010-12-04T08:32:57Z</time>
      </trkpt>
      <trkpt lat="46.30733" lon="-0.34174">
        <ele>72.108</ele>
        <time>2010-12-04T08:32:58Z</time>
      </trkpt>
      <trkpt lat="46.30734" lon="-0.34173">
        <ele>72.0668</ele>
        <time>2010-12-04T08:32:59Z</time>
      </trkpt>
      <trkpt lat="46.30734" lon="-0.34172">
        <ele>72.005</ele>
        <time>2010-12-04T08:33:00Z</time>
      </trkpt>
      <trkpt lat="46.30733" lon="-0.34171">
        <ele>71.9256</ele>
        <time>2010-12-04T08:33:01Z</time>
      </trkpt>
      <trkpt lat="46.30733" lon="-0.3417">
        <ele>71.8324</ele>
        <time>2010-12-04T08:33:02Z</time>
      </trkpt>
      <trkpt lat="46.30734" lon="-0.3417">
        <ele>71.7262</ele>
        <time>2010-12-04T08:33:03Z</time>
      </trkpt>
      <trkpt lat="46.30734" lon="-0.34169">
        <ele>71.6079</ele>
        <time>2010-12-04T08:33:04Z</time>
      </trkpt>
      <trkpt lat="46.30734" lon="-0.34169">
        <ele>71.483</ele>
        <time>2010-12-04T08:33:05Z</time>
      </trkpt>
      <trkpt lat="46.30734" lon="-0.34168">
        <ele>71.3544</ele>
        <time>2010-12-04T08:33:06Z</time>
      </trkpt>
      <trkpt lat="46.30735" lon="-0.34168">
        <ele>71.2291</ele>
        <time>2010-12-04T08:33:07Z</time>
      </trkpt>
      <trkpt lat="46.30736" lon="-0.34168">
        <ele>71.1094</ele>
        <time>2010-12-04T08:33:08Z</time>
      </trkpt>
      <trkpt lat="46.30737" lon="-0.34168">
        <ele>70.9923</ele>
        <time>2010-12-04T08:33:09Z</time>
      </trkpt>
      <trkpt lat="46.30738" lon="-0.34167">
        <ele>70.8757</ele>
        <time>2010-12-04T08:33:10Z</time>
      </trkpt>
      <trkpt lat="46.30739" lon="-0.34166">
        <ele>70.7634</ele>
        <time>2010-12-04T08:33:11Z</time>
      </trkpt>
      <trkpt lat="46.3074" lon="-0.34166">
        <ele>70.6559</ele>
        <time>2010-12-04T08:33:12Z</time>
      </trkpt>
      <trkpt lat="46.30742" lon="-0.34165">
        <ele>70.5527</ele>
        <time>2010-12-04T08:33:13Z</time>
      </trkpt>
      <trkpt lat="46.30743" lon="-0.34164">
        <ele>70.4547</ele>
        <time>2010-12-04T08:33:14Z</time>
      </trkpt>
      <trkpt lat="46.30744" lon="-0.34163">
        <ele>70.3584</ele>
        <time>2010-12-04T08:33:15Z</time>
      </trkpt>
      <trkpt lat="46.30745" lon="-0.34161">
        <ele>70.2666</ele>
        <time>2010-12-04T08:33:16Z</time>
      </trkpt>
      <trkpt lat="46.30747" lon="-0.3416">
        <ele>70.1755</ele>
        <time>2010-12-04T08:33:17Z</time>
      </trkpt>
      <trkpt lat="46.30748" lon="-0.34159">
        <ele>70.0844</ele>
        <time>2010-12-04T08:33:18Z</time>
      </trkpt>
      <trkpt lat="46.30749" lon="-0.34159">
        <ele>69.9926</ele>
        <time>2010-12-04T08:33:19Z</time>
      </trkpt>
      <trkpt lat="46.3075" lon="-0.34158">
        <ele>69.8994</ele>
        <time>2010-12-04T08:33:20Z</time>
      </trkpt>
      <trkpt lat="46.30751" lon="-0.34157">
        <ele>69.8065</ele>
        <time>2010-12-04T08:33:21Z</time>
      </trkpt>
      <trkpt lat="46.30752" lon="-0.34156">
        <ele>69.712</ele>
        <time>2010-12-04T08:33:22Z</time>
      </trkpt>
      <trkpt lat="46.30753" lon="-0.34155">
        <ele>69.6171</ele>
        <time>2010-12-04T08:33:23Z</time>
      </trkpt>
      <trkpt lat="46.30754" lon="-0.3415">
        <ele>69.61</ele>
        <time>2010-12-04T08:33:24Z</time>
      </trkpt>
      <trkpt lat="46.30755" lon="-0.34147">
        <ele>69.6005</ele>
        <time>2010-12-04T08:33:25Z</time>
      </trkpt>
      <trkpt lat="46.30756" lon="-0.34145">
        <ele>69.5894</ele>
        <time>2010-12-04T08:33:26Z</time>
      </trkpt>
      <trkpt lat="46.30757" lon="-0.34143">
        <ele>69.582</ele>
        <time>2010-12-04T08:33:27Z</time>
      </trkpt>
      <trkpt lat="46.30758" lon="-0.34141">
        <ele>69.5699</ele>
        <time>2010-12-04T08:33:28Z</time>
      </trkpt>
      <trkpt lat="46.30759" lon="-0.34139">
        <ele>69.5602</ele>
        <time>2010-12-04T08:33:29Z</time>
      </trkpt>
      <trkpt lat="46.3076" lon="-0.34137">
        <ele>69.558</ele>
        <time>2010-12-04T08:33:30Z</time>
      </trkpt>
      <trkpt lat="46.30761" lon="-0.34137">
        <ele>69.5603</ele>
        <time>2010-12-04T08:33:31Z</time>
      </trkpt>
      <trkpt lat="46.30762" lon="-0.34136">
        <ele>69.5639</ele>
        <time>2010-12-04T08:33:32Z</time>
      </trkpt>
      <trkpt lat="46.30763" lon="-0.34135">
        <ele>69.574</ele>
        <time>2010-12-04T08:33:33Z</time>
      </trkpt>
      <trkpt lat="46.30764" lon="-0.34135">
        <ele>69.591</ele>
        <time>2010-12-04T08:33:34Z</time>
      </trkpt>
      <trkpt lat="46.30765" lon="-0.34134">
        <ele>69.6083</ele>
        <time>2010-12-04T08:33:35Z</time>
      </trkpt>
      <trkpt lat="46.30766" lon="-0.34132">
        <ele>69.6269</ele>
        <time>2010-12-04T08:33:36Z</time>
      </trkpt>
      <trkpt lat="46.30767" lon="-0.34132">
        <ele>69.6457</ele>
        <time>2010-12-04T08:33:37Z</time>
      </trkpt>
      <trkpt lat="46.30769" lon="-0.34131">
        <ele>69.6632</ele>
        <time>2010-12-04T08:33:38Z</time>
      </trkpt>
      <trkpt lat="46.3077" lon="-0.3413">
        <ele>69.6701</ele>
        <time>2010-12-04T08:33:39Z</time>
      </trkpt>
      <trkpt lat="46.30771" lon="-0.34129">
        <ele>69.6624</ele>
        <time>2010-12-04T08:33:40Z</time>
      </trkpt>
      <trkpt lat="46.30772" lon="-0.34128">
        <ele>69.6424</ele>
        <time>2010-12-04T08:33:41Z</time>
      </trkpt>
      <trkpt lat="46.30774" lon="-0.34128">
        <ele>69.6259</ele>
        <time>2010-12-04T08:33:42Z</time>
      </trkpt>
      <trkpt lat="46.30775" lon="-0.34127">
        <ele>69.6117</ele>
        <time>2010-12-04T08:33:43Z</time>
      </trkpt>
      <trkpt lat="46.30776" lon="-0.34125">
        <ele>69.6003</ele>
        <time>2010-12-04T08:33:44Z</time>
      </trkpt>
      <trkpt lat="46.30777" lon="-0.34124">
        <ele>69.592</ele>
        <time>2010-12-04T08:33:45Z</time>
      </trkpt>
      <trkpt lat="46.30779" lon="-0.34122">
        <ele>69.5764</ele>
        <time>2010-12-04T08:33:46Z</time>
      </trkpt>
      <trkpt lat="46.3078" lon="-0.34121">
        <ele>69.5573</ele>
        <time>2010-12-04T08:33:47Z</time>
      </trkpt>
      <trkpt lat="46.30782" lon="-0.34121">
        <ele>69.5427</ele>
        <time>2010-12-04T08:33:48Z</time>
      </trkpt>
      <trkpt lat="46.30783" lon="-0.3412">
        <ele>69.5302</ele>
        <time>2010-12-04T08:33:49Z</time>
      </trkpt>
      <trkpt lat="46.30784" lon="-0.34119">
        <ele>69.5219</ele>
        <time>2010-12-04T08:33:50Z</time>
      </trkpt>
      <trkpt lat="46.30785" lon="-0.34118">
        <ele>69.5119</ele>
        <time>2010-12-04T08:33:51Z</time>
      </trkpt>
      <trkpt lat="46.30787" lon="-0.34118">
        <ele>69.5058</ele>
        <time>2010-12-04T08:33:52Z</time>
      </trkpt>
      <trkpt lat="46.30788" lon="-0.34118">
        <ele>69.5006</ele>
        <time>2010-12-04T08:33:53Z</time>
      </trkpt>
      <trkpt lat="46.30789" lon="-0.34117">
        <ele>69.495</ele>
        <time>2010-12-04T08:33:54Z</time>
      </trkpt>
      <trkpt lat="46.3079" lon="-0.34116">
        <ele>69.4893</ele>
        <time>2010-12-04T08:33:55Z</time>
      </trkpt>
      <trkpt lat="46.30792" lon="-0.34116">
        <ele>69.4847</ele>
        <time>2010-12-04T08:33:56Z</time>
      </trkpt>
      <trkpt lat="46.30793" lon="-0.34115">
        <ele>69.4785</ele>
        <time>2010-12-04T08:33:57Z</time>
      </trkpt>
      <trkpt lat="46.30794" lon="-0.34115">
        <ele>69.4716</ele>
        <time>2010-12-04T08:33:58Z</time>
      </trkpt>
      <trkpt lat="46.30795" lon="-0.34114">
        <ele>69.4684</ele>
        <time>2010-12-04T08:33:59Z</time>
      </trkpt>
      <trkpt lat="46.30796" lon="-0.34113">
        <ele>69.4646</ele>
        <time>2010-12-04T08:34:00Z</time>
      </trkpt>
      <trkpt lat="46.30797" lon="-0.34113">
        <ele>69.4675</ele>
        <time>2010-12-04T08:34:01Z</time>
      </trkpt>
      <trkpt lat="46.30798" lon="-0.34113">
        <ele>69.4717</ele>
        <time>2010-12-04T08:34:02Z</time>
      </trkpt>
      <trkpt lat="46.30799" lon="-0.34112">
        <ele>69.4793</ele>
        <time>2010-12-04T08:34:03Z</time>
      </trkpt>
      <trkpt lat="46.308" lon="-0.34111">
        <ele>69.4845</ele>
        <time>2010-12-04T08:34:04Z</time>
      </trkpt>
      <trkpt lat="46.30802" lon="-0.34111">
        <ele>69.4901</ele>
        <time>2010-12-04T08:34:05Z</time>
      </trkpt>
      <trkpt lat="46.30803" lon="-0.3411">
        <ele>69.4815</ele>
        <time>2010-12-04T08:34:06Z</time>
      </trkpt>
      <trkpt lat="46.30804" lon="-0.34108">
        <ele>69.4557</ele>
        <time>2010-12-04T08:34:07Z</time>
      </trkpt>
      <trkpt lat="46.30806" lon="-0.34107">
        <ele>69.422</ele>
        <time>2010-12-04T08:34:08Z</time>
      </trkpt>
      <trkpt lat="46.30808" lon="-0.34106">
        <ele>69.3896</ele>
        <time>2010-12-04T08:34:09Z</time>
      </trkpt>
      <trkpt lat="46.30809" lon="-0.34105">
        <ele>69.3585</ele>
        <time>2010-12-04T08:34:10Z</time>
      </trkpt>
      <trkpt lat="46.3081" lon="-0.34104">
        <ele>69.3289</ele>
        <time>2010-12-04T08:34:11Z</time>
      </trkpt>
      <trkpt lat="46.30811" lon="-0.34103">
        <ele>69.2995</ele>
        <time>2010-12-04T08:34:12Z</time>
      </trkpt>
      <trkpt lat="46.30812" lon="-0.34102">
        <ele>69.2786</ele>
        <time>2010-12-04T08:34:13Z</time>
      </trkpt>
      <trkpt lat="46.30813" lon="-0.34101">
        <ele>69.2484</ele>
        <time>2010-12-04T08:34:14Z</time>
      </trkpt>
      <trkpt lat="46.30814" lon="-0.341">
        <ele>69.2068</ele>
        <time>2010-12-04T08:34:15Z</time>
      </trkpt>
      <trkpt lat="46.30816" lon="-0.34099">
        <ele>69.1662</ele>
        <time>2010-12-04T08:34:16Z</time>
      </trkpt>
      <trkpt lat="46.30817" lon="-0.34098">
        <ele>69.1236</ele>
        <time>2010-12-04T08:34:17Z</time>
      </trkpt>
      <trkpt lat="46.30818" lon="-0.34097">
        <ele>69.0826</ele>
        <time>2010-12-04T08:34:18Z</time>
      </trkpt>
      <trkpt lat="46.30819" lon="-0.34096">
        <ele>69.0417</ele>
        <time>2010-12-04T08:34:19Z</time>
      </trkpt>
      <trkpt lat="46.3082" lon="-0.34095">
        <ele>69.0018</ele>
        <time>2010-12-04T08:34:20Z</time>
      </trkpt>
      <trkpt lat="46.30822" lon="-0.34095">
        <ele>68.9638</ele>
        <time>2010-12-04T08:34:21Z</time>
      </trkpt>
      <trkpt lat="46.30823" lon="-0.34094">
        <ele>68.9246</ele>
        <time>2010-12-04T08:34:22Z</time>
      </trkpt>
      <trkpt lat="46.30824" lon="-0.34092">
        <ele>68.8823</ele>
        <time>2010-12-04T08:34:23Z</time>
      </trkpt>
      <trkpt lat="46.30825" lon="-0.34092">
        <ele>68.8417</ele>
        <time>2010-12-04T08:34:24Z</time>
      </trkpt>
      <trkpt lat="46.30827" lon="-0.34091">
        <ele>68.8</ele>
        <time>2010-12-04T08:34:25Z</time>
      </trkpt>
      <trkpt lat="46.30828" lon="-0.34091">
        <ele>68.7555</ele>
        <time>2010-12-04T08:34:26Z</time>
      </trkpt>
      <trkpt lat="46.30829" lon="-0.3409">
        <ele>68.7094</ele>
        <time>2010-12-04T08:34:27Z</time>
      </trkpt>
      <trkpt lat="46.3083" lon="-0.34089">
        <ele>68.6604</ele>
        <time>2010-12-04T08:34:28Z</time>
      </trkpt>
      <trkpt lat="46.30832" lon="-0.34088">
        <ele>68.6104</ele>
        <time>2010-12-04T08:34:29Z</time>
      </trkpt>
      <trkpt lat="46.30833" lon="-0.34087">
        <ele>68.5584</ele>
        <time>2010-12-04T08:34:30Z</time>
      </trkpt>
      <trkpt lat="46.30834" lon="-0.34086">
        <ele>68.5047</ele>
        <time>2010-12-04T08:34:31Z</time>
      </trkpt>
      <trkpt lat="46.30835" lon="-0.34085">
        <ele>68.4508</ele>
        <time>2010-12-04T08:34:32Z</time>
      </trkpt>
      <trkpt lat="46.30836" lon="-0.34084">
        <ele>68.3902</ele>
        <time>2010-12-04T08:34:33Z</time>
      </trkpt>
      <trkpt lat="46.30838" lon="-0.34083">
        <ele>68.3201</ele>
        <time>2010-12-04T08:34:34Z</time>
      </trkpt>
      <trkpt lat="46.30839" lon="-0.34081">
        <ele>68.2372</ele>
        <time>2010-12-04T08:34:35Z</time>
      </trkpt>
      <trkpt lat="46.30841" lon="-0.34081">
        <ele>68.1531</ele>
        <time>2010-12-04T08:34:36Z</time>
      </trkpt>
      <trkpt lat="46.30842" lon="-0.3408">
        <ele>68.0687</ele>
        <time>2010-12-04T08:34:37Z</time>
      </trkpt>
      <trkpt lat="46.30844" lon="-0.34079">
        <ele>67.9823</ele>
        <time>2010-12-04T08:34:38Z</time>
      </trkpt>
      <trkpt lat="46.30845" lon="-0.34079">
        <ele>67.8958</ele>
        <time>2010-12-04T08:34:39Z</time>
      </trkpt>
      <trkpt lat="46.30846" lon="-0.34078">
        <ele>67.8125</ele>
        <time>2010-12-04T08:34:40Z</time>
      </trkpt>
      <trkpt lat="46.30848" lon="-0.34077">
        <ele>67.7276</ele>
        <time>2010-12-04T08:34:41Z</time>
      </trkpt>
      <trkpt lat="46.30849" lon="-0.34076">
        <ele>67.6347</ele>
        <time>2010-12-04T08:34:42Z</time>
      </trkpt>
      <trkpt lat="46.3085" lon="-0.34075">
        <ele>67.5422</ele>
        <time>2010-12-04T08:34:43Z</time>
      </trkpt>
      <trkpt lat="46.30851" lon="-0.34074">
        <ele>67.4526</ele>
        <time>2010-12-04T08:34:44Z</time>
      </trkpt>
      <trkpt lat="46.30852" lon="-0.34072">
        <ele>67.366</ele>
        <time>2010-12-04T08:34:45Z</time>
      </trkpt>
      <trkpt lat="46.30853" lon="-0.34071">
        <ele>67.2818</ele>
        <time>2010-12-04T08:34:46Z</time>
      </trkpt>
      <trkpt lat="46.30854" lon="-0.3407">
        <ele>67.1992</ele>
        <time>2010-12-04T08:34:47Z</time>
      </trkpt>
      <trkpt lat="46.30855" lon="-0.34069">
        <ele>67.1176</ele>
        <time>2010-12-04T08:34:48Z</time>
      </trkpt>
      <trkpt lat="46.30856" lon="-0.34067">
        <ele>67.0349</ele>
        <time>2010-12-04T08:34:49Z</time>
      </trkpt>
      <trkpt lat="46.30857" lon="-0.34066">
        <ele>66.9493</ele>
        <time>2010-12-04T08:34:50Z</time>
      </trkpt>
      <trkpt lat="46.30858" lon="-0.34065">
        <ele>66.8697</ele>
        <time>2010-12-04T08:34:51Z</time>
      </trkpt>
      <trkpt lat="46.30859" lon="-0.34064">
        <ele>66.7934</ele>
        <time>2010-12-04T08:34:52Z</time>
      </trkpt>
      <trkpt lat="46.3086" lon="-0.34062">
        <ele>66.7204</ele>
        <time>2010-12-04T08:34:53Z</time>
      </trkpt>
      <trkpt lat="46.30861" lon="-0.34061">
        <ele>66.65</ele>
        <time>2010-12-04T08:34:54Z</time>
      </trkpt>
      <trkpt lat="46.30863" lon="-0.3406">
        <ele>66.5816</ele>
        <time>2010-12-04T08:34:55Z</time>
      </trkpt>
      <trkpt lat="46.30864" lon="-0.34059">
        <ele>66.5143</ele>
        <time>2010-12-04T08:34:56Z</time>
      </trkpt>
      <trkpt lat="46.30865" lon="-0.34058">
        <ele>66.4486</ele>
        <time>2010-12-04T08:34:57Z</time>
      </trkpt>
      <trkpt lat="46.30867" lon="-0.34057">
        <ele>66.3826</ele>
        <time>2010-12-04T08:34:58Z</time>
      </trkpt>
      <trkpt lat="46.30868" lon="-0.34056">
        <ele>66.3243</ele>
        <time>2010-12-04T08:34:59Z</time>
      </trkpt>
      <trkpt lat="46.30869" lon="-0.34055">
        <ele>66.2642</ele>
        <time>2010-12-04T08:35:00Z</time>
      </trkpt>
      <trkpt lat="46.3087" lon="-0.34054">
        <ele>66.2077</ele>
        <time>2010-12-04T08:35:01Z</time>
      </trkpt>
      <trkpt lat="46.30872" lon="-0.34053">
        <ele>66.1504</ele>
        <time>2010-12-04T08:35:02Z</time>
      </trkpt>
      <trkpt lat="46.30873" lon="-0.34053">
        <ele>66.0945</ele>
        <time>2010-12-04T08:35:03Z</time>
      </trkpt>
      <trkpt lat="46.30874" lon="-0.34051">
        <ele>66.0367</ele>
        <time>2010-12-04T08:35:04Z</time>
      </trkpt>
      <trkpt lat="46.30875" lon="-0.34051">
        <ele>65.9729</ele>
        <time>2010-12-04T08:35:05Z</time>
      </trkpt>
      <trkpt lat="46.30877" lon="-0.3405">
        <ele>65.9114</ele>
        <time>2010-12-04T08:35:06Z</time>
      </trkpt>
      <trkpt lat="46.30878" lon="-0.34049">
        <ele>65.8547</ele>
        <time>2010-12-04T08:35:07Z</time>
      </trkpt>
      <trkpt lat="46.3088" lon="-0.34049">
        <ele>65.8043</ele>
        <time>2010-12-04T08:35:08Z</time>
      </trkpt>
      <trkpt lat="46.30881" lon="-0.34048">
        <ele>65.7608</ele>
        <time>2010-12-04T08:35:09Z</time>
      </trkpt>
      <trkpt lat="46.30882" lon="-0.34047">
        <ele>65.7234</ele>
        <time>2010-12-04T08:35:10Z</time>
      </trkpt>
      <trkpt lat="46.30883" lon="-0.34047">
        <ele>65.6927</ele>
        <time>2010-12-04T08:35:11Z</time>
      </trkpt>
      <trkpt lat="46.30885" lon="-0.34046">
        <ele>65.6637</ele>
        <time>2010-12-04T08:35:12Z</time>
      </trkpt>
      <trkpt lat="46.30887" lon="-0.34046">
        <ele>65.6334</ele>
        <time>2010-12-04T08:35:13Z</time>
      </trkpt>
      <trkpt lat="46.30888" lon="-0.34045">
        <ele>65.6028</ele>
        <time>2010-12-04T08:35:14Z</time>
      </trkpt>
      <trkpt lat="46.30889" lon="-0.34044">
        <ele>65.5731</ele>
        <time>2010-12-04T08:35:15Z</time>
      </trkpt>
      <trkpt lat="46.30891" lon="-0.34044">
        <ele>65.5451</ele>
        <time>2010-12-04T08:35:16Z</time>
      </trkpt>
      <trkpt lat="46.30892" lon="-0.34043">
        <ele>65.5198</ele>
        <time>2010-12-04T08:35:17Z</time>
      </trkpt>
      <trkpt lat="46.30893" lon="-0.34043">
        <ele>65.4959</ele>
        <time>2010-12-04T08:35:18Z</time>
      </trkpt>
      <trkpt lat="46.30895" lon="-0.34043">
        <ele>65.4721</ele>
        <time>2010-12-04T08:35:19Z</time>
      </trkpt>
      <trkpt lat="46.30896" lon="-0.34043">
        <ele>65.4477</ele>
        <time>2010-12-04T08:35:20Z</time>
      </trkpt>
      <trkpt lat="46.30897" lon="-0.34042">
        <ele>65.4242</ele>
        <time>2010-12-04T08:35:21Z</time>
      </trkpt>
      <trkpt lat="46.30899" lon="-0.34042">
        <ele>65.3988</ele>
        <time>2010-12-04T08:35:22Z</time>
      </trkpt>
      <trkpt lat="46.309" lon="-0.34041">
        <ele>65.3716</ele>
        <time>2010-12-04T08:35:23Z</time>
      </trkpt>
      <trkpt lat="46.30901" lon="-0.34041">
        <ele>65.3454</ele>
        <time>2010-12-04T08:35:24Z</time>
      </trkpt>
      <trkpt lat="46.30903" lon="-0.3404">
        <ele>65.3133</ele>
        <time>2010-12-04T08:35:25Z</time>
      </trkpt>
      <trkpt lat="46.30904" lon="-0.34039">
        <ele>65.2723</ele>
        <time>2010-12-04T08:35:26Z</time>
      </trkpt>
      <trkpt lat="46.30906" lon="-0.34038">
        <ele>65.2305</ele>
        <time>2010-12-04T08:35:27Z</time>
      </trkpt>
      <trkpt lat="46.30907" lon="-0.34038">
        <ele>65.1883</ele>
        <time>2010-12-04T08:35:28Z</time>
      </trkpt>
      <trkpt lat="46.30909" lon="-0.34037">
        <ele>65.1468</ele>
        <time>2010-12-04T08:35:29Z</time>
      </trkpt>
      <trkpt lat="46.3091" lon="-0.34037">
        <ele>65.1059</ele>
        <time>2010-12-04T08:35:30Z</time>
      </trkpt>
      <trkpt lat="46.30911" lon="-0.34036">
        <ele>65.068</ele>
        <time>2010-12-04T08:35:31Z</time>
      </trkpt>
      <trkpt lat="46.30912" lon="-0.34035">
        <ele>65.0302</ele>
        <time>2010-12-04T08:35:32Z</time>
      </trkpt>
      <trkpt lat="46.30913" lon="-0.34034">
        <ele>64.9872</ele>
        <time>2010-12-04T08:35:33Z</time>
      </trkpt>
      <trkpt lat="46.30915" lon="-0.34034">
        <ele>64.9362</ele>
        <time>2010-12-04T08:35:34Z</time>
      </trkpt>
      <trkpt lat="46.30916" lon="-0.34034">
        <ele>64.8852</ele>
        <time>2010-12-04T08:35:35Z</time>
      </trkpt>
      <trkpt lat="46.30917" lon="-0.34033">
        <ele>64.8349</ele>
        <time>2010-12-04T08:35:36Z</time>
      </trkpt>
      <trkpt lat="46.30918" lon="-0.34033">
        <ele>64.785</ele>
        <time>2010-12-04T08:35:37Z</time>
      </trkpt>
      <trkpt lat="46.30919" lon="-0.34033">
        <ele>64.7354</ele>
        <time>2010-12-04T08:35:38Z</time>
      </trkpt>
      <trkpt lat="46.30921" lon="-0.34033">
        <ele>64.6868</ele>
        <time>2010-12-04T08:35:39Z</time>
      </trkpt>
      <trkpt lat="46.30922" lon="-0.34033">
        <ele>64.6364</ele>
        <time>2010-12-04T08:35:40Z</time>
      </trkpt>
      <trkpt lat="46.30923" lon="-0.34033">
        <ele>64.5862</ele>
        <time>2010-12-04T08:35:41Z</time>
      </trkpt>
      <trkpt lat="46.30925" lon="-0.34033">
        <ele>64.5373</ele>
        <time>2010-12-04T08:35:42Z</time>
      </trkpt>
      <trkpt lat="46.30926" lon="-0.34033">
        <ele>64.4898</ele>
        <time>2010-12-04T08:35:43Z</time>
      </trkpt>
      <trkpt lat="46.30927" lon="-0.34033">
        <ele>64.444</ele>
        <time>2010-12-04T08:35:44Z</time>
      </trkpt>
      <trkpt lat="46.30928" lon="-0.34032">
        <ele>64.4014</ele>
        <time>2010-12-04T08:35:45Z</time>
      </trkpt>
      <trkpt lat="46.3093" lon="-0.34032">
        <ele>64.3558</ele>
        <time>2010-12-04T08:35:46Z</time>
      </trkpt>
      <trkpt lat="46.30932" lon="-0.34032">
        <ele>64.3092</ele>
        <time>2010-12-04T08:35:47Z</time>
      </trkpt>
      <trkpt lat="46.30933" lon="-0.34031">
        <ele>64.2622</ele>
        <time>2010-12-04T08:35:48Z</time>
      </trkpt>
      <trkpt lat="46.30935" lon="-0.34031">
        <ele>64.2155</ele>
        <time>2010-12-04T08:35:49Z</time>
      </trkpt>
      <trkpt lat="46.30936" lon="-0.3403">
        <ele>64.1683</ele>
        <time>2010-12-04T08:35:50Z</time>
      </trkpt>
      <trkpt lat="46.30938" lon="-0.3403">
        <ele>64.1217</ele>
        <time>2010-12-04T08:35:51Z</time>
      </trkpt>
      <trkpt lat="46.30939" lon="-0.3403">
        <ele>64.0744</ele>
        <time>2010-12-04T08:35:52Z</time>
      </trkpt>
      <trkpt lat="46.3094" lon="-0.3403">
        <ele>64.0278</ele>
        <time>2010-12-04T08:35:53Z</time>
      </trkpt>
      <trkpt lat="46.30941" lon="-0.3403">
        <ele>63.9858</ele>
        <time>2010-12-04T08:35:54Z</time>
      </trkpt>
      <trkpt lat="46.30942" lon="-0.3403">
        <ele>63.9401</ele>
        <time>2010-12-04T08:35:55Z</time>
      </trkpt>
      <trkpt lat="46.30943" lon="-0.34029">
        <ele>63.8919</ele>
        <time>2010-12-04T08:35:56Z</time>
      </trkpt>
      <trkpt lat="46.30944" lon="-0.34029">
        <ele>63.8402</ele>
        <time>2010-12-04T08:35:57Z</time>
      </trkpt>
      <trkpt lat="46.30946" lon="-0.34029">
        <ele>63.7881</ele>
        <time>2010-12-04T08:35:58Z</time>
      </trkpt>
      <trkpt lat="46.30947" lon="-0.34029">
        <ele>63.7387</ele>
        <time>2010-12-04T08:35:59Z</time>
      </trkpt>
      <trkpt lat="46.30948" lon="-0.34028">
        <ele>63.6871</ele>
        <time>2010-12-04T08:36:00Z</time>
      </trkpt>
      <trkpt lat="46.30949" lon="-0.34028">
        <ele>63.6377</ele>
        <time>2010-12-04T08:36:01Z</time>
      </trkpt>
      <trkpt lat="46.30951" lon="-0.34028">
        <ele>63.5897</ele>
        <time>2010-12-04T08:36:02Z</time>
      </trkpt>
      <trkpt lat="46.30952" lon="-0.34028">
        <ele>63.5424</ele>
        <time>2010-12-04T08:36:03Z</time>
      </trkpt>
      <trkpt lat="46.30953" lon="-0.34027">
        <ele>63.4987</ele>
        <time>2010-12-04T08:36:04Z</time>
      </trkpt>
      <trkpt lat="46.30954" lon="-0.34027">
        <ele>63.4603</ele>
        <time>2010-12-04T08:36:05Z</time>
      </trkpt>
      <trkpt lat="46.30956" lon="-0.34026">
        <ele>63.424</ele>
        <time>2010-12-04T08:36:06Z</time>
      </trkpt>
      <trkpt lat="46.30957" lon="-0.34026">
        <ele>63.3906</ele>
        <time>2010-12-04T08:36:07Z</time>
      </trkpt>
      <trkpt lat="46.30959" lon="-0.34026">
        <ele>63.3596</ele>
        <time>2010-12-04T08:36:08Z</time>
      </trkpt>
      <trkpt lat="46.3096" lon="-0.34025">
        <ele>63.3276</ele>
        <time>2010-12-04T08:36:09Z</time>
      </trkpt>
      <trkpt lat="46.30962" lon="-0.34024">
        <ele>63.2936</ele>
        <time>2010-12-04T08:36:10Z</time>
      </trkpt>
      <trkpt lat="46.30963" lon="-0.34024">
        <ele>63.2603</ele>
        <time>2010-12-04T08:36:11Z</time>
      </trkpt>
      <trkpt lat="46.30965" lon="-0.34023">
        <ele>63.2298</ele>
        <time>2010-12-04T08:36:12Z</time>
      </trkpt>
      <trkpt lat="46.30966" lon="-0.34023">
        <ele>63.1999</ele>
        <time>2010-12-04T08:36:13Z</time>
      </trkpt>
      <trkpt lat="46.30967" lon="-0.34023">
        <ele>63.1704</ele>
        <time>2010-12-04T08:36:14Z</time>
      </trkpt>
      <trkpt lat="46.30969" lon="-0.34023">
        <ele>63.1416</ele>
        <time>2010-12-04T08:36:15Z</time>
      </trkpt>
      <trkpt lat="46.3097" lon="-0.34023">
        <ele>63.1137</ele>
        <time>2010-12-04T08:36:16Z</time>
      </trkpt>
      <trkpt lat="46.30972" lon="-0.34023">
        <ele>63.0861</ele>
        <time>2010-12-04T08:36:17Z</time>
      </trkpt>
      <trkpt lat="46.30973" lon="-0.34022">
        <ele>63.0593</ele>
        <time>2010-12-04T08:36:18Z</time>
      </trkpt>
      <trkpt lat="46.30974" lon="-0.34022">
        <ele>63.0294</ele>
        <time>2010-12-04T08:36:19Z</time>
      </trkpt>
      <trkpt lat="46.30976" lon="-0.34021">
        <ele>62.9956</ele>
        <time>2010-12-04T08:36:20Z</time>
      </trkpt>
      <trkpt lat="46.30977" lon="-0.34021">
        <ele>62.9614</ele>
        <time>2010-12-04T08:36:21Z</time>
      </trkpt>
      <trkpt lat="46.30978" lon="-0.34021">
        <ele>62.9279</ele>
        <time>2010-12-04T08:36:22Z</time>
      </trkpt>
      <trkpt lat="46.30979" lon="-0.3402">
        <ele>62.895</ele>
        <time>2010-12-04T08:36:23Z</time>
      </trkpt>
      <trkpt lat="46.30981" lon="-0.3402">
        <ele>62.8624</ele>
        <time>2010-12-04T08:36:24Z</time>
      </trkpt>
      <trkpt lat="46.30982" lon="-0.3402">
        <ele>62.8313</ele>
        <time>2010-12-04T08:36:25Z</time>
      </trkpt>
      <trkpt lat="46.30983" lon="-0.3402">
        <ele>62.799</ele>
        <time>2010-12-04T08:36:26Z</time>
      </trkpt>
      <trkpt lat="46.30984" lon="-0.3402">
        <ele>62.7674</ele>
        <time>2010-12-04T08:36:27Z</time>
      </trkpt>
      <trkpt lat="46.30985" lon="-0.3402">
        <ele>62.7365</ele>
        <time>2010-12-04T08:36:28Z</time>
      </trkpt>
      <trkpt lat="46.30987" lon="-0.34019">
        <ele>62.7061</ele>
        <time>2010-12-04T08:36:29Z</time>
      </trkpt>
      <trkpt lat="46.30988" lon="-0.34019">
        <ele>62.6761</ele>
        <time>2010-12-04T08:36:30Z</time>
      </trkpt>
      <trkpt lat="46.30989" lon="-0.34019">
        <ele>62.6475</ele>
        <time>2010-12-04T08:36:31Z</time>
      </trkpt>
      <trkpt lat="46.30991" lon="-0.34019">
        <ele>62.617</ele>
        <time>2010-12-04T08:36:32Z</time>
      </trkpt>
      <trkpt lat="46.30992" lon="-0.34019">
        <ele>62.5844</ele>
        <time>2010-12-04T08:36:33Z</time>
      </trkpt>
      <trkpt lat="46.30993" lon="-0.34019">
        <ele>62.5518</ele>
        <time>2010-12-04T08:36:34Z</time>
      </trkpt>
      <trkpt lat="46.30994" lon="-0.34019">
        <ele>62.5199</ele>
        <time>2010-12-04T08:36:35Z</time>
      </trkpt>
      <trkpt lat="46.30996" lon="-0.34018">
        <ele>62.4883</ele>
        <time>2010-12-04T08:36:36Z</time>
      </trkpt>
      <trkpt lat="46.30997" lon="-0.34019">
        <ele>62.456</ele>
        <time>2010-12-04T08:36:37Z</time>
      </trkpt>
      <trkpt lat="46.30999" lon="-0.34019">
        <ele>62.4247</ele>
        <time>2010-12-04T08:36:38Z</time>
      </trkpt>
      <trkpt lat="46.31" lon="-0.34018">
        <ele>62.393</ele>
        <time>2010-12-04T08:36:39Z</time>
      </trkpt>
      <trkpt lat="46.31001" lon="-0.34018">
        <ele>62.3619</ele>
        <time>2010-12-04T08:36:40Z</time>
      </trkpt>
      <trkpt lat="46.31002" lon="-0.34018">
        <ele>62.3306</ele>
        <time>2010-12-04T08:36:41Z</time>
      </trkpt>
      <trkpt lat="46.31003" lon="-0.34017">
        <ele>62.2999</ele>
        <time>2010-12-04T08:36:42Z</time>
      </trkpt>
      <trkpt lat="46.31005" lon="-0.34017">
        <ele>62.2638</ele>
        <time>2010-12-04T08:36:43Z</time>
      </trkpt>
      <trkpt lat="46.31006" lon="-0.34017">
        <ele>62.2272</ele>
        <time>2010-12-04T08:36:44Z</time>
      </trkpt>
      <trkpt lat="46.31007" lon="-0.34017">
        <ele>62.1897</ele>
        <time>2010-12-04T08:36:45Z</time>
      </trkpt>
      <trkpt lat="46.31009" lon="-0.34017">
        <ele>62.1543</ele>
        <time>2010-12-04T08:36:46Z</time>
      </trkpt>
      <trkpt lat="46.3101" lon="-0.34016">
        <ele>62.1177</ele>
        <time>2010-12-04T08:36:47Z</time>
      </trkpt>
      <trkpt lat="46.31011" lon="-0.34016">
        <ele>62.0795</ele>
        <time>2010-12-04T08:36:48Z</time>
      </trkpt>
      <trkpt lat="46.31012" lon="-0.34015">
        <ele>62.0396</ele>
        <time>2010-12-04T08:36:49Z</time>
      </trkpt>
      <trkpt lat="46.31013" lon="-0.34015">
        <ele>62</ele>
        <time>2010-12-04T08:36:50Z</time>
      </trkpt>
      <trkpt lat="46.31015" lon="-0.34014">
        <ele>61.9617</ele>
        <time>2010-12-04T08:36:51Z</time>
      </trkpt>
      <trkpt lat="46.31016" lon="-0.34013">
        <ele>61.9092</ele>
        <time>2010-12-04T08:36:52Z</time>
      </trkpt>
      <trkpt lat="46.31018" lon="-0.34012">
        <ele>61.8507</ele>
        <time>2010-12-04T08:36:53Z</time>
      </trkpt>
      <trkpt lat="46.31019" lon="-0.34011">
        <ele>61.7941</ele>
        <time>2010-12-04T08:36:54Z</time>
      </trkpt>
      <trkpt lat="46.31021" lon="-0.3401">
        <ele>61.7377</ele>
        <time>2010-12-04T08:36:55Z</time>
      </trkpt>
      <trkpt lat="46.31022" lon="-0.3401">
        <ele>61.6815</ele>
        <time>2010-12-04T08:36:56Z</time>
      </trkpt>
      <trkpt lat="46.31023" lon="-0.34009">
        <ele>61.6177</ele>
        <time>2010-12-04T08:36:57Z</time>
      </trkpt>
      <trkpt lat="46.31025" lon="-0.34009">
        <ele>61.5532</ele>
        <time>2010-12-04T08:36:58Z</time>
      </trkpt>
      <trkpt lat="46.31026" lon="-0.34009">
        <ele>61.4907</ele>
        <time>2010-12-04T08:36:59Z</time>
      </trkpt>
      <trkpt lat="46.31027" lon="-0.34009">
        <ele>61.4295</ele>
        <time>2010-12-04T08:37:00Z</time>
      </trkpt>
      <trkpt lat="46.31028" lon="-0.34009">
        <ele>61.3678</ele>
        <time>2010-12-04T08:37:01Z</time>
      </trkpt>
      <trkpt lat="46.3103" lon="-0.34008">
        <ele>61.3068</ele>
        <time>2010-12-04T08:37:02Z</time>
      </trkpt>
      <trkpt lat="46.3103" lon="-0.34008">
        <ele>61.2466</ele>
        <time>2010-12-04T08:37:03Z</time>
      </trkpt>
      <trkpt lat="46.31031" lon="-0.34007">
        <ele>61.1841</ele>
        <time>2010-12-04T08:37:04Z</time>
      </trkpt>
      <trkpt lat="46.31032" lon="-0.34007">
        <ele>61.1212</ele>
        <time>2010-12-04T08:37:05Z</time>
      </trkpt>
      <trkpt lat="46.31033" lon="-0.34006">
        <ele>61.0555</ele>
        <time>2010-12-04T08:37:06Z</time>
      </trkpt>
      <trkpt lat="46.31034" lon="-0.34005">
        <ele>60.9916</ele>
        <time>2010-12-04T08:37:07Z</time>
      </trkpt>
      <trkpt lat="46.31035" lon="-0.34004">
        <ele>60.9291</ele>
        <time>2010-12-04T08:37:08Z</time>
      </trkpt>
      <trkpt lat="46.31036" lon="-0.34003">
        <ele>60.865</ele>
        <time>2010-12-04T08:37:09Z</time>
      </trkpt>
      <trkpt lat="46.31038" lon="-0.34003">
        <ele>60.8073</ele>
        <time>2010-12-04T08:37:10Z</time>
      </trkpt>
      <trkpt lat="46.31039" lon="-0.34003">
        <ele>60.7591</ele>
        <time>2010-12-04T08:37:11Z</time>
      </trkpt>
      <trkpt lat="46.31041" lon="-0.34002">
        <ele>60.7126</ele>
        <time>2010-12-04T08:37:12Z</time>
      </trkpt>
      <trkpt lat="46.31042" lon="-0.34001">
        <ele>60.667</ele>
        <time>2010-12-04T08:37:13Z</time>
      </trkpt>
      <trkpt lat="46.31043" lon="-0.34001">
        <ele>60.6205</ele>
        <time>2010-12-04T08:37:14Z</time>
      </trkpt>
      <trkpt lat="46.31044" lon="-0.34">
        <ele>60.5756</ele>
        <time>2010-12-04T08:37:15Z</time>
      </trkpt>
      <trkpt lat="46.31046" lon="-0.34">
        <ele>60.5317</ele>
        <time>2010-12-04T08:37:16Z</time>
      </trkpt>
      <trkpt lat="46.31047" lon="-0.34">
        <ele>60.4885</ele>
        <time>2010-12-04T08:37:17Z</time>
      </trkpt>
      <trkpt lat="46.31048" lon="-0.33999">
        <ele>60.4486</ele>
        <time>2010-12-04T08:37:18Z</time>
      </trkpt>
      <trkpt lat="46.3105" lon="-0.33999">
        <ele>60.4114</ele>
        <time>2010-12-04T08:37:19Z</time>
      </trkpt>
      <trkpt lat="46.31051" lon="-0.33999">
        <ele>60.3796</ele>
        <time>2010-12-04T08:37:20Z</time>
      </trkpt>
      <trkpt lat="46.31053" lon="-0.33999">
        <ele>60.3486</ele>
        <time>2010-12-04T08:37:21Z</time>
      </trkpt>
      <trkpt lat="46.31054" lon="-0.33998">
        <ele>60.3251</ele>
        <time>2010-12-04T08:37:22Z</time>
      </trkpt>
      <trkpt lat="46.31056" lon="-0.33998">
        <ele>60.3086</ele>
        <time>2010-12-04T08:37:23Z</time>
      </trkpt>
      <trkpt lat="46.31057" lon="-0.33998">
        <ele>60.2985</ele>
        <time>2010-12-04T08:37:24Z</time>
      </trkpt>
      <trkpt lat="46.31058" lon="-0.33997">
        <ele>60.2887</ele>
        <time>2010-12-04T08:37:25Z</time>
      </trkpt>
      <trkpt lat="46.3106" lon="-0.33997">
        <ele>60.2791</ele>
        <time>2010-12-04T08:37:26Z</time>
      </trkpt>
      <trkpt lat="46.31061" lon="-0.33997">
        <ele>60.2721</ele>
        <time>2010-12-04T08:37:27Z</time>
      </trkpt>
      <trkpt lat="46.31062" lon="-0.33997">
        <ele>60.2638</ele>
        <time>2010-12-04T08:37:28Z</time>
      </trkpt>
      <trkpt lat="46.31064" lon="-0.33996">
        <ele>60.2551</ele>
        <time>2010-12-04T08:37:29Z</time>
      </trkpt>
      <trkpt lat="46.31065" lon="-0.33996">
        <ele>60.2469</ele>
        <time>2010-12-04T08:37:30Z</time>
      </trkpt>
      <trkpt lat="46.31066" lon="-0.33996">
        <ele>60.2354</ele>
        <time>2010-12-04T08:37:31Z</time>
      </trkpt>
      <trkpt lat="46.31068" lon="-0.33996">
        <ele>60.2223</ele>
        <time>2010-12-04T08:37:32Z</time>
      </trkpt>
      <trkpt lat="46.31069" lon="-0.33995">
        <ele>60.2083</ele>
        <time>2010-12-04T08:37:33Z</time>
      </trkpt>
      <trkpt lat="46.3107" lon="-0.33995">
        <ele>60.1912</ele>
        <time>2010-12-04T08:37:34Z</time>
      </trkpt>
      <trkpt lat="46.31071" lon="-0.33994">
        <ele>60.1747</ele>
        <time>2010-12-04T08:37:35Z</time>
      </trkpt>
      <trkpt lat="46.31072" lon="-0.33994">
        <ele>60.1558</ele>
        <time>2010-12-04T08:37:36Z</time>
      </trkpt>
      <trkpt lat="46.31073" lon="-0.33995">
        <ele>60.1389</ele>
        <time>2010-12-04T08:37:37Z</time>
      </trkpt>
      <trkpt lat="46.31073" lon="-0.33996">
        <ele>60.1225</ele>
        <time>2010-12-04T08:37:38Z</time>
      </trkpt>
      <trkpt lat="46.31074" lon="-0.33997">
        <ele>60.1086</ele>
        <time>2010-12-04T08:37:39Z</time>
      </trkpt>
      <trkpt lat="46.31075" lon="-0.33999">
        <ele>60.0922</ele>
        <time>2010-12-04T08:37:40Z</time>
      </trkpt>
      <trkpt lat="46.31075" lon="-0.34">
        <ele>60.076</ele>
        <time>2010-12-04T08:37:41Z</time>
      </trkpt>
      <trkpt lat="46.31076" lon="-0.34002">
        <ele>60.0562</ele>
        <time>2010-12-04T08:37:42Z</time>
      </trkpt>
      <trkpt lat="46.31076" lon="-0.34004">
        <ele>60.0399</ele>
        <time>2010-12-04T08:37:43Z</time>
      </trkpt>
      <trkpt lat="46.31078" lon="-0.34006">
        <ele>60.0226</ele>
        <time>2010-12-04T08:37:44Z</time>
      </trkpt>
      <trkpt lat="46.31078" lon="-0.34008">
        <ele>60.0047</ele>
        <time>2010-12-04T08:37:45Z</time>
      </trkpt>
      <trkpt lat="46.31079" lon="-0.34009">
        <ele>59.9862</ele>
        <time>2010-12-04T08:37:46Z</time>
      </trkpt>
      <trkpt lat="46.3108" lon="-0.34011">
        <ele>59.969</ele>
        <time>2010-12-04T08:37:47Z</time>
      </trkpt>
      <trkpt lat="46.31081" lon="-0.34013">
        <ele>59.9541</ele>
        <time>2010-12-04T08:37:48Z</time>
      </trkpt>
      <trkpt lat="46.31081" lon="-0.34015">
        <ele>59.9429</ele>
        <time>2010-12-04T08:37:49Z</time>
      </trkpt>
      <trkpt lat="46.31082" lon="-0.34016">
        <ele>59.9343</ele>
        <time>2010-12-04T08:37:50Z</time>
      </trkpt>
      <trkpt lat="46.31083" lon="-0.34018">
        <ele>59.9241</ele>
        <time>2010-12-04T08:37:51Z</time>
      </trkpt>
      <trkpt lat="46.31083" lon="-0.3402">
        <ele>59.913</ele>
        <time>2010-12-04T08:37:52Z</time>
      </trkpt>
      <trkpt lat="46.31084" lon="-0.34022">
        <ele>59.9032</ele>
        <time>2010-12-04T08:37:53Z</time>
      </trkpt>
      <trkpt lat="46.31085" lon="-0.34023">
        <ele>59.8926</ele>
        <time>2010-12-04T08:37:54Z</time>
      </trkpt>
      <trkpt lat="46.31086" lon="-0.34025">
        <ele>59.8841</ele>
        <time>2010-12-04T08:37:55Z</time>
      </trkpt>
      <trkpt lat="46.31086" lon="-0.34026">
        <ele>59.8742</ele>
        <time>2010-12-04T08:37:56Z</time>
      </trkpt>
      <trkpt lat="46.31087" lon="-0.34028">
        <ele>59.8668</ele>
        <time>2010-12-04T08:37:57Z</time>
      </trkpt>
      <trkpt lat="46.31088" lon="-0.3403">
        <ele>59.8579</ele>
        <time>2010-12-04T08:37:58Z</time>
      </trkpt>
      <trkpt lat="46.31088" lon="-0.34031">
        <ele>59.8468</ele>
        <time>2010-12-04T08:37:59Z</time>
      </trkpt>
      <trkpt lat="46.31089" lon="-0.34032">
        <ele>59.8356</ele>
        <time>2010-12-04T08:38:00Z</time>
      </trkpt>
      <trkpt lat="46.3109" lon="-0.34034">
        <ele>59.8213</ele>
        <time>2010-12-04T08:38:01Z</time>
      </trkpt>
      <trkpt lat="46.3109" lon="-0.34035">
        <ele>59.8036</ele>
        <time>2010-12-04T08:38:02Z</time>
      </trkpt>
      <trkpt lat="46.31091" lon="-0.34037">
        <ele>59.7832</ele>
        <time>2010-12-04T08:38:03Z</time>
      </trkpt>
      <trkpt lat="46.31092" lon="-0.34039">
        <ele>59.7575</ele>
        <time>2010-12-04T08:38:04Z</time>
      </trkpt>
      <trkpt lat="46.31093" lon="-0.34041">
        <ele>59.7303</ele>
        <time>2010-12-04T08:38:05Z</time>
      </trkpt>
      <trkpt lat="46.31093" lon="-0.34043">
        <ele>59.7049</ele>
        <time>2010-12-04T08:38:06Z</time>
      </trkpt>
      <trkpt lat="46.31093" lon="-0.34044">
        <ele>59.6797</ele>
        <time>2010-12-04T08:38:07Z</time>
      </trkpt>
      <trkpt lat="46.31094" lon="-0.34046">
        <ele>59.6541</ele>
        <time>2010-12-04T08:38:08Z</time>
      </trkpt>
      <trkpt lat="46.31094" lon="-0.34048">
        <ele>59.6282</ele>
        <time>2010-12-04T08:38:09Z</time>
      </trkpt>
      <trkpt lat="46.31095" lon="-0.34049">
        <ele>59.6041</ele>
        <time>2010-12-04T08:38:10Z</time>
      </trkpt>
      <trkpt lat="46.31096" lon="-0.34051">
        <ele>59.5828</ele>
        <time>2010-12-04T08:38:11Z</time>
      </trkpt>
      <trkpt lat="46.31097" lon="-0.34052">
        <ele>59.5619</ele>
        <time>2010-12-04T08:38:12Z</time>
      </trkpt>
      <trkpt lat="46.31098" lon="-0.34054">
        <ele>59.5455</ele>
        <time>2010-12-04T08:38:13Z</time>
      </trkpt>
      <trkpt lat="46.31099" lon="-0.34056">
        <ele>59.5287</ele>
        <time>2010-12-04T08:38:14Z</time>
      </trkpt>
      <trkpt lat="46.311" lon="-0.34058">
        <ele>59.5047</ele>
        <time>2010-12-04T08:38:15Z</time>
      </trkpt>
      <trkpt lat="46.31101" lon="-0.34059">
        <ele>59.4789</ele>
        <time>2010-12-04T08:38:16Z</time>
      </trkpt>
      <trkpt lat="46.31101" lon="-0.34061">
        <ele>59.4526</ele>
        <time>2010-12-04T08:38:17Z</time>
      </trkpt>
      <trkpt lat="46.31102" lon="-0.34063">
        <ele>59.4118</ele>
        <time>2010-12-04T08:38:18Z</time>
      </trkpt>
      <trkpt lat="46.31103" lon="-0.34065">
        <ele>59.3645</ele>
        <time>2010-12-04T08:38:19Z</time>
      </trkpt>
      <trkpt lat="46.31104" lon="-0.34068">
        <ele>59.3153</ele>
        <time>2010-12-04T08:38:20Z</time>
      </trkpt>
      <trkpt lat="46.31104" lon="-0.3407">
        <ele>59.2572</ele>
        <time>2010-12-04T08:38:21Z</time>
      </trkpt>
      <trkpt lat="46.31104" lon="-0.34072">
        <ele>59.1891</ele>
        <time>2010-12-04T08:38:22Z</time>
      </trkpt>
      <trkpt lat="46.31105" lon="-0.34074">
        <ele>59.1173</ele>
        <time>2010-12-04T08:38:23Z</time>
      </trkpt>
      <trkpt lat="46.31106" lon="-0.34077">
        <ele>59.0428</ele>
        <time>2010-12-04T08:38:24Z</time>
      </trkpt>
      <trkpt lat="46.31107" lon="-0.34078">
        <ele>58.9613</ele>
        <time>2010-12-04T08:38:25Z</time>
      </trkpt>
      <trkpt lat="46.31107" lon="-0.34079">
        <ele>58.8788</ele>
        <time>2010-12-04T08:38:26Z</time>
      </trkpt>
      <trkpt lat="46.31108" lon="-0.3408">
        <ele>58.7973</ele>
        <time>2010-12-04T08:38:27Z</time>
      </trkpt>
      <trkpt lat="46.31109" lon="-0.3408">
        <ele>58.7152</ele>
        <time>2010-12-04T08:38:28Z</time>
      </trkpt>
      <trkpt lat="46.31109" lon="-0.34082">
        <ele>58.6329</ele>
        <time>2010-12-04T08:38:29Z</time>
      </trkpt>
      <trkpt lat="46.3111" lon="-0.34083">
        <ele>58.5522</ele>
        <time>2010-12-04T08:38:30Z</time>
      </trkpt>
      <trkpt lat="46.3111" lon="-0.34085">
        <ele>58.4759</ele>
        <time>2010-12-04T08:38:31Z</time>
      </trkpt>
      <trkpt lat="46.31111" lon="-0.34086">
        <ele>58.4003</ele>
        <time>2010-12-04T08:38:32Z</time>
      </trkpt>
      <trkpt lat="46.31112" lon="-0.34087">
        <ele>58.3231</ele>
        <time>2010-12-04T08:38:33Z</time>
      </trkpt>
      <trkpt lat="46.31113" lon="-0.34089">
        <ele>58.2474</ele>
        <time>2010-12-04T08:38:34Z</time>
      </trkpt>
      <trkpt lat="46.31113" lon="-0.3409">
        <ele>58.1716</ele>
        <time>2010-12-04T08:38:35Z</time>
      </trkpt>
      <trkpt lat="46.31114" lon="-0.34091">
        <ele>58.0944</ele>
        <time>2010-12-04T08:38:36Z</time>
      </trkpt>
      <trkpt lat="46.31115" lon="-0.34093">
        <ele>58.014</ele>
        <time>2010-12-04T08:38:37Z</time>
      </trkpt>
      <trkpt lat="46.31116" lon="-0.34095">
        <ele>57.937</ele>
        <time>2010-12-04T08:38:38Z</time>
      </trkpt>
      <trkpt lat="46.31117" lon="-0.34096">
        <ele>57.8551</ele>
        <time>2010-12-04T08:38:39Z</time>
      </trkpt>
      <trkpt lat="46.31117" lon="-0.34097">
        <ele>57.7666</ele>
        <time>2010-12-04T08:38:40Z</time>
      </trkpt>
      <trkpt lat="46.31118" lon="-0.34098">
        <ele>57.6798</ele>
        <time>2010-12-04T08:38:41Z</time>
      </trkpt>
      <trkpt lat="46.31119" lon="-0.341">
        <ele>57.5941</ele>
        <time>2010-12-04T08:38:42Z</time>
      </trkpt>
      <trkpt lat="46.3112" lon="-0.34101">
        <ele>57.5029</ele>
        <time>2010-12-04T08:38:43Z</time>
      </trkpt>
      <trkpt lat="46.31121" lon="-0.34103">
        <ele>57.4101</ele>
        <time>2010-12-04T08:38:44Z</time>
      </trkpt>
      <trkpt lat="46.31122" lon="-0.34105">
        <ele>57.3105</ele>
        <time>2010-12-04T08:38:45Z</time>
      </trkpt>
      <trkpt lat="46.31123" lon="-0.34107">
        <ele>57.2064</ele>
        <time>2010-12-04T08:38:46Z</time>
      </trkpt>
      <trkpt lat="46.31124" lon="-0.34109">
        <ele>57.1012</ele>
        <time>2010-12-04T08:38:47Z</time>
      </trkpt>
      <trkpt lat="46.31125" lon="-0.34111">
        <ele>56.9884</ele>
        <time>2010-12-04T08:38:48Z</time>
      </trkpt>
      <trkpt lat="46.31125" lon="-0.34113">
        <ele>56.8794</ele>
        <time>2010-12-04T08:38:49Z</time>
      </trkpt>
      <trkpt lat="46.31126" lon="-0.34115">
        <ele>56.7737</ele>
        <time>2010-12-04T08:38:50Z</time>
      </trkpt>
      <trkpt lat="46.31128" lon="-0.34116">
        <ele>56.6731</ele>
        <time>2010-12-04T08:38:51Z</time>
      </trkpt>
      <trkpt lat="46.31129" lon="-0.34118">
        <ele>56.58</ele>
        <time>2010-12-04T08:38:52Z</time>
      </trkpt>
      <trkpt lat="46.31129" lon="-0.3412">
        <ele>56.488</ele>
        <time>2010-12-04T08:38:53Z</time>
      </trkpt>
      <trkpt lat="46.3113" lon="-0.34121">
        <ele>56.4013</ele>
        <time>2010-12-04T08:38:54Z</time>
      </trkpt>
      <trkpt lat="46.3113" lon="-0.34123">
        <ele>56.3209</ele>
        <time>2010-12-04T08:38:55Z</time>
      </trkpt>
      <trkpt lat="46.31131" lon="-0.34124">
        <ele>56.2416</ele>
        <time>2010-12-04T08:38:56Z</time>
      </trkpt>
      <trkpt lat="46.31131" lon="-0.34126">
        <ele>56.1611</ele>
        <time>2010-12-04T08:38:57Z</time>
      </trkpt>
      <trkpt lat="46.31131" lon="-0.34128">
        <ele>56.0802</ele>
        <time>2010-12-04T08:38:58Z</time>
      </trkpt>
      <trkpt lat="46.31132" lon="-0.34129">
        <ele>56.0006</ele>
        <time>2010-12-04T08:38:59Z</time>
      </trkpt>
      <trkpt lat="46.31132" lon="-0.34131">
        <ele>55.9311</ele>
        <time>2010-12-04T08:39:00Z</time>
      </trkpt>
      <trkpt lat="46.31133" lon="-0.34132">
        <ele>55.8667</ele>
        <time>2010-12-04T08:39:01Z</time>
      </trkpt>
      <trkpt lat="46.31133" lon="-0.34134">
        <ele>55.8043</ele>
        <time>2010-12-04T08:39:02Z</time>
      </trkpt>
      <trkpt lat="46.31134" lon="-0.34135">
        <ele>55.7448</ele>
        <time>2010-12-04T08:39:03Z</time>
      </trkpt>
      <trkpt lat="46.31134" lon="-0.34137">
        <ele>55.6877</ele>
        <time>2010-12-04T08:39:04Z</time>
      </trkpt>
      <trkpt lat="46.31135" lon="-0.34138">
        <ele>55.6313</ele>
        <time>2010-12-04T08:39:05Z</time>
      </trkpt>
      <trkpt lat="46.31136" lon="-0.34139">
        <ele>55.5807</ele>
        <time>2010-12-04T08:39:06Z</time>
      </trkpt>
      <trkpt lat="46.31136" lon="-0.34141">
        <ele>55.5304</ele>
        <time>2010-12-04T08:39:07Z</time>
      </trkpt>
      <trkpt lat="46.31137" lon="-0.34142">
        <ele>55.4759</ele>
        <time>2010-12-04T08:39:08Z</time>
      </trkpt>
      <trkpt lat="46.31138" lon="-0.34144">
        <ele>55.4229</ele>
        <time>2010-12-04T08:39:09Z</time>
      </trkpt>
      <trkpt lat="46.31139" lon="-0.34145">
        <ele>55.3713</ele>
        <time>2010-12-04T08:39:10Z</time>
      </trkpt>
      <trkpt lat="46.31139" lon="-0.34147">
        <ele>55.3205</ele>
        <time>2010-12-04T08:39:11Z</time>
      </trkpt>
      <trkpt lat="46.3114" lon="-0.34148">
        <ele>55.2712</ele>
        <time>2010-12-04T08:39:12Z</time>
      </trkpt>
      <trkpt lat="46.31141" lon="-0.3415">
        <ele>55.2237</ele>
        <time>2010-12-04T08:39:13Z</time>
      </trkpt>
      <trkpt lat="46.31141" lon="-0.34151">
        <ele>55.1771</ele>
        <time>2010-12-04T08:39:14Z</time>
      </trkpt>
      <trkpt lat="46.31142" lon="-0.34153">
        <ele>55.1324</ele>
        <time>2010-12-04T08:39:15Z</time>
      </trkpt>
      <trkpt lat="46.31143" lon="-0.34154">
        <ele>55.0922</ele>
        <time>2010-12-04T08:39:16Z</time>
      </trkpt>
      <trkpt lat="46.31144" lon="-0.34155">
        <ele>55.0556</ele>
        <time>2010-12-04T08:39:17Z</time>
      </trkpt>
      <trkpt lat="46.31144" lon="-0.34157">
        <ele>55.0214</ele>
        <time>2010-12-04T08:39:18Z</time>
      </trkpt>
      <trkpt lat="46.31145" lon="-0.34159">
        <ele>54.9861</ele>
        <time>2010-12-04T08:39:19Z</time>
      </trkpt>
      <trkpt lat="46.31146" lon="-0.3416">
        <ele>54.9513</ele>
        <time>2010-12-04T08:39:20Z</time>
      </trkpt>
      <trkpt lat="46.31147" lon="-0.34162">
        <ele>54.9184</ele>
        <time>2010-12-04T08:39:21Z</time>
      </trkpt>
      <trkpt lat="46.31148" lon="-0.34164">
        <ele>54.884</ele>
        <time>2010-12-04T08:39:22Z</time>
      </trkpt>
      <trkpt lat="46.31149" lon="-0.34165">
        <ele>54.8478</ele>
        <time>2010-12-04T08:39:23Z</time>
      </trkpt>
      <trkpt lat="46.3115" lon="-0.34167">
        <ele>54.8128</ele>
        <time>2010-12-04T08:39:24Z</time>
      </trkpt>
      <trkpt lat="46.3115" lon="-0.34168">
        <ele>54.7785</ele>
        <time>2010-12-04T08:39:25Z</time>
      </trkpt>
      <trkpt lat="46.31151" lon="-0.3417">
        <ele>54.745</ele>
        <time>2010-12-04T08:39:26Z</time>
      </trkpt>
      <trkpt lat="46.31152" lon="-0.34172">
        <ele>54.7103</ele>
        <time>2010-12-04T08:39:27Z</time>
      </trkpt>
      <trkpt lat="46.31152" lon="-0.34174">
        <ele>54.68</ele>
        <time>2010-12-04T08:39:28Z</time>
      </trkpt>
      <trkpt lat="46.31154" lon="-0.34176">
        <ele>54.6601</ele>
        <time>2010-12-04T08:39:29Z</time>
      </trkpt>
      <trkpt lat="46.31155" lon="-0.34178">
        <ele>54.6426</ele>
        <time>2010-12-04T08:39:30Z</time>
      </trkpt>
      <trkpt lat="46.31156" lon="-0.3418">
        <ele>54.6329</ele>
        <time>2010-12-04T08:39:31Z</time>
      </trkpt>
      <trkpt lat="46.31157" lon="-0.34181">
        <ele>54.616</ele>
        <time>2010-12-04T08:39:32Z</time>
      </trkpt>
      <trkpt lat="46.31158" lon="-0.34183">
        <ele>54.5987</ele>
        <time>2010-12-04T08:39:33Z</time>
      </trkpt>
      <trkpt lat="46.31159" lon="-0.34185">
        <ele>54.581</ele>
        <time>2010-12-04T08:39:34Z</time>
      </trkpt>
      <trkpt lat="46.3116" lon="-0.34187">
        <ele>54.5641</ele>
        <time>2010-12-04T08:39:35Z</time>
      </trkpt>
      <trkpt lat="46.31161" lon="-0.34188">
        <ele>54.5502</ele>
        <time>2010-12-04T08:39:36Z</time>
      </trkpt>
      <trkpt lat="46.31162" lon="-0.3419">
        <ele>54.5384</ele>
        <time>2010-12-04T08:39:37Z</time>
      </trkpt>
      <trkpt lat="46.31163" lon="-0.34191">
        <ele>54.5266</ele>
        <time>2010-12-04T08:39:38Z</time>
      </trkpt>
      <trkpt lat="46.31163" lon="-0.34192">
        <ele>54.5177</ele>
        <time>2010-12-04T08:39:39Z</time>
      </trkpt>
      <trkpt lat="46.31165" lon="-0.34194">
        <ele>54.5137</ele>
        <time>2010-12-04T08:39:40Z</time>
      </trkpt>
      <trkpt lat="46.31166" lon="-0.34195">
        <ele>54.5145</ele>
        <time>2010-12-04T08:39:41Z</time>
      </trkpt>
      <trkpt lat="46.31167" lon="-0.34196">
        <ele>54.5163</ele>
        <time>2010-12-04T08:39:42Z</time>
      </trkpt>
      <trkpt lat="46.31168" lon="-0.34198">
        <ele>54.5175</ele>
        <time>2010-12-04T08:39:43Z</time>
      </trkpt>
      <trkpt lat="46.31169" lon="-0.34199">
        <ele>54.5161</ele>
        <time>2010-12-04T08:39:44Z</time>
      </trkpt>
      <trkpt lat="46.3117" lon="-0.342">
        <ele>54.5109</ele>
        <time>2010-12-04T08:39:45Z</time>
      </trkpt>
      <trkpt lat="46.31171" lon="-0.34201">
        <ele>54.5108</ele>
        <time>2010-12-04T08:39:46Z</time>
      </trkpt>
      <trkpt lat="46.31172" lon="-0.34203">
        <ele>54.5102</ele>
        <time>2010-12-04T08:39:47Z</time>
      </trkpt>
      <trkpt lat="46.31173" lon="-0.34204">
        <ele>54.5065</ele>
        <time>2010-12-04T08:39:48Z</time>
      </trkpt>
      <trkpt lat="46.31174" lon="-0.34205">
        <ele>54.5027</ele>
        <time>2010-12-04T08:39:49Z</time>
      </trkpt>
      <trkpt lat="46.31175" lon="-0.34206">
        <ele>54.4968</ele>
        <time>2010-12-04T08:39:50Z</time>
      </trkpt>
      <trkpt lat="46.31176" lon="-0.34208">
        <ele>54.4907</ele>
        <time>2010-12-04T08:39:51Z</time>
      </trkpt>
      <trkpt lat="46.31177" lon="-0.34209">
        <ele>54.4891</ele>
        <time>2010-12-04T08:39:52Z</time>
      </trkpt>
      <trkpt lat="46.31178" lon="-0.3421">
        <ele>54.4853</ele>
        <time>2010-12-04T08:39:53Z</time>
      </trkpt>
      <trkpt lat="46.31179" lon="-0.34211">
        <ele>54.4801</ele>
        <time>2010-12-04T08:39:54Z</time>
      </trkpt>
      <trkpt lat="46.3118" lon="-0.34212">
        <ele>54.4738</ele>
        <time>2010-12-04T08:39:55Z</time>
      </trkpt>
      <trkpt lat="46.31181" lon="-0.34214">
        <ele>54.4687</ele>
        <time>2010-12-04T08:39:56Z</time>
      </trkpt>
      <trkpt lat="46.31182" lon="-0.34215">
        <ele>54.4646</ele>
        <time>2010-12-04T08:39:57Z</time>
      </trkpt>
      <trkpt lat="46.31183" lon="-0.34216">
        <ele>54.4629</ele>
        <time>2010-12-04T08:39:58Z</time>
      </trkpt>
      <trkpt lat="46.31184" lon="-0.34217">
        <ele>54.4596</ele>
        <time>2010-12-04T08:39:59Z</time>
      </trkpt>
      <trkpt lat="46.31185" lon="-0.34218">
        <ele>54.4532</ele>
        <time>2010-12-04T08:40:00Z</time>
      </trkpt>
      <trkpt lat="46.31186" lon="-0.34219">
        <ele>54.4464</ele>
        <time>2010-12-04T08:40:01Z</time>
      </trkpt>
      <trkpt lat="46.31187" lon="-0.3422">
        <ele>54.4396</ele>
        <time>2010-12-04T08:40:02Z</time>
      </trkpt>
      <trkpt lat="46.31188" lon="-0.34221">
        <ele>54.4306</ele>
        <time>2010-12-04T08:40:03Z</time>
      </trkpt>
      <trkpt lat="46.31189" lon="-0.34222">
        <ele>54.4214</ele>
        <time>2010-12-04T08:40:04Z</time>
      </trkpt>
      <trkpt lat="46.3119" lon="-0.34223">
        <ele>54.4088</ele>
        <time>2010-12-04T08:40:05Z</time>
      </trkpt>
      <trkpt lat="46.31191" lon="-0.34224">
        <ele>54.3977</ele>
        <time>2010-12-04T08:40:06Z</time>
      </trkpt>
      <trkpt lat="46.31192" lon="-0.34225">
        <ele>54.3851</ele>
        <time>2010-12-04T08:40:07Z</time>
      </trkpt>
      <trkpt lat="46.31194" lon="-0.34227">
        <ele>54.378</ele>
        <time>2010-12-04T08:40:08Z</time>
      </trkpt>
      <trkpt lat="46.31195" lon="-0.34228">
        <ele>54.3754</ele>
        <time>2010-12-04T08:40:09Z</time>
      </trkpt>
      <trkpt lat="46.31197" lon="-0.3423">
        <ele>54.373</ele>
        <time>2010-12-04T08:40:10Z</time>
      </trkpt>
      <trkpt lat="46.31197" lon="-0.34231">
        <ele>54.3699</ele>
        <time>2010-12-04T08:40:11Z</time>
      </trkpt>
      <trkpt lat="46.31199" lon="-0.34232">
        <ele>54.3707</ele>
        <time>2010-12-04T08:40:12Z</time>
      </trkpt>
      <trkpt lat="46.312" lon="-0.34232">
        <ele>54.3748</ele>
        <time>2010-12-04T08:40:13Z</time>
      </trkpt>
      <trkpt lat="46.31201" lon="-0.34233">
        <ele>54.3801</ele>
        <time>2010-12-04T08:40:14Z</time>
      </trkpt>
      <trkpt lat="46.31202" lon="-0.34234">
        <ele>54.3883</ele>
        <time>2010-12-04T08:40:15Z</time>
      </trkpt>
      <trkpt lat="46.31204" lon="-0.34235">
        <ele>54.3888</ele>
        <time>2010-12-04T08:40:16Z</time>
      </trkpt>
      <trkpt lat="46.31205" lon="-0.34236">
        <ele>54.3927</ele>
        <time>2010-12-04T08:40:17Z</time>
      </trkpt>
      <trkpt lat="46.31206" lon="-0.34237">
        <ele>54.3941</ele>
        <time>2010-12-04T08:40:18Z</time>
      </trkpt>
      <trkpt lat="46.31208" lon="-0.34238">
        <ele>54.3986</ele>
        <time>2010-12-04T08:40:19Z</time>
      </trkpt>
      <trkpt lat="46.31209" lon="-0.34239">
        <ele>54.4039</ele>
        <time>2010-12-04T08:40:20Z</time>
      </trkpt>
      <trkpt lat="46.3121" lon="-0.3424">
        <ele>54.4093</ele>
        <time>2010-12-04T08:40:21Z</time>
      </trkpt>
      <trkpt lat="46.31211" lon="-0.34241">
        <ele>54.4128</ele>
        <time>2010-12-04T08:40:22Z</time>
      </trkpt>
      <trkpt lat="46.31212" lon="-0.34241">
        <ele>54.4154</ele>
        <time>2010-12-04T08:40:23Z</time>
      </trkpt>
      <trkpt lat="46.31213" lon="-0.34241">
        <ele>54.4162</ele>
        <time>2010-12-04T08:40:24Z</time>
      </trkpt>
      <trkpt lat="46.31214" lon="-0.34242">
        <ele>54.4155</ele>
        <time>2010-12-04T08:40:25Z</time>
      </trkpt>
      <trkpt lat="46.31215" lon="-0.34242">
        <ele>54.4141</ele>
        <time>2010-12-04T08:40:26Z</time>
      </trkpt>
      <trkpt lat="46.31216" lon="-0.34243">
        <ele>54.4111</ele>
        <time>2010-12-04T08:40:27Z</time>
      </trkpt>
      <trkpt lat="46.31218" lon="-0.34243">
        <ele>54.4053</ele>
        <time>2010-12-04T08:40:28Z</time>
      </trkpt>
      <trkpt lat="46.3122" lon="-0.34244">
        <ele>54.3938</ele>
        <time>2010-12-04T08:40:29Z</time>
      </trkpt>
      <trkpt lat="46.31221" lon="-0.34245">
        <ele>54.376</ele>
        <time>2010-12-04T08:40:30Z</time>
      </trkpt>
      <trkpt lat="46.31223" lon="-0.34245">
        <ele>54.3544</ele>
        <time>2010-12-04T08:40:31Z</time>
      </trkpt>
      <trkpt lat="46.31224" lon="-0.34246">
        <ele>54.3278</ele>
        <time>2010-12-04T08:40:32Z</time>
      </trkpt>
      <trkpt lat="46.31225" lon="-0.34247">
        <ele>54.302</ele>
        <time>2010-12-04T08:40:33Z</time>
      </trkpt>
      <trkpt lat="46.31226" lon="-0.34247">
        <ele>54.2705</ele>
        <time>2010-12-04T08:40:34Z</time>
      </trkpt>
      <trkpt lat="46.31227" lon="-0.34248">
        <ele>54.2367</ele>
        <time>2010-12-04T08:40:35Z</time>
      </trkpt>
      <trkpt lat="46.31228" lon="-0.34248">
        <ele>54.2007</ele>
        <time>2010-12-04T08:40:36Z</time>
      </trkpt>
      <trkpt lat="46.31229" lon="-0.34249">
        <ele>54.1655</ele>
        <time>2010-12-04T08:40:37Z</time>
      </trkpt>
      <trkpt lat="46.31231" lon="-0.34249">
        <ele>54.1315</ele>
        <time>2010-12-04T08:40:38Z</time>
      </trkpt>
      <trkpt lat="46.31232" lon="-0.34249">
        <ele>54.0974</ele>
        <time>2010-12-04T08:40:39Z</time>
      </trkpt>
      <trkpt lat="46.31233" lon="-0.34249">
        <ele>54.0626</ele>
        <time>2010-12-04T08:40:40Z</time>
      </trkpt>
      <trkpt lat="46.31234" lon="-0.34249">
        <ele>53.9849</ele>
        <time>2010-12-04T08:40:43Z</time>
      </trkpt>
      <trkpt lat="46.31236" lon="-0.3425">
        <ele>53.9494</ele>
        <time>2010-12-04T08:40:44Z</time>
      </trkpt>
      <trkpt lat="46.31237" lon="-0.3425">
        <ele>53.9178</ele>
        <time>2010-12-04T08:40:45Z</time>
      </trkpt>
      <trkpt lat="46.31239" lon="-0.3425">
        <ele>53.8845</ele>
        <time>2010-12-04T08:40:46Z</time>
      </trkpt>
      <trkpt lat="46.3124" lon="-0.34251">
        <ele>53.8481</ele>
        <time>2010-12-04T08:40:47Z</time>
      </trkpt>
      <trkpt lat="46.31241" lon="-0.34251">
        <ele>53.8218</ele>
        <time>2010-12-04T08:40:48Z</time>
      </trkpt>
      <trkpt lat="46.31243" lon="-0.34252">
        <ele>53.8045</ele>
        <time>2010-12-04T08:40:49Z</time>
      </trkpt>
      <trkpt lat="46.31244" lon="-0.34253">
        <ele>53.7869</ele>
        <time>2010-12-04T08:40:50Z</time>
      </trkpt>
      <trkpt lat="46.31245" lon="-0.34254">
        <ele>53.7705</ele>
        <time>2010-12-04T08:40:51Z</time>
      </trkpt>
      <trkpt lat="46.31246" lon="-0.34254">
        <ele>53.754</ele>
        <time>2010-12-04T08:40:52Z</time>
      </trkpt>
      <trkpt lat="46.31247" lon="-0.34255">
        <ele>53.7349</ele>
        <time>2010-12-04T08:40:53Z</time>
      </trkpt>
      <trkpt lat="46.31249" lon="-0.34255">
        <ele>53.7115</ele>
        <time>2010-12-04T08:40:54Z</time>
      </trkpt>
      <trkpt lat="46.3125" lon="-0.34256">
        <ele>53.6816</ele>
        <time>2010-12-04T08:40:55Z</time>
      </trkpt>
      <trkpt lat="46.31252" lon="-0.34256">
        <ele>53.6353</ele>
        <time>2010-12-04T08:40:56Z</time>
      </trkpt>
      <trkpt lat="46.31253" lon="-0.34256">
        <ele>53.5896</ele>
        <time>2010-12-04T08:40:57Z</time>
      </trkpt>
      <trkpt lat="46.31254" lon="-0.34257">
        <ele>53.5453</ele>
        <time>2010-12-04T08:40:58Z</time>
      </trkpt>
      <trkpt lat="46.31255" lon="-0.34257">
        <ele>53.5014</ele>
        <time>2010-12-04T08:40:59Z</time>
      </trkpt>
      <trkpt lat="46.31257" lon="-0.34257">
        <ele>53.4648</ele>
        <time>2010-12-04T08:41:00Z</time>
      </trkpt>
      <trkpt lat="46.31258" lon="-0.34257">
        <ele>53.4309</ele>
        <time>2010-12-04T08:41:01Z</time>
      </trkpt>
      <trkpt lat="46.3126" lon="-0.34257">
        <ele>53.3996</ele>
        <time>2010-12-04T08:41:02Z</time>
      </trkpt>
      <trkpt lat="46.31261" lon="-0.34257">
        <ele>53.3742</ele>
        <time>2010-12-04T08:41:03Z</time>
      </trkpt>
      <trkpt lat="46.31263" lon="-0.34257">
        <ele>53.3453</ele>
        <time>2010-12-04T08:41:04Z</time>
      </trkpt>
      <trkpt lat="46.31265" lon="-0.34257">
        <ele>53.3167</ele>
        <time>2010-12-04T08:41:05Z</time>
      </trkpt>
      <trkpt lat="46.31267" lon="-0.34257">
        <ele>53.284</ele>
        <time>2010-12-04T08:41:06Z</time>
      </trkpt>
      <trkpt lat="46.31268" lon="-0.34256">
        <ele>53.2504</ele>
        <time>2010-12-04T08:41:07Z</time>
      </trkpt>
      <trkpt lat="46.3127" lon="-0.34256">
        <ele>53.2167</ele>
        <time>2010-12-04T08:41:08Z</time>
      </trkpt>
      <trkpt lat="46.31271" lon="-0.34256">
        <ele>53.1821</ele>
        <time>2010-12-04T08:41:09Z</time>
      </trkpt>
      <trkpt lat="46.31273" lon="-0.34256">
        <ele>53.1537</ele>
        <time>2010-12-04T08:41:10Z</time>
      </trkpt>
      <trkpt lat="46.31274" lon="-0.34256">
        <ele>53.1334</ele>
        <time>2010-12-04T08:41:11Z</time>
      </trkpt>
      <trkpt lat="46.31276" lon="-0.34256">
        <ele>53.1202</ele>
        <time>2010-12-04T08:41:12Z</time>
      </trkpt>
      <trkpt lat="46.31278" lon="-0.34256">
        <ele>53.1075</ele>
        <time>2010-12-04T08:41:13Z</time>
      </trkpt>
      <trkpt lat="46.31279" lon="-0.34256">
        <ele>53.1039</ele>
        <time>2010-12-04T08:41:14Z</time>
      </trkpt>
      <trkpt lat="46.31281" lon="-0.34256">
        <ele>53.1003</ele>
        <time>2010-12-04T08:41:15Z</time>
      </trkpt>
      <trkpt lat="46.31282" lon="-0.34256">
        <ele>53.0942</ele>
        <time>2010-12-04T08:41:16Z</time>
      </trkpt>
      <trkpt lat="46.31283" lon="-0.34255">
        <ele>53.088</ele>
        <time>2010-12-04T08:41:17Z</time>
      </trkpt>
      <trkpt lat="46.31284" lon="-0.34255">
        <ele>53.0791</ele>
        <time>2010-12-04T08:41:18Z</time>
      </trkpt>
      <trkpt lat="46.31286" lon="-0.34254">
        <ele>53.0646</ele>
        <time>2010-12-04T08:41:19Z</time>
      </trkpt>
      <trkpt lat="46.31287" lon="-0.34253">
        <ele>53.0511</ele>
        <time>2010-12-04T08:41:20Z</time>
      </trkpt>
      <trkpt lat="46.31288" lon="-0.34253">
        <ele>53.0392</ele>
        <time>2010-12-04T08:41:21Z</time>
      </trkpt>
      <trkpt lat="46.31289" lon="-0.34252">
        <ele>53.0272</ele>
        <time>2010-12-04T08:41:22Z</time>
      </trkpt>
      <trkpt lat="46.3129" lon="-0.34251">
        <ele>53.0136</ele>
        <time>2010-12-04T08:41:23Z</time>
      </trkpt>
      <trkpt lat="46.3129" lon="-0.34251">
        <ele>52.9976</ele>
        <time>2010-12-04T08:41:24Z</time>
      </trkpt>
      <trkpt lat="46.31292" lon="-0.3425">
        <ele>52.9816</ele>
        <time>2010-12-04T08:41:25Z</time>
      </trkpt>
      <trkpt lat="46.31292" lon="-0.34249">
        <ele>52.9605</ele>
        <time>2010-12-04T08:41:26Z</time>
      </trkpt>
      <trkpt lat="46.31294" lon="-0.34249">
        <ele>52.9305</ele>
        <time>2010-12-04T08:41:27Z</time>
      </trkpt>
      <trkpt lat="46.31295" lon="-0.34248">
        <ele>52.8903</ele>
        <time>2010-12-04T08:41:28Z</time>
      </trkpt>
      <trkpt lat="46.31297" lon="-0.34247">
        <ele>52.8533</ele>
        <time>2010-12-04T08:41:29Z</time>
      </trkpt>
      <trkpt lat="46.31298" lon="-0.34247">
        <ele>52.8225</ele>
        <time>2010-12-04T08:41:30Z</time>
      </trkpt>
      <trkpt lat="46.313" lon="-0.34246">
        <ele>52.7793</ele>
        <time>2010-12-04T08:41:31Z</time>
      </trkpt>
      <trkpt lat="46.31302" lon="-0.34246">
        <ele>52.7309</ele>
        <time>2010-12-04T08:41:32Z</time>
      </trkpt>
      <trkpt lat="46.31303" lon="-0.34246">
        <ele>52.6916</ele>
        <time>2010-12-04T08:41:33Z</time>
      </trkpt>
      <trkpt lat="46.31305" lon="-0.34245">
        <ele>52.6572</ele>
        <time>2010-12-04T08:41:34Z</time>
      </trkpt>
      <trkpt lat="46.31307" lon="-0.34244">
        <ele>52.6231</ele>
        <time>2010-12-04T08:41:35Z</time>
      </trkpt>
      <trkpt lat="46.31308" lon="-0.34244">
        <ele>52.5872</ele>
        <time>2010-12-04T08:41:36Z</time>
      </trkpt>
      <trkpt lat="46.3131" lon="-0.34243">
        <ele>52.5528</ele>
        <time>2010-12-04T08:41:37Z</time>
      </trkpt>
      <trkpt lat="46.31311" lon="-0.34242">
        <ele>52.5201</ele>
        <time>2010-12-04T08:41:38Z</time>
      </trkpt>
      <trkpt lat="46.31312" lon="-0.34241">
        <ele>52.4908</ele>
        <time>2010-12-04T08:41:39Z</time>
      </trkpt>
      <trkpt lat="46.31314" lon="-0.3424">
        <ele>52.4608</ele>
        <time>2010-12-04T08:41:40Z</time>
      </trkpt>
      <trkpt lat="46.31315" lon="-0.34239">
        <ele>52.4316</ele>
        <time>2010-12-04T08:41:41Z</time>
      </trkpt>
      <trkpt lat="46.31316" lon="-0.34239">
        <ele>52.4023</ele>
        <time>2010-12-04T08:41:42Z</time>
      </trkpt>
      <trkpt lat="46.31317" lon="-0.34238">
        <ele>52.3762</ele>
        <time>2010-12-04T08:41:43Z</time>
      </trkpt>
      <trkpt lat="46.31318" lon="-0.34237">
        <ele>52.3539</ele>
        <time>2010-12-04T08:41:44Z</time>
      </trkpt>
      <trkpt lat="46.31319" lon="-0.34236">
        <ele>52.3321</ele>
        <time>2010-12-04T08:41:45Z</time>
      </trkpt>
      <trkpt lat="46.31321" lon="-0.34235">
        <ele>52.3118</ele>
        <time>2010-12-04T08:41:46Z</time>
      </trkpt>
      <trkpt lat="46.31322" lon="-0.34235">
        <ele>52.2924</ele>
        <time>2010-12-04T08:41:47Z</time>
      </trkpt>
      <trkpt lat="46.31324" lon="-0.34234">
        <ele>52.2738</ele>
        <time>2010-12-04T08:41:48Z</time>
      </trkpt>
      <trkpt lat="46.31325" lon="-0.34234">
        <ele>52.2575</ele>
        <time>2010-12-04T08:41:49Z</time>
      </trkpt>
      <trkpt lat="46.31327" lon="-0.34232">
        <ele>52.2432</ele>
        <time>2010-12-04T08:41:50Z</time>
      </trkpt>
      <trkpt lat="46.31328" lon="-0.34231">
        <ele>52.2302</ele>
        <time>2010-12-04T08:41:51Z</time>
      </trkpt>
      <trkpt lat="46.31329" lon="-0.3423">
        <ele>52.221</ele>
        <time>2010-12-04T08:41:52Z</time>
      </trkpt>
      <trkpt lat="46.31331" lon="-0.3423">
        <ele>52.214</ele>
        <time>2010-12-04T08:41:53Z</time>
      </trkpt>
      <trkpt lat="46.31332" lon="-0.34229">
        <ele>52.2052</ele>
        <time>2010-12-04T08:41:54Z</time>
      </trkpt>
      <trkpt lat="46.31334" lon="-0.34228">
        <ele>52.1975</ele>
        <time>2010-12-04T08:41:55Z</time>
      </trkpt>
      <trkpt lat="46.31335" lon="-0.34227">
        <ele>52.1889</ele>
        <time>2010-12-04T08:41:56Z</time>
      </trkpt>
      <trkpt lat="46.31337" lon="-0.34227">
        <ele>52.1787</ele>
        <time>2010-12-04T08:41:57Z</time>
      </trkpt>
      <trkpt lat="46.31338" lon="-0.34226">
        <ele>52.1667</ele>
        <time>2010-12-04T08:41:58Z</time>
      </trkpt>
      <trkpt lat="46.31339" lon="-0.34225">
        <ele>52.1557</ele>
        <time>2010-12-04T08:41:59Z</time>
      </trkpt>
      <trkpt lat="46.3134" lon="-0.34225">
        <ele>52.1399</ele>
        <time>2010-12-04T08:42:00Z</time>
      </trkpt>
      <trkpt lat="46.31342" lon="-0.34224">
        <ele>52.1212</ele>
        <time>2010-12-04T08:42:01Z</time>
      </trkpt>
      <trkpt lat="46.31343" lon="-0.34223">
        <ele>52.1011</ele>
        <time>2010-12-04T08:42:02Z</time>
      </trkpt>
      <trkpt lat="46.31344" lon="-0.34222">
        <ele>52.0801</ele>
        <time>2010-12-04T08:42:03Z</time>
      </trkpt>
      <trkpt lat="46.31345" lon="-0.34221">
        <ele>52.0602</ele>
        <time>2010-12-04T08:42:04Z</time>
      </trkpt>
      <trkpt lat="46.31345" lon="-0.34219">
        <ele>52.042</ele>
        <time>2010-12-04T08:42:05Z</time>
      </trkpt>
      <trkpt lat="46.31346" lon="-0.34217">
        <ele>52.026</ele>
        <time>2010-12-04T08:42:06Z</time>
      </trkpt>
      <trkpt lat="46.31347" lon="-0.34217">
        <ele>52.0143</ele>
        <time>2010-12-04T08:42:07Z</time>
      </trkpt>
      <trkpt lat="46.31349" lon="-0.34216">
        <ele>52.0061</ele>
        <time>2010-12-04T08:42:08Z</time>
      </trkpt>
      <trkpt lat="46.3135" lon="-0.34216">
        <ele>51.9997</ele>
        <time>2010-12-04T08:42:09Z</time>
      </trkpt>
      <trkpt lat="46.31352" lon="-0.34215">
        <ele>51.9927</ele>
        <time>2010-12-04T08:42:10Z</time>
      </trkpt>
      <trkpt lat="46.31353" lon="-0.34214">
        <ele>51.9865</ele>
        <time>2010-12-04T08:42:11Z</time>
      </trkpt>
      <trkpt lat="46.31353" lon="-0.34214">
        <ele>51.9814</ele>
        <time>2010-12-04T08:42:12Z</time>
      </trkpt>
      <trkpt lat="46.31355" lon="-0.34213">
        <ele>51.9764</ele>
        <time>2010-12-04T08:42:13Z</time>
      </trkpt>
      <trkpt lat="46.31356" lon="-0.34211">
        <ele>51.9732</ele>
        <time>2010-12-04T08:42:14Z</time>
      </trkpt>
      <trkpt lat="46.31357" lon="-0.3421">
        <ele>51.9707</ele>
        <time>2010-12-04T08:42:15Z</time>
      </trkpt>
      <trkpt lat="46.31358" lon="-0.34208">
        <ele>51.9661</ele>
        <time>2010-12-04T08:42:16Z</time>
      </trkpt>
      <trkpt lat="46.31359" lon="-0.34207">
        <ele>51.9609</ele>
        <time>2010-12-04T08:42:17Z</time>
      </trkpt>
      <trkpt lat="46.3136" lon="-0.34206">
        <ele>51.9559</ele>
        <time>2010-12-04T08:42:18Z</time>
      </trkpt>
      <trkpt lat="46.31361" lon="-0.34205">
        <ele>51.9496</ele>
        <time>2010-12-04T08:42:19Z</time>
      </trkpt>
      <trkpt lat="46.31362" lon="-0.34204">
        <ele>51.9413</ele>
        <time>2010-12-04T08:42:20Z</time>
      </trkpt>
      <trkpt lat="46.31363" lon="-0.34202">
        <ele>51.9296</ele>
        <time>2010-12-04T08:42:21Z</time>
      </trkpt>
      <trkpt lat="46.31364" lon="-0.34201">
        <ele>51.9193</ele>
        <time>2010-12-04T08:42:22Z</time>
      </trkpt>
      <trkpt lat="46.31365" lon="-0.342">
        <ele>51.9135</ele>
        <time>2010-12-04T08:42:23Z</time>
      </trkpt>
      <trkpt lat="46.31366" lon="-0.34199">
        <ele>51.9084</ele>
        <time>2010-12-04T08:42:24Z</time>
      </trkpt>
      <trkpt lat="46.31367" lon="-0.34199">
        <ele>51.9074</ele>
        <time>2010-12-04T08:42:25Z</time>
      </trkpt>
      <trkpt lat="46.31368" lon="-0.34197">
        <ele>51.9089</ele>
        <time>2010-12-04T08:42:26Z</time>
      </trkpt>
      <trkpt lat="46.31369" lon="-0.34196">
        <ele>51.9098</ele>
        <time>2010-12-04T08:42:27Z</time>
      </trkpt>
      <trkpt lat="46.3137" lon="-0.34195">
        <ele>51.9092</ele>
        <time>2010-12-04T08:42:28Z</time>
      </trkpt>
      <trkpt lat="46.31371" lon="-0.34193">
        <ele>51.9046</ele>
        <time>2010-12-04T08:42:29Z</time>
      </trkpt>
      <trkpt lat="46.31372" lon="-0.34192">
        <ele>51.8923</ele>
        <time>2010-12-04T08:42:30Z</time>
      </trkpt>
      <trkpt lat="46.31373" lon="-0.34191">
        <ele>51.8833</ele>
        <time>2010-12-04T08:42:31Z</time>
      </trkpt>
      <trkpt lat="46.31374" lon="-0.34191">
        <ele>51.8741</ele>
        <time>2010-12-04T08:42:32Z</time>
      </trkpt>
      <trkpt lat="46.31376" lon="-0.3419">
        <ele>51.8634</ele>
        <time>2010-12-04T08:42:33Z</time>
      </trkpt>
      <trkpt lat="46.31377" lon="-0.34189">
        <ele>51.8505</ele>
        <time>2010-12-04T08:42:34Z</time>
      </trkpt>
      <trkpt lat="46.31378" lon="-0.34188">
        <ele>51.8374</ele>
        <time>2010-12-04T08:42:35Z</time>
      </trkpt>
      <trkpt lat="46.31379" lon="-0.34187">
        <ele>51.8232</ele>
        <time>2010-12-04T08:42:36Z</time>
      </trkpt>
      <trkpt lat="46.31381" lon="-0.34186">
        <ele>51.8052</ele>
        <time>2010-12-04T08:42:37Z</time>
      </trkpt>
      <trkpt lat="46.31382" lon="-0.34185">
        <ele>51.7867</ele>
        <time>2010-12-04T08:42:38Z</time>
      </trkpt>
      <trkpt lat="46.31383" lon="-0.34184">
        <ele>51.7719</ele>
        <time>2010-12-04T08:42:39Z</time>
      </trkpt>
      <trkpt lat="46.31384" lon="-0.34183">
        <ele>51.7587</ele>
        <time>2010-12-04T08:42:40Z</time>
      </trkpt>
      <trkpt lat="46.31385" lon="-0.34182">
        <ele>51.7473</ele>
        <time>2010-12-04T08:42:41Z</time>
      </trkpt>
      <trkpt lat="46.31387" lon="-0.34182">
        <ele>51.7373</ele>
        <time>2010-12-04T08:42:42Z</time>
      </trkpt>
      <trkpt lat="46.31388" lon="-0.34181">
        <ele>51.722</ele>
        <time>2010-12-04T08:42:43Z</time>
      </trkpt>
      <trkpt lat="46.31389" lon="-0.34181">
        <ele>51.7062</ele>
        <time>2010-12-04T08:42:44Z</time>
      </trkpt>
      <trkpt lat="46.3139" lon="-0.3418">
        <ele>51.6921</ele>
        <time>2010-12-04T08:42:45Z</time>
      </trkpt>
      <trkpt lat="46.31391" lon="-0.3418">
        <ele>51.6776</ele>
        <time>2010-12-04T08:42:46Z</time>
      </trkpt>
      <trkpt lat="46.31393" lon="-0.3418">
        <ele>51.6685</ele>
        <time>2010-12-04T08:42:47Z</time>
      </trkpt>
      <trkpt lat="46.31393" lon="-0.3418">
        <ele>51.6576</ele>
        <time>2010-12-04T08:42:48Z</time>
      </trkpt>
      <trkpt lat="46.31395" lon="-0.3418">
        <ele>51.6475</ele>
        <time>2010-12-04T08:42:49Z</time>
      </trkpt>
      <trkpt lat="46.31395" lon="-0.3418">
        <ele>51.6369</ele>
        <time>2010-12-04T08:42:50Z</time>
      </trkpt>
      <trkpt lat="46.31397" lon="-0.34179">
        <ele>51.625</ele>
        <time>2010-12-04T08:42:51Z</time>
      </trkpt>
      <trkpt lat="46.31398" lon="-0.34179">
        <ele>51.6046</ele>
        <time>2010-12-04T08:42:52Z</time>
      </trkpt>
      <trkpt lat="46.31399" lon="-0.34179">
        <ele>51.5811</ele>
        <time>2010-12-04T08:42:53Z</time>
      </trkpt>
      <trkpt lat="46.31401" lon="-0.34179">
        <ele>51.5717</ele>
        <time>2010-12-04T08:42:54Z</time>
      </trkpt>
      <trkpt lat="46.31402" lon="-0.34179">
        <ele>51.5786</ele>
        <time>2010-12-04T08:42:55Z</time>
      </trkpt>
      <trkpt lat="46.31404" lon="-0.3418">
        <ele>51.585</ele>
        <time>2010-12-04T08:42:56Z</time>
      </trkpt>
      <trkpt lat="46.31406" lon="-0.3418">
        <ele>51.5913</ele>
        <time>2010-12-04T08:42:57Z</time>
      </trkpt>
      <trkpt lat="46.31407" lon="-0.34181">
        <ele>51.5986</ele>
        <time>2010-12-04T08:42:58Z</time>
      </trkpt>
      <trkpt lat="46.31408" lon="-0.34181">
        <ele>51.6051</ele>
        <time>2010-12-04T08:42:59Z</time>
      </trkpt>
      <trkpt lat="46.3141" lon="-0.34181">
        <ele>51.6155</ele>
        <time>2010-12-04T08:43:00Z</time>
      </trkpt>
      <trkpt lat="46.31411" lon="-0.34182">
        <ele>51.6298</ele>
        <time>2010-12-04T08:43:01Z</time>
      </trkpt>
      <trkpt lat="46.31412" lon="-0.34182">
        <ele>51.6417</ele>
        <time>2010-12-04T08:43:02Z</time>
      </trkpt>
      <trkpt lat="46.31413" lon="-0.34183">
        <ele>51.6529</ele>
        <time>2010-12-04T08:43:03Z</time>
      </trkpt>
      <trkpt lat="46.31414" lon="-0.34184">
        <ele>51.672</ele>
        <time>2010-12-04T08:43:04Z</time>
      </trkpt>
      <trkpt lat="46.31416" lon="-0.34185">
        <ele>51.7024</ele>
        <time>2010-12-04T08:43:05Z</time>
      </trkpt>
      <trkpt lat="46.31418" lon="-0.34186">
        <ele>51.7424</ele>
        <time>2010-12-04T08:43:06Z</time>
      </trkpt>
      <trkpt lat="46.31419" lon="-0.34188">
        <ele>51.7812</ele>
        <time>2010-12-04T08:43:07Z</time>
      </trkpt>
      <trkpt lat="46.31421" lon="-0.34189">
        <ele>51.8192</ele>
        <time>2010-12-04T08:43:08Z</time>
      </trkpt>
      <trkpt lat="46.31422" lon="-0.34191">
        <ele>51.8675</ele>
        <time>2010-12-04T08:43:09Z</time>
      </trkpt>
      <trkpt lat="46.31424" lon="-0.34193">
        <ele>51.925</ele>
        <time>2010-12-04T08:43:10Z</time>
      </trkpt>
      <trkpt lat="46.31425" lon="-0.34195">
        <ele>51.9691</ele>
        <time>2010-12-04T08:43:11Z</time>
      </trkpt>
      <trkpt lat="46.31427" lon="-0.34196">
        <ele>52.011</ele>
        <time>2010-12-04T08:43:12Z</time>
      </trkpt>
      <trkpt lat="46.31428" lon="-0.34197">
        <ele>52.0487</ele>
        <time>2010-12-04T08:43:13Z</time>
      </trkpt>
      <trkpt lat="46.3143" lon="-0.34197">
        <ele>52.0714</ele>
        <time>2010-12-04T08:43:14Z</time>
      </trkpt>
      <trkpt lat="46.31431" lon="-0.34198">
        <ele>52.0816</ele>
        <time>2010-12-04T08:43:15Z</time>
      </trkpt>
      <trkpt lat="46.31432" lon="-0.34199">
        <ele>52.0931</ele>
        <time>2010-12-04T08:43:16Z</time>
      </trkpt>
      <trkpt lat="46.31434" lon="-0.342">
        <ele>52.0975</ele>
        <time>2010-12-04T08:43:17Z</time>
      </trkpt>
      <trkpt lat="46.31435" lon="-0.34201">
        <ele>52.091</ele>
        <time>2010-12-04T08:43:18Z</time>
      </trkpt>
      <trkpt lat="46.31436" lon="-0.34202">
        <ele>52.0833</ele>
        <time>2010-12-04T08:43:19Z</time>
      </trkpt>
      <trkpt lat="46.31437" lon="-0.34202">
        <ele>52.0773</ele>
        <time>2010-12-04T08:43:20Z</time>
      </trkpt>
      <trkpt lat="46.31438" lon="-0.34203">
        <ele>52.0685</ele>
        <time>2010-12-04T08:43:21Z</time>
      </trkpt>
      <trkpt lat="46.31438" lon="-0.34203">
        <ele>52.0612</ele>
        <time>2010-12-04T08:43:22Z</time>
      </trkpt>
      <trkpt lat="46.3144" lon="-0.34204">
        <ele>52.0402</ele>
        <time>2010-12-04T08:43:23Z</time>
      </trkpt>
      <trkpt lat="46.31441" lon="-0.34205">
        <ele>52.0335</ele>
        <time>2010-12-04T08:43:24Z</time>
      </trkpt>
      <trkpt lat="46.31442" lon="-0.34205">
        <ele>52.0301</ele>
        <time>2010-12-04T08:43:25Z</time>
      </trkpt>
      <trkpt lat="46.31444" lon="-0.34206">
        <ele>52.023</ele>
        <time>2010-12-04T08:43:26Z</time>
      </trkpt>
      <trkpt lat="46.31445" lon="-0.34207">
        <ele>52.0191</ele>
        <time>2010-12-04T08:43:27Z</time>
      </trkpt>
      <trkpt lat="46.31447" lon="-0.34207">
        <ele>51.9928</ele>
        <time>2010-12-04T08:43:28Z</time>
      </trkpt>
      <trkpt lat="46.31448" lon="-0.34208">
        <ele>51.9706</ele>
        <time>2010-12-04T08:43:29Z</time>
      </trkpt>
      <trkpt lat="46.3145" lon="-0.34208">
        <ele>51.9319</ele>
        <time>2010-12-04T08:43:30Z</time>
      </trkpt>
      <trkpt lat="46.31451" lon="-0.34209">
        <ele>51.8945</ele>
        <time>2010-12-04T08:43:31Z</time>
      </trkpt>
      <trkpt lat="46.31453" lon="-0.3421">
        <ele>51.8762</ele>
        <time>2010-12-04T08:43:32Z</time>
      </trkpt>
      <trkpt lat="46.31455" lon="-0.34211">
        <ele>51.8709</ele>
        <time>2010-12-04T08:43:33Z</time>
      </trkpt>
      <trkpt lat="46.31456" lon="-0.34213">
        <ele>51.8751</ele>
        <time>2010-12-04T08:43:34Z</time>
      </trkpt>
      <trkpt lat="46.31458" lon="-0.34214">
        <ele>51.8763</ele>
        <time>2010-12-04T08:43:35Z</time>
      </trkpt>
      <trkpt lat="46.31459" lon="-0.34216">
        <ele>51.8818</ele>
        <time>2010-12-04T08:43:36Z</time>
      </trkpt>
      <trkpt lat="46.3146" lon="-0.34218">
        <ele>51.8797</ele>
        <time>2010-12-04T08:43:37Z</time>
      </trkpt>
      <trkpt lat="46.31461" lon="-0.3422">
        <ele>51.8684</ele>
        <time>2010-12-04T08:43:38Z</time>
      </trkpt>
      <trkpt lat="46.31463" lon="-0.34221">
        <ele>51.8551</ele>
        <time>2010-12-04T08:43:39Z</time>
      </trkpt>
      <trkpt lat="46.31464" lon="-0.34223">
        <ele>51.8383</ele>
        <time>2010-12-04T08:43:40Z</time>
      </trkpt>
      <trkpt lat="46.31465" lon="-0.34224">
        <ele>51.8211</ele>
        <time>2010-12-04T08:43:41Z</time>
      </trkpt>
      <trkpt lat="46.31466" lon="-0.34225">
        <ele>51.8023</ele>
        <time>2010-12-04T08:43:42Z</time>
      </trkpt>
      <trkpt lat="46.31467" lon="-0.34226">
        <ele>51.784</ele>
        <time>2010-12-04T08:43:43Z</time>
      </trkpt>
      <trkpt lat="46.31467" lon="-0.34227">
        <ele>51.7603</ele>
        <time>2010-12-04T08:43:44Z</time>
      </trkpt>
      <trkpt lat="46.31469" lon="-0.34228">
        <ele>51.7355</ele>
        <time>2010-12-04T08:43:45Z</time>
      </trkpt>
      <trkpt lat="46.31469" lon="-0.34229">
        <ele>51.7128</ele>
        <time>2010-12-04T08:43:46Z</time>
      </trkpt>
      <trkpt lat="46.3147" lon="-0.34231">
        <ele>51.6904</ele>
        <time>2010-12-04T08:43:47Z</time>
      </trkpt>
      <trkpt lat="46.31471" lon="-0.34232">
        <ele>51.6678</ele>
        <time>2010-12-04T08:43:48Z</time>
      </trkpt>
      <trkpt lat="46.31472" lon="-0.34233">
        <ele>51.651</ele>
        <time>2010-12-04T08:43:49Z</time>
      </trkpt>
      <trkpt lat="46.31473" lon="-0.34234">
        <ele>51.652</ele>
        <time>2010-12-04T08:43:50Z</time>
      </trkpt>
      <trkpt lat="46.31474" lon="-0.34236">
        <ele>51.6637</ele>
        <time>2010-12-04T08:43:51Z</time>
      </trkpt>
      <trkpt lat="46.31475" lon="-0.34237">
        <ele>51.6746</ele>
        <time>2010-12-04T08:43:52Z</time>
      </trkpt>
      <trkpt lat="46.31476" lon="-0.34238">
        <ele>51.686</ele>
        <time>2010-12-04T08:43:53Z</time>
      </trkpt>
      <trkpt lat="46.31477" lon="-0.34239">
        <ele>51.6946</ele>
        <time>2010-12-04T08:43:54Z</time>
      </trkpt>
      <trkpt lat="46.31478" lon="-0.34241">
        <ele>51.7017</ele>
        <time>2010-12-04T08:43:55Z</time>
      </trkpt>
      <trkpt lat="46.31479" lon="-0.34242">
        <ele>51.7047</ele>
        <time>2010-12-04T08:43:56Z</time>
      </trkpt>
      <trkpt lat="46.3148" lon="-0.34243">
        <ele>51.7128</ele>
        <time>2010-12-04T08:43:57Z</time>
      </trkpt>
      <trkpt lat="46.31481" lon="-0.34245">
        <ele>51.7278</ele>
        <time>2010-12-04T08:43:58Z</time>
      </trkpt>
      <trkpt lat="46.31482" lon="-0.34246">
        <ele>51.7434</ele>
        <time>2010-12-04T08:43:59Z</time>
      </trkpt>
      <trkpt lat="46.31483" lon="-0.34247">
        <ele>51.7664</ele>
        <time>2010-12-04T08:44:00Z</time>
      </trkpt>
      <trkpt lat="46.31484" lon="-0.34249">
        <ele>51.7874</ele>
        <time>2010-12-04T08:44:01Z</time>
      </trkpt>
      <trkpt lat="46.31485" lon="-0.3425">
        <ele>51.806</ele>
        <time>2010-12-04T08:44:02Z</time>
      </trkpt>
      <trkpt lat="46.31486" lon="-0.34251">
        <ele>51.8222</ele>
        <time>2010-12-04T08:44:03Z</time>
      </trkpt>
      <trkpt lat="46.31487" lon="-0.34252">
        <ele>51.8403</ele>
        <time>2010-12-04T08:44:04Z</time>
      </trkpt>
      <trkpt lat="46.31488" lon="-0.34254">
        <ele>51.8628</ele>
        <time>2010-12-04T08:44:05Z</time>
      </trkpt>
      <trkpt lat="46.31489" lon="-0.34255">
        <ele>51.8845</ele>
        <time>2010-12-04T08:44:06Z</time>
      </trkpt>
      <trkpt lat="46.3149" lon="-0.34257">
        <ele>51.905</ele>
        <time>2010-12-04T08:44:07Z</time>
      </trkpt>
      <trkpt lat="46.31491" lon="-0.34258">
        <ele>51.9209</ele>
        <time>2010-12-04T08:44:08Z</time>
      </trkpt>
      <trkpt lat="46.31492" lon="-0.34259">
        <ele>51.9361</ele>
        <time>2010-12-04T08:44:09Z</time>
      </trkpt>
      <trkpt lat="46.31493" lon="-0.3426">
        <ele>51.9532</ele>
        <time>2010-12-04T08:44:10Z</time>
      </trkpt>
      <trkpt lat="46.31494" lon="-0.34261">
        <ele>51.969</ele>
        <time>2010-12-04T08:44:11Z</time>
      </trkpt>
      <trkpt lat="46.31495" lon="-0.34263">
        <ele>51.9898</ele>
        <time>2010-12-04T08:44:12Z</time>
      </trkpt>
      <trkpt lat="46.31496" lon="-0.34264">
        <ele>52.0214</ele>
        <time>2010-12-04T08:44:13Z</time>
      </trkpt>
      <trkpt lat="46.31498" lon="-0.34265">
        <ele>52.0599</ele>
        <time>2010-12-04T08:44:14Z</time>
      </trkpt>
      <trkpt lat="46.315" lon="-0.34267">
        <ele>52.0992</ele>
        <time>2010-12-04T08:44:15Z</time>
      </trkpt>
      <trkpt lat="46.31501" lon="-0.34268">
        <ele>52.1376</ele>
        <time>2010-12-04T08:44:16Z</time>
      </trkpt>
      <trkpt lat="46.31503" lon="-0.34269">
        <ele>52.1775</ele>
        <time>2010-12-04T08:44:17Z</time>
      </trkpt>
      <trkpt lat="46.31504" lon="-0.3427">
        <ele>52.2128</ele>
        <time>2010-12-04T08:44:18Z</time>
      </trkpt>
      <trkpt lat="46.31506" lon="-0.3427">
        <ele>52.2476</ele>
        <time>2010-12-04T08:44:19Z</time>
      </trkpt>
      <trkpt lat="46.31507" lon="-0.34271">
        <ele>52.2794</ele>
        <time>2010-12-04T08:44:20Z</time>
      </trkpt>
      <trkpt lat="46.31508" lon="-0.34271">
        <ele>52.307</ele>
        <time>2010-12-04T08:44:21Z</time>
      </trkpt>
      <trkpt lat="46.3151" lon="-0.34271">
        <ele>52.3326</ele>
        <time>2010-12-04T08:44:22Z</time>
      </trkpt>
      <trkpt lat="46.31511" lon="-0.34271">
        <ele>52.3528</ele>
        <time>2010-12-04T08:44:23Z</time>
      </trkpt>
      <trkpt lat="46.31513" lon="-0.3427">
        <ele>52.3638</ele>
        <time>2010-12-04T08:44:24Z</time>
      </trkpt>
      <trkpt lat="46.31514" lon="-0.3427">
        <ele>52.3714</ele>
        <time>2010-12-04T08:44:25Z</time>
      </trkpt>
      <trkpt lat="46.31515" lon="-0.34269">
        <ele>52.3815</ele>
        <time>2010-12-04T08:44:26Z</time>
      </trkpt>
      <trkpt lat="46.31516" lon="-0.34268">
        <ele>52.3939</ele>
        <time>2010-12-04T08:44:27Z</time>
      </trkpt>
      <trkpt lat="46.31517" lon="-0.34267">
        <ele>52.4082</ele>
        <time>2010-12-04T08:44:28Z</time>
      </trkpt>
      <trkpt lat="46.31519" lon="-0.34266">
        <ele>52.4192</ele>
        <time>2010-12-04T08:44:29Z</time>
      </trkpt>
      <trkpt lat="46.3152" lon="-0.34266">
        <ele>52.4295</ele>
        <time>2010-12-04T08:44:30Z</time>
      </trkpt>
      <trkpt lat="46.31521" lon="-0.34265">
        <ele>52.4434</ele>
        <time>2010-12-04T08:44:31Z</time>
      </trkpt>
      <trkpt lat="46.31522" lon="-0.34264">
        <ele>52.4541</ele>
        <time>2010-12-04T08:44:32Z</time>
      </trkpt>
      <trkpt lat="46.31524" lon="-0.34263">
        <ele>52.4669</ele>
        <time>2010-12-04T08:44:33Z</time>
      </trkpt>
      <trkpt lat="46.31525" lon="-0.34262">
        <ele>52.4767</ele>
        <time>2010-12-04T08:44:34Z</time>
      </trkpt>
      <trkpt lat="46.31526" lon="-0.3426">
        <ele>52.4848</ele>
        <time>2010-12-04T08:44:35Z</time>
      </trkpt>
      <trkpt lat="46.31527" lon="-0.34259">
        <ele>52.4929</ele>
        <time>2010-12-04T08:44:36Z</time>
      </trkpt>
      <trkpt lat="46.31529" lon="-0.34258">
        <ele>52.5009</ele>
        <time>2010-12-04T08:44:37Z</time>
      </trkpt>
      <trkpt lat="46.3153" lon="-0.34257">
        <ele>52.5089</ele>
        <time>2010-12-04T08:44:38Z</time>
      </trkpt>
      <trkpt lat="46.3153" lon="-0.34256">
        <ele>52.5148</ele>
        <time>2010-12-04T08:44:39Z</time>
      </trkpt>
      <trkpt lat="46.31532" lon="-0.34255">
        <ele>52.5185</ele>
        <time>2010-12-04T08:44:40Z</time>
      </trkpt>
      <trkpt lat="46.31533" lon="-0.34254">
        <ele>52.5187</ele>
        <time>2010-12-04T08:44:41Z</time>
      </trkpt>
      <trkpt lat="46.31534" lon="-0.34253">
        <ele>52.519</ele>
        <time>2010-12-04T08:44:42Z</time>
      </trkpt>
      <trkpt lat="46.31535" lon="-0.34253">
        <ele>52.5206</ele>
        <time>2010-12-04T08:44:43Z</time>
      </trkpt>
      <trkpt lat="46.31537" lon="-0.34252">
        <ele>52.522</ele>
        <time>2010-12-04T08:44:44Z</time>
      </trkpt>
      <trkpt lat="46.31538" lon="-0.34251">
        <ele>52.5246</ele>
        <time>2010-12-04T08:44:45Z</time>
      </trkpt>
      <trkpt lat="46.31539" lon="-0.3425">
        <ele>52.5278</ele>
        <time>2010-12-04T08:44:46Z</time>
      </trkpt>
      <trkpt lat="46.3154" lon="-0.3425">
        <ele>52.53</ele>
        <time>2010-12-04T08:44:47Z</time>
      </trkpt>
      <trkpt lat="46.31541" lon="-0.34249">
        <ele>52.5325</ele>
        <time>2010-12-04T08:44:48Z</time>
      </trkpt>
      <trkpt lat="46.31543" lon="-0.34248">
        <ele>52.5356</ele>
        <time>2010-12-04T08:44:49Z</time>
      </trkpt>
      <trkpt lat="46.31544" lon="-0.34247">
        <ele>52.5394</ele>
        <time>2010-12-04T08:44:50Z</time>
      </trkpt>
      <trkpt lat="46.31545" lon="-0.34247">
        <ele>52.5447</ele>
        <time>2010-12-04T08:44:51Z</time>
      </trkpt>
      <trkpt lat="46.31546" lon="-0.34246">
        <ele>52.5499</ele>
        <time>2010-12-04T08:44:52Z</time>
      </trkpt>
      <trkpt lat="46.31548" lon="-0.34246">
        <ele>52.5549</ele>
        <time>2010-12-04T08:44:53Z</time>
      </trkpt>
      <trkpt lat="46.31549" lon="-0.34245">
        <ele>52.5586</ele>
        <time>2010-12-04T08:44:54Z</time>
      </trkpt>
      <trkpt lat="46.3155" lon="-0.34245">
        <ele>52.562</ele>
        <time>2010-12-04T08:44:55Z</time>
      </trkpt>
      <trkpt lat="46.31551" lon="-0.34245">
        <ele>52.5641</ele>
        <time>2010-12-04T08:44:56Z</time>
      </trkpt>
      <trkpt lat="46.31553" lon="-0.34245">
        <ele>52.5644</ele>
        <time>2010-12-04T08:44:57Z</time>
      </trkpt>
      <trkpt lat="46.31554" lon="-0.34245">
        <ele>52.5653</ele>
        <time>2010-12-04T08:44:58Z</time>
      </trkpt>
      <trkpt lat="46.31555" lon="-0.34245">
        <ele>52.562</ele>
        <time>2010-12-04T08:44:59Z</time>
      </trkpt>
      <trkpt lat="46.31557" lon="-0.34244">
        <ele>52.5591</ele>
        <time>2010-12-04T08:45:00Z</time>
      </trkpt>
      <trkpt lat="46.31558" lon="-0.34244">
        <ele>52.5565</ele>
        <time>2010-12-04T08:45:01Z</time>
      </trkpt>
      <trkpt lat="46.31559" lon="-0.34244">
        <ele>52.5552</ele>
        <time>2010-12-04T08:45:02Z</time>
      </trkpt>
      <trkpt lat="46.3156" lon="-0.34244">
        <ele>52.5515</ele>
        <time>2010-12-04T08:45:03Z</time>
      </trkpt>
      <trkpt lat="46.31563" lon="-0.34244">
        <ele>52.5476</ele>
        <time>2010-12-04T08:45:04Z</time>
      </trkpt>
      <trkpt lat="46.31564" lon="-0.34243">
        <ele>52.5426</ele>
        <time>2010-12-04T08:45:05Z</time>
      </trkpt>
      <trkpt lat="46.31565" lon="-0.34244">
        <ele>52.5357</ele>
        <time>2010-12-04T08:45:06Z</time>
      </trkpt>
      <trkpt lat="46.31567" lon="-0.34244">
        <ele>52.5288</ele>
        <time>2010-12-04T08:45:07Z</time>
      </trkpt>
      <trkpt lat="46.31568" lon="-0.34244">
        <ele>52.522</ele>
        <time>2010-12-04T08:45:08Z</time>
      </trkpt>
      <trkpt lat="46.31569" lon="-0.34244">
        <ele>52.5149</ele>
        <time>2010-12-04T08:45:09Z</time>
      </trkpt>
      <trkpt lat="46.3157" lon="-0.34244">
        <ele>52.507</ele>
        <time>2010-12-04T08:45:10Z</time>
      </trkpt>
      <trkpt lat="46.31571" lon="-0.34244">
        <ele>52.4971</ele>
        <time>2010-12-04T08:45:11Z</time>
      </trkpt>
      <trkpt lat="46.31572" lon="-0.34245">
        <ele>52.4796</ele>
        <time>2010-12-04T08:45:12Z</time>
      </trkpt>
      <trkpt lat="46.31574" lon="-0.34245">
        <ele>52.4534</ele>
        <time>2010-12-04T08:45:13Z</time>
      </trkpt>
      <trkpt lat="46.31575" lon="-0.34246">
        <ele>52.4288</ele>
        <time>2010-12-04T08:45:14Z</time>
      </trkpt>
      <trkpt lat="46.31577" lon="-0.34246">
        <ele>52.4072</ele>
        <time>2010-12-04T08:45:15Z</time>
      </trkpt>
      <trkpt lat="46.31578" lon="-0.34247">
        <ele>52.3899</ele>
        <time>2010-12-04T08:45:16Z</time>
      </trkpt>
      <trkpt lat="46.3158" lon="-0.34248">
        <ele>52.3729</ele>
        <time>2010-12-04T08:45:17Z</time>
      </trkpt>
      <trkpt lat="46.31581" lon="-0.34249">
        <ele>52.3554</ele>
        <time>2010-12-04T08:45:18Z</time>
      </trkpt>
      <trkpt lat="46.31582" lon="-0.34249">
        <ele>52.3371</ele>
        <time>2010-12-04T08:45:19Z</time>
      </trkpt>
      <trkpt lat="46.31583" lon="-0.34249">
        <ele>52.3174</ele>
        <time>2010-12-04T08:45:20Z</time>
      </trkpt>
      <trkpt lat="46.31585" lon="-0.34249">
        <ele>52.2987</ele>
        <time>2010-12-04T08:45:21Z</time>
      </trkpt>
      <trkpt lat="46.31586" lon="-0.34249">
        <ele>52.2809</ele>
        <time>2010-12-04T08:45:22Z</time>
      </trkpt>
      <trkpt lat="46.31588" lon="-0.3425">
        <ele>52.2655</ele>
        <time>2010-12-04T08:45:23Z</time>
      </trkpt>
      <trkpt lat="46.31589" lon="-0.3425">
        <ele>52.2509</ele>
        <time>2010-12-04T08:45:24Z</time>
      </trkpt>
      <trkpt lat="46.31591" lon="-0.3425">
        <ele>52.2344</ele>
        <time>2010-12-04T08:45:25Z</time>
      </trkpt>
      <trkpt lat="46.31592" lon="-0.3425">
        <ele>52.2139</ele>
        <time>2010-12-04T08:45:26Z</time>
      </trkpt>
      <trkpt lat="46.31593" lon="-0.3425">
        <ele>52.1925</ele>
        <time>2010-12-04T08:45:27Z</time>
      </trkpt>
      <trkpt lat="46.31595" lon="-0.34251">
        <ele>52.1708</ele>
        <time>2010-12-04T08:45:28Z</time>
      </trkpt>
      <trkpt lat="46.31595" lon="-0.34251">
        <ele>52.148</ele>
        <time>2010-12-04T08:45:29Z</time>
      </trkpt>
      <trkpt lat="46.31596" lon="-0.34252">
        <ele>52.1246</ele>
        <time>2010-12-04T08:45:30Z</time>
      </trkpt>
      <trkpt lat="46.31597" lon="-0.34252">
        <ele>52.1007</ele>
        <time>2010-12-04T08:45:31Z</time>
      </trkpt>
      <trkpt lat="46.31598" lon="-0.34253">
        <ele>52.0561</ele>
        <time>2010-12-04T08:45:32Z</time>
      </trkpt>
      <trkpt lat="46.31599" lon="-0.34254">
        <ele>52.0054</ele>
        <time>2010-12-04T08:45:33Z</time>
      </trkpt>
      <trkpt lat="46.316" lon="-0.34254">
        <ele>51.9462</ele>
        <time>2010-12-04T08:45:34Z</time>
      </trkpt>
      <trkpt lat="46.31601" lon="-0.34255">
        <ele>51.8807</ele>
        <time>2010-12-04T08:45:35Z</time>
      </trkpt>
      <trkpt lat="46.31602" lon="-0.34255">
        <ele>51.81</ele>
        <time>2010-12-04T08:45:36Z</time>
      </trkpt>
      <trkpt lat="46.31603" lon="-0.34256">
        <ele>51.7315</ele>
        <time>2010-12-04T08:45:37Z</time>
      </trkpt>
      <trkpt lat="46.31605" lon="-0.34257">
        <ele>51.6497</ele>
        <time>2010-12-04T08:45:38Z</time>
      </trkpt>
      <trkpt lat="46.31606" lon="-0.34258">
        <ele>51.5686</ele>
        <time>2010-12-04T08:45:39Z</time>
      </trkpt>
      <trkpt lat="46.31607" lon="-0.34259">
        <ele>51.4889</ele>
        <time>2010-12-04T08:45:40Z</time>
      </trkpt>
      <trkpt lat="46.31609" lon="-0.3426">
        <ele>51.4042</ele>
        <time>2010-12-04T08:45:41Z</time>
      </trkpt>
      <trkpt lat="46.3161" lon="-0.34262">
        <ele>51.3194</ele>
        <time>2010-12-04T08:45:42Z</time>
      </trkpt>
      <trkpt lat="46.31611" lon="-0.34263">
        <ele>51.2383</ele>
        <time>2010-12-04T08:45:43Z</time>
      </trkpt>
      <trkpt lat="46.31612" lon="-0.34264">
        <ele>51.1583</ele>
        <time>2010-12-04T08:45:44Z</time>
      </trkpt>
      <trkpt lat="46.31613" lon="-0.34264">
        <ele>51.0789</ele>
        <time>2010-12-04T08:45:45Z</time>
      </trkpt>
      <trkpt lat="46.31614" lon="-0.34265">
        <ele>50.9986</ele>
        <time>2010-12-04T08:45:46Z</time>
      </trkpt>
      <trkpt lat="46.31615" lon="-0.34265">
        <ele>50.9181</ele>
        <time>2010-12-04T08:45:47Z</time>
      </trkpt>
      <trkpt lat="46.31617" lon="-0.34266">
        <ele>50.8373</ele>
        <time>2010-12-04T08:45:48Z</time>
      </trkpt>
      <trkpt lat="46.31617" lon="-0.34266">
        <ele>50.7522</ele>
        <time>2010-12-04T08:45:49Z</time>
      </trkpt>
      <trkpt lat="46.31619" lon="-0.34267">
        <ele>50.6673</ele>
        <time>2010-12-04T08:45:50Z</time>
      </trkpt>
      <trkpt lat="46.3162" lon="-0.34267">
        <ele>50.5783</ele>
        <time>2010-12-04T08:45:51Z</time>
      </trkpt>
      <trkpt lat="46.31621" lon="-0.34268">
        <ele>50.4884</ele>
        <time>2010-12-04T08:45:52Z</time>
      </trkpt>
      <trkpt lat="46.31622" lon="-0.34268">
        <ele>50.3972</ele>
        <time>2010-12-04T08:45:53Z</time>
      </trkpt>
      <trkpt lat="46.31623" lon="-0.34268">
        <ele>50.3035</ele>
        <time>2010-12-04T08:45:54Z</time>
      </trkpt>
      <trkpt lat="46.31624" lon="-0.34269">
        <ele>50.208</ele>
        <time>2010-12-04T08:45:55Z</time>
      </trkpt>
      <trkpt lat="46.31625" lon="-0.3427">
        <ele>50.107</ele>
        <time>2010-12-04T08:45:56Z</time>
      </trkpt>
      <trkpt lat="46.31627" lon="-0.34271">
        <ele>50.0119</ele>
        <time>2010-12-04T08:45:57Z</time>
      </trkpt>
      <trkpt lat="46.31628" lon="-0.34271">
        <ele>49.9165</ele>
        <time>2010-12-04T08:45:58Z</time>
      </trkpt>
      <trkpt lat="46.31629" lon="-0.34273">
        <ele>49.8249</ele>
        <time>2010-12-04T08:45:59Z</time>
      </trkpt>
      <trkpt lat="46.3163" lon="-0.34274">
        <ele>49.7339</ele>
        <time>2010-12-04T08:46:00Z</time>
      </trkpt>
      <trkpt lat="46.31631" lon="-0.34276">
        <ele>49.6462</ele>
        <time>2010-12-04T08:46:01Z</time>
      </trkpt>
      <trkpt lat="46.31632" lon="-0.34278">
        <ele>49.562</ele>
        <time>2010-12-04T08:46:02Z</time>
      </trkpt>
      <trkpt lat="46.31633" lon="-0.34279">
        <ele>49.4819</ele>
        <time>2010-12-04T08:46:03Z</time>
      </trkpt>
      <trkpt lat="46.31635" lon="-0.34281">
        <ele>49.4041</ele>
        <time>2010-12-04T08:46:04Z</time>
      </trkpt>
      <trkpt lat="46.31636" lon="-0.34282">
        <ele>49.3307</ele>
        <time>2010-12-04T08:46:05Z</time>
      </trkpt>
      <trkpt lat="46.31637" lon="-0.34283">
        <ele>49.2625</ele>
        <time>2010-12-04T08:46:06Z</time>
      </trkpt>
      <trkpt lat="46.31638" lon="-0.34285">
        <ele>49.2011</ele>
        <time>2010-12-04T08:46:07Z</time>
      </trkpt>
      <trkpt lat="46.3164" lon="-0.34286">
        <ele>49.1455</ele>
        <time>2010-12-04T08:46:08Z</time>
      </trkpt>
      <trkpt lat="46.31641" lon="-0.34287">
        <ele>49.0961</ele>
        <time>2010-12-04T08:46:09Z</time>
      </trkpt>
      <trkpt lat="46.31642" lon="-0.34288">
        <ele>49.0531</ele>
        <time>2010-12-04T08:46:10Z</time>
      </trkpt>
      <trkpt lat="46.31644" lon="-0.34289">
        <ele>49.0173</ele>
        <time>2010-12-04T08:46:11Z</time>
      </trkpt>
      <trkpt lat="46.31645" lon="-0.3429">
        <ele>48.9844</ele>
        <time>2010-12-04T08:46:12Z</time>
      </trkpt>
      <trkpt lat="46.31646" lon="-0.34291">
        <ele>48.9543</ele>
        <time>2010-12-04T08:46:13Z</time>
      </trkpt>
      <trkpt lat="46.31648" lon="-0.34292">
        <ele>48.9256</ele>
        <time>2010-12-04T08:46:14Z</time>
      </trkpt>
      <trkpt lat="46.31649" lon="-0.34292">
        <ele>48.8998</ele>
        <time>2010-12-04T08:46:15Z</time>
      </trkpt>
      <trkpt lat="46.3165" lon="-0.34293">
        <ele>48.8756</ele>
        <time>2010-12-04T08:46:16Z</time>
      </trkpt>
      <trkpt lat="46.31651" lon="-0.34293">
        <ele>48.8519</ele>
        <time>2010-12-04T08:46:17Z</time>
      </trkpt>
      <trkpt lat="46.31652" lon="-0.34294">
        <ele>48.8294</ele>
        <time>2010-12-04T08:46:18Z</time>
      </trkpt>
      <trkpt lat="46.31653" lon="-0.34295">
        <ele>48.8082</ele>
        <time>2010-12-04T08:46:19Z</time>
      </trkpt>
      <trkpt lat="46.31654" lon="-0.34296">
        <ele>48.7893</ele>
        <time>2010-12-04T08:46:20Z</time>
      </trkpt>
      <trkpt lat="46.31656" lon="-0.34297">
        <ele>48.7717</ele>
        <time>2010-12-04T08:46:21Z</time>
      </trkpt>
      <trkpt lat="46.31657" lon="-0.34297">
        <ele>48.7564</ele>
        <time>2010-12-04T08:46:22Z</time>
      </trkpt>
      <trkpt lat="46.31658" lon="-0.34298">
        <ele>48.7432</ele>
        <time>2010-12-04T08:46:23Z</time>
      </trkpt>
      <trkpt lat="46.31659" lon="-0.34299">
        <ele>48.731</ele>
        <time>2010-12-04T08:46:24Z</time>
      </trkpt>
      <trkpt lat="46.31661" lon="-0.343">
        <ele>48.7191</ele>
        <time>2010-12-04T08:46:25Z</time>
      </trkpt>
      <trkpt lat="46.31662" lon="-0.34301">
        <ele>48.7083</ele>
        <time>2010-12-04T08:46:26Z</time>
      </trkpt>
      <trkpt lat="46.31663" lon="-0.34301">
        <ele>48.6986</ele>
        <time>2010-12-04T08:46:27Z</time>
      </trkpt>
      <trkpt lat="46.31664" lon="-0.34302">
        <ele>48.6893</ele>
        <time>2010-12-04T08:46:28Z</time>
      </trkpt>
      <trkpt lat="46.31665" lon="-0.34303">
        <ele>48.6793</ele>
        <time>2010-12-04T08:46:29Z</time>
      </trkpt>
      <trkpt lat="46.31667" lon="-0.34304">
        <ele>48.663</ele>
        <time>2010-12-04T08:46:30Z</time>
      </trkpt>
      <trkpt lat="46.31668" lon="-0.34304">
        <ele>48.6456</ele>
        <time>2010-12-04T08:46:31Z</time>
      </trkpt>
      <trkpt lat="46.31669" lon="-0.34305">
        <ele>48.6303</ele>
        <time>2010-12-04T08:46:32Z</time>
      </trkpt>
      <trkpt lat="46.3167" lon="-0.34306">
        <ele>48.6135</ele>
        <time>2010-12-04T08:46:33Z</time>
      </trkpt>
      <trkpt lat="46.31672" lon="-0.34307">
        <ele>48.5952</ele>
        <time>2010-12-04T08:46:34Z</time>
      </trkpt>
      <trkpt lat="46.31673" lon="-0.34308">
        <ele>48.5792</ele>
        <time>2010-12-04T08:46:35Z</time>
      </trkpt>
      <trkpt lat="46.31674" lon="-0.34309">
        <ele>48.5487</ele>
        <time>2010-12-04T08:46:36Z</time>
      </trkpt>
      <trkpt lat="46.31675" lon="-0.34311">
        <ele>48.5193</ele>
        <time>2010-12-04T08:46:37Z</time>
      </trkpt>
      <trkpt lat="46.31677" lon="-0.34312">
        <ele>48.4946</ele>
        <time>2010-12-04T08:46:38Z</time>
      </trkpt>
      <trkpt lat="46.31678" lon="-0.34313">
        <ele>48.4745</ele>
        <time>2010-12-04T08:46:39Z</time>
      </trkpt>
      <trkpt lat="46.31679" lon="-0.34314">
        <ele>48.4586</ele>
        <time>2010-12-04T08:46:40Z</time>
      </trkpt>
      <trkpt lat="46.3168" lon="-0.34315">
        <ele>48.4454</ele>
        <time>2010-12-04T08:46:41Z</time>
      </trkpt>
      <trkpt lat="46.31681" lon="-0.34317">
        <ele>48.4393</ele>
        <time>2010-12-04T08:46:42Z</time>
      </trkpt>
      <trkpt lat="46.31683" lon="-0.34318">
        <ele>48.4319</ele>
        <time>2010-12-04T08:46:43Z</time>
      </trkpt>
      <trkpt lat="46.31684" lon="-0.34319">
        <ele>48.4264</ele>
        <time>2010-12-04T08:46:44Z</time>
      </trkpt>
      <trkpt lat="46.31685" lon="-0.3432">
        <ele>48.4206</ele>
        <time>2010-12-04T08:46:45Z</time>
      </trkpt>
      <trkpt lat="46.31686" lon="-0.34322">
        <ele>48.4123</ele>
        <time>2010-12-04T08:46:46Z</time>
      </trkpt>
      <trkpt lat="46.31688" lon="-0.34323">
        <ele>48.4054</ele>
        <time>2010-12-04T08:46:47Z</time>
      </trkpt>
      <trkpt lat="46.31689" lon="-0.34325">
        <ele>48.3982</ele>
        <time>2010-12-04T08:46:48Z</time>
      </trkpt>
      <trkpt lat="46.3169" lon="-0.34326">
        <ele>48.3936</ele>
        <time>2010-12-04T08:46:49Z</time>
      </trkpt>
      <trkpt lat="46.31691" lon="-0.34327">
        <ele>48.3915</ele>
        <time>2010-12-04T08:46:50Z</time>
      </trkpt>
      <trkpt lat="46.31693" lon="-0.34328">
        <ele>48.3914</ele>
        <time>2010-12-04T08:46:51Z</time>
      </trkpt>
      <trkpt lat="46.31694" lon="-0.34329">
        <ele>48.395</ele>
        <time>2010-12-04T08:46:52Z</time>
      </trkpt>
      <trkpt lat="46.31695" lon="-0.34331">
        <ele>48.4096</ele>
        <time>2010-12-04T08:46:53Z</time>
      </trkpt>
      <trkpt lat="46.31696" lon="-0.34332">
        <ele>48.4259</ele>
        <time>2010-12-04T08:46:54Z</time>
      </trkpt>
      <trkpt lat="46.31697" lon="-0.34333">
        <ele>48.4464</ele>
        <time>2010-12-04T08:46:55Z</time>
      </trkpt>
      <trkpt lat="46.31698" lon="-0.34335">
        <ele>48.4686</ele>
        <time>2010-12-04T08:46:56Z</time>
      </trkpt>
      <trkpt lat="46.31699" lon="-0.34336">
        <ele>48.5016</ele>
        <time>2010-12-04T08:46:57Z</time>
      </trkpt>
      <trkpt lat="46.317" lon="-0.34338">
        <ele>48.5458</ele>
        <time>2010-12-04T08:46:58Z</time>
      </trkpt>
      <trkpt lat="46.31701" lon="-0.3434">
        <ele>48.5998</ele>
        <time>2010-12-04T08:46:59Z</time>
      </trkpt>
      <trkpt lat="46.31702" lon="-0.34342">
        <ele>48.6629</ele>
        <time>2010-12-04T08:47:00Z</time>
      </trkpt>
      <trkpt lat="46.31703" lon="-0.34343">
        <ele>48.7275</ele>
        <time>2010-12-04T08:47:01Z</time>
      </trkpt>
      <trkpt lat="46.31704" lon="-0.34344">
        <ele>48.7903</ele>
        <time>2010-12-04T08:47:02Z</time>
      </trkpt>
      <trkpt lat="46.31705" lon="-0.34346">
        <ele>48.8501</ele>
        <time>2010-12-04T08:47:03Z</time>
      </trkpt>
      <trkpt lat="46.31706" lon="-0.34347">
        <ele>48.9092</ele>
        <time>2010-12-04T08:47:04Z</time>
      </trkpt>
      <trkpt lat="46.31707" lon="-0.34348">
        <ele>48.9675</ele>
        <time>2010-12-04T08:47:05Z</time>
      </trkpt>
      <trkpt lat="46.31708" lon="-0.34349">
        <ele>49.0249</ele>
        <time>2010-12-04T08:47:06Z</time>
      </trkpt>
      <trkpt lat="46.31709" lon="-0.34351">
        <ele>49.0894</ele>
        <time>2010-12-04T08:47:07Z</time>
      </trkpt>
      <trkpt lat="46.31709" lon="-0.34353">
        <ele>49.1527</ele>
        <time>2010-12-04T08:47:08Z</time>
      </trkpt>
      <trkpt lat="46.3171" lon="-0.34354">
        <ele>49.2158</ele>
        <time>2010-12-04T08:47:09Z</time>
      </trkpt>
      <trkpt lat="46.3171" lon="-0.34356">
        <ele>49.2776</ele>
        <time>2010-12-04T08:47:10Z</time>
      </trkpt>
      <trkpt lat="46.31711" lon="-0.34357">
        <ele>49.3368</ele>
        <time>2010-12-04T08:47:11Z</time>
      </trkpt>
      <trkpt lat="46.31712" lon="-0.34359">
        <ele>49.3918</ele>
        <time>2010-12-04T08:47:12Z</time>
      </trkpt>
      <trkpt lat="46.31713" lon="-0.34361">
        <ele>49.4436</ele>
        <time>2010-12-04T08:47:13Z</time>
      </trkpt>
      <trkpt lat="46.31714" lon="-0.34362">
        <ele>49.4942</ele>
        <time>2010-12-04T08:47:14Z</time>
      </trkpt>
      <trkpt lat="46.31714" lon="-0.34364">
        <ele>49.5435</ele>
        <time>2010-12-04T08:47:15Z</time>
      </trkpt>
      <trkpt lat="46.31714" lon="-0.34366">
        <ele>49.5921</ele>
        <time>2010-12-04T08:47:16Z</time>
      </trkpt>
      <trkpt lat="46.31715" lon="-0.34368">
        <ele>49.6339</ele>
        <time>2010-12-04T08:47:17Z</time>
      </trkpt>
      <trkpt lat="46.31716" lon="-0.34369">
        <ele>49.6646</ele>
        <time>2010-12-04T08:47:18Z</time>
      </trkpt>
      <trkpt lat="46.31717" lon="-0.34371">
        <ele>49.6878</ele>
        <time>2010-12-04T08:47:19Z</time>
      </trkpt>
      <trkpt lat="46.31718" lon="-0.34372">
        <ele>49.6968</ele>
        <time>2010-12-04T08:47:20Z</time>
      </trkpt>
      <trkpt lat="46.31719" lon="-0.34374">
        <ele>49.7068</ele>
        <time>2010-12-04T08:47:21Z</time>
      </trkpt>
      <trkpt lat="46.3172" lon="-0.34375">
        <ele>49.7183</ele>
        <time>2010-12-04T08:47:22Z</time>
      </trkpt>
      <trkpt lat="46.31721" lon="-0.34377">
        <ele>49.7349</ele>
        <time>2010-12-04T08:47:23Z</time>
      </trkpt>
      <trkpt lat="46.31722" lon="-0.34379">
        <ele>49.7482</ele>
        <time>2010-12-04T08:47:24Z</time>
      </trkpt>
      <trkpt lat="46.31723" lon="-0.34381">
        <ele>49.7625</ele>
        <time>2010-12-04T08:47:25Z</time>
      </trkpt>
      <trkpt lat="46.31725" lon="-0.34383">
        <ele>49.7854</ele>
        <time>2010-12-04T08:47:26Z</time>
      </trkpt>
      <trkpt lat="46.31726" lon="-0.34384">
        <ele>49.8089</ele>
        <time>2010-12-04T08:47:27Z</time>
      </trkpt>
      <trkpt lat="46.31727" lon="-0.34386">
        <ele>49.8338</ele>
        <time>2010-12-04T08:47:28Z</time>
      </trkpt>
      <trkpt lat="46.31727" lon="-0.34387">
        <ele>49.8549</ele>
        <time>2010-12-04T08:47:29Z</time>
      </trkpt>
      <trkpt lat="46.31728" lon="-0.34389">
        <ele>49.8773</ele>
        <time>2010-12-04T08:47:30Z</time>
      </trkpt>
      <trkpt lat="46.3173" lon="-0.3439">
        <ele>49.914</ele>
        <time>2010-12-04T08:47:31Z</time>
      </trkpt>
      <trkpt lat="46.31731" lon="-0.34392">
        <ele>49.9547</ele>
        <time>2010-12-04T08:47:32Z</time>
      </trkpt>
      <trkpt lat="46.31731" lon="-0.34393">
        <ele>50.0006</ele>
        <time>2010-12-04T08:47:33Z</time>
      </trkpt>
      <trkpt lat="46.31732" lon="-0.34394">
        <ele>50.0458</ele>
        <time>2010-12-04T08:47:34Z</time>
      </trkpt>
      <trkpt lat="46.31733" lon="-0.34395">
        <ele>50.09</ele>
        <time>2010-12-04T08:47:35Z</time>
      </trkpt>
      <trkpt lat="46.31734" lon="-0.34396">
        <ele>50.1389</ele>
        <time>2010-12-04T08:47:36Z</time>
      </trkpt>
      <trkpt lat="46.31735" lon="-0.34397">
        <ele>50.1926</ele>
        <time>2010-12-04T08:47:37Z</time>
      </trkpt>
      <trkpt lat="46.31736" lon="-0.34398">
        <ele>50.2492</ele>
        <time>2010-12-04T08:47:38Z</time>
      </trkpt>
      <trkpt lat="46.31737" lon="-0.344">
        <ele>50.3048</ele>
        <time>2010-12-04T08:47:39Z</time>
      </trkpt>
      <trkpt lat="46.31738" lon="-0.34401">
        <ele>50.3588</ele>
        <time>2010-12-04T08:47:40Z</time>
      </trkpt>
      <trkpt lat="46.31739" lon="-0.34403">
        <ele>50.4128</ele>
        <time>2010-12-04T08:47:41Z</time>
      </trkpt>
      <trkpt lat="46.3174" lon="-0.34404">
        <ele>50.4685</ele>
        <time>2010-12-04T08:47:42Z</time>
      </trkpt>
      <trkpt lat="46.31741" lon="-0.34406">
        <ele>50.5227</ele>
        <time>2010-12-04T08:47:43Z</time>
      </trkpt>
      <trkpt lat="46.31742" lon="-0.34408">
        <ele>50.5776</ele>
        <time>2010-12-04T08:47:44Z</time>
      </trkpt>
      <trkpt lat="46.31743" lon="-0.34409">
        <ele>50.6344</ele>
        <time>2010-12-04T08:47:45Z</time>
      </trkpt>
      <trkpt lat="46.31744" lon="-0.34411">
        <ele>50.6906</ele>
        <time>2010-12-04T08:47:46Z</time>
      </trkpt>
      <trkpt lat="46.31745" lon="-0.34413">
        <ele>50.7498</ele>
        <time>2010-12-04T08:47:47Z</time>
      </trkpt>
      <trkpt lat="46.31746" lon="-0.34415">
        <ele>50.8164</ele>
        <time>2010-12-04T08:47:48Z</time>
      </trkpt>
      <trkpt lat="46.31747" lon="-0.34417">
        <ele>50.8848</ele>
        <time>2010-12-04T08:47:49Z</time>
      </trkpt>
      <trkpt lat="46.31748" lon="-0.34419">
        <ele>50.9539</ele>
        <time>2010-12-04T08:47:50Z</time>
      </trkpt>
      <trkpt lat="46.31749" lon="-0.3442">
        <ele>51.0312</ele>
        <time>2010-12-04T08:47:51Z</time>
      </trkpt>
      <trkpt lat="46.3175" lon="-0.34422">
        <ele>51.1189</ele>
        <time>2010-12-04T08:47:52Z</time>
      </trkpt>
      <trkpt lat="46.31751" lon="-0.34423">
        <ele>51.2176</ele>
        <time>2010-12-04T08:47:53Z</time>
      </trkpt>
      <trkpt lat="46.31752" lon="-0.34424">
        <ele>51.3187</ele>
        <time>2010-12-04T08:47:54Z</time>
      </trkpt>
      <trkpt lat="46.31753" lon="-0.34425">
        <ele>51.4347</ele>
        <time>2010-12-04T08:47:55Z</time>
      </trkpt>
      <trkpt lat="46.31754" lon="-0.34427">
        <ele>51.5492</ele>
        <time>2010-12-04T08:47:56Z</time>
      </trkpt>
      <trkpt lat="46.31755" lon="-0.34428">
        <ele>51.6647</ele>
        <time>2010-12-04T08:47:57Z</time>
      </trkpt>
      <trkpt lat="46.31756" lon="-0.34429">
        <ele>51.7837</ele>
        <time>2010-12-04T08:47:58Z</time>
      </trkpt>
      <trkpt lat="46.31757" lon="-0.34431">
        <ele>51.9185</ele>
        <time>2010-12-04T08:47:59Z</time>
      </trkpt>
      <trkpt lat="46.31758" lon="-0.34433">
        <ele>52.0676</ele>
        <time>2010-12-04T08:48:00Z</time>
      </trkpt>
      <trkpt lat="46.31759" lon="-0.34434">
        <ele>52.2186</ele>
        <time>2010-12-04T08:48:01Z</time>
      </trkpt>
      <trkpt lat="46.3176" lon="-0.34436">
        <ele>52.3675</ele>
        <time>2010-12-04T08:48:02Z</time>
      </trkpt>
      <trkpt lat="46.31761" lon="-0.34437">
        <ele>52.515</ele>
        <time>2010-12-04T08:48:03Z</time>
      </trkpt>
      <trkpt lat="46.31762" lon="-0.34439">
        <ele>52.6589</ele>
        <time>2010-12-04T08:48:04Z</time>
      </trkpt>
      <trkpt lat="46.31762" lon="-0.3444">
        <ele>52.8019</ele>
        <time>2010-12-04T08:48:05Z</time>
      </trkpt>
      <trkpt lat="46.31763" lon="-0.34442">
        <ele>52.9426</ele>
        <time>2010-12-04T08:48:06Z</time>
      </trkpt>
      <trkpt lat="46.31764" lon="-0.34443">
        <ele>53.078</ele>
        <time>2010-12-04T08:48:07Z</time>
      </trkpt>
      <trkpt lat="46.31764" lon="-0.34444">
        <ele>53.211</ele>
        <time>2010-12-04T08:48:08Z</time>
      </trkpt>
      <trkpt lat="46.31765" lon="-0.34445">
        <ele>53.3354</ele>
        <time>2010-12-04T08:48:09Z</time>
      </trkpt>
      <trkpt lat="46.31766" lon="-0.34447">
        <ele>53.468</ele>
        <time>2010-12-04T08:48:10Z</time>
      </trkpt>
      <trkpt lat="46.31766" lon="-0.34448">
        <ele>53.5965</ele>
        <time>2010-12-04T08:48:11Z</time>
      </trkpt>
      <trkpt lat="46.31767" lon="-0.3445">
        <ele>53.7228</ele>
        <time>2010-12-04T08:48:12Z</time>
      </trkpt>
      <trkpt lat="46.31768" lon="-0.34451">
        <ele>53.8423</ele>
        <time>2010-12-04T08:48:13Z</time>
      </trkpt>
      <trkpt lat="46.31768" lon="-0.34453">
        <ele>53.956</ele>
        <time>2010-12-04T08:48:14Z</time>
      </trkpt>
      <trkpt lat="46.31769" lon="-0.34454">
        <ele>54.0637</ele>
        <time>2010-12-04T08:48:15Z</time>
      </trkpt>
      <trkpt lat="46.3177" lon="-0.34456">
        <ele>54.1674</ele>
        <time>2010-12-04T08:48:16Z</time>
      </trkpt>
      <trkpt lat="46.31771" lon="-0.34457">
        <ele>54.27</ele>
        <time>2010-12-04T08:48:17Z</time>
      </trkpt>
      <trkpt lat="46.31772" lon="-0.34459">
        <ele>54.3716</ele>
        <time>2010-12-04T08:48:18Z</time>
      </trkpt>
      <trkpt lat="46.31773" lon="-0.3446">
        <ele>54.4699</ele>
        <time>2010-12-04T08:48:19Z</time>
      </trkpt>
      <trkpt lat="46.31773" lon="-0.34462">
        <ele>54.5643</ele>
        <time>2010-12-04T08:48:20Z</time>
      </trkpt>
      <trkpt lat="46.31774" lon="-0.34463">
        <ele>54.6552</ele>
        <time>2010-12-04T08:48:21Z</time>
      </trkpt>
      <trkpt lat="46.31775" lon="-0.34464">
        <ele>54.7443</ele>
        <time>2010-12-04T08:48:22Z</time>
      </trkpt>
      <trkpt lat="46.31776" lon="-0.34465">
        <ele>54.8291</ele>
        <time>2010-12-04T08:48:23Z</time>
      </trkpt>
      <trkpt lat="46.31778" lon="-0.34466">
        <ele>54.9113</ele>
        <time>2010-12-04T08:48:24Z</time>
      </trkpt>
      <trkpt lat="46.31778" lon="-0.34467">
        <ele>54.9918</ele>
        <time>2010-12-04T08:48:25Z</time>
      </trkpt>
      <trkpt lat="46.3178" lon="-0.34468">
        <ele>55.0716</ele>
        <time>2010-12-04T08:48:26Z</time>
      </trkpt>
      <trkpt lat="46.31781" lon="-0.34469">
        <ele>55.1521</ele>
        <time>2010-12-04T08:48:27Z</time>
      </trkpt>
      <trkpt lat="46.31782" lon="-0.3447">
        <ele>55.2317</ele>
        <time>2010-12-04T08:48:28Z</time>
      </trkpt>
      <trkpt lat="46.31783" lon="-0.34471">
        <ele>55.3139</ele>
        <time>2010-12-04T08:48:29Z</time>
      </trkpt>
      <trkpt lat="46.31783" lon="-0.34472">
        <ele>55.3979</ele>
        <time>2010-12-04T08:48:30Z</time>
      </trkpt>
      <trkpt lat="46.31784" lon="-0.34473">
        <ele>55.4816</ele>
        <time>2010-12-04T08:48:31Z</time>
      </trkpt>
      <trkpt lat="46.31785" lon="-0.34474">
        <ele>55.5645</ele>
        <time>2010-12-04T08:48:32Z</time>
      </trkpt>
      <trkpt lat="46.31786" lon="-0.34475">
        <ele>55.6446</ele>
        <time>2010-12-04T08:48:33Z</time>
      </trkpt>
      <trkpt lat="46.31787" lon="-0.34476">
        <ele>55.7251</ele>
        <time>2010-12-04T08:48:34Z</time>
      </trkpt>
      <trkpt lat="46.31788" lon="-0.34476">
        <ele>55.806</ele>
        <time>2010-12-04T08:48:35Z</time>
      </trkpt>
      <trkpt lat="46.31789" lon="-0.34476">
        <ele>55.8854</ele>
        <time>2010-12-04T08:48:36Z</time>
      </trkpt>
      <trkpt lat="46.3179" lon="-0.34477">
        <ele>55.9624</ele>
        <time>2010-12-04T08:48:37Z</time>
      </trkpt>
      <trkpt lat="46.31791" lon="-0.34477">
        <ele>56.0372</ele>
        <time>2010-12-04T08:48:38Z</time>
      </trkpt>
      <trkpt lat="46.31792" lon="-0.34477">
        <ele>56.1106</ele>
        <time>2010-12-04T08:48:39Z</time>
      </trkpt>
      <trkpt lat="46.31794" lon="-0.34477">
        <ele>56.1893</ele>
        <time>2010-12-04T08:48:40Z</time>
      </trkpt>
      <trkpt lat="46.31795" lon="-0.34477">
        <ele>56.2681</ele>
        <time>2010-12-04T08:48:41Z</time>
      </trkpt>
      <trkpt lat="46.31797" lon="-0.34476">
        <ele>56.3473</ele>
        <time>2010-12-04T08:48:42Z</time>
      </trkpt>
      <trkpt lat="46.31798" lon="-0.34476">
        <ele>56.425</ele>
        <time>2010-12-04T08:48:43Z</time>
      </trkpt>
      <trkpt lat="46.318" lon="-0.34476">
        <ele>56.5053</ele>
        <time>2010-12-04T08:48:44Z</time>
      </trkpt>
      <trkpt lat="46.31801" lon="-0.34475">
        <ele>56.5845</ele>
        <time>2010-12-04T08:48:45Z</time>
      </trkpt>
      <trkpt lat="46.31803" lon="-0.34475">
        <ele>56.6623</ele>
        <time>2010-12-04T08:48:46Z</time>
      </trkpt>
      <trkpt lat="46.31804" lon="-0.34474">
        <ele>56.7384</ele>
        <time>2010-12-04T08:48:47Z</time>
      </trkpt>
      <trkpt lat="46.31805" lon="-0.34474">
        <ele>56.8134</ele>
        <time>2010-12-04T08:48:48Z</time>
      </trkpt>
      <trkpt lat="46.31807" lon="-0.34474">
        <ele>56.8871</ele>
        <time>2010-12-04T08:48:49Z</time>
      </trkpt>
      <trkpt lat="46.31809" lon="-0.34473">
        <ele>56.9588</ele>
        <time>2010-12-04T08:48:50Z</time>
      </trkpt>
      <trkpt lat="46.31811" lon="-0.34473">
        <ele>57.0276</ele>
        <time>2010-12-04T08:48:51Z</time>
      </trkpt>
      <trkpt lat="46.31812" lon="-0.34473">
        <ele>57.095</ele>
        <time>2010-12-04T08:48:52Z</time>
      </trkpt>
      <trkpt lat="46.31814" lon="-0.34473">
        <ele>57.1612</ele>
        <time>2010-12-04T08:48:53Z</time>
      </trkpt>
      <trkpt lat="46.31816" lon="-0.34473">
        <ele>57.2263</ele>
        <time>2010-12-04T08:48:54Z</time>
      </trkpt>
      <trkpt lat="46.31817" lon="-0.34473">
        <ele>57.2872</ele>
        <time>2010-12-04T08:48:55Z</time>
      </trkpt>
      <trkpt lat="46.31819" lon="-0.34473">
        <ele>57.3466</ele>
        <time>2010-12-04T08:48:56Z</time>
      </trkpt>
      <trkpt lat="46.3182" lon="-0.34472">
        <ele>57.3996</ele>
        <time>2010-12-04T08:48:57Z</time>
      </trkpt>
      <trkpt lat="46.31821" lon="-0.34472">
        <ele>57.4459</ele>
        <time>2010-12-04T08:48:58Z</time>
      </trkpt>
      <trkpt lat="46.31823" lon="-0.34471">
        <ele>57.4897</ele>
        <time>2010-12-04T08:48:59Z</time>
      </trkpt>
      <trkpt lat="46.31824" lon="-0.3447">
        <ele>57.5315</ele>
        <time>2010-12-04T08:49:00Z</time>
      </trkpt>
      <trkpt lat="46.31825" lon="-0.3447">
        <ele>57.571</ele>
        <time>2010-12-04T08:49:01Z</time>
      </trkpt>
      <trkpt lat="46.31827" lon="-0.3447">
        <ele>57.6144</ele>
        <time>2010-12-04T08:49:02Z</time>
      </trkpt>
      <trkpt lat="46.31828" lon="-0.3447">
        <ele>57.6569</ele>
        <time>2010-12-04T08:49:03Z</time>
      </trkpt>
      <trkpt lat="46.3183" lon="-0.3447">
        <ele>57.7029</ele>
        <time>2010-12-04T08:49:04Z</time>
      </trkpt>
      <trkpt lat="46.31831" lon="-0.34469">
        <ele>57.7467</ele>
        <time>2010-12-04T08:49:05Z</time>
      </trkpt>
      <trkpt lat="46.31832" lon="-0.34469">
        <ele>57.79</ele>
        <time>2010-12-04T08:49:06Z</time>
      </trkpt>
      <trkpt lat="46.31833" lon="-0.34468">
        <ele>57.8309</ele>
        <time>2010-12-04T08:49:07Z</time>
      </trkpt>
      <trkpt lat="46.31834" lon="-0.34468">
        <ele>57.8717</ele>
        <time>2010-12-04T08:49:08Z</time>
      </trkpt>
      <trkpt lat="46.31835" lon="-0.34467">
        <ele>57.9111</ele>
        <time>2010-12-04T08:49:09Z</time>
      </trkpt>
      <trkpt lat="46.31836" lon="-0.34467">
        <ele>57.9111</ele>
        <time>2010-12-04T08:49:10Z</time>
      </trkpt>
      <trkpt lat="46.31838" lon="-0.34467">
        <ele>57.9522</ele>
        <time>2010-12-04T08:49:11Z</time>
      </trkpt>
      <trkpt lat="46.31839" lon="-0.34467">
        <ele>57.9888</ele>
        <time>2010-12-04T08:49:12Z</time>
      </trkpt>
      <trkpt lat="46.3184" lon="-0.34468">
        <ele>58.0294</ele>
        <time>2010-12-04T08:49:13Z</time>
      </trkpt>
      <trkpt lat="46.31842" lon="-0.34468">
        <ele>58.0789</ele>
        <time>2010-12-04T08:49:14Z</time>
      </trkpt>
      <trkpt lat="46.31844" lon="-0.34469">
        <ele>58.134</ele>
        <time>2010-12-04T08:49:15Z</time>
      </trkpt>
      <trkpt lat="46.31846" lon="-0.34469">
        <ele>58.1895</ele>
        <time>2010-12-04T08:49:16Z</time>
      </trkpt>
      <trkpt lat="46.31847" lon="-0.3447">
        <ele>58.2425</ele>
        <time>2010-12-04T08:49:17Z</time>
      </trkpt>
      <trkpt lat="46.31849" lon="-0.3447">
        <ele>58.2798</ele>
        <time>2010-12-04T08:49:18Z</time>
      </trkpt>
      <trkpt lat="46.31851" lon="-0.3447">
        <ele>58.3038</ele>
        <time>2010-12-04T08:49:19Z</time>
      </trkpt>
      <trkpt lat="46.31853" lon="-0.3447">
        <ele>58.3289</ele>
        <time>2010-12-04T08:49:20Z</time>
      </trkpt>
      <trkpt lat="46.31855" lon="-0.3447">
        <ele>58.3548</ele>
        <time>2010-12-04T08:49:21Z</time>
      </trkpt>
      <trkpt lat="46.31857" lon="-0.3447">
        <ele>58.3845</ele>
        <time>2010-12-04T08:49:22Z</time>
      </trkpt>
      <trkpt lat="46.31858" lon="-0.3447">
        <ele>58.4142</ele>
        <time>2010-12-04T08:49:23Z</time>
      </trkpt>
      <trkpt lat="46.3186" lon="-0.3447">
        <ele>58.4454</ele>
        <time>2010-12-04T08:49:24Z</time>
      </trkpt>
      <trkpt lat="46.31862" lon="-0.3447">
        <ele>58.4738</ele>
        <time>2010-12-04T08:49:25Z</time>
      </trkpt>
      <trkpt lat="46.31863" lon="-0.3447">
        <ele>58.5036</ele>
        <time>2010-12-04T08:49:26Z</time>
      </trkpt>
      <trkpt lat="46.31865" lon="-0.3447">
        <ele>58.5326</ele>
        <time>2010-12-04T08:49:27Z</time>
      </trkpt>
      <trkpt lat="46.31866" lon="-0.3447">
        <ele>58.5555</ele>
        <time>2010-12-04T08:49:28Z</time>
      </trkpt>
      <trkpt lat="46.31867" lon="-0.34469">
        <ele>58.5767</ele>
        <time>2010-12-04T08:49:29Z</time>
      </trkpt>
      <trkpt lat="46.31868" lon="-0.34469">
        <ele>58.596</ele>
        <time>2010-12-04T08:49:30Z</time>
      </trkpt>
      <trkpt lat="46.3187" lon="-0.34468">
        <ele>58.6172</ele>
        <time>2010-12-04T08:49:31Z</time>
      </trkpt>
      <trkpt lat="46.31871" lon="-0.34468">
        <ele>58.6318</ele>
        <time>2010-12-04T08:49:32Z</time>
      </trkpt>
      <trkpt lat="46.31873" lon="-0.34468">
        <ele>58.6393</ele>
        <time>2010-12-04T08:49:33Z</time>
      </trkpt>
      <trkpt lat="46.31874" lon="-0.34468">
        <ele>58.6298</ele>
        <time>2010-12-04T08:49:34Z</time>
      </trkpt>
      <trkpt lat="46.31875" lon="-0.34467">
        <ele>58.6193</ele>
        <time>2010-12-04T08:49:35Z</time>
      </trkpt>
      <trkpt lat="46.31877" lon="-0.34467">
        <ele>58.6108</ele>
        <time>2010-12-04T08:49:36Z</time>
      </trkpt>
      <trkpt lat="46.31878" lon="-0.34467">
        <ele>58.6036</ele>
        <time>2010-12-04T08:49:37Z</time>
      </trkpt>
      <trkpt lat="46.31879" lon="-0.34467">
        <ele>58.5951</ele>
        <time>2010-12-04T08:49:38Z</time>
      </trkpt>
      <trkpt lat="46.31881" lon="-0.34466">
        <ele>58.5875</ele>
        <time>2010-12-04T08:49:39Z</time>
      </trkpt>
      <trkpt lat="46.31882" lon="-0.34466">
        <ele>58.5812</ele>
        <time>2010-12-04T08:49:40Z</time>
      </trkpt>
      <trkpt lat="46.31884" lon="-0.34466">
        <ele>58.5754</ele>
        <time>2010-12-04T08:49:41Z</time>
      </trkpt>
      <trkpt lat="46.31885" lon="-0.34465">
        <ele>58.569</ele>
        <time>2010-12-04T08:49:42Z</time>
      </trkpt>
      <trkpt lat="46.31886" lon="-0.34464">
        <ele>58.5638</ele>
        <time>2010-12-04T08:49:43Z</time>
      </trkpt>
      <trkpt lat="46.31887" lon="-0.34464">
        <ele>58.5592</ele>
        <time>2010-12-04T08:49:44Z</time>
      </trkpt>
      <trkpt lat="46.31888" lon="-0.34464">
        <ele>58.5559</ele>
        <time>2010-12-04T08:49:45Z</time>
      </trkpt>
      <trkpt lat="46.3189" lon="-0.34464">
        <ele>58.5545</ele>
        <time>2010-12-04T08:49:46Z</time>
      </trkpt>
      <trkpt lat="46.31891" lon="-0.34463">
        <ele>58.5551</ele>
        <time>2010-12-04T08:49:47Z</time>
      </trkpt>
      <trkpt lat="46.31892" lon="-0.34464">
        <ele>58.5668</ele>
        <time>2010-12-04T08:49:48Z</time>
      </trkpt>
      <trkpt lat="46.31894" lon="-0.34464">
        <ele>58.5873</ele>
        <time>2010-12-04T08:49:49Z</time>
      </trkpt>
      <trkpt lat="46.31896" lon="-0.34464">
        <ele>58.6154</ele>
        <time>2010-12-04T08:49:50Z</time>
      </trkpt>
      <trkpt lat="46.31897" lon="-0.34464">
        <ele>58.639</ele>
        <time>2010-12-04T08:49:51Z</time>
      </trkpt>
      <trkpt lat="46.31899" lon="-0.34464">
        <ele>58.6633</ele>
        <time>2010-12-04T08:49:52Z</time>
      </trkpt>
      <trkpt lat="46.31901" lon="-0.34463">
        <ele>58.6905</ele>
        <time>2010-12-04T08:49:53Z</time>
      </trkpt>
      <trkpt lat="46.31902" lon="-0.34463">
        <ele>58.7211</ele>
        <time>2010-12-04T08:49:54Z</time>
      </trkpt>
      <trkpt lat="46.31904" lon="-0.34463">
        <ele>58.7522</ele>
        <time>2010-12-04T08:49:55Z</time>
      </trkpt>
      <trkpt lat="46.31905" lon="-0.34463">
        <ele>58.7828</ele>
        <time>2010-12-04T08:49:56Z</time>
      </trkpt>
      <trkpt lat="46.31907" lon="-0.34463">
        <ele>58.813</ele>
        <time>2010-12-04T08:49:57Z</time>
      </trkpt>
      <trkpt lat="46.31908" lon="-0.34462">
        <ele>58.8414</ele>
        <time>2010-12-04T08:49:58Z</time>
      </trkpt>
      <trkpt lat="46.3191" lon="-0.34462">
        <ele>58.8689</ele>
        <time>2010-12-04T08:49:59Z</time>
      </trkpt>
      <trkpt lat="46.31911" lon="-0.34462">
        <ele>58.8962</ele>
        <time>2010-12-04T08:50:00Z</time>
      </trkpt>
      <trkpt lat="46.31912" lon="-0.34462">
        <ele>58.9233</ele>
        <time>2010-12-04T08:50:01Z</time>
      </trkpt>
      <trkpt lat="46.31914" lon="-0.34461">
        <ele>58.9503</ele>
        <time>2010-12-04T08:50:02Z</time>
      </trkpt>
      <trkpt lat="46.31915" lon="-0.34461">
        <ele>58.977</ele>
        <time>2010-12-04T08:50:03Z</time>
      </trkpt>
      <trkpt lat="46.31916" lon="-0.34461">
        <ele>59.0023</ele>
        <time>2010-12-04T08:50:04Z</time>
      </trkpt>
      <trkpt lat="46.31918" lon="-0.34461">
        <ele>59.0265</ele>
        <time>2010-12-04T08:50:05Z</time>
      </trkpt>
      <trkpt lat="46.3192" lon="-0.3446">
        <ele>59.0484</ele>
        <time>2010-12-04T08:50:06Z</time>
      </trkpt>
      <trkpt lat="46.31921" lon="-0.3446">
        <ele>59.0697</ele>
        <time>2010-12-04T08:50:07Z</time>
      </trkpt>
      <trkpt lat="46.31922" lon="-0.34459">
        <ele>59.0913</ele>
        <time>2010-12-04T08:50:08Z</time>
      </trkpt>
      <trkpt lat="46.31924" lon="-0.34459">
        <ele>59.114</ele>
        <time>2010-12-04T08:50:09Z</time>
      </trkpt>
      <trkpt lat="46.31925" lon="-0.34459">
        <ele>59.1368</ele>
        <time>2010-12-04T08:50:10Z</time>
      </trkpt>
      <trkpt lat="46.31927" lon="-0.34458">
        <ele>59.1583</ele>
        <time>2010-12-04T08:50:11Z</time>
      </trkpt>
      <trkpt lat="46.31928" lon="-0.34458">
        <ele>59.1802</ele>
        <time>2010-12-04T08:50:12Z</time>
      </trkpt>
      <trkpt lat="46.31929" lon="-0.34458">
        <ele>59.2032</ele>
        <time>2010-12-04T08:50:13Z</time>
      </trkpt>
      <trkpt lat="46.31931" lon="-0.34458">
        <ele>59.2275</ele>
        <time>2010-12-04T08:50:14Z</time>
      </trkpt>
      <trkpt lat="46.31932" lon="-0.34458">
        <ele>59.2521</ele>
        <time>2010-12-04T08:50:15Z</time>
      </trkpt>
      <trkpt lat="46.31933" lon="-0.34459">
        <ele>59.2811</ele>
        <time>2010-12-04T08:50:16Z</time>
      </trkpt>
      <trkpt lat="46.31934" lon="-0.34459">
        <ele>59.3094</ele>
        <time>2010-12-04T08:50:17Z</time>
      </trkpt>
      <trkpt lat="46.31936" lon="-0.34458">
        <ele>59.338</ele>
        <time>2010-12-04T08:50:18Z</time>
      </trkpt>
      <trkpt lat="46.31937" lon="-0.34458">
        <ele>59.3784</ele>
        <time>2010-12-04T08:50:19Z</time>
      </trkpt>
      <trkpt lat="46.31938" lon="-0.34457">
        <ele>59.4188</ele>
        <time>2010-12-04T08:50:20Z</time>
      </trkpt>
      <trkpt lat="46.31939" lon="-0.34456">
        <ele>59.4598</ele>
        <time>2010-12-04T08:50:21Z</time>
      </trkpt>
      <trkpt lat="46.31941" lon="-0.34455">
        <ele>59.5001</ele>
        <time>2010-12-04T08:50:22Z</time>
      </trkpt>
      <trkpt lat="46.31941" lon="-0.34454">
        <ele>59.5614</ele>
        <time>2010-12-04T08:50:23Z</time>
      </trkpt>
      <trkpt lat="46.31942" lon="-0.34452">
        <ele>59.6411</ele>
        <time>2010-12-04T08:50:24Z</time>
      </trkpt>
      <trkpt lat="46.31943" lon="-0.34451">
        <ele>59.7194</ele>
        <time>2010-12-04T08:50:25Z</time>
      </trkpt>
      <trkpt lat="46.31944" lon="-0.34449">
        <ele>59.8167</ele>
        <time>2010-12-04T08:50:26Z</time>
      </trkpt>
      <trkpt lat="46.31944" lon="-0.34447">
        <ele>59.929</ele>
        <time>2010-12-04T08:50:27Z</time>
      </trkpt>
      <trkpt lat="46.31944" lon="-0.34446">
        <ele>60.0526</ele>
        <time>2010-12-04T08:50:28Z</time>
      </trkpt>
      <trkpt lat="46.31945" lon="-0.34444">
        <ele>60.185</ele>
        <time>2010-12-04T08:50:29Z</time>
      </trkpt>
      <trkpt lat="46.31945" lon="-0.34442">
        <ele>60.3243</ele>
        <time>2010-12-04T08:50:30Z</time>
      </trkpt>
      <trkpt lat="46.31946" lon="-0.3444">
        <ele>60.4686</ele>
        <time>2010-12-04T08:50:31Z</time>
      </trkpt>
      <trkpt lat="46.31947" lon="-0.34439">
        <ele>60.616</ele>
        <time>2010-12-04T08:50:32Z</time>
      </trkpt>
      <trkpt lat="46.31948" lon="-0.34437">
        <ele>60.7668</ele>
        <time>2010-12-04T08:50:33Z</time>
      </trkpt>
      <trkpt lat="46.31949" lon="-0.34435">
        <ele>60.9196</ele>
        <time>2010-12-04T08:50:34Z</time>
      </trkpt>
      <trkpt lat="46.3195" lon="-0.34433">
        <ele>61.0734</ele>
        <time>2010-12-04T08:50:35Z</time>
      </trkpt>
      <trkpt lat="46.3195" lon="-0.34431">
        <ele>61.2277</ele>
        <time>2010-12-04T08:50:36Z</time>
      </trkpt>
      <trkpt lat="46.31952" lon="-0.34429">
        <ele>61.3806</ele>
        <time>2010-12-04T08:50:37Z</time>
      </trkpt>
      <trkpt lat="46.31952" lon="-0.34428">
        <ele>61.5355</ele>
        <time>2010-12-04T08:50:38Z</time>
      </trkpt>
      <trkpt lat="46.31953" lon="-0.34426">
        <ele>61.6886</ele>
        <time>2010-12-04T08:50:39Z</time>
      </trkpt>
      <trkpt lat="46.31954" lon="-0.34425">
        <ele>61.8411</ele>
        <time>2010-12-04T08:50:40Z</time>
      </trkpt>
      <trkpt lat="46.31955" lon="-0.34423">
        <ele>61.991</ele>
        <time>2010-12-04T08:50:41Z</time>
      </trkpt>
      <trkpt lat="46.31956" lon="-0.34422">
        <ele>62.1377</ele>
        <time>2010-12-04T08:50:42Z</time>
      </trkpt>
      <trkpt lat="46.31957" lon="-0.34421">
        <ele>62.2818</ele>
        <time>2010-12-04T08:50:43Z</time>
      </trkpt>
      <trkpt lat="46.31958" lon="-0.34419">
        <ele>62.4236</ele>
        <time>2010-12-04T08:50:44Z</time>
      </trkpt>
      <trkpt lat="46.31959" lon="-0.34417">
        <ele>62.5638</ele>
        <time>2010-12-04T08:50:45Z</time>
      </trkpt>
      <trkpt lat="46.3196" lon="-0.34416">
        <ele>62.702</ele>
        <time>2010-12-04T08:50:46Z</time>
      </trkpt>
      <trkpt lat="46.3196" lon="-0.34414">
        <ele>62.838</ele>
        <time>2010-12-04T08:50:47Z</time>
      </trkpt>
      <trkpt lat="46.31961" lon="-0.34412">
        <ele>62.9711</ele>
        <time>2010-12-04T08:50:48Z</time>
      </trkpt>
      <trkpt lat="46.31962" lon="-0.3441">
        <ele>63.1013</ele>
        <time>2010-12-04T08:50:49Z</time>
      </trkpt>
      <trkpt lat="46.31963" lon="-0.34409">
        <ele>63.2286</ele>
        <time>2010-12-04T08:50:50Z</time>
      </trkpt>
      <trkpt lat="46.31964" lon="-0.34407">
        <ele>63.3531</ele>
        <time>2010-12-04T08:50:51Z</time>
      </trkpt>
      <trkpt lat="46.31965" lon="-0.34405">
        <ele>63.4755</ele>
        <time>2010-12-04T08:50:52Z</time>
      </trkpt>
      <trkpt lat="46.31965" lon="-0.34404">
        <ele>63.5959</ele>
        <time>2010-12-04T08:50:53Z</time>
      </trkpt>
      <trkpt lat="46.31966" lon="-0.34402">
        <ele>63.7137</ele>
        <time>2010-12-04T08:50:54Z</time>
      </trkpt>
      <trkpt lat="46.31967" lon="-0.34401">
        <ele>63.8293</ele>
        <time>2010-12-04T08:50:55Z</time>
      </trkpt>
      <trkpt lat="46.31967" lon="-0.34399">
        <ele>63.9435</ele>
        <time>2010-12-04T08:50:56Z</time>
      </trkpt>
      <trkpt lat="46.31968" lon="-0.34398">
        <ele>64.0541</ele>
        <time>2010-12-04T08:50:57Z</time>
      </trkpt>
      <trkpt lat="46.31969" lon="-0.34396">
        <ele>64.1618</ele>
        <time>2010-12-04T08:50:58Z</time>
      </trkpt>
      <trkpt lat="46.3197" lon="-0.34395">
        <ele>64.2697</ele>
        <time>2010-12-04T08:50:59Z</time>
      </trkpt>
      <trkpt lat="46.3197" lon="-0.34394">
        <ele>64.3756</ele>
        <time>2010-12-04T08:51:00Z</time>
      </trkpt>
      <trkpt lat="46.31971" lon="-0.34392">
        <ele>64.4765</ele>
        <time>2010-12-04T08:51:01Z</time>
      </trkpt>
      <trkpt lat="46.31971" lon="-0.3439">
        <ele>64.5792</ele>
        <time>2010-12-04T08:51:02Z</time>
      </trkpt>
      <trkpt lat="46.31972" lon="-0.34388">
        <ele>64.6779</ele>
        <time>2010-12-04T08:51:03Z</time>
      </trkpt>
      <trkpt lat="46.31973" lon="-0.34387">
        <ele>64.7746</ele>
        <time>2010-12-04T08:51:04Z</time>
      </trkpt>
      <trkpt lat="46.31974" lon="-0.34386">
        <ele>64.8697</ele>
        <time>2010-12-04T08:51:05Z</time>
      </trkpt>
      <trkpt lat="46.31976" lon="-0.34384">
        <ele>64.9622</ele>
        <time>2010-12-04T08:51:06Z</time>
      </trkpt>
      <trkpt lat="46.31977" lon="-0.34383">
        <ele>65.052</ele>
        <time>2010-12-04T08:51:07Z</time>
      </trkpt>
      <trkpt lat="46.31978" lon="-0.34381">
        <ele>65.1397</ele>
        <time>2010-12-04T08:51:08Z</time>
      </trkpt>
      <trkpt lat="46.31979" lon="-0.34379">
        <ele>65.2237</ele>
        <time>2010-12-04T08:51:09Z</time>
      </trkpt>
      <trkpt lat="46.31981" lon="-0.34377">
        <ele>65.3003</ele>
        <time>2010-12-04T08:51:10Z</time>
      </trkpt>
      <trkpt lat="46.31982" lon="-0.34376">
        <ele>65.3739</ele>
        <time>2010-12-04T08:51:11Z</time>
      </trkpt>
      <trkpt lat="46.31983" lon="-0.34374">
        <ele>65.445</ele>
        <time>2010-12-04T08:51:12Z</time>
      </trkpt>
      <trkpt lat="46.31984" lon="-0.34373">
        <ele>65.5148</ele>
        <time>2010-12-04T08:51:13Z</time>
      </trkpt>
      <trkpt lat="46.31985" lon="-0.34372">
        <ele>65.5833</ele>
        <time>2010-12-04T08:51:14Z</time>
      </trkpt>
      <trkpt lat="46.31986" lon="-0.3437">
        <ele>65.649</ele>
        <time>2010-12-04T08:51:15Z</time>
      </trkpt>
      <trkpt lat="46.31986" lon="-0.34368">
        <ele>65.7071</ele>
        <time>2010-12-04T08:51:16Z</time>
      </trkpt>
      <trkpt lat="46.31987" lon="-0.34367">
        <ele>65.7608</ele>
        <time>2010-12-04T08:51:17Z</time>
      </trkpt>
      <trkpt lat="46.31988" lon="-0.34365">
        <ele>65.8061</ele>
        <time>2010-12-04T08:51:18Z</time>
      </trkpt>
      <trkpt lat="46.31989" lon="-0.34364">
        <ele>65.8535</ele>
        <time>2010-12-04T08:51:19Z</time>
      </trkpt>
      <trkpt lat="46.3199" lon="-0.34362">
        <ele>65.9071</ele>
        <time>2010-12-04T08:51:20Z</time>
      </trkpt>
      <trkpt lat="46.3199" lon="-0.3436">
        <ele>65.9679</ele>
        <time>2010-12-04T08:51:21Z</time>
      </trkpt>
      <trkpt lat="46.3199" lon="-0.34358">
        <ele>66.0444</ele>
        <time>2010-12-04T08:51:22Z</time>
      </trkpt>
      <trkpt lat="46.31991" lon="-0.34356">
        <ele>66.1324</ele>
        <time>2010-12-04T08:51:23Z</time>
      </trkpt>
      <trkpt lat="46.31992" lon="-0.34354">
        <ele>66.2266</ele>
        <time>2010-12-04T08:51:24Z</time>
      </trkpt>
      <trkpt lat="46.31992" lon="-0.34353">
        <ele>66.3242</ele>
        <time>2010-12-04T08:51:25Z</time>
      </trkpt>
      <trkpt lat="46.31993" lon="-0.34351">
        <ele>66.423</ele>
        <time>2010-12-04T08:51:26Z</time>
      </trkpt>
      <trkpt lat="46.31994" lon="-0.34349">
        <ele>66.5197</ele>
        <time>2010-12-04T08:51:27Z</time>
      </trkpt>
      <trkpt lat="46.31994" lon="-0.34348">
        <ele>66.6152</ele>
        <time>2010-12-04T08:51:28Z</time>
      </trkpt>
      <trkpt lat="46.31995" lon="-0.34346">
        <ele>66.7104</ele>
        <time>2010-12-04T08:51:29Z</time>
      </trkpt>
      <trkpt lat="46.31996" lon="-0.34345">
        <ele>66.8023</ele>
        <time>2010-12-04T08:51:30Z</time>
      </trkpt>
      <trkpt lat="46.31997" lon="-0.34343">
        <ele>66.8961</ele>
        <time>2010-12-04T08:51:31Z</time>
      </trkpt>
      <trkpt lat="46.31997" lon="-0.34342">
        <ele>66.9869</ele>
        <time>2010-12-04T08:51:32Z</time>
      </trkpt>
      <trkpt lat="46.31998" lon="-0.3434">
        <ele>67.0785</ele>
        <time>2010-12-04T08:51:33Z</time>
      </trkpt>
      <trkpt lat="46.31998" lon="-0.34338">
        <ele>67.1662</ele>
        <time>2010-12-04T08:51:34Z</time>
      </trkpt>
      <trkpt lat="46.31999" lon="-0.34336">
        <ele>67.256</ele>
        <time>2010-12-04T08:51:35Z</time>
      </trkpt>
      <trkpt lat="46.32" lon="-0.34334">
        <ele>67.3465</ele>
        <time>2010-12-04T08:51:36Z</time>
      </trkpt>
      <trkpt lat="46.32" lon="-0.34332">
        <ele>67.436</ele>
        <time>2010-12-04T08:51:37Z</time>
      </trkpt>
      <trkpt lat="46.32001" lon="-0.34331">
        <ele>67.5224</ele>
        <time>2010-12-04T08:51:38Z</time>
      </trkpt>
      <trkpt lat="46.32002" lon="-0.34329">
        <ele>67.6118</ele>
        <time>2010-12-04T08:51:39Z</time>
      </trkpt>
      <trkpt lat="46.32003" lon="-0.34327">
        <ele>67.7052</ele>
        <time>2010-12-04T08:51:40Z</time>
      </trkpt>
      <trkpt lat="46.32003" lon="-0.34326">
        <ele>67.8013</ele>
        <time>2010-12-04T08:51:41Z</time>
      </trkpt>
      <trkpt lat="46.32004" lon="-0.34324">
        <ele>67.8964</ele>
        <time>2010-12-04T08:51:42Z</time>
      </trkpt>
      <trkpt lat="46.32004" lon="-0.34322">
        <ele>67.9798</ele>
        <time>2010-12-04T08:51:43Z</time>
      </trkpt>
      <trkpt lat="46.32005" lon="-0.3432">
        <ele>68.0564</ele>
        <time>2010-12-04T08:51:44Z</time>
      </trkpt>
      <trkpt lat="46.32005" lon="-0.34319">
        <ele>68.1325</ele>
        <time>2010-12-04T08:51:45Z</time>
      </trkpt>
      <trkpt lat="46.32006" lon="-0.34317">
        <ele>68.2107</ele>
        <time>2010-12-04T08:51:46Z</time>
      </trkpt>
      <trkpt lat="46.32006" lon="-0.34315">
        <ele>68.2903</ele>
        <time>2010-12-04T08:51:47Z</time>
      </trkpt>
      <trkpt lat="46.32006" lon="-0.34314">
        <ele>68.3691</ele>
        <time>2010-12-04T08:51:48Z</time>
      </trkpt>
      <trkpt lat="46.32007" lon="-0.34312">
        <ele>68.4454</ele>
        <time>2010-12-04T08:51:49Z</time>
      </trkpt>
      <trkpt lat="46.32008" lon="-0.3431">
        <ele>68.5221</ele>
        <time>2010-12-04T08:51:50Z</time>
      </trkpt>
      <trkpt lat="46.32008" lon="-0.34309">
        <ele>68.5968</ele>
        <time>2010-12-04T08:51:51Z</time>
      </trkpt>
      <trkpt lat="46.32009" lon="-0.34307">
        <ele>68.6757</ele>
        <time>2010-12-04T08:51:52Z</time>
      </trkpt>
      <trkpt lat="46.3201" lon="-0.34305">
        <ele>68.7585</ele>
        <time>2010-12-04T08:51:53Z</time>
      </trkpt>
      <trkpt lat="46.3201" lon="-0.34303">
        <ele>68.8441</ele>
        <time>2010-12-04T08:51:54Z</time>
      </trkpt>
      <trkpt lat="46.32011" lon="-0.34301">
        <ele>68.9305</ele>
        <time>2010-12-04T08:51:55Z</time>
      </trkpt>
      <trkpt lat="46.32012" lon="-0.34299">
        <ele>69.0154</ele>
        <time>2010-12-04T08:51:56Z</time>
      </trkpt>
      <trkpt lat="46.32013" lon="-0.34298">
        <ele>69.1011</ele>
        <time>2010-12-04T08:51:57Z</time>
      </trkpt>
      <trkpt lat="46.32013" lon="-0.34296">
        <ele>69.1838</ele>
        <time>2010-12-04T08:51:58Z</time>
      </trkpt>
      <trkpt lat="46.32014" lon="-0.34294">
        <ele>69.2644</ele>
        <time>2010-12-04T08:51:59Z</time>
      </trkpt>
      <trkpt lat="46.32015" lon="-0.34292">
        <ele>69.3435</ele>
        <time>2010-12-04T08:52:00Z</time>
      </trkpt>
      <trkpt lat="46.32015" lon="-0.34291">
        <ele>69.4174</ele>
        <time>2010-12-04T08:52:01Z</time>
      </trkpt>
      <trkpt lat="46.32015" lon="-0.34289">
        <ele>69.4894</ele>
        <time>2010-12-04T08:52:02Z</time>
      </trkpt>
      <trkpt lat="46.32016" lon="-0.34287">
        <ele>69.5615</ele>
        <time>2010-12-04T08:52:03Z</time>
      </trkpt>
      <trkpt lat="46.32016" lon="-0.34286">
        <ele>69.6345</ele>
        <time>2010-12-04T08:52:04Z</time>
      </trkpt>
      <trkpt lat="46.32017" lon="-0.34284">
        <ele>69.707</ele>
        <time>2010-12-04T08:52:05Z</time>
      </trkpt>
      <trkpt lat="46.32018" lon="-0.34282">
        <ele>69.777</ele>
        <time>2010-12-04T08:52:06Z</time>
      </trkpt>
      <trkpt lat="46.32018" lon="-0.3428">
        <ele>69.8442</ele>
        <time>2010-12-04T08:52:07Z</time>
      </trkpt>
      <trkpt lat="46.32019" lon="-0.34279">
        <ele>69.9105</ele>
        <time>2010-12-04T08:52:08Z</time>
      </trkpt>
      <trkpt lat="46.32019" lon="-0.34277">
        <ele>69.9756</ele>
        <time>2010-12-04T08:52:09Z</time>
      </trkpt>
      <trkpt lat="46.3202" lon="-0.34275">
        <ele>70.0376</ele>
        <time>2010-12-04T08:52:10Z</time>
      </trkpt>
      <trkpt lat="46.32021" lon="-0.34273">
        <ele>70.0972</ele>
        <time>2010-12-04T08:52:11Z</time>
      </trkpt>
      <trkpt lat="46.32021" lon="-0.34272">
        <ele>70.1536</ele>
        <time>2010-12-04T08:52:12Z</time>
      </trkpt>
      <trkpt lat="46.32022" lon="-0.3427">
        <ele>70.2092</ele>
        <time>2010-12-04T08:52:13Z</time>
      </trkpt>
      <trkpt lat="46.32023" lon="-0.34268">
        <ele>70.266</ele>
        <time>2010-12-04T08:52:14Z</time>
      </trkpt>
      <trkpt lat="46.32023" lon="-0.34266">
        <ele>70.3224</ele>
        <time>2010-12-04T08:52:15Z</time>
      </trkpt>
      <trkpt lat="46.32024" lon="-0.34264">
        <ele>70.3785</ele>
        <time>2010-12-04T08:52:16Z</time>
      </trkpt>
      <trkpt lat="46.32024" lon="-0.34263">
        <ele>70.4343</ele>
        <time>2010-12-04T08:52:17Z</time>
      </trkpt>
      <trkpt lat="46.32025" lon="-0.34261">
        <ele>70.4903</ele>
        <time>2010-12-04T08:52:18Z</time>
      </trkpt>
      <trkpt lat="46.32026" lon="-0.34259">
        <ele>70.5451</ele>
        <time>2010-12-04T08:52:19Z</time>
      </trkpt>
      <trkpt lat="46.32026" lon="-0.34257">
        <ele>70.5997</ele>
        <time>2010-12-04T08:52:20Z</time>
      </trkpt>
      <trkpt lat="46.32027" lon="-0.34255">
        <ele>70.6543</ele>
        <time>2010-12-04T08:52:21Z</time>
      </trkpt>
      <trkpt lat="46.32027" lon="-0.34253">
        <ele>70.7093</ele>
        <time>2010-12-04T08:52:22Z</time>
      </trkpt>
      <trkpt lat="46.32028" lon="-0.34252">
        <ele>70.7631</ele>
        <time>2010-12-04T08:52:23Z</time>
      </trkpt>
      <trkpt lat="46.32028" lon="-0.3425">
        <ele>70.8163</ele>
        <time>2010-12-04T08:52:24Z</time>
      </trkpt>
      <trkpt lat="46.32029" lon="-0.34248">
        <ele>70.8674</ele>
        <time>2010-12-04T08:52:25Z</time>
      </trkpt>
      <trkpt lat="46.32029" lon="-0.34246">
        <ele>70.9184</ele>
        <time>2010-12-04T08:52:26Z</time>
      </trkpt>
      <trkpt lat="46.3203" lon="-0.34243">
        <ele>70.9692</ele>
        <time>2010-12-04T08:52:27Z</time>
      </trkpt>
      <trkpt lat="46.32031" lon="-0.34241">
        <ele>71.0203</ele>
        <time>2010-12-04T08:52:28Z</time>
      </trkpt>
      <trkpt lat="46.32032" lon="-0.34239">
        <ele>71.0697</ele>
        <time>2010-12-04T08:52:29Z</time>
      </trkpt>
      <trkpt lat="46.32032" lon="-0.34237">
        <ele>71.1186</ele>
        <time>2010-12-04T08:52:30Z</time>
      </trkpt>
      <trkpt lat="46.32032" lon="-0.34235">
        <ele>71.1663</ele>
        <time>2010-12-04T08:52:31Z</time>
      </trkpt>
      <trkpt lat="46.32033" lon="-0.34233">
        <ele>71.2132</ele>
        <time>2010-12-04T08:52:32Z</time>
      </trkpt>
      <trkpt lat="46.32034" lon="-0.34231">
        <ele>71.2576</ele>
        <time>2010-12-04T08:52:33Z</time>
      </trkpt>
      <trkpt lat="46.32034" lon="-0.34229">
        <ele>71.3006</ele>
        <time>2010-12-04T08:52:34Z</time>
      </trkpt>
      <trkpt lat="46.32035" lon="-0.34228">
        <ele>71.3417</ele>
        <time>2010-12-04T08:52:35Z</time>
      </trkpt>
      <trkpt lat="46.32035" lon="-0.34226">
        <ele>71.3825</ele>
        <time>2010-12-04T08:52:36Z</time>
      </trkpt>
      <trkpt lat="46.32036" lon="-0.34224">
        <ele>71.4228</ele>
        <time>2010-12-04T08:52:37Z</time>
      </trkpt>
      <trkpt lat="46.32036" lon="-0.34222">
        <ele>71.4622</ele>
        <time>2010-12-04T08:52:38Z</time>
      </trkpt>
      <trkpt lat="46.32037" lon="-0.3422">
        <ele>71.5012</ele>
        <time>2010-12-04T08:52:39Z</time>
      </trkpt>
      <trkpt lat="46.32037" lon="-0.34218">
        <ele>71.5405</ele>
        <time>2010-12-04T08:52:40Z</time>
      </trkpt>
      <trkpt lat="46.32038" lon="-0.34216">
        <ele>71.5799</ele>
        <time>2010-12-04T08:52:41Z</time>
      </trkpt>
      <trkpt lat="46.32038" lon="-0.34214">
        <ele>71.6191</ele>
        <time>2010-12-04T08:52:42Z</time>
      </trkpt>
      <trkpt lat="46.32038" lon="-0.34212">
        <ele>71.6565</ele>
        <time>2010-12-04T08:52:43Z</time>
      </trkpt>
      <trkpt lat="46.32039" lon="-0.34211">
        <ele>71.6937</ele>
        <time>2010-12-04T08:52:44Z</time>
      </trkpt>
      <trkpt lat="46.32039" lon="-0.34209">
        <ele>71.7304</ele>
        <time>2010-12-04T08:52:45Z</time>
      </trkpt>
      <trkpt lat="46.32039" lon="-0.34207">
        <ele>71.7659</ele>
        <time>2010-12-04T08:52:46Z</time>
      </trkpt>
      <trkpt lat="46.3204" lon="-0.34205">
        <ele>71.8023</ele>
        <time>2010-12-04T08:52:47Z</time>
      </trkpt>
      <trkpt lat="46.3204" lon="-0.34203">
        <ele>71.8374</ele>
        <time>2010-12-04T08:52:48Z</time>
      </trkpt>
      <trkpt lat="46.3204" lon="-0.34201">
        <ele>71.8703</ele>
        <time>2010-12-04T08:52:49Z</time>
      </trkpt>
      <trkpt lat="46.32041" lon="-0.34199">
        <ele>71.902</ele>
        <time>2010-12-04T08:52:50Z</time>
      </trkpt>
      <trkpt lat="46.32042" lon="-0.34197">
        <ele>71.9304</ele>
        <time>2010-12-04T08:52:51Z</time>
      </trkpt>
      <trkpt lat="46.32042" lon="-0.34195">
        <ele>71.9517</ele>
        <time>2010-12-04T08:52:52Z</time>
      </trkpt>
      <trkpt lat="46.32043" lon="-0.34193">
        <ele>71.9682</ele>
        <time>2010-12-04T08:52:53Z</time>
      </trkpt>
      <trkpt lat="46.32043" lon="-0.34191">
        <ele>71.9838</ele>
        <time>2010-12-04T08:52:54Z</time>
      </trkpt>
      <trkpt lat="46.32044" lon="-0.34189">
        <ele>71.9999</ele>
        <time>2010-12-04T08:52:55Z</time>
      </trkpt>
      <trkpt lat="46.32044" lon="-0.34187">
        <ele>72.015</ele>
        <time>2010-12-04T08:52:56Z</time>
      </trkpt>
      <trkpt lat="46.32045" lon="-0.34185">
        <ele>72.0281</ele>
        <time>2010-12-04T08:52:57Z</time>
      </trkpt>
      <trkpt lat="46.32045" lon="-0.34183">
        <ele>72.0399</ele>
        <time>2010-12-04T08:52:58Z</time>
      </trkpt>
      <trkpt lat="46.32045" lon="-0.34182">
        <ele>72.0502</ele>
        <time>2010-12-04T08:52:59Z</time>
      </trkpt>
      <trkpt lat="46.32046" lon="-0.3418">
        <ele>72.0589</ele>
        <time>2010-12-04T08:53:00Z</time>
      </trkpt>
      <trkpt lat="46.32047" lon="-0.34178">
        <ele>72.0681</ele>
        <time>2010-12-04T08:53:01Z</time>
      </trkpt>
      <trkpt lat="46.32047" lon="-0.34176">
        <ele>72.0767</ele>
        <time>2010-12-04T08:53:02Z</time>
      </trkpt>
      <trkpt lat="46.32047" lon="-0.34174">
        <ele>72.0861</ele>
        <time>2010-12-04T08:53:03Z</time>
      </trkpt>
      <trkpt lat="46.32048" lon="-0.34173">
        <ele>72.0962</ele>
        <time>2010-12-04T08:53:04Z</time>
      </trkpt>
      <trkpt lat="46.32048" lon="-0.34171">
        <ele>72.1071</ele>
        <time>2010-12-04T08:53:05Z</time>
      </trkpt>
      <trkpt lat="46.32049" lon="-0.34169">
        <ele>72.117</ele>
        <time>2010-12-04T08:53:06Z</time>
      </trkpt>
      <trkpt lat="46.32049" lon="-0.34167">
        <ele>72.1273</ele>
        <time>2010-12-04T08:53:07Z</time>
      </trkpt>
      <trkpt lat="46.3205" lon="-0.34165">
        <ele>72.1335</ele>
        <time>2010-12-04T08:53:08Z</time>
      </trkpt>
      <trkpt lat="46.3205" lon="-0.34164">
        <ele>72.1492</ele>
        <time>2010-12-04T08:53:09Z</time>
      </trkpt>
      <trkpt lat="46.3205" lon="-0.34162">
        <ele>72.1714</ele>
        <time>2010-12-04T08:53:10Z</time>
      </trkpt>
      <trkpt lat="46.32051" lon="-0.3416">
        <ele>72.1714</ele>
        <time>2010-12-04T08:53:11Z</time>
      </trkpt>
      <trkpt lat="46.32051" lon="-0.34159">
        <ele>72.1911</ele>
        <time>2010-12-04T08:53:12Z</time>
      </trkpt>
      <trkpt lat="46.32052" lon="-0.34157">
        <ele>72.2046</ele>
        <time>2010-12-04T08:53:13Z</time>
      </trkpt>
      <trkpt lat="46.32052" lon="-0.34155">
        <ele>72.21</ele>
        <time>2010-12-04T08:53:14Z</time>
      </trkpt>
      <trkpt lat="46.32053" lon="-0.34154">
        <ele>72.2125</ele>
        <time>2010-12-04T08:53:15Z</time>
      </trkpt>
      <trkpt lat="46.32054" lon="-0.34152">
        <ele>72.2067</ele>
        <time>2010-12-04T08:53:16Z</time>
      </trkpt>
      <trkpt lat="46.32055" lon="-0.3415">
        <ele>72.1979</ele>
        <time>2010-12-04T08:53:17Z</time>
      </trkpt>
      <trkpt lat="46.32055" lon="-0.34148">
        <ele>72.184</ele>
        <time>2010-12-04T08:53:18Z</time>
      </trkpt>
      <trkpt lat="46.32056" lon="-0.34146">
        <ele>72.1678</ele>
        <time>2010-12-04T08:53:19Z</time>
      </trkpt>
      <trkpt lat="46.32056" lon="-0.34145">
        <ele>72.1505</ele>
        <time>2010-12-04T08:53:20Z</time>
      </trkpt>
      <trkpt lat="46.32057" lon="-0.34143">
        <ele>72.1325</ele>
        <time>2010-12-04T08:53:21Z</time>
      </trkpt>
      <trkpt lat="46.32058" lon="-0.34141">
        <ele>72.1167</ele>
        <time>2010-12-04T08:53:22Z</time>
      </trkpt>
      <trkpt lat="46.32058" lon="-0.34139">
        <ele>72.1013</ele>
        <time>2010-12-04T08:53:23Z</time>
      </trkpt>
      <trkpt lat="46.32058" lon="-0.34137">
        <ele>72.0861</ele>
        <time>2010-12-04T08:53:24Z</time>
      </trkpt>
      <trkpt lat="46.32059" lon="-0.34135">
        <ele>72.0749</ele>
        <time>2010-12-04T08:53:25Z</time>
      </trkpt>
      <trkpt lat="46.3206" lon="-0.34132">
        <ele>72.0644</ele>
        <time>2010-12-04T08:53:26Z</time>
      </trkpt>
      <trkpt lat="46.3206" lon="-0.3413">
        <ele>72.0527</ele>
        <time>2010-12-04T08:53:27Z</time>
      </trkpt>
      <trkpt lat="46.3206" lon="-0.34128">
        <ele>72.0444</ele>
        <time>2010-12-04T08:53:28Z</time>
      </trkpt>
      <trkpt lat="46.32061" lon="-0.34127">
        <ele>72.0394</ele>
        <time>2010-12-04T08:53:29Z</time>
      </trkpt>
      <trkpt lat="46.32061" lon="-0.34125">
        <ele>72.0348</ele>
        <time>2010-12-04T08:53:30Z</time>
      </trkpt>
      <trkpt lat="46.32061" lon="-0.34123">
        <ele>72.0291</ele>
        <time>2010-12-04T08:53:31Z</time>
      </trkpt>
      <trkpt lat="46.32061" lon="-0.34121">
        <ele>72.0415</ele>
        <time>2010-12-04T08:53:32Z</time>
      </trkpt>
      <trkpt lat="46.32062" lon="-0.34119">
        <ele>72.0532</ele>
        <time>2010-12-04T08:53:33Z</time>
      </trkpt>
      <trkpt lat="46.32062" lon="-0.34116">
        <ele>72.0766</ele>
        <time>2010-12-04T08:53:34Z</time>
      </trkpt>
      <trkpt lat="46.32063" lon="-0.34114">
        <ele>72.0999</ele>
        <time>2010-12-04T08:53:35Z</time>
      </trkpt>
      <trkpt lat="46.32063" lon="-0.34112">
        <ele>72.1224</ele>
        <time>2010-12-04T08:53:36Z</time>
      </trkpt>
      <trkpt lat="46.32064" lon="-0.34111">
        <ele>72.1451</ele>
        <time>2010-12-04T08:53:37Z</time>
      </trkpt>
      <trkpt lat="46.32065" lon="-0.34109">
        <ele>72.1694</ele>
        <time>2010-12-04T08:53:38Z</time>
      </trkpt>
      <trkpt lat="46.32065" lon="-0.34107">
        <ele>72.1931</ele>
        <time>2010-12-04T08:53:39Z</time>
      </trkpt>
      <trkpt lat="46.32066" lon="-0.34105">
        <ele>72.2167</ele>
        <time>2010-12-04T08:53:40Z</time>
      </trkpt>
      <trkpt lat="46.32066" lon="-0.34104">
        <ele>72.2167</ele>
        <time>2010-12-04T08:53:41Z</time>
      </trkpt>
      <trkpt lat="46.32066" lon="-0.34102">
        <ele>72.2385</ele>
        <time>2010-12-04T08:53:42Z</time>
      </trkpt>
      <trkpt lat="46.32067" lon="-0.341">
        <ele>72.2601</ele>
        <time>2010-12-04T08:53:43Z</time>
      </trkpt>
      <trkpt lat="46.32068" lon="-0.34098">
        <ele>72.2826</ele>
        <time>2010-12-04T08:53:44Z</time>
      </trkpt>
      <trkpt lat="46.32068" lon="-0.34096">
        <ele>72.303</ele>
        <time>2010-12-04T08:53:45Z</time>
      </trkpt>
      <trkpt lat="46.32068" lon="-0.34094">
        <ele>72.3249</ele>
        <time>2010-12-04T08:53:46Z</time>
      </trkpt>
      <trkpt lat="46.32068" lon="-0.34092">
        <ele>72.3469</ele>
        <time>2010-12-04T08:53:47Z</time>
      </trkpt>
      <trkpt lat="46.32069" lon="-0.3409">
        <ele>72.3726</ele>
        <time>2010-12-04T08:53:48Z</time>
      </trkpt>
      <trkpt lat="46.32069" lon="-0.34088">
        <ele>72.4005</ele>
        <time>2010-12-04T08:53:49Z</time>
      </trkpt>
      <trkpt lat="46.32069" lon="-0.34086">
        <ele>72.4304</ele>
        <time>2010-12-04T08:53:50Z</time>
      </trkpt>
      <trkpt lat="46.32069" lon="-0.34083">
        <ele>72.4592</ele>
        <time>2010-12-04T08:53:51Z</time>
      </trkpt>
      <trkpt lat="46.32069" lon="-0.34081">
        <ele>72.4876</ele>
        <time>2010-12-04T08:53:52Z</time>
      </trkpt>
      <trkpt lat="46.32069" lon="-0.34079">
        <ele>72.5153</ele>
        <time>2010-12-04T08:53:53Z</time>
      </trkpt>
      <trkpt lat="46.3207" lon="-0.34077">
        <ele>72.5402</ele>
        <time>2010-12-04T08:53:54Z</time>
      </trkpt>
      <trkpt lat="46.3207" lon="-0.34075">
        <ele>72.5631</ele>
        <time>2010-12-04T08:53:55Z</time>
      </trkpt>
      <trkpt lat="46.3207" lon="-0.34073">
        <ele>72.5845</ele>
        <time>2010-12-04T08:53:56Z</time>
      </trkpt>
      <trkpt lat="46.3207" lon="-0.34071">
        <ele>72.6044</ele>
        <time>2010-12-04T08:53:57Z</time>
      </trkpt>
      <trkpt lat="46.3207" lon="-0.34069">
        <ele>72.6227</ele>
        <time>2010-12-04T08:53:58Z</time>
      </trkpt>
      <trkpt lat="46.3207" lon="-0.34067">
        <ele>72.6398</ele>
        <time>2010-12-04T08:53:59Z</time>
      </trkpt>
      <trkpt lat="46.3207" lon="-0.34065">
        <ele>72.6568</ele>
        <time>2010-12-04T08:54:00Z</time>
      </trkpt>
      <trkpt lat="46.32071" lon="-0.34063">
        <ele>72.6725</ele>
        <time>2010-12-04T08:54:01Z</time>
      </trkpt>
      <trkpt lat="46.32071" lon="-0.34061">
        <ele>72.6852</ele>
        <time>2010-12-04T08:54:02Z</time>
      </trkpt>
      <trkpt lat="46.32071" lon="-0.34059">
        <ele>72.6979</ele>
        <time>2010-12-04T08:54:03Z</time>
      </trkpt>
      <trkpt lat="46.32071" lon="-0.34057">
        <ele>72.7104</ele>
        <time>2010-12-04T08:54:04Z</time>
      </trkpt>
      <trkpt lat="46.32071" lon="-0.34055">
        <ele>72.722</ele>
        <time>2010-12-04T08:54:05Z</time>
      </trkpt>
      <trkpt lat="46.32071" lon="-0.34053">
        <ele>72.7332</ele>
        <time>2010-12-04T08:54:06Z</time>
      </trkpt>
      <trkpt lat="46.32071" lon="-0.34051">
        <ele>72.7456</ele>
        <time>2010-12-04T08:54:07Z</time>
      </trkpt>
      <trkpt lat="46.32071" lon="-0.34048">
        <ele>72.7574</ele>
        <time>2010-12-04T08:54:08Z</time>
      </trkpt>
      <trkpt lat="46.32071" lon="-0.34046">
        <ele>72.768</ele>
        <time>2010-12-04T08:54:09Z</time>
      </trkpt>
      <trkpt lat="46.3207" lon="-0.34044">
        <ele>72.7788</ele>
        <time>2010-12-04T08:54:10Z</time>
      </trkpt>
      <trkpt lat="46.3207" lon="-0.34041">
        <ele>72.7888</ele>
        <time>2010-12-04T08:54:11Z</time>
      </trkpt>
      <trkpt lat="46.3207" lon="-0.34039">
        <ele>72.8</ele>
        <time>2010-12-04T08:54:12Z</time>
      </trkpt>
      <trkpt lat="46.3207" lon="-0.34037">
        <ele>72.811</ele>
        <time>2010-12-04T08:54:13Z</time>
      </trkpt>
      <trkpt lat="46.32069" lon="-0.34035">
        <ele>72.8226</ele>
        <time>2010-12-04T08:54:14Z</time>
      </trkpt>
      <trkpt lat="46.32069" lon="-0.34033">
        <ele>72.8337</ele>
        <time>2010-12-04T08:54:15Z</time>
      </trkpt>
      <trkpt lat="46.32069" lon="-0.34031">
        <ele>72.8452</ele>
        <time>2010-12-04T08:54:16Z</time>
      </trkpt>
      <trkpt lat="46.32069" lon="-0.34028">
        <ele>72.8578</ele>
        <time>2010-12-04T08:54:17Z</time>
      </trkpt>
      <trkpt lat="46.32068" lon="-0.34026">
        <ele>72.8718</ele>
        <time>2010-12-04T08:54:18Z</time>
      </trkpt>
      <trkpt lat="46.32068" lon="-0.34024">
        <ele>72.8869</ele>
        <time>2010-12-04T08:54:19Z</time>
      </trkpt>
      <trkpt lat="46.32068" lon="-0.34022">
        <ele>72.9015</ele>
        <time>2010-12-04T08:54:20Z</time>
      </trkpt>
      <trkpt lat="46.32067" lon="-0.3402">
        <ele>72.9158</ele>
        <time>2010-12-04T08:54:21Z</time>
      </trkpt>
      <trkpt lat="46.32067" lon="-0.34018">
        <ele>72.9299</ele>
        <time>2010-12-04T08:54:22Z</time>
      </trkpt>
      <trkpt lat="46.32066" lon="-0.34016">
        <ele>72.9448</ele>
        <time>2010-12-04T08:54:23Z</time>
      </trkpt>
      <trkpt lat="46.32066" lon="-0.34014">
        <ele>72.9576</ele>
        <time>2010-12-04T08:54:24Z</time>
      </trkpt>
      <trkpt lat="46.32066" lon="-0.34012">
        <ele>72.9686</ele>
        <time>2010-12-04T08:54:25Z</time>
      </trkpt>
      <trkpt lat="46.32065" lon="-0.3401">
        <ele>72.9792</ele>
        <time>2010-12-04T08:54:26Z</time>
      </trkpt>
      <trkpt lat="46.32065" lon="-0.34008">
        <ele>72.9891</ele>
        <time>2010-12-04T08:54:27Z</time>
      </trkpt>
      <trkpt lat="46.32064" lon="-0.34006">
        <ele>73.001</ele>
        <time>2010-12-04T08:54:28Z</time>
      </trkpt>
      <trkpt lat="46.32064" lon="-0.34004">
        <ele>73.012</ele>
        <time>2010-12-04T08:54:29Z</time>
      </trkpt>
      <trkpt lat="46.32064" lon="-0.34003">
        <ele>73.0228</ele>
        <time>2010-12-04T08:54:30Z</time>
      </trkpt>
      <trkpt lat="46.32064" lon="-0.34001">
        <ele>73.0346</ele>
        <time>2010-12-04T08:54:31Z</time>
      </trkpt>
      <trkpt lat="46.32063" lon="-0.33999">
        <ele>73.0465</ele>
        <time>2010-12-04T08:54:32Z</time>
      </trkpt>
      <trkpt lat="46.32063" lon="-0.33997">
        <ele>73.058</ele>
        <time>2010-12-04T08:54:33Z</time>
      </trkpt>
      <trkpt lat="46.32063" lon="-0.33996">
        <ele>73.0694</ele>
        <time>2010-12-04T08:54:34Z</time>
      </trkpt>
      <trkpt lat="46.32063" lon="-0.33993">
        <ele>73.0826</ele>
        <time>2010-12-04T08:54:35Z</time>
      </trkpt>
      <trkpt lat="46.32062" lon="-0.33991">
        <ele>73.0962</ele>
        <time>2010-12-04T08:54:36Z</time>
      </trkpt>
      <trkpt lat="46.32061" lon="-0.3399">
        <ele>73.11</ele>
        <time>2010-12-04T08:54:37Z</time>
      </trkpt>
      <trkpt lat="46.32061" lon="-0.33988">
        <ele>73.1238</ele>
        <time>2010-12-04T08:54:38Z</time>
      </trkpt>
      <trkpt lat="46.3206" lon="-0.33986">
        <ele>73.1368</ele>
        <time>2010-12-04T08:54:39Z</time>
      </trkpt>
      <trkpt lat="46.3206" lon="-0.33984">
        <ele>73.1483</ele>
        <time>2010-12-04T08:54:40Z</time>
      </trkpt>
      <trkpt lat="46.32059" lon="-0.33982">
        <ele>73.1604</ele>
        <time>2010-12-04T08:54:41Z</time>
      </trkpt>
      <trkpt lat="46.32059" lon="-0.33981">
        <ele>73.172</ele>
        <time>2010-12-04T08:54:42Z</time>
      </trkpt>
      <trkpt lat="46.32058" lon="-0.33979">
        <ele>73.1824</ele>
        <time>2010-12-04T08:54:43Z</time>
      </trkpt>
      <trkpt lat="46.32058" lon="-0.33977">
        <ele>73.1919</ele>
        <time>2010-12-04T08:54:44Z</time>
      </trkpt>
      <trkpt lat="46.32058" lon="-0.33974">
        <ele>73.2017</ele>
        <time>2010-12-04T08:54:45Z</time>
      </trkpt>
      <trkpt lat="46.32057" lon="-0.33972">
        <ele>73.2121</ele>
        <time>2010-12-04T08:54:46Z</time>
      </trkpt>
      <trkpt lat="46.32057" lon="-0.3397">
        <ele>73.2221</ele>
        <time>2010-12-04T08:54:47Z</time>
      </trkpt>
      <trkpt lat="46.32056" lon="-0.33968">
        <ele>73.2317</ele>
        <time>2010-12-04T08:54:48Z</time>
      </trkpt>
      <trkpt lat="46.32056" lon="-0.33966">
        <ele>73.2409</ele>
        <time>2010-12-04T08:54:49Z</time>
      </trkpt>
      <trkpt lat="46.32056" lon="-0.33964">
        <ele>73.2502</ele>
        <time>2010-12-04T08:54:50Z</time>
      </trkpt>
      <trkpt lat="46.32055" lon="-0.33962">
        <ele>73.2592</ele>
        <time>2010-12-04T08:54:51Z</time>
      </trkpt>
      <trkpt lat="46.32055" lon="-0.3396">
        <ele>73.2683</ele>
        <time>2010-12-04T08:54:52Z</time>
      </trkpt>
      <trkpt lat="46.32054" lon="-0.33958">
        <ele>73.2763</ele>
        <time>2010-12-04T08:54:53Z</time>
      </trkpt>
      <trkpt lat="46.32054" lon="-0.33955">
        <ele>73.2842</ele>
        <time>2010-12-04T08:54:54Z</time>
      </trkpt>
      <trkpt lat="46.32054" lon="-0.33954">
        <ele>73.2941</ele>
        <time>2010-12-04T08:54:55Z</time>
      </trkpt>
      <trkpt lat="46.32053" lon="-0.33952">
        <ele>73.3041</ele>
        <time>2010-12-04T08:54:56Z</time>
      </trkpt>
      <trkpt lat="46.32053" lon="-0.3395">
        <ele>73.3142</ele>
        <time>2010-12-04T08:54:57Z</time>
      </trkpt>
      <trkpt lat="46.32053" lon="-0.33947">
        <ele>73.3246</ele>
        <time>2010-12-04T08:54:58Z</time>
      </trkpt>
      <trkpt lat="46.32052" lon="-0.33945">
        <ele>73.3349</ele>
        <time>2010-12-04T08:54:59Z</time>
      </trkpt>
      <trkpt lat="46.32052" lon="-0.33943">
        <ele>73.3428</ele>
        <time>2010-12-04T08:55:00Z</time>
      </trkpt>
      <trkpt lat="46.32052" lon="-0.33941">
        <ele>73.3487</ele>
        <time>2010-12-04T08:55:01Z</time>
      </trkpt>
      <trkpt lat="46.32051" lon="-0.33939">
        <ele>73.3539</ele>
        <time>2010-12-04T08:55:02Z</time>
      </trkpt>
      <trkpt lat="46.3205" lon="-0.33937">
        <ele>73.3585</ele>
        <time>2010-12-04T08:55:03Z</time>
      </trkpt>
      <trkpt lat="46.3205" lon="-0.33935">
        <ele>73.3622</ele>
        <time>2010-12-04T08:55:04Z</time>
      </trkpt>
      <trkpt lat="46.3205" lon="-0.33933">
        <ele>73.3643</ele>
        <time>2010-12-04T08:55:05Z</time>
      </trkpt>
      <trkpt lat="46.32049" lon="-0.3393">
        <ele>73.366</ele>
        <time>2010-12-04T08:55:06Z</time>
      </trkpt>
      <trkpt lat="46.32049" lon="-0.33928">
        <ele>73.3655</ele>
        <time>2010-12-04T08:55:07Z</time>
      </trkpt>
      <trkpt lat="46.32048" lon="-0.33926">
        <ele>73.3654</ele>
        <time>2010-12-04T08:55:08Z</time>
      </trkpt>
      <trkpt lat="46.32048" lon="-0.33924">
        <ele>73.3662</ele>
        <time>2010-12-04T08:55:09Z</time>
      </trkpt>
      <trkpt lat="46.32048" lon="-0.33922">
        <ele>73.3675</ele>
        <time>2010-12-04T08:55:10Z</time>
      </trkpt>
      <trkpt lat="46.32047" lon="-0.3392">
        <ele>73.3689</ele>
        <time>2010-12-04T08:55:11Z</time>
      </trkpt>
      <trkpt lat="46.32047" lon="-0.33918">
        <ele>73.3695</ele>
        <time>2010-12-04T08:55:12Z</time>
      </trkpt>
      <trkpt lat="46.32047" lon="-0.33916">
        <ele>73.371</ele>
        <time>2010-12-04T08:55:13Z</time>
      </trkpt>
      <trkpt lat="46.32046" lon="-0.33914">
        <ele>73.3754</ele>
        <time>2010-12-04T08:55:14Z</time>
      </trkpt>
      <trkpt lat="46.32046" lon="-0.33912">
        <ele>73.3806</ele>
        <time>2010-12-04T08:55:15Z</time>
      </trkpt>
      <trkpt lat="46.32045" lon="-0.3391">
        <ele>73.3905</ele>
        <time>2010-12-04T08:55:16Z</time>
      </trkpt>
      <trkpt lat="46.32045" lon="-0.33909">
        <ele>73.4022</ele>
        <time>2010-12-04T08:55:17Z</time>
      </trkpt>
      <trkpt lat="46.32045" lon="-0.33907">
        <ele>73.4157</ele>
        <time>2010-12-04T08:55:18Z</time>
      </trkpt>
      <trkpt lat="46.32045" lon="-0.33905">
        <ele>73.4272</ele>
        <time>2010-12-04T08:55:19Z</time>
      </trkpt>
      <trkpt lat="46.32044" lon="-0.33903">
        <ele>73.4361</ele>
        <time>2010-12-04T08:55:20Z</time>
      </trkpt>
      <trkpt lat="46.32044" lon="-0.33901">
        <ele>73.4437</ele>
        <time>2010-12-04T08:55:21Z</time>
      </trkpt>
      <trkpt lat="46.32044" lon="-0.33899">
        <ele>73.4479</ele>
        <time>2010-12-04T08:55:22Z</time>
      </trkpt>
      <trkpt lat="46.32043" lon="-0.33897">
        <ele>73.4491</ele>
        <time>2010-12-04T08:55:23Z</time>
      </trkpt>
      <trkpt lat="46.32043" lon="-0.33894">
        <ele>73.4489</ele>
        <time>2010-12-04T08:55:24Z</time>
      </trkpt>
      <trkpt lat="46.32042" lon="-0.33892">
        <ele>73.4477</ele>
        <time>2010-12-04T08:55:25Z</time>
      </trkpt>
      <trkpt lat="46.32042" lon="-0.3389">
        <ele>73.4457</ele>
        <time>2010-12-04T08:55:26Z</time>
      </trkpt>
      <trkpt lat="46.32041" lon="-0.33887">
        <ele>73.4421</ele>
        <time>2010-12-04T08:55:27Z</time>
      </trkpt>
      <trkpt lat="46.32041" lon="-0.33885">
        <ele>73.4378</ele>
        <time>2010-12-04T08:55:28Z</time>
      </trkpt>
      <trkpt lat="46.3204" lon="-0.33883">
        <ele>73.4341</ele>
        <time>2010-12-04T08:55:29Z</time>
      </trkpt>
      <trkpt lat="46.3204" lon="-0.33881">
        <ele>73.4295</ele>
        <time>2010-12-04T08:55:30Z</time>
      </trkpt>
      <trkpt lat="46.3204" lon="-0.33878">
        <ele>73.4238</ele>
        <time>2010-12-04T08:55:31Z</time>
      </trkpt>
      <trkpt lat="46.3204" lon="-0.33876">
        <ele>73.4182</ele>
        <time>2010-12-04T08:55:32Z</time>
      </trkpt>
      <trkpt lat="46.3204" lon="-0.33874">
        <ele>73.4141</ele>
        <time>2010-12-04T08:55:33Z</time>
      </trkpt>
      <trkpt lat="46.32039" lon="-0.33872">
        <ele>73.4111</ele>
        <time>2010-12-04T08:55:34Z</time>
      </trkpt>
      <trkpt lat="46.32039" lon="-0.3387">
        <ele>73.4079</ele>
        <time>2010-12-04T08:55:35Z</time>
      </trkpt>
      <trkpt lat="46.32039" lon="-0.33868">
        <ele>73.4068</ele>
        <time>2010-12-04T08:55:36Z</time>
      </trkpt>
      <trkpt lat="46.32039" lon="-0.33866">
        <ele>73.4052</ele>
        <time>2010-12-04T08:55:37Z</time>
      </trkpt>
      <trkpt lat="46.32039" lon="-0.33864">
        <ele>73.4044</ele>
        <time>2010-12-04T08:55:38Z</time>
      </trkpt>
      <trkpt lat="46.32039" lon="-0.33862">
        <ele>73.404</ele>
        <time>2010-12-04T08:55:39Z</time>
      </trkpt>
      <trkpt lat="46.32039" lon="-0.33859">
        <ele>73.4038</ele>
        <time>2010-12-04T08:55:40Z</time>
      </trkpt>
      <trkpt lat="46.32039" lon="-0.33857">
        <ele>73.4044</ele>
        <time>2010-12-04T08:55:41Z</time>
      </trkpt>
      <trkpt lat="46.32039" lon="-0.33855">
        <ele>73.4037</ele>
        <time>2010-12-04T08:55:42Z</time>
      </trkpt>
      <trkpt lat="46.32039" lon="-0.33853">
        <ele>73.4008</ele>
        <time>2010-12-04T08:55:43Z</time>
      </trkpt>
      <trkpt lat="46.32039" lon="-0.33851">
        <ele>73.3986</ele>
        <time>2010-12-04T08:55:44Z</time>
      </trkpt>
      <trkpt lat="46.32039" lon="-0.33849">
        <ele>73.3965</ele>
        <time>2010-12-04T08:55:45Z</time>
      </trkpt>
      <trkpt lat="46.32039" lon="-0.33847">
        <ele>73.3953</ele>
        <time>2010-12-04T08:55:46Z</time>
      </trkpt>
      <trkpt lat="46.32038" lon="-0.33845">
        <ele>73.3957</ele>
        <time>2010-12-04T08:55:47Z</time>
      </trkpt>
      <trkpt lat="46.32038" lon="-0.33843">
        <ele>73.3974</ele>
        <time>2010-12-04T08:55:48Z</time>
      </trkpt>
      <trkpt lat="46.32038" lon="-0.33841">
        <ele>73.4007</ele>
        <time>2010-12-04T08:55:49Z</time>
      </trkpt>
      <trkpt lat="46.32037" lon="-0.33839">
        <ele>73.4054</ele>
        <time>2010-12-04T08:55:50Z</time>
      </trkpt>
      <trkpt lat="46.32037" lon="-0.33838">
        <ele>73.4113</ele>
        <time>2010-12-04T08:55:51Z</time>
      </trkpt>
      <trkpt lat="46.32037" lon="-0.33836">
        <ele>73.419</ele>
        <time>2010-12-04T08:55:52Z</time>
      </trkpt>
      <trkpt lat="46.32036" lon="-0.33834">
        <ele>73.4277</ele>
        <time>2010-12-04T08:55:53Z</time>
      </trkpt>
      <trkpt lat="46.32036" lon="-0.33832">
        <ele>73.4385</ele>
        <time>2010-12-04T08:55:54Z</time>
      </trkpt>
      <trkpt lat="46.32036" lon="-0.3383">
        <ele>73.4509</ele>
        <time>2010-12-04T08:55:55Z</time>
      </trkpt>
      <trkpt lat="46.32036" lon="-0.33828">
        <ele>73.4643</ele>
        <time>2010-12-04T08:55:56Z</time>
      </trkpt>
      <trkpt lat="46.32035" lon="-0.33826">
        <ele>73.4792</ele>
        <time>2010-12-04T08:55:57Z</time>
      </trkpt>
      <trkpt lat="46.32035" lon="-0.33824">
        <ele>73.4946</ele>
        <time>2010-12-04T08:55:58Z</time>
      </trkpt>
      <trkpt lat="46.32035" lon="-0.33822">
        <ele>73.5103</ele>
        <time>2010-12-04T08:55:59Z</time>
      </trkpt>
      <trkpt lat="46.32035" lon="-0.3382">
        <ele>73.5256</ele>
        <time>2010-12-04T08:56:00Z</time>
      </trkpt>
      <trkpt lat="46.32035" lon="-0.33818">
        <ele>73.5412</ele>
        <time>2010-12-04T08:56:01Z</time>
      </trkpt>
      <trkpt lat="46.32034" lon="-0.33816">
        <ele>73.5566</ele>
        <time>2010-12-04T08:56:02Z</time>
      </trkpt>
      <trkpt lat="46.32034" lon="-0.33814">
        <ele>73.5721</ele>
        <time>2010-12-04T08:56:03Z</time>
      </trkpt>
      <trkpt lat="46.32034" lon="-0.33812">
        <ele>73.5885</ele>
        <time>2010-12-04T08:56:04Z</time>
      </trkpt>
      <trkpt lat="46.32034" lon="-0.3381">
        <ele>73.6057</ele>
        <time>2010-12-04T08:56:05Z</time>
      </trkpt>
      <trkpt lat="46.32034" lon="-0.33807">
        <ele>73.6207</ele>
        <time>2010-12-04T08:56:06Z</time>
      </trkpt>
      <trkpt lat="46.32034" lon="-0.33805">
        <ele>73.6207</ele>
        <time>2010-12-04T08:56:07Z</time>
      </trkpt>
      <trkpt lat="46.32034" lon="-0.33802">
        <ele>73.6355</ele>
        <time>2010-12-04T08:56:08Z</time>
      </trkpt>
      <trkpt lat="46.32034" lon="-0.338">
        <ele>73.6466</ele>
        <time>2010-12-04T08:56:09Z</time>
      </trkpt>
      <trkpt lat="46.32034" lon="-0.33798">
        <ele>73.6619</ele>
        <time>2010-12-04T08:56:10Z</time>
      </trkpt>
      <trkpt lat="46.32034" lon="-0.33795">
        <ele>73.6767</ele>
        <time>2010-12-04T08:56:11Z</time>
      </trkpt>
      <trkpt lat="46.32034" lon="-0.33793">
        <ele>73.6904</ele>
        <time>2010-12-04T08:56:12Z</time>
      </trkpt>
      <trkpt lat="46.32033" lon="-0.33791">
        <ele>73.7028</ele>
        <time>2010-12-04T08:56:13Z</time>
      </trkpt>
      <trkpt lat="46.32033" lon="-0.33789">
        <ele>73.7156</ele>
        <time>2010-12-04T08:56:14Z</time>
      </trkpt>
      <trkpt lat="46.32032" lon="-0.33788">
        <ele>73.7277</ele>
        <time>2010-12-04T08:56:15Z</time>
      </trkpt>
      <trkpt lat="46.32032" lon="-0.33786">
        <ele>73.7422</ele>
        <time>2010-12-04T08:56:16Z</time>
      </trkpt>
      <trkpt lat="46.32032" lon="-0.33784">
        <ele>73.7574</ele>
        <time>2010-12-04T08:56:17Z</time>
      </trkpt>
      <trkpt lat="46.32032" lon="-0.33782">
        <ele>73.7721</ele>
        <time>2010-12-04T08:56:18Z</time>
      </trkpt>
      <trkpt lat="46.32032" lon="-0.3378">
        <ele>73.785</ele>
        <time>2010-12-04T08:56:19Z</time>
      </trkpt>
      <trkpt lat="46.32032" lon="-0.33778">
        <ele>73.7964</ele>
        <time>2010-12-04T08:56:20Z</time>
      </trkpt>
      <trkpt lat="46.32032" lon="-0.33776">
        <ele>73.8098</ele>
        <time>2010-12-04T08:56:21Z</time>
      </trkpt>
      <trkpt lat="46.32032" lon="-0.33774">
        <ele>73.8263</ele>
        <time>2010-12-04T08:56:22Z</time>
      </trkpt>
      <trkpt lat="46.32032" lon="-0.33772">
        <ele>73.8444</ele>
        <time>2010-12-04T08:56:23Z</time>
      </trkpt>
      <trkpt lat="46.32032" lon="-0.3377">
        <ele>73.863</ele>
        <time>2010-12-04T08:56:24Z</time>
      </trkpt>
      <trkpt lat="46.32032" lon="-0.33768">
        <ele>73.8813</ele>
        <time>2010-12-04T08:56:25Z</time>
      </trkpt>
      <trkpt lat="46.32032" lon="-0.33766">
        <ele>73.8991</ele>
        <time>2010-12-04T08:56:26Z</time>
      </trkpt>
      <trkpt lat="46.32032" lon="-0.33765">
        <ele>73.9167</ele>
        <time>2010-12-04T08:56:27Z</time>
      </trkpt>
      <trkpt lat="46.32032" lon="-0.33763">
        <ele>73.9335</ele>
        <time>2010-12-04T08:56:28Z</time>
      </trkpt>
      <trkpt lat="46.32032" lon="-0.33761">
        <ele>73.9511</ele>
        <time>2010-12-04T08:56:29Z</time>
      </trkpt>
      <trkpt lat="46.32032" lon="-0.33758">
        <ele>73.9678</ele>
        <time>2010-12-04T08:56:30Z</time>
      </trkpt>
      <trkpt lat="46.32032" lon="-0.33756">
        <ele>73.9868</ele>
        <time>2010-12-04T08:56:31Z</time>
      </trkpt>
      <trkpt lat="46.32031" lon="-0.33754">
        <ele>74.0061</ele>
        <time>2010-12-04T08:56:32Z</time>
      </trkpt>
      <trkpt lat="46.32031" lon="-0.33752">
        <ele>74.0258</ele>
        <time>2010-12-04T08:56:33Z</time>
      </trkpt>
      <trkpt lat="46.32031" lon="-0.3375">
        <ele>74.0454</ele>
        <time>2010-12-04T08:56:34Z</time>
      </trkpt>
      <trkpt lat="46.32031" lon="-0.33748">
        <ele>74.0659</ele>
        <time>2010-12-04T08:56:35Z</time>
      </trkpt>
      <trkpt lat="46.32031" lon="-0.33746">
        <ele>74.088</ele>
        <time>2010-12-04T08:56:36Z</time>
      </trkpt>
      <trkpt lat="46.32031" lon="-0.33744">
        <ele>74.1103</ele>
        <time>2010-12-04T08:56:37Z</time>
      </trkpt>
      <trkpt lat="46.32031" lon="-0.33742">
        <ele>74.1328</ele>
        <time>2010-12-04T08:56:38Z</time>
      </trkpt>
      <trkpt lat="46.32031" lon="-0.3374">
        <ele>74.154</ele>
        <time>2010-12-04T08:56:39Z</time>
      </trkpt>
      <trkpt lat="46.3203" lon="-0.33738">
        <ele>74.1751</ele>
        <time>2010-12-04T08:56:40Z</time>
      </trkpt>
      <trkpt lat="46.3203" lon="-0.33736">
        <ele>74.1975</ele>
        <time>2010-12-04T08:56:41Z</time>
      </trkpt>
      <trkpt lat="46.32029" lon="-0.33735">
        <ele>74.219</ele>
        <time>2010-12-04T08:56:42Z</time>
      </trkpt>
      <trkpt lat="46.32029" lon="-0.33733">
        <ele>74.2402</ele>
        <time>2010-12-04T08:56:43Z</time>
      </trkpt>
      <trkpt lat="46.32029" lon="-0.33731">
        <ele>74.2604</ele>
        <time>2010-12-04T08:56:44Z</time>
      </trkpt>
      <trkpt lat="46.32029" lon="-0.33728">
        <ele>74.2799</ele>
        <time>2010-12-04T08:56:45Z</time>
      </trkpt>
      <trkpt lat="46.32029" lon="-0.33726">
        <ele>74.2989</ele>
        <time>2010-12-04T08:56:46Z</time>
      </trkpt>
      <trkpt lat="46.32029" lon="-0.33724">
        <ele>74.3176</ele>
        <time>2010-12-04T08:56:47Z</time>
      </trkpt>
      <trkpt lat="46.32029" lon="-0.33722">
        <ele>74.3361</ele>
        <time>2010-12-04T08:56:48Z</time>
      </trkpt>
      <trkpt lat="46.32029" lon="-0.33719">
        <ele>74.3525</ele>
        <time>2010-12-04T08:56:49Z</time>
      </trkpt>
      <trkpt lat="46.32029" lon="-0.33717">
        <ele>74.3677</ele>
        <time>2010-12-04T08:56:50Z</time>
      </trkpt>
      <trkpt lat="46.32029" lon="-0.33715">
        <ele>74.3821</ele>
        <time>2010-12-04T08:56:51Z</time>
      </trkpt>
      <trkpt lat="46.32029" lon="-0.33713">
        <ele>74.3979</ele>
        <time>2010-12-04T08:56:52Z</time>
      </trkpt>
      <trkpt lat="46.32029" lon="-0.33711">
        <ele>74.4138</ele>
        <time>2010-12-04T08:56:53Z</time>
      </trkpt>
      <trkpt lat="46.32029" lon="-0.33709">
        <ele>74.4293</ele>
        <time>2010-12-04T08:56:54Z</time>
      </trkpt>
      <trkpt lat="46.32029" lon="-0.33707">
        <ele>74.4477</ele>
        <time>2010-12-04T08:56:55Z</time>
      </trkpt>
      <trkpt lat="46.32029" lon="-0.33705">
        <ele>74.4685</ele>
        <time>2010-12-04T08:56:56Z</time>
      </trkpt>
      <trkpt lat="46.32029" lon="-0.33704">
        <ele>74.491</ele>
        <time>2010-12-04T08:56:57Z</time>
      </trkpt>
      <trkpt lat="46.32029" lon="-0.33702">
        <ele>74.5143</ele>
        <time>2010-12-04T08:56:58Z</time>
      </trkpt>
      <trkpt lat="46.32029" lon="-0.337">
        <ele>74.5373</ele>
        <time>2010-12-04T08:56:59Z</time>
      </trkpt>
      <trkpt lat="46.32029" lon="-0.33699">
        <ele>74.5601</ele>
        <time>2010-12-04T08:57:00Z</time>
      </trkpt>
      <trkpt lat="46.32028" lon="-0.33697">
        <ele>74.5834</ele>
        <time>2010-12-04T08:57:01Z</time>
      </trkpt>
      <trkpt lat="46.32027" lon="-0.33695">
        <ele>74.6055</ele>
        <time>2010-12-04T08:57:02Z</time>
      </trkpt>
      <trkpt lat="46.32027" lon="-0.33693">
        <ele>74.627</ele>
        <time>2010-12-04T08:57:03Z</time>
      </trkpt>
      <trkpt lat="46.32026" lon="-0.33691">
        <ele>74.6469</ele>
        <time>2010-12-04T08:57:04Z</time>
      </trkpt>
      <trkpt lat="46.32026" lon="-0.33688">
        <ele>74.6656</ele>
        <time>2010-12-04T08:57:05Z</time>
      </trkpt>
      <trkpt lat="46.32025" lon="-0.33686">
        <ele>74.6838</ele>
        <time>2010-12-04T08:57:06Z</time>
      </trkpt>
      <trkpt lat="46.32025" lon="-0.33684">
        <ele>74.7018</ele>
        <time>2010-12-04T08:57:07Z</time>
      </trkpt>
      <trkpt lat="46.32024" lon="-0.33682">
        <ele>74.719</ele>
        <time>2010-12-04T08:57:08Z</time>
      </trkpt>
      <trkpt lat="46.32024" lon="-0.33679">
        <ele>74.7373</ele>
        <time>2010-12-04T08:57:09Z</time>
      </trkpt>
      <trkpt lat="46.32023" lon="-0.33677">
        <ele>74.758</ele>
        <time>2010-12-04T08:57:10Z</time>
      </trkpt>
      <trkpt lat="46.32023" lon="-0.33675">
        <ele>74.7789</ele>
        <time>2010-12-04T08:57:11Z</time>
      </trkpt>
      <trkpt lat="46.32022" lon="-0.33673">
        <ele>74.7993</ele>
        <time>2010-12-04T08:57:12Z</time>
      </trkpt>
      <trkpt lat="46.32021" lon="-0.33672">
        <ele>74.8205</ele>
        <time>2010-12-04T08:57:13Z</time>
      </trkpt>
      <trkpt lat="46.32021" lon="-0.3367">
        <ele>74.8429</ele>
        <time>2010-12-04T08:57:14Z</time>
      </trkpt>
      <trkpt lat="46.32021" lon="-0.33668">
        <ele>74.8664</ele>
        <time>2010-12-04T08:57:15Z</time>
      </trkpt>
      <trkpt lat="46.32021" lon="-0.33667">
        <ele>74.891</ele>
        <time>2010-12-04T08:57:16Z</time>
      </trkpt>
      <trkpt lat="46.32022" lon="-0.33665">
        <ele>74.9183</ele>
        <time>2010-12-04T08:57:17Z</time>
      </trkpt>
      <trkpt lat="46.32023" lon="-0.33663">
        <ele>74.9479</ele>
        <time>2010-12-04T08:57:18Z</time>
      </trkpt>
      <trkpt lat="46.32024" lon="-0.33661">
        <ele>74.9782</ele>
        <time>2010-12-04T08:57:19Z</time>
      </trkpt>
      <trkpt lat="46.32024" lon="-0.33659">
        <ele>75.0073</ele>
        <time>2010-12-04T08:57:20Z</time>
      </trkpt>
      <trkpt lat="46.32024" lon="-0.33657">
        <ele>75.0351</ele>
        <time>2010-12-04T08:57:21Z</time>
      </trkpt>
      <trkpt lat="46.32024" lon="-0.33655">
        <ele>75.0632</ele>
        <time>2010-12-04T08:57:22Z</time>
      </trkpt>
      <trkpt lat="46.32024" lon="-0.33653">
        <ele>75.0922</ele>
        <time>2010-12-04T08:57:23Z</time>
      </trkpt>
      <trkpt lat="46.32025" lon="-0.33651">
        <ele>75.1219</ele>
        <time>2010-12-04T08:57:24Z</time>
      </trkpt>
      <trkpt lat="46.32026" lon="-0.33649">
        <ele>75.152</ele>
        <time>2010-12-04T08:57:25Z</time>
      </trkpt>
      <trkpt lat="46.32026" lon="-0.33647">
        <ele>75.1821</ele>
        <time>2010-12-04T08:57:26Z</time>
      </trkpt>
      <trkpt lat="46.32027" lon="-0.33645">
        <ele>75.2121</ele>
        <time>2010-12-04T08:57:27Z</time>
      </trkpt>
      <trkpt lat="46.32028" lon="-0.33644">
        <ele>75.2409</ele>
        <time>2010-12-04T08:57:28Z</time>
      </trkpt>
      <trkpt lat="46.32029" lon="-0.33642">
        <ele>75.2699</ele>
        <time>2010-12-04T08:57:29Z</time>
      </trkpt>
      <trkpt lat="46.3203" lon="-0.3364">
        <ele>75.3003</ele>
        <time>2010-12-04T08:57:30Z</time>
      </trkpt>
      <trkpt lat="46.32031" lon="-0.33638">
        <ele>75.3301</ele>
        <time>2010-12-04T08:57:31Z</time>
      </trkpt>
      <trkpt lat="46.32031" lon="-0.33636">
        <ele>75.3584</ele>
        <time>2010-12-04T08:57:32Z</time>
      </trkpt>
      <trkpt lat="46.32032" lon="-0.33634">
        <ele>75.3848</ele>
        <time>2010-12-04T08:57:33Z</time>
      </trkpt>
      <trkpt lat="46.32032" lon="-0.33632">
        <ele>75.4101</ele>
        <time>2010-12-04T08:57:34Z</time>
      </trkpt>
      <trkpt lat="46.32032" lon="-0.3363">
        <ele>75.4333</ele>
        <time>2010-12-04T08:57:35Z</time>
      </trkpt>
      <trkpt lat="46.32032" lon="-0.33628">
        <ele>75.456</ele>
        <time>2010-12-04T08:57:36Z</time>
      </trkpt>
      <trkpt lat="46.32032" lon="-0.33626">
        <ele>75.479</ele>
        <time>2010-12-04T08:57:37Z</time>
      </trkpt>
      <trkpt lat="46.32032" lon="-0.33624">
        <ele>75.502</ele>
        <time>2010-12-04T08:57:38Z</time>
      </trkpt>
      <trkpt lat="46.32032" lon="-0.33622">
        <ele>75.5259</ele>
        <time>2010-12-04T08:57:39Z</time>
      </trkpt>
      <trkpt lat="46.32032" lon="-0.3362">
        <ele>75.5503</ele>
        <time>2010-12-04T08:57:40Z</time>
      </trkpt>
      <trkpt lat="46.32032" lon="-0.33618">
        <ele>75.5743</ele>
        <time>2010-12-04T08:57:41Z</time>
      </trkpt>
      <trkpt lat="46.32032" lon="-0.33616">
        <ele>75.5979</ele>
        <time>2010-12-04T08:57:42Z</time>
      </trkpt>
      <trkpt lat="46.32032" lon="-0.33613">
        <ele>75.6208</ele>
        <time>2010-12-04T08:57:43Z</time>
      </trkpt>
      <trkpt lat="46.32032" lon="-0.33611">
        <ele>75.6432</ele>
        <time>2010-12-04T08:57:44Z</time>
      </trkpt>
      <trkpt lat="46.32032" lon="-0.33609">
        <ele>75.6652</ele>
        <time>2010-12-04T08:57:45Z</time>
      </trkpt>
      <trkpt lat="46.32033" lon="-0.33607">
        <ele>75.6861</ele>
        <time>2010-12-04T08:57:46Z</time>
      </trkpt>
      <trkpt lat="46.32034" lon="-0.33604">
        <ele>75.7068</ele>
        <time>2010-12-04T08:57:47Z</time>
      </trkpt>
      <trkpt lat="46.32034" lon="-0.33602">
        <ele>75.727</ele>
        <time>2010-12-04T08:57:48Z</time>
      </trkpt>
      <trkpt lat="46.32034" lon="-0.336">
        <ele>75.748</ele>
        <time>2010-12-04T08:57:49Z</time>
      </trkpt>
      <trkpt lat="46.32034" lon="-0.33598">
        <ele>75.7705</ele>
        <time>2010-12-04T08:57:50Z</time>
      </trkpt>
      <trkpt lat="46.32034" lon="-0.33596">
        <ele>75.7916</ele>
        <time>2010-12-04T08:57:51Z</time>
      </trkpt>
      <trkpt lat="46.32035" lon="-0.33594">
        <ele>75.8116</ele>
        <time>2010-12-04T08:57:52Z</time>
      </trkpt>
      <trkpt lat="46.32035" lon="-0.33593">
        <ele>75.8301</ele>
        <time>2010-12-04T08:57:53Z</time>
      </trkpt>
      <trkpt lat="46.32035" lon="-0.33591">
        <ele>75.848</ele>
        <time>2010-12-04T08:57:54Z</time>
      </trkpt>
      <trkpt lat="46.32035" lon="-0.33589">
        <ele>75.8649</ele>
        <time>2010-12-04T08:57:55Z</time>
      </trkpt>
      <trkpt lat="46.32035" lon="-0.33587">
        <ele>75.8803</ele>
        <time>2010-12-04T08:57:56Z</time>
      </trkpt>
      <trkpt lat="46.32036" lon="-0.33585">
        <ele>75.8946</ele>
        <time>2010-12-04T08:57:57Z</time>
      </trkpt>
      <trkpt lat="46.32036" lon="-0.33583">
        <ele>75.9075</ele>
        <time>2010-12-04T08:57:58Z</time>
      </trkpt>
      <trkpt lat="46.32036" lon="-0.33581">
        <ele>75.9194</ele>
        <time>2010-12-04T08:57:59Z</time>
      </trkpt>
      <trkpt lat="46.32036" lon="-0.33579">
        <ele>75.9303</ele>
        <time>2010-12-04T08:58:00Z</time>
      </trkpt>
      <trkpt lat="46.32036" lon="-0.33577">
        <ele>75.9402</ele>
        <time>2010-12-04T08:58:01Z</time>
      </trkpt>
      <trkpt lat="46.32036" lon="-0.33575">
        <ele>75.9499</ele>
        <time>2010-12-04T08:58:02Z</time>
      </trkpt>
      <trkpt lat="46.32036" lon="-0.33573">
        <ele>75.9593</ele>
        <time>2010-12-04T08:58:03Z</time>
      </trkpt>
      <trkpt lat="46.32036" lon="-0.33571">
        <ele>75.9689</ele>
        <time>2010-12-04T08:58:04Z</time>
      </trkpt>
      <trkpt lat="46.32036" lon="-0.33569">
        <ele>75.9793</ele>
        <time>2010-12-04T08:58:05Z</time>
      </trkpt>
      <trkpt lat="46.32036" lon="-0.33566">
        <ele>75.9902</ele>
        <time>2010-12-04T08:58:06Z</time>
      </trkpt>
      <trkpt lat="46.32036" lon="-0.33564">
        <ele>76.0017</ele>
        <time>2010-12-04T08:58:07Z</time>
      </trkpt>
      <trkpt lat="46.32036" lon="-0.33562">
        <ele>76.0138</ele>
        <time>2010-12-04T08:58:08Z</time>
      </trkpt>
      <trkpt lat="46.32037" lon="-0.33559">
        <ele>76.0265</ele>
        <time>2010-12-04T08:58:09Z</time>
      </trkpt>
      <trkpt lat="46.32037" lon="-0.33557">
        <ele>76.0385</ele>
        <time>2010-12-04T08:58:10Z</time>
      </trkpt>
      <trkpt lat="46.32037" lon="-0.33554">
        <ele>76.0495</ele>
        <time>2010-12-04T08:58:11Z</time>
      </trkpt>
      <trkpt lat="46.32037" lon="-0.33552">
        <ele>76.0603</ele>
        <time>2010-12-04T08:58:12Z</time>
      </trkpt>
      <trkpt lat="46.32038" lon="-0.3355">
        <ele>76.0716</ele>
        <time>2010-12-04T08:58:13Z</time>
      </trkpt>
      <trkpt lat="46.32038" lon="-0.33548">
        <ele>76.0826</ele>
        <time>2010-12-04T08:58:14Z</time>
      </trkpt>
      <trkpt lat="46.32038" lon="-0.33545">
        <ele>76.0938</ele>
        <time>2010-12-04T08:58:15Z</time>
      </trkpt>
      <trkpt lat="46.32038" lon="-0.33543">
        <ele>76.1056</ele>
        <time>2010-12-04T08:58:16Z</time>
      </trkpt>
      <trkpt lat="46.32038" lon="-0.33541">
        <ele>76.1177</ele>
        <time>2010-12-04T08:58:17Z</time>
      </trkpt>
      <trkpt lat="46.32038" lon="-0.33539">
        <ele>76.1303</ele>
        <time>2010-12-04T08:58:18Z</time>
      </trkpt>
      <trkpt lat="46.32039" lon="-0.33537">
        <ele>76.1428</ele>
        <time>2010-12-04T08:58:19Z</time>
      </trkpt>
      <trkpt lat="46.32039" lon="-0.33534">
        <ele>76.1552</ele>
        <time>2010-12-04T08:58:20Z</time>
      </trkpt>
      <trkpt lat="46.32039" lon="-0.33532">
        <ele>76.1689</ele>
        <time>2010-12-04T08:58:21Z</time>
      </trkpt>
      <trkpt lat="46.32039" lon="-0.33529">
        <ele>76.1846</ele>
        <time>2010-12-04T08:58:22Z</time>
      </trkpt>
      <trkpt lat="46.32039" lon="-0.33527">
        <ele>76.2016</ele>
        <time>2010-12-04T08:58:23Z</time>
      </trkpt>
      <trkpt lat="46.32039" lon="-0.33525">
        <ele>76.2176</ele>
        <time>2010-12-04T08:58:24Z</time>
      </trkpt>
      <trkpt lat="46.32039" lon="-0.33523">
        <ele>76.2337</ele>
        <time>2010-12-04T08:58:25Z</time>
      </trkpt>
      <trkpt lat="46.32039" lon="-0.33521">
        <ele>76.2493</ele>
        <time>2010-12-04T08:58:26Z</time>
      </trkpt>
      <trkpt lat="46.32039" lon="-0.33518">
        <ele>76.2649</ele>
        <time>2010-12-04T08:58:27Z</time>
      </trkpt>
      <trkpt lat="46.32039" lon="-0.33516">
        <ele>76.2806</ele>
        <time>2010-12-04T08:58:28Z</time>
      </trkpt>
      <trkpt lat="46.32039" lon="-0.33514">
        <ele>76.2957</ele>
        <time>2010-12-04T08:58:29Z</time>
      </trkpt>
      <trkpt lat="46.32039" lon="-0.33512">
        <ele>76.3112</ele>
        <time>2010-12-04T08:58:30Z</time>
      </trkpt>
      <trkpt lat="46.3204" lon="-0.3351">
        <ele>76.3256</ele>
        <time>2010-12-04T08:58:31Z</time>
      </trkpt>
      <trkpt lat="46.3204" lon="-0.33509">
        <ele>76.3392</ele>
        <time>2010-12-04T08:58:32Z</time>
      </trkpt>
      <trkpt lat="46.3204" lon="-0.33507">
        <ele>76.3518</ele>
        <time>2010-12-04T08:58:33Z</time>
      </trkpt>
      <trkpt lat="46.3204" lon="-0.33505">
        <ele>76.3628</ele>
        <time>2010-12-04T08:58:34Z</time>
      </trkpt>
      <trkpt lat="46.3204" lon="-0.33504">
        <ele>76.373</ele>
        <time>2010-12-04T08:58:35Z</time>
      </trkpt>
      <trkpt lat="46.32039" lon="-0.33502">
        <ele>76.3825</ele>
        <time>2010-12-04T08:58:36Z</time>
      </trkpt>
      <trkpt lat="46.3204" lon="-0.335">
        <ele>76.3939</ele>
        <time>2010-12-04T08:58:37Z</time>
      </trkpt>
      <trkpt lat="46.3204" lon="-0.33498">
        <ele>76.4061</ele>
        <time>2010-12-04T08:58:38Z</time>
      </trkpt>
      <trkpt lat="46.3204" lon="-0.33496">
        <ele>76.4152</ele>
        <time>2010-12-04T08:58:39Z</time>
      </trkpt>
      <trkpt lat="46.32039" lon="-0.33494">
        <ele>76.4253</ele>
        <time>2010-12-04T08:58:40Z</time>
      </trkpt>
      <trkpt lat="46.3204" lon="-0.33493">
        <ele>76.4379</ele>
        <time>2010-12-04T08:58:41Z</time>
      </trkpt>
      <trkpt lat="46.3204" lon="-0.33491">
        <ele>76.4604</ele>
        <time>2010-12-04T08:58:42Z</time>
      </trkpt>
      <trkpt lat="46.32039" lon="-0.33489">
        <ele>76.4976</ele>
        <time>2010-12-04T08:58:43Z</time>
      </trkpt>
      <trkpt lat="46.32039" lon="-0.33487">
        <ele>76.5487</ele>
        <time>2010-12-04T08:58:44Z</time>
      </trkpt>
      <trkpt lat="46.32039" lon="-0.33485">
        <ele>76.5953</ele>
        <time>2010-12-04T08:58:45Z</time>
      </trkpt>
      <trkpt lat="46.32039" lon="-0.33483">
        <ele>76.6427</ele>
        <time>2010-12-04T08:58:46Z</time>
      </trkpt>
      <trkpt lat="46.32039" lon="-0.33481">
        <ele>76.6922</ele>
        <time>2010-12-04T08:58:47Z</time>
      </trkpt>
      <trkpt lat="46.32039" lon="-0.33478">
        <ele>76.7464</ele>
        <time>2010-12-04T08:58:48Z</time>
      </trkpt>
      <trkpt lat="46.32039" lon="-0.33476">
        <ele>76.7993</ele>
        <time>2010-12-04T08:58:49Z</time>
      </trkpt>
      <trkpt lat="46.32039" lon="-0.33474">
        <ele>76.8482</ele>
        <time>2010-12-04T08:58:50Z</time>
      </trkpt>
      <trkpt lat="46.32039" lon="-0.33472">
        <ele>76.8947</ele>
        <time>2010-12-04T08:58:51Z</time>
      </trkpt>
      <trkpt lat="46.32039" lon="-0.3347">
        <ele>76.9375</ele>
        <time>2010-12-04T08:58:52Z</time>
      </trkpt>
      <trkpt lat="46.32039" lon="-0.33468">
        <ele>76.9757</ele>
        <time>2010-12-04T08:58:53Z</time>
      </trkpt>
      <trkpt lat="46.32039" lon="-0.33465">
        <ele>77.0112</ele>
        <time>2010-12-04T08:58:54Z</time>
      </trkpt>
      <trkpt lat="46.32039" lon="-0.33463">
        <ele>77.0417</ele>
        <time>2010-12-04T08:58:55Z</time>
      </trkpt>
      <trkpt lat="46.32039" lon="-0.33461">
        <ele>77.0674</ele>
        <time>2010-12-04T08:58:56Z</time>
      </trkpt>
      <trkpt lat="46.32039" lon="-0.33459">
        <ele>77.0922</ele>
        <time>2010-12-04T08:58:57Z</time>
      </trkpt>
      <trkpt lat="46.32039" lon="-0.33457">
        <ele>77.1153</ele>
        <time>2010-12-04T08:58:58Z</time>
      </trkpt>
      <trkpt lat="46.32039" lon="-0.33455">
        <ele>77.1375</ele>
        <time>2010-12-04T08:58:59Z</time>
      </trkpt>
      <trkpt lat="46.3204" lon="-0.33453">
        <ele>77.16</ele>
        <time>2010-12-04T08:59:00Z</time>
      </trkpt>
      <trkpt lat="46.32039" lon="-0.33451">
        <ele>77.1831</ele>
        <time>2010-12-04T08:59:01Z</time>
      </trkpt>
      <trkpt lat="46.3204" lon="-0.33449">
        <ele>77.2054</ele>
        <time>2010-12-04T08:59:02Z</time>
      </trkpt>
      <trkpt lat="46.3204" lon="-0.33447">
        <ele>77.2285</ele>
        <time>2010-12-04T08:59:03Z</time>
      </trkpt>
      <trkpt lat="46.3204" lon="-0.33445">
        <ele>77.2521</ele>
        <time>2010-12-04T08:59:04Z</time>
      </trkpt>
      <trkpt lat="46.3204" lon="-0.33443">
        <ele>77.2744</ele>
        <time>2010-12-04T08:59:05Z</time>
      </trkpt>
      <trkpt lat="46.3204" lon="-0.33441">
        <ele>77.2955</ele>
        <time>2010-12-04T08:59:06Z</time>
      </trkpt>
      <trkpt lat="46.3204" lon="-0.33439">
        <ele>77.3156</ele>
        <time>2010-12-04T08:59:07Z</time>
      </trkpt>
      <trkpt lat="46.3204" lon="-0.33437">
        <ele>77.3349</ele>
        <time>2010-12-04T08:59:08Z</time>
      </trkpt>
      <trkpt lat="46.3204" lon="-0.33435">
        <ele>77.3547</ele>
        <time>2010-12-04T08:59:09Z</time>
      </trkpt>
      <trkpt lat="46.3204" lon="-0.33432">
        <ele>77.375</ele>
        <time>2010-12-04T08:59:10Z</time>
      </trkpt>
      <trkpt lat="46.3204" lon="-0.3343">
        <ele>77.3962</ele>
        <time>2010-12-04T08:59:11Z</time>
      </trkpt>
      <trkpt lat="46.3204" lon="-0.33428">
        <ele>77.4164</ele>
        <time>2010-12-04T08:59:12Z</time>
      </trkpt>
      <trkpt lat="46.32041" lon="-0.33426">
        <ele>77.4373</ele>
        <time>2010-12-04T08:59:13Z</time>
      </trkpt>
      <trkpt lat="46.32041" lon="-0.33424">
        <ele>77.4592</ele>
        <time>2010-12-04T08:59:14Z</time>
      </trkpt>
      <trkpt lat="46.32041" lon="-0.33422">
        <ele>77.4816</ele>
        <time>2010-12-04T08:59:15Z</time>
      </trkpt>
      <trkpt lat="46.32041" lon="-0.3342">
        <ele>77.5052</ele>
        <time>2010-12-04T08:59:16Z</time>
      </trkpt>
      <trkpt lat="46.32042" lon="-0.33417">
        <ele>77.5287</ele>
        <time>2010-12-04T08:59:17Z</time>
      </trkpt>
      <trkpt lat="46.32042" lon="-0.33415">
        <ele>77.5521</ele>
        <time>2010-12-04T08:59:18Z</time>
      </trkpt>
      <trkpt lat="46.32042" lon="-0.33413">
        <ele>77.5751</ele>
        <time>2010-12-04T08:59:19Z</time>
      </trkpt>
      <trkpt lat="46.32042" lon="-0.33411">
        <ele>77.5984</ele>
        <time>2010-12-04T08:59:20Z</time>
      </trkpt>
      <trkpt lat="46.32042" lon="-0.33409">
        <ele>77.6213</ele>
        <time>2010-12-04T08:59:21Z</time>
      </trkpt>
      <trkpt lat="46.32042" lon="-0.33407">
        <ele>77.6449</ele>
        <time>2010-12-04T08:59:22Z</time>
      </trkpt>
      <trkpt lat="46.32042" lon="-0.33405">
        <ele>77.6686</ele>
        <time>2010-12-04T08:59:23Z</time>
      </trkpt>
      <trkpt lat="46.32042" lon="-0.33402">
        <ele>77.6925</ele>
        <time>2010-12-04T08:59:24Z</time>
      </trkpt>
      <trkpt lat="46.32042" lon="-0.334">
        <ele>77.7157</ele>
        <time>2010-12-04T08:59:25Z</time>
      </trkpt>
      <trkpt lat="46.32042" lon="-0.33398">
        <ele>77.7382</ele>
        <time>2010-12-04T08:59:26Z</time>
      </trkpt>
      <trkpt lat="46.32042" lon="-0.33396">
        <ele>77.7608</ele>
        <time>2010-12-04T08:59:27Z</time>
      </trkpt>
      <trkpt lat="46.32042" lon="-0.33394">
        <ele>77.7823</ele>
        <time>2010-12-04T08:59:28Z</time>
      </trkpt>
      <trkpt lat="46.32043" lon="-0.33392">
        <ele>77.8029</ele>
        <time>2010-12-04T08:59:29Z</time>
      </trkpt>
      <trkpt lat="46.32043" lon="-0.3339">
        <ele>77.822</ele>
        <time>2010-12-04T08:59:30Z</time>
      </trkpt>
      <trkpt lat="46.32043" lon="-0.33387">
        <ele>77.84</ele>
        <time>2010-12-04T08:59:31Z</time>
      </trkpt>
      <trkpt lat="46.32043" lon="-0.33385">
        <ele>77.8573</ele>
        <time>2010-12-04T08:59:32Z</time>
      </trkpt>
      <trkpt lat="46.32043" lon="-0.33383">
        <ele>77.8745</ele>
        <time>2010-12-04T08:59:33Z</time>
      </trkpt>
      <trkpt lat="46.32043" lon="-0.33381">
        <ele>77.8904</ele>
        <time>2010-12-04T08:59:34Z</time>
      </trkpt>
      <trkpt lat="46.32043" lon="-0.33379">
        <ele>77.9058</ele>
        <time>2010-12-04T08:59:35Z</time>
      </trkpt>
      <trkpt lat="46.32043" lon="-0.33377">
        <ele>77.9217</ele>
        <time>2010-12-04T08:59:36Z</time>
      </trkpt>
      <trkpt lat="46.32042" lon="-0.33375">
        <ele>77.9217</ele>
        <time>2010-12-04T08:59:37Z</time>
      </trkpt>
      <trkpt lat="46.32043" lon="-0.33373">
        <ele>77.9368</ele>
        <time>2010-12-04T08:59:38Z</time>
      </trkpt>
      <trkpt lat="46.32043" lon="-0.33371">
        <ele>77.9535</ele>
        <time>2010-12-04T08:59:39Z</time>
      </trkpt>
      <trkpt lat="46.32043" lon="-0.33369">
        <ele>77.9722</ele>
        <time>2010-12-04T08:59:40Z</time>
      </trkpt>
      <trkpt lat="46.32042" lon="-0.33366">
        <ele>77.9935</ele>
        <time>2010-12-04T08:59:41Z</time>
      </trkpt>
      <trkpt lat="46.32043" lon="-0.33364">
        <ele>78.0154</ele>
        <time>2010-12-04T08:59:42Z</time>
      </trkpt>
      <trkpt lat="46.32042" lon="-0.33362">
        <ele>78.0365</ele>
        <time>2010-12-04T08:59:43Z</time>
      </trkpt>
      <trkpt lat="46.32042" lon="-0.3336">
        <ele>78.0578</ele>
        <time>2010-12-04T08:59:44Z</time>
      </trkpt>
      <trkpt lat="46.32042" lon="-0.33357">
        <ele>78.078</ele>
        <time>2010-12-04T08:59:45Z</time>
      </trkpt>
      <trkpt lat="46.32042" lon="-0.33354">
        <ele>78.097</ele>
        <time>2010-12-04T08:59:46Z</time>
      </trkpt>
      <trkpt lat="46.32042" lon="-0.33352">
        <ele>78.1139</ele>
        <time>2010-12-04T08:59:47Z</time>
      </trkpt>
      <trkpt lat="46.32042" lon="-0.3335">
        <ele>78.1309</ele>
        <time>2010-12-04T08:59:48Z</time>
      </trkpt>
      <trkpt lat="46.32041" lon="-0.33347">
        <ele>78.1467</ele>
        <time>2010-12-04T08:59:49Z</time>
      </trkpt>
      <trkpt lat="46.32041" lon="-0.33345">
        <ele>78.1616</ele>
        <time>2010-12-04T08:59:50Z</time>
      </trkpt>
      <trkpt lat="46.32041" lon="-0.33343">
        <ele>78.1749</ele>
        <time>2010-12-04T08:59:51Z</time>
      </trkpt>
      <trkpt lat="46.32041" lon="-0.33341">
        <ele>78.1864</ele>
        <time>2010-12-04T08:59:52Z</time>
      </trkpt>
      <trkpt lat="46.32041" lon="-0.33339">
        <ele>78.1969</ele>
        <time>2010-12-04T08:59:53Z</time>
      </trkpt>
      <trkpt lat="46.3204" lon="-0.33338">
        <ele>78.2064</ele>
        <time>2010-12-04T08:59:54Z</time>
      </trkpt>
      <trkpt lat="46.3204" lon="-0.33336">
        <ele>78.2142</ele>
        <time>2010-12-04T08:59:55Z</time>
      </trkpt>
      <trkpt lat="46.3204" lon="-0.33334">
        <ele>78.2212</ele>
        <time>2010-12-04T08:59:56Z</time>
      </trkpt>
      <trkpt lat="46.3204" lon="-0.33332">
        <ele>78.2279</ele>
        <time>2010-12-04T08:59:57Z</time>
      </trkpt>
      <trkpt lat="46.3204" lon="-0.3333">
        <ele>78.2345</ele>
        <time>2010-12-04T08:59:58Z</time>
      </trkpt>
      <trkpt lat="46.3204" lon="-0.33328">
        <ele>78.2407</ele>
        <time>2010-12-04T08:59:59Z</time>
      </trkpt>
      <trkpt lat="46.3204" lon="-0.33326">
        <ele>78.2461</ele>
        <time>2010-12-04T09:00:00Z</time>
      </trkpt>
      <trkpt lat="46.3204" lon="-0.33324">
        <ele>78.2512</ele>
        <time>2010-12-04T09:00:01Z</time>
      </trkpt>
      <trkpt lat="46.3204" lon="-0.33322">
        <ele>78.2582</ele>
        <time>2010-12-04T09:00:02Z</time>
      </trkpt>
      <trkpt lat="46.3204" lon="-0.33321">
        <ele>78.2659</ele>
        <time>2010-12-04T09:00:03Z</time>
      </trkpt>
      <trkpt lat="46.3204" lon="-0.33319">
        <ele>78.2754</ele>
        <time>2010-12-04T09:00:04Z</time>
      </trkpt>
      <trkpt lat="46.32039" lon="-0.33317">
        <ele>78.285</ele>
        <time>2010-12-04T09:00:05Z</time>
      </trkpt>
      <trkpt lat="46.32039" lon="-0.33315">
        <ele>78.2948</ele>
        <time>2010-12-04T09:00:06Z</time>
      </trkpt>
      <trkpt lat="46.32039" lon="-0.33313">
        <ele>78.3046</ele>
        <time>2010-12-04T09:00:07Z</time>
      </trkpt>
      <trkpt lat="46.32039" lon="-0.33311">
        <ele>78.3146</ele>
        <time>2010-12-04T09:00:08Z</time>
      </trkpt>
      <trkpt lat="46.32039" lon="-0.33309">
        <ele>78.3234</ele>
        <time>2010-12-04T09:00:09Z</time>
      </trkpt>
      <trkpt lat="46.32038" lon="-0.33307">
        <ele>78.3317</ele>
        <time>2010-12-04T09:00:10Z</time>
      </trkpt>
      <trkpt lat="46.32038" lon="-0.33305">
        <ele>78.3375</ele>
        <time>2010-12-04T09:00:11Z</time>
      </trkpt>
      <trkpt lat="46.32038" lon="-0.33303">
        <ele>78.3424</ele>
        <time>2010-12-04T09:00:12Z</time>
      </trkpt>
      <trkpt lat="46.32038" lon="-0.33301">
        <ele>78.3455</ele>
        <time>2010-12-04T09:00:13Z</time>
      </trkpt>
      <trkpt lat="46.32037" lon="-0.33299">
        <ele>78.3429</ele>
        <time>2010-12-04T09:00:14Z</time>
      </trkpt>
      <trkpt lat="46.32037" lon="-0.33296">
        <ele>78.3407</ele>
        <time>2010-12-04T09:00:15Z</time>
      </trkpt>
      <trkpt lat="46.32037" lon="-0.33294">
        <ele>78.3371</ele>
        <time>2010-12-04T09:00:16Z</time>
      </trkpt>
      <trkpt lat="46.32037" lon="-0.33292">
        <ele>78.3337</ele>
        <time>2010-12-04T09:00:17Z</time>
      </trkpt>
      <trkpt lat="46.32036" lon="-0.3329">
        <ele>78.3309</ele>
        <time>2010-12-04T09:00:18Z</time>
      </trkpt>
      <trkpt lat="46.32036" lon="-0.33287">
        <ele>78.3283</ele>
        <time>2010-12-04T09:00:19Z</time>
      </trkpt>
      <trkpt lat="46.32036" lon="-0.33285">
        <ele>78.3253</ele>
        <time>2010-12-04T09:00:20Z</time>
      </trkpt>
      <trkpt lat="46.32035" lon="-0.33283">
        <ele>78.3231</ele>
        <time>2010-12-04T09:00:21Z</time>
      </trkpt>
      <trkpt lat="46.32035" lon="-0.33281">
        <ele>78.3197</ele>
        <time>2010-12-04T09:00:22Z</time>
      </trkpt>
      <trkpt lat="46.32035" lon="-0.33279">
        <ele>78.3154</ele>
        <time>2010-12-04T09:00:23Z</time>
      </trkpt>
      <trkpt lat="46.32035" lon="-0.33277">
        <ele>78.3113</ele>
        <time>2010-12-04T09:00:24Z</time>
      </trkpt>
      <trkpt lat="46.32035" lon="-0.33275">
        <ele>78.3069</ele>
        <time>2010-12-04T09:00:25Z</time>
      </trkpt>
      <trkpt lat="46.32034" lon="-0.33272">
        <ele>78.3022</ele>
        <time>2010-12-04T09:00:26Z</time>
      </trkpt>
      <trkpt lat="46.32034" lon="-0.3327">
        <ele>78.2982</ele>
        <time>2010-12-04T09:00:27Z</time>
      </trkpt>
      <trkpt lat="46.32034" lon="-0.33268">
        <ele>78.2943</ele>
        <time>2010-12-04T09:00:28Z</time>
      </trkpt>
      <trkpt lat="46.32034" lon="-0.33266">
        <ele>78.2921</ele>
        <time>2010-12-04T09:00:29Z</time>
      </trkpt>
      <trkpt lat="46.32033" lon="-0.33265">
        <ele>78.2894</ele>
        <time>2010-12-04T09:00:30Z</time>
      </trkpt>
      <trkpt lat="46.32033" lon="-0.33262">
        <ele>78.2871</ele>
        <time>2010-12-04T09:00:31Z</time>
      </trkpt>
      <trkpt lat="46.32032" lon="-0.3326">
        <ele>78.2844</ele>
        <time>2010-12-04T09:00:32Z</time>
      </trkpt>
      <trkpt lat="46.32032" lon="-0.33258">
        <ele>78.2809</ele>
        <time>2010-12-04T09:00:33Z</time>
      </trkpt>
      <trkpt lat="46.32032" lon="-0.33256">
        <ele>78.2763</ele>
        <time>2010-12-04T09:00:34Z</time>
      </trkpt>
      <trkpt lat="46.32032" lon="-0.33254">
        <ele>78.2691</ele>
        <time>2010-12-04T09:00:35Z</time>
      </trkpt>
      <trkpt lat="46.32032" lon="-0.33252">
        <ele>78.2602</ele>
        <time>2010-12-04T09:00:36Z</time>
      </trkpt>
      <trkpt lat="46.32031" lon="-0.3325">
        <ele>78.2503</ele>
        <time>2010-12-04T09:00:37Z</time>
      </trkpt>
      <trkpt lat="46.32031" lon="-0.33248">
        <ele>78.24</ele>
        <time>2010-12-04T09:00:38Z</time>
      </trkpt>
      <trkpt lat="46.32031" lon="-0.33246">
        <ele>78.2294</ele>
        <time>2010-12-04T09:00:39Z</time>
      </trkpt>
      <trkpt lat="46.32031" lon="-0.33244">
        <ele>78.2186</ele>
        <time>2010-12-04T09:00:40Z</time>
      </trkpt>
      <trkpt lat="46.3203" lon="-0.33242">
        <ele>78.2078</ele>
        <time>2010-12-04T09:00:41Z</time>
      </trkpt>
      <trkpt lat="46.3203" lon="-0.3324">
        <ele>78.1967</ele>
        <time>2010-12-04T09:00:42Z</time>
      </trkpt>
      <trkpt lat="46.3203" lon="-0.33237">
        <ele>78.1854</ele>
        <time>2010-12-04T09:00:43Z</time>
      </trkpt>
      <trkpt lat="46.32029" lon="-0.33235">
        <ele>78.174</ele>
        <time>2010-12-04T09:00:44Z</time>
      </trkpt>
      <trkpt lat="46.32029" lon="-0.33233">
        <ele>78.1625</ele>
        <time>2010-12-04T09:00:45Z</time>
      </trkpt>
      <trkpt lat="46.32029" lon="-0.33231">
        <ele>78.1503</ele>
        <time>2010-12-04T09:00:46Z</time>
      </trkpt>
      <trkpt lat="46.32029" lon="-0.33229">
        <ele>78.1386</ele>
        <time>2010-12-04T09:00:47Z</time>
      </trkpt>
      <trkpt lat="46.32029" lon="-0.33227">
        <ele>78.1268</ele>
        <time>2010-12-04T09:00:48Z</time>
      </trkpt>
      <trkpt lat="46.32028" lon="-0.33225">
        <ele>78.1142</ele>
        <time>2010-12-04T09:00:49Z</time>
      </trkpt>
      <trkpt lat="46.32028" lon="-0.33223">
        <ele>78.0998</ele>
        <time>2010-12-04T09:00:50Z</time>
      </trkpt>
      <trkpt lat="46.32028" lon="-0.33221">
        <ele>78.0845</ele>
        <time>2010-12-04T09:00:51Z</time>
      </trkpt>
      <trkpt lat="46.32027" lon="-0.33219">
        <ele>78.0686</ele>
        <time>2010-12-04T09:00:52Z</time>
      </trkpt>
      <trkpt lat="46.32027" lon="-0.33217">
        <ele>78.0522</ele>
        <time>2010-12-04T09:00:53Z</time>
      </trkpt>
      <trkpt lat="46.32027" lon="-0.33215">
        <ele>78.0354</ele>
        <time>2010-12-04T09:00:54Z</time>
      </trkpt>
      <trkpt lat="46.32027" lon="-0.33213">
        <ele>78.0189</ele>
        <time>2010-12-04T09:00:55Z</time>
      </trkpt>
      <trkpt lat="46.32026" lon="-0.33211">
        <ele>78.0032</ele>
        <time>2010-12-04T09:00:56Z</time>
      </trkpt>
      <trkpt lat="46.32026" lon="-0.33209">
        <ele>77.9881</ele>
        <time>2010-12-04T09:00:57Z</time>
      </trkpt>
      <trkpt lat="46.32026" lon="-0.33206">
        <ele>77.9746</ele>
        <time>2010-12-04T09:00:58Z</time>
      </trkpt>
      <trkpt lat="46.32026" lon="-0.33204">
        <ele>77.9623</ele>
        <time>2010-12-04T09:00:59Z</time>
      </trkpt>
      <trkpt lat="46.32026" lon="-0.33202">
        <ele>77.9504</ele>
        <time>2010-12-04T09:01:00Z</time>
      </trkpt>
      <trkpt lat="46.32026" lon="-0.332">
        <ele>77.9374</ele>
        <time>2010-12-04T09:01:01Z</time>
      </trkpt>
      <trkpt lat="46.32025" lon="-0.33198">
        <ele>77.9247</ele>
        <time>2010-12-04T09:01:02Z</time>
      </trkpt>
      <trkpt lat="46.32024" lon="-0.33196">
        <ele>77.913</ele>
        <time>2010-12-04T09:01:03Z</time>
      </trkpt>
      <trkpt lat="46.32024" lon="-0.33193">
        <ele>77.9015</ele>
        <time>2010-12-04T09:01:04Z</time>
      </trkpt>
      <trkpt lat="46.32024" lon="-0.33191">
        <ele>77.8903</ele>
        <time>2010-12-04T09:01:05Z</time>
      </trkpt>
      <trkpt lat="46.32024" lon="-0.33189">
        <ele>77.8791</ele>
        <time>2010-12-04T09:01:06Z</time>
      </trkpt>
      <trkpt lat="46.32023" lon="-0.33187">
        <ele>77.8687</ele>
        <time>2010-12-04T09:01:07Z</time>
      </trkpt>
      <trkpt lat="46.32023" lon="-0.33185">
        <ele>77.8582</ele>
        <time>2010-12-04T09:01:08Z</time>
      </trkpt>
      <trkpt lat="46.32023" lon="-0.33183">
        <ele>77.848</ele>
        <time>2010-12-04T09:01:09Z</time>
      </trkpt>
      <trkpt lat="46.32023" lon="-0.33181">
        <ele>77.8374</ele>
        <time>2010-12-04T09:01:10Z</time>
      </trkpt>
      <trkpt lat="46.32022" lon="-0.33179">
        <ele>77.8276</ele>
        <time>2010-12-04T09:01:11Z</time>
      </trkpt>
      <trkpt lat="46.32022" lon="-0.33177">
        <ele>77.818</ele>
        <time>2010-12-04T09:01:12Z</time>
      </trkpt>
      <trkpt lat="46.32022" lon="-0.33175">
        <ele>77.8093</ele>
        <time>2010-12-04T09:01:13Z</time>
      </trkpt>
      <trkpt lat="46.32021" lon="-0.33173">
        <ele>77.801</ele>
        <time>2010-12-04T09:01:14Z</time>
      </trkpt>
      <trkpt lat="46.32021" lon="-0.33171">
        <ele>77.7929</ele>
        <time>2010-12-04T09:01:15Z</time>
      </trkpt>
      <trkpt lat="46.32021" lon="-0.33169">
        <ele>77.7857</ele>
        <time>2010-12-04T09:01:16Z</time>
      </trkpt>
      <trkpt lat="46.32021" lon="-0.33167">
        <ele>77.7792</ele>
        <time>2010-12-04T09:01:17Z</time>
      </trkpt>
      <trkpt lat="46.32021" lon="-0.33165">
        <ele>77.7727</ele>
        <time>2010-12-04T09:01:18Z</time>
      </trkpt>
      <trkpt lat="46.3202" lon="-0.33163">
        <ele>77.7651</ele>
        <time>2010-12-04T09:01:19Z</time>
      </trkpt>
      <trkpt lat="46.3202" lon="-0.33161">
        <ele>77.7578</ele>
        <time>2010-12-04T09:01:20Z</time>
      </trkpt>
      <trkpt lat="46.32019" lon="-0.33159">
        <ele>77.7508</ele>
        <time>2010-12-04T09:01:21Z</time>
      </trkpt>
      <trkpt lat="46.32019" lon="-0.33157">
        <ele>77.7441</ele>
        <time>2010-12-04T09:01:22Z</time>
      </trkpt>
      <trkpt lat="46.32019" lon="-0.33155">
        <ele>77.7376</ele>
        <time>2010-12-04T09:01:23Z</time>
      </trkpt>
      <trkpt lat="46.32018" lon="-0.33153">
        <ele>77.7317</ele>
        <time>2010-12-04T09:01:24Z</time>
      </trkpt>
      <trkpt lat="46.32018" lon="-0.33151">
        <ele>77.726</ele>
        <time>2010-12-04T09:01:25Z</time>
      </trkpt>
      <trkpt lat="46.32018" lon="-0.33149">
        <ele>77.7203</ele>
        <time>2010-12-04T09:01:26Z</time>
      </trkpt>
      <trkpt lat="46.32018" lon="-0.33147">
        <ele>77.7153</ele>
        <time>2010-12-04T09:01:27Z</time>
      </trkpt>
      <trkpt lat="46.32018" lon="-0.33145">
        <ele>77.7097</ele>
        <time>2010-12-04T09:01:28Z</time>
      </trkpt>
      <trkpt lat="46.32017" lon="-0.33143">
        <ele>77.7036</ele>
        <time>2010-12-04T09:01:29Z</time>
      </trkpt>
      <trkpt lat="46.32017" lon="-0.33141">
        <ele>77.6973</ele>
        <time>2010-12-04T09:01:30Z</time>
      </trkpt>
      <trkpt lat="46.32017" lon="-0.33139">
        <ele>77.6915</ele>
        <time>2010-12-04T09:01:31Z</time>
      </trkpt>
      <trkpt lat="46.32016" lon="-0.33137">
        <ele>77.686</ele>
        <time>2010-12-04T09:01:32Z</time>
      </trkpt>
      <trkpt lat="46.32016" lon="-0.33135">
        <ele>77.6822</ele>
        <time>2010-12-04T09:01:33Z</time>
      </trkpt>
      <trkpt lat="46.32016" lon="-0.33133">
        <ele>77.6786</ele>
        <time>2010-12-04T09:01:34Z</time>
      </trkpt>
      <trkpt lat="46.32015" lon="-0.33131">
        <ele>77.6719</ele>
        <time>2010-12-04T09:01:35Z</time>
      </trkpt>
      <trkpt lat="46.32015" lon="-0.3313">
        <ele>77.6719</ele>
        <time>2010-12-04T09:01:36Z</time>
      </trkpt>
      <trkpt lat="46.32014" lon="-0.33128">
        <ele>77.6649</ele>
        <time>2010-12-04T09:01:37Z</time>
      </trkpt>
      <trkpt lat="46.32014" lon="-0.33127">
        <ele>77.6553</ele>
        <time>2010-12-04T09:01:38Z</time>
      </trkpt>
      <trkpt lat="46.32014" lon="-0.33125">
        <ele>77.6413</ele>
        <time>2010-12-04T09:01:39Z</time>
      </trkpt>
      <trkpt lat="46.32013" lon="-0.33123">
        <ele>77.6226</ele>
        <time>2010-12-04T09:01:40Z</time>
      </trkpt>
      <trkpt lat="46.32013" lon="-0.33122">
        <ele>77.5989</ele>
        <time>2010-12-04T09:01:41Z</time>
      </trkpt>
      <trkpt lat="46.32012" lon="-0.3312">
        <ele>77.5738</ele>
        <time>2010-12-04T09:01:42Z</time>
      </trkpt>
      <trkpt lat="46.32012" lon="-0.33118">
        <ele>77.5456</ele>
        <time>2010-12-04T09:01:43Z</time>
      </trkpt>
      <trkpt lat="46.32011" lon="-0.33117">
        <ele>77.5167</ele>
        <time>2010-12-04T09:01:44Z</time>
      </trkpt>
      <trkpt lat="46.32011" lon="-0.33114">
        <ele>77.485</ele>
        <time>2010-12-04T09:01:45Z</time>
      </trkpt>
      <trkpt lat="46.3201" lon="-0.33112">
        <ele>77.4512</ele>
        <time>2010-12-04T09:01:46Z</time>
      </trkpt>
      <trkpt lat="46.3201" lon="-0.3311">
        <ele>77.4159</ele>
        <time>2010-12-04T09:01:47Z</time>
      </trkpt>
      <trkpt lat="46.3201" lon="-0.33108">
        <ele>77.3788</ele>
        <time>2010-12-04T09:01:48Z</time>
      </trkpt>
      <trkpt lat="46.32009" lon="-0.33106">
        <ele>77.3417</ele>
        <time>2010-12-04T09:01:49Z</time>
      </trkpt>
      <trkpt lat="46.32009" lon="-0.33104">
        <ele>77.3054</ele>
        <time>2010-12-04T09:01:50Z</time>
      </trkpt>
      <trkpt lat="46.32008" lon="-0.33101">
        <ele>77.2686</ele>
        <time>2010-12-04T09:01:51Z</time>
      </trkpt>
      <trkpt lat="46.32008" lon="-0.33099">
        <ele>77.231</ele>
        <time>2010-12-04T09:01:52Z</time>
      </trkpt>
      <trkpt lat="46.32008" lon="-0.33096">
        <ele>77.1935</ele>
        <time>2010-12-04T09:01:53Z</time>
      </trkpt>
      <trkpt lat="46.32007" lon="-0.33093">
        <ele>77.1566</ele>
        <time>2010-12-04T09:01:54Z</time>
      </trkpt>
      <trkpt lat="46.32007" lon="-0.33089">
        <ele>77.12</ele>
        <time>2010-12-04T09:01:55Z</time>
      </trkpt>
      <trkpt lat="46.32007" lon="-0.33087">
        <ele>77.0834</ele>
        <time>2010-12-04T09:01:56Z</time>
      </trkpt>
      <trkpt lat="46.32007" lon="-0.33084">
        <ele>77.0474</ele>
        <time>2010-12-04T09:01:57Z</time>
      </trkpt>
      <trkpt lat="46.32006" lon="-0.33081">
        <ele>77.0123</ele>
        <time>2010-12-04T09:01:58Z</time>
      </trkpt>
      <trkpt lat="46.32005" lon="-0.33079">
        <ele>76.9777</ele>
        <time>2010-12-04T09:01:59Z</time>
      </trkpt>
      <trkpt lat="46.32005" lon="-0.33076">
        <ele>76.9428</ele>
        <time>2010-12-04T09:02:00Z</time>
      </trkpt>
      <trkpt lat="46.32005" lon="-0.33074">
        <ele>76.9074</ele>
        <time>2010-12-04T09:02:01Z</time>
      </trkpt>
      <trkpt lat="46.32004" lon="-0.33072">
        <ele>76.872</ele>
        <time>2010-12-04T09:02:02Z</time>
      </trkpt>
      <trkpt lat="46.32003" lon="-0.3307">
        <ele>76.8371</ele>
        <time>2010-12-04T09:02:03Z</time>
      </trkpt>
      <trkpt lat="46.32003" lon="-0.33067">
        <ele>76.803</ele>
        <time>2010-12-04T09:02:04Z</time>
      </trkpt>
      <trkpt lat="46.32003" lon="-0.33065">
        <ele>76.7699</ele>
        <time>2010-12-04T09:02:05Z</time>
      </trkpt>
      <trkpt lat="46.32002" lon="-0.33063">
        <ele>76.7377</ele>
        <time>2010-12-04T09:02:06Z</time>
      </trkpt>
      <trkpt lat="46.32002" lon="-0.33061">
        <ele>76.707</ele>
        <time>2010-12-04T09:02:07Z</time>
      </trkpt>
      <trkpt lat="46.32001" lon="-0.33059">
        <ele>76.6785</ele>
        <time>2010-12-04T09:02:08Z</time>
      </trkpt>
      <trkpt lat="46.32" lon="-0.33057">
        <ele>76.6516</ele>
        <time>2010-12-04T09:02:09Z</time>
      </trkpt>
      <trkpt lat="46.32" lon="-0.33054">
        <ele>76.6256</ele>
        <time>2010-12-04T09:02:10Z</time>
      </trkpt>
      <trkpt lat="46.32" lon="-0.33052">
        <ele>76.5997</ele>
        <time>2010-12-04T09:02:11Z</time>
      </trkpt>
      <trkpt lat="46.31999" lon="-0.3305">
        <ele>76.5732</ele>
        <time>2010-12-04T09:02:12Z</time>
      </trkpt>
      <trkpt lat="46.31998" lon="-0.33048">
        <ele>76.547</ele>
        <time>2010-12-04T09:02:13Z</time>
      </trkpt>
      <trkpt lat="46.31998" lon="-0.33046">
        <ele>76.5205</ele>
        <time>2010-12-04T09:02:14Z</time>
      </trkpt>
      <trkpt lat="46.31997" lon="-0.33044">
        <ele>76.4941</ele>
        <time>2010-12-04T09:02:15Z</time>
      </trkpt>
      <trkpt lat="46.31997" lon="-0.33042">
        <ele>76.4688</ele>
        <time>2010-12-04T09:02:16Z</time>
      </trkpt>
      <trkpt lat="46.31996" lon="-0.33039">
        <ele>76.445</ele>
        <time>2010-12-04T09:02:17Z</time>
      </trkpt>
      <trkpt lat="46.31996" lon="-0.33037">
        <ele>76.4228</ele>
        <time>2010-12-04T09:02:18Z</time>
      </trkpt>
      <trkpt lat="46.31995" lon="-0.33035">
        <ele>76.4026</ele>
        <time>2010-12-04T09:02:19Z</time>
      </trkpt>
      <trkpt lat="46.31994" lon="-0.33033">
        <ele>76.3831</ele>
        <time>2010-12-04T09:02:20Z</time>
      </trkpt>
      <trkpt lat="46.31994" lon="-0.3303">
        <ele>76.3649</ele>
        <time>2010-12-04T09:02:21Z</time>
      </trkpt>
      <trkpt lat="46.31993" lon="-0.33028">
        <ele>76.3461</ele>
        <time>2010-12-04T09:02:22Z</time>
      </trkpt>
      <trkpt lat="46.31993" lon="-0.33025">
        <ele>76.3277</ele>
        <time>2010-12-04T09:02:23Z</time>
      </trkpt>
      <trkpt lat="46.31992" lon="-0.33023">
        <ele>76.3102</ele>
        <time>2010-12-04T09:02:24Z</time>
      </trkpt>
      <trkpt lat="46.31992" lon="-0.3302">
        <ele>76.2939</ele>
        <time>2010-12-04T09:02:25Z</time>
      </trkpt>
      <trkpt lat="46.31991" lon="-0.33018">
        <ele>76.2788</ele>
        <time>2010-12-04T09:02:26Z</time>
      </trkpt>
      <trkpt lat="46.31991" lon="-0.33016">
        <ele>76.2652</ele>
        <time>2010-12-04T09:02:27Z</time>
      </trkpt>
      <trkpt lat="46.3199" lon="-0.33014">
        <ele>76.2523</ele>
        <time>2010-12-04T09:02:28Z</time>
      </trkpt>
      <trkpt lat="46.3199" lon="-0.33012">
        <ele>76.2412</ele>
        <time>2010-12-04T09:02:29Z</time>
      </trkpt>
      <trkpt lat="46.31989" lon="-0.3301">
        <ele>76.231</ele>
        <time>2010-12-04T09:02:30Z</time>
      </trkpt>
      <trkpt lat="46.31989" lon="-0.33008">
        <ele>76.2207</ele>
        <time>2010-12-04T09:02:31Z</time>
      </trkpt>
      <trkpt lat="46.31989" lon="-0.33006">
        <ele>76.2097</ele>
        <time>2010-12-04T09:02:32Z</time>
      </trkpt>
      <trkpt lat="46.31988" lon="-0.33004">
        <ele>76.1988</ele>
        <time>2010-12-04T09:02:33Z</time>
      </trkpt>
      <trkpt lat="46.31988" lon="-0.33002">
        <ele>76.1876</ele>
        <time>2010-12-04T09:02:34Z</time>
      </trkpt>
      <trkpt lat="46.31988" lon="-0.33">
        <ele>76.1758</ele>
        <time>2010-12-04T09:02:35Z</time>
      </trkpt>
      <trkpt lat="46.31988" lon="-0.32998">
        <ele>76.1624</ele>
        <time>2010-12-04T09:02:36Z</time>
      </trkpt>
      <trkpt lat="46.31988" lon="-0.32996">
        <ele>76.1473</ele>
        <time>2010-12-04T09:02:37Z</time>
      </trkpt>
      <trkpt lat="46.31988" lon="-0.32994">
        <ele>76.1312</ele>
        <time>2010-12-04T09:02:38Z</time>
      </trkpt>
      <trkpt lat="46.31987" lon="-0.32992">
        <ele>76.1149</ele>
        <time>2010-12-04T09:02:39Z</time>
      </trkpt>
      <trkpt lat="46.31987" lon="-0.3299">
        <ele>76.0998</ele>
        <time>2010-12-04T09:02:40Z</time>
      </trkpt>
      <trkpt lat="46.31987" lon="-0.32988">
        <ele>76.0854</ele>
        <time>2010-12-04T09:02:41Z</time>
      </trkpt>
      <trkpt lat="46.31987" lon="-0.32986">
        <ele>76.0718</ele>
        <time>2010-12-04T09:02:42Z</time>
      </trkpt>
      <trkpt lat="46.31987" lon="-0.32984">
        <ele>76.059</ele>
        <time>2010-12-04T09:02:43Z</time>
      </trkpt>
      <trkpt lat="46.31987" lon="-0.32982">
        <ele>76.047</ele>
        <time>2010-12-04T09:02:44Z</time>
      </trkpt>
      <trkpt lat="46.31987" lon="-0.3298">
        <ele>76.0353</ele>
        <time>2010-12-04T09:02:45Z</time>
      </trkpt>
      <trkpt lat="46.31987" lon="-0.32977">
        <ele>76.0237</ele>
        <time>2010-12-04T09:02:46Z</time>
      </trkpt>
      <trkpt lat="46.31986" lon="-0.32975">
        <ele>76.0126</ele>
        <time>2010-12-04T09:02:47Z</time>
      </trkpt>
      <trkpt lat="46.31986" lon="-0.32973">
        <ele>76.0021</ele>
        <time>2010-12-04T09:02:48Z</time>
      </trkpt>
      <trkpt lat="46.31986" lon="-0.32971">
        <ele>75.9921</ele>
        <time>2010-12-04T09:02:49Z</time>
      </trkpt>
      <trkpt lat="46.31986" lon="-0.32969">
        <ele>75.9829</ele>
        <time>2010-12-04T09:02:50Z</time>
      </trkpt>
      <trkpt lat="46.31986" lon="-0.32967">
        <ele>75.9735</ele>
        <time>2010-12-04T09:02:51Z</time>
      </trkpt>
      <trkpt lat="46.31986" lon="-0.32965">
        <ele>75.9645</ele>
        <time>2010-12-04T09:02:52Z</time>
      </trkpt>
      <trkpt lat="46.31986" lon="-0.32962">
        <ele>75.9558</ele>
        <time>2010-12-04T09:02:53Z</time>
      </trkpt>
      <trkpt lat="46.31986" lon="-0.3296">
        <ele>75.9474</ele>
        <time>2010-12-04T09:02:54Z</time>
      </trkpt>
      <trkpt lat="46.31986" lon="-0.32958">
        <ele>75.9396</ele>
        <time>2010-12-04T09:02:55Z</time>
      </trkpt>
      <trkpt lat="46.31986" lon="-0.32956">
        <ele>75.9324</ele>
        <time>2010-12-04T09:02:56Z</time>
      </trkpt>
      <trkpt lat="46.31986" lon="-0.32954">
        <ele>75.9246</ele>
        <time>2010-12-04T09:02:57Z</time>
      </trkpt>
      <trkpt lat="46.31985" lon="-0.32952">
        <ele>75.9172</ele>
        <time>2010-12-04T09:02:58Z</time>
      </trkpt>
      <trkpt lat="46.31985" lon="-0.3295">
        <ele>75.9109</ele>
        <time>2010-12-04T09:02:59Z</time>
      </trkpt>
      <trkpt lat="46.31985" lon="-0.32948">
        <ele>75.9051</ele>
        <time>2010-12-04T09:03:00Z</time>
      </trkpt>
      <trkpt lat="46.31985" lon="-0.32946">
        <ele>75.9001</ele>
        <time>2010-12-04T09:03:01Z</time>
      </trkpt>
      <trkpt lat="46.31985" lon="-0.32944">
        <ele>75.8962</ele>
        <time>2010-12-04T09:03:02Z</time>
      </trkpt>
      <trkpt lat="46.31985" lon="-0.32942">
        <ele>75.8916</ele>
        <time>2010-12-04T09:03:03Z</time>
      </trkpt>
      <trkpt lat="46.31986" lon="-0.3294">
        <ele>75.8897</ele>
        <time>2010-12-04T09:03:04Z</time>
      </trkpt>
      <trkpt lat="46.31986" lon="-0.32938">
        <ele>75.8876</ele>
        <time>2010-12-04T09:03:05Z</time>
      </trkpt>
      <trkpt lat="46.31986" lon="-0.32936">
        <ele>75.8855</ele>
        <time>2010-12-04T09:03:06Z</time>
      </trkpt>
      <trkpt lat="46.31986" lon="-0.32934">
        <ele>75.8868</ele>
        <time>2010-12-04T09:03:07Z</time>
      </trkpt>
      <trkpt lat="46.31986" lon="-0.32932">
        <ele>75.888</ele>
        <time>2010-12-04T09:03:08Z</time>
      </trkpt>
      <trkpt lat="46.31986" lon="-0.3293">
        <ele>75.8925</ele>
        <time>2010-12-04T09:03:09Z</time>
      </trkpt>
      <trkpt lat="46.31985" lon="-0.32928">
        <ele>75.8925</ele>
        <time>2010-12-04T09:03:10Z</time>
      </trkpt>
      <trkpt lat="46.31986" lon="-0.32926">
        <ele>75.8966</ele>
        <time>2010-12-04T09:03:11Z</time>
      </trkpt>
      <trkpt lat="46.31986" lon="-0.32924">
        <ele>75.9004</ele>
        <time>2010-12-04T09:03:12Z</time>
      </trkpt>
      <trkpt lat="46.31986" lon="-0.32922">
        <ele>75.9077</ele>
        <time>2010-12-04T09:03:13Z</time>
      </trkpt>
      <trkpt lat="46.31986" lon="-0.3292">
        <ele>75.9198</ele>
        <time>2010-12-04T09:03:14Z</time>
      </trkpt>
      <trkpt lat="46.31986" lon="-0.32918">
        <ele>75.9361</ele>
        <time>2010-12-04T09:03:15Z</time>
      </trkpt>
      <trkpt lat="46.31987" lon="-0.32916">
        <ele>75.9555</ele>
        <time>2010-12-04T09:03:16Z</time>
      </trkpt>
      <trkpt lat="46.31987" lon="-0.32914">
        <ele>75.9764</ele>
        <time>2010-12-04T09:03:17Z</time>
      </trkpt>
      <trkpt lat="46.31987" lon="-0.32912">
        <ele>76.0001</ele>
        <time>2010-12-04T09:03:18Z</time>
      </trkpt>
      <trkpt lat="46.31987" lon="-0.3291">
        <ele>76.023</ele>
        <time>2010-12-04T09:03:19Z</time>
      </trkpt>
      <trkpt lat="46.31987" lon="-0.32907">
        <ele>76.0446</ele>
        <time>2010-12-04T09:03:20Z</time>
      </trkpt>
      <trkpt lat="46.31987" lon="-0.32905">
        <ele>76.0647</ele>
        <time>2010-12-04T09:03:21Z</time>
      </trkpt>
      <trkpt lat="46.31987" lon="-0.32902">
        <ele>76.0843</ele>
        <time>2010-12-04T09:03:22Z</time>
      </trkpt>
      <trkpt lat="46.31987" lon="-0.32899">
        <ele>76.105</ele>
        <time>2010-12-04T09:03:23Z</time>
      </trkpt>
      <trkpt lat="46.31987" lon="-0.32897">
        <ele>76.105</ele>
        <time>2010-12-04T09:03:24Z</time>
      </trkpt>
      <trkpt lat="46.31987" lon="-0.32895">
        <ele>76.1252</ele>
        <time>2010-12-04T09:03:25Z</time>
      </trkpt>
      <trkpt lat="46.31988" lon="-0.32893">
        <ele>76.1472</ele>
        <time>2010-12-04T09:03:26Z</time>
      </trkpt>
      <trkpt lat="46.31988" lon="-0.32891">
        <ele>76.1675</ele>
        <time>2010-12-04T09:03:27Z</time>
      </trkpt>
      <trkpt lat="46.31988" lon="-0.32889">
        <ele>76.1895</ele>
        <time>2010-12-04T09:03:28Z</time>
      </trkpt>
      <trkpt lat="46.31988" lon="-0.32887">
        <ele>76.2101</ele>
        <time>2010-12-04T09:03:29Z</time>
      </trkpt>
      <trkpt lat="46.31988" lon="-0.32886">
        <ele>76.2276</ele>
        <time>2010-12-04T09:03:30Z</time>
      </trkpt>
      <trkpt lat="46.31988" lon="-0.32884">
        <ele>76.2404</ele>
        <time>2010-12-04T09:03:31Z</time>
      </trkpt>
      <trkpt lat="46.31988" lon="-0.32882">
        <ele>76.2535</ele>
        <time>2010-12-04T09:03:32Z</time>
      </trkpt>
      <trkpt lat="46.31987" lon="-0.32881">
        <ele>76.269</ele>
        <time>2010-12-04T09:03:33Z</time>
      </trkpt>
      <trkpt lat="46.31987" lon="-0.32879">
        <ele>76.2848</ele>
        <time>2010-12-04T09:03:34Z</time>
      </trkpt>
      <trkpt lat="46.31988" lon="-0.32878">
        <ele>76.3006</ele>
        <time>2010-12-04T09:03:35Z</time>
      </trkpt>
      <trkpt lat="46.31988" lon="-0.32876">
        <ele>76.3176</ele>
        <time>2010-12-04T09:03:36Z</time>
      </trkpt>
      <trkpt lat="46.31988" lon="-0.32874">
        <ele>76.333</ele>
        <time>2010-12-04T09:03:37Z</time>
      </trkpt>
      <trkpt lat="46.31988" lon="-0.32872">
        <ele>76.3515</ele>
        <time>2010-12-04T09:03:38Z</time>
      </trkpt>
      <trkpt lat="46.31989" lon="-0.3287">
        <ele>76.3702</ele>
        <time>2010-12-04T09:03:39Z</time>
      </trkpt>
      <trkpt lat="46.31989" lon="-0.32868">
        <ele>76.3878</ele>
        <time>2010-12-04T09:03:40Z</time>
      </trkpt>
      <trkpt lat="46.31989" lon="-0.32866">
        <ele>76.4037</ele>
        <time>2010-12-04T09:03:41Z</time>
      </trkpt>
      <trkpt lat="46.31989" lon="-0.32864">
        <ele>76.4188</ele>
        <time>2010-12-04T09:03:42Z</time>
      </trkpt>
      <trkpt lat="46.3199" lon="-0.32863">
        <ele>76.4319</ele>
        <time>2010-12-04T09:03:43Z</time>
      </trkpt>
      <trkpt lat="46.3199" lon="-0.32861">
        <ele>76.45</ele>
        <time>2010-12-04T09:03:44Z</time>
      </trkpt>
      <trkpt lat="46.3199" lon="-0.32859">
        <ele>76.4689</ele>
        <time>2010-12-04T09:03:45Z</time>
      </trkpt>
      <trkpt lat="46.3199" lon="-0.32857">
        <ele>76.4876</ele>
        <time>2010-12-04T09:03:46Z</time>
      </trkpt>
      <trkpt lat="46.3199" lon="-0.32855">
        <ele>76.5049</ele>
        <time>2010-12-04T09:03:47Z</time>
      </trkpt>
      <trkpt lat="46.3199" lon="-0.32853">
        <ele>76.5214</ele>
        <time>2010-12-04T09:03:48Z</time>
      </trkpt>
      <trkpt lat="46.31991" lon="-0.3285">
        <ele>76.5391</ele>
        <time>2010-12-04T09:03:49Z</time>
      </trkpt>
      <trkpt lat="46.31991" lon="-0.32848">
        <ele>76.5565</ele>
        <time>2010-12-04T09:03:50Z</time>
      </trkpt>
      <trkpt lat="46.31991" lon="-0.32846">
        <ele>76.5743</ele>
        <time>2010-12-04T09:03:51Z</time>
      </trkpt>
      <trkpt lat="46.31992" lon="-0.32845">
        <ele>76.5918</ele>
        <time>2010-12-04T09:03:52Z</time>
      </trkpt>
      <trkpt lat="46.31992" lon="-0.32843">
        <ele>76.6102</ele>
        <time>2010-12-04T09:03:53Z</time>
      </trkpt>
      <trkpt lat="46.31992" lon="-0.32841">
        <ele>76.6288</ele>
        <time>2010-12-04T09:03:54Z</time>
      </trkpt>
      <trkpt lat="46.31992" lon="-0.32839">
        <ele>76.6468</ele>
        <time>2010-12-04T09:03:55Z</time>
      </trkpt>
      <trkpt lat="46.31992" lon="-0.32837">
        <ele>76.6637</ele>
        <time>2010-12-04T09:03:56Z</time>
      </trkpt>
      <trkpt lat="46.31993" lon="-0.32835">
        <ele>76.6796</ele>
        <time>2010-12-04T09:03:57Z</time>
      </trkpt>
      <trkpt lat="46.31993" lon="-0.32833">
        <ele>76.6933</ele>
        <time>2010-12-04T09:03:58Z</time>
      </trkpt>
      <trkpt lat="46.31993" lon="-0.32831">
        <ele>76.7046</ele>
        <time>2010-12-04T09:03:59Z</time>
      </trkpt>
      <trkpt lat="46.31994" lon="-0.32829">
        <ele>76.7146</ele>
        <time>2010-12-04T09:04:00Z</time>
      </trkpt>
      <trkpt lat="46.31994" lon="-0.32827">
        <ele>76.7238</ele>
        <time>2010-12-04T09:04:01Z</time>
      </trkpt>
      <trkpt lat="46.31994" lon="-0.32825">
        <ele>76.732</ele>
        <time>2010-12-04T09:04:02Z</time>
      </trkpt>
      <trkpt lat="46.31995" lon="-0.32823">
        <ele>76.7398</ele>
        <time>2010-12-04T09:04:03Z</time>
      </trkpt>
      <trkpt lat="46.31995" lon="-0.32821">
        <ele>76.7473</ele>
        <time>2010-12-04T09:04:04Z</time>
      </trkpt>
      <trkpt lat="46.31995" lon="-0.3282">
        <ele>76.7549</ele>
        <time>2010-12-04T09:04:05Z</time>
      </trkpt>
      <trkpt lat="46.31996" lon="-0.32817">
        <ele>76.7626</ele>
        <time>2010-12-04T09:04:06Z</time>
      </trkpt>
      <trkpt lat="46.31996" lon="-0.32815">
        <ele>76.7699</ele>
        <time>2010-12-04T09:04:07Z</time>
      </trkpt>
      <trkpt lat="46.31997" lon="-0.32813">
        <ele>76.7766</ele>
        <time>2010-12-04T09:04:08Z</time>
      </trkpt>
      <trkpt lat="46.31997" lon="-0.32811">
        <ele>76.7824</ele>
        <time>2010-12-04T09:04:09Z</time>
      </trkpt>
      <trkpt lat="46.31997" lon="-0.32809">
        <ele>76.7876</ele>
        <time>2010-12-04T09:04:10Z</time>
      </trkpt>
      <trkpt lat="46.31998" lon="-0.32807">
        <ele>76.7919</ele>
        <time>2010-12-04T09:04:11Z</time>
      </trkpt>
      <trkpt lat="46.31998" lon="-0.32805">
        <ele>76.7957</ele>
        <time>2010-12-04T09:04:12Z</time>
      </trkpt>
      <trkpt lat="46.31999" lon="-0.32803">
        <ele>76.7991</ele>
        <time>2010-12-04T09:04:13Z</time>
      </trkpt>
      <trkpt lat="46.32" lon="-0.32801">
        <ele>76.8023</ele>
        <time>2010-12-04T09:04:14Z</time>
      </trkpt>
      <trkpt lat="46.32" lon="-0.328">
        <ele>76.8053</ele>
        <time>2010-12-04T09:04:15Z</time>
      </trkpt>
      <trkpt lat="46.32001" lon="-0.32798">
        <ele>76.8082</ele>
        <time>2010-12-04T09:04:16Z</time>
      </trkpt>
      <trkpt lat="46.32" lon="-0.32796">
        <ele>76.8152</ele>
        <time>2010-12-04T09:04:17Z</time>
      </trkpt>
      <trkpt lat="46.32001" lon="-0.32793">
        <ele>76.8218</ele>
        <time>2010-12-04T09:04:18Z</time>
      </trkpt>
      <trkpt lat="46.32002" lon="-0.32791">
        <ele>76.8298</ele>
        <time>2010-12-04T09:04:19Z</time>
      </trkpt>
      <trkpt lat="46.32002" lon="-0.32789">
        <ele>76.8403</ele>
        <time>2010-12-04T09:04:20Z</time>
      </trkpt>
      <trkpt lat="46.32003" lon="-0.32787">
        <ele>76.8523</ele>
        <time>2010-12-04T09:04:21Z</time>
      </trkpt>
      <trkpt lat="46.32004" lon="-0.32785">
        <ele>76.8656</ele>
        <time>2010-12-04T09:04:22Z</time>
      </trkpt>
      <trkpt lat="46.32005" lon="-0.32783">
        <ele>76.8792</ele>
        <time>2010-12-04T09:04:23Z</time>
      </trkpt>
      <trkpt lat="46.32005" lon="-0.32782">
        <ele>76.8934</ele>
        <time>2010-12-04T09:04:24Z</time>
      </trkpt>
      <trkpt lat="46.32006" lon="-0.3278">
        <ele>76.9065</ele>
        <time>2010-12-04T09:04:25Z</time>
      </trkpt>
      <trkpt lat="46.32007" lon="-0.32778">
        <ele>76.9188</ele>
        <time>2010-12-04T09:04:26Z</time>
      </trkpt>
      <trkpt lat="46.32007" lon="-0.32776">
        <ele>76.9305</ele>
        <time>2010-12-04T09:04:27Z</time>
      </trkpt>
      <trkpt lat="46.32008" lon="-0.32774">
        <ele>76.9417</ele>
        <time>2010-12-04T09:04:28Z</time>
      </trkpt>
      <trkpt lat="46.32009" lon="-0.32772">
        <ele>76.9528</ele>
        <time>2010-12-04T09:04:29Z</time>
      </trkpt>
      <trkpt lat="46.32009" lon="-0.3277">
        <ele>76.964</ele>
        <time>2010-12-04T09:04:30Z</time>
      </trkpt>
      <trkpt lat="46.3201" lon="-0.32768">
        <ele>76.9751</ele>
        <time>2010-12-04T09:04:31Z</time>
      </trkpt>
      <trkpt lat="46.3201" lon="-0.32766">
        <ele>76.9866</ele>
        <time>2010-12-04T09:04:32Z</time>
      </trkpt>
      <trkpt lat="46.32011" lon="-0.32764">
        <ele>76.9979</ele>
        <time>2010-12-04T09:04:33Z</time>
      </trkpt>
      <trkpt lat="46.32011" lon="-0.32762">
        <ele>77.0077</ele>
        <time>2010-12-04T09:04:34Z</time>
      </trkpt>
      <trkpt lat="46.32011" lon="-0.32761">
        <ele>77.0167</ele>
        <time>2010-12-04T09:04:35Z</time>
      </trkpt>
      <trkpt lat="46.32012" lon="-0.32759">
        <ele>77.025</ele>
        <time>2010-12-04T09:04:36Z</time>
      </trkpt>
      <trkpt lat="46.32013" lon="-0.32757">
        <ele>77.0322</ele>
        <time>2010-12-04T09:04:37Z</time>
      </trkpt>
      <trkpt lat="46.32013" lon="-0.32756">
        <ele>77.0382</ele>
        <time>2010-12-04T09:04:38Z</time>
      </trkpt>
      <trkpt lat="46.32014" lon="-0.32754">
        <ele>77.0438</ele>
        <time>2010-12-04T09:04:39Z</time>
      </trkpt>
      <trkpt lat="46.32014" lon="-0.32753">
        <ele>77.0492</ele>
        <time>2010-12-04T09:04:40Z</time>
      </trkpt>
      <trkpt lat="46.32015" lon="-0.32751">
        <ele>77.0542</ele>
        <time>2010-12-04T09:04:41Z</time>
      </trkpt>
      <trkpt lat="46.32016" lon="-0.32749">
        <ele>77.0598</ele>
        <time>2010-12-04T09:04:42Z</time>
      </trkpt>
      <trkpt lat="46.32016" lon="-0.32747">
        <ele>77.0658</ele>
        <time>2010-12-04T09:04:43Z</time>
      </trkpt>
      <trkpt lat="46.32017" lon="-0.32746">
        <ele>77.0723</ele>
        <time>2010-12-04T09:04:44Z</time>
      </trkpt>
      <trkpt lat="46.32018" lon="-0.32744">
        <ele>77.076</ele>
        <time>2010-12-04T09:04:45Z</time>
      </trkpt>
      <trkpt lat="46.32018" lon="-0.32742">
        <ele>77.0803</ele>
        <time>2010-12-04T09:04:46Z</time>
      </trkpt>
      <trkpt lat="46.32019" lon="-0.32741">
        <ele>77.0844</ele>
        <time>2010-12-04T09:04:47Z</time>
      </trkpt>
      <trkpt lat="46.32019" lon="-0.32739">
        <ele>77.0826</ele>
        <time>2010-12-04T09:04:48Z</time>
      </trkpt>
      <trkpt lat="46.3202" lon="-0.32737">
        <ele>77.0808</ele>
        <time>2010-12-04T09:04:49Z</time>
      </trkpt>
      <trkpt lat="46.32021" lon="-0.32736">
        <ele>77.0796</ele>
        <time>2010-12-04T09:04:50Z</time>
      </trkpt>
      <trkpt lat="46.32022" lon="-0.32734">
        <ele>77.0786</ele>
        <time>2010-12-04T09:04:51Z</time>
      </trkpt>
      <trkpt lat="46.32022" lon="-0.32733">
        <ele>77.0794</ele>
        <time>2010-12-04T09:04:52Z</time>
      </trkpt>
      <trkpt lat="46.32023" lon="-0.32731">
        <ele>77.0798</ele>
        <time>2010-12-04T09:04:53Z</time>
      </trkpt>
      <trkpt lat="46.32023" lon="-0.3273">
        <ele>77.0793</ele>
        <time>2010-12-04T09:04:54Z</time>
      </trkpt>
      <trkpt lat="46.32023" lon="-0.32728">
        <ele>77.0788</ele>
        <time>2010-12-04T09:04:55Z</time>
      </trkpt>
      <trkpt lat="46.32023" lon="-0.32727">
        <ele>77.0784</ele>
        <time>2010-12-04T09:04:56Z</time>
      </trkpt>
      <trkpt lat="46.32023" lon="-0.32725">
        <ele>77.0781</ele>
        <time>2010-12-04T09:04:57Z</time>
      </trkpt>
      <trkpt lat="46.32024" lon="-0.32724">
        <ele>77.0782</ele>
        <time>2010-12-04T09:04:58Z</time>
      </trkpt>
      <trkpt lat="46.32024" lon="-0.32722">
        <ele>77.0833</ele>
        <time>2010-12-04T09:04:59Z</time>
      </trkpt>
      <trkpt lat="46.32024" lon="-0.32721">
        <ele>77.0914</ele>
        <time>2010-12-04T09:05:00Z</time>
      </trkpt>
      <trkpt lat="46.32025" lon="-0.32719">
        <ele>77.0999</ele>
        <time>2010-12-04T09:05:01Z</time>
      </trkpt>
      <trkpt lat="46.32026" lon="-0.32718">
        <ele>77.1093</ele>
        <time>2010-12-04T09:05:02Z</time>
      </trkpt>
      <trkpt lat="46.32026" lon="-0.32716">
        <ele>77.1138</ele>
        <time>2010-12-04T09:05:03Z</time>
      </trkpt>
      <trkpt lat="46.32027" lon="-0.32714">
        <ele>77.1187</ele>
        <time>2010-12-04T09:05:04Z</time>
      </trkpt>
      <trkpt lat="46.32028" lon="-0.32712">
        <ele>77.1199</ele>
        <time>2010-12-04T09:05:05Z</time>
      </trkpt>
      <trkpt lat="46.32029" lon="-0.32709">
        <ele>77.1181</ele>
        <time>2010-12-04T09:05:06Z</time>
      </trkpt>
      <trkpt lat="46.3203" lon="-0.32707">
        <ele>77.1136</ele>
        <time>2010-12-04T09:05:07Z</time>
      </trkpt>
      <trkpt lat="46.32031" lon="-0.32705">
        <ele>77.1101</ele>
        <time>2010-12-04T09:05:08Z</time>
      </trkpt>
      <trkpt lat="46.32032" lon="-0.32703">
        <ele>77.1047</ele>
        <time>2010-12-04T09:05:09Z</time>
      </trkpt>
      <trkpt lat="46.32033" lon="-0.32701">
        <ele>77.1032</ele>
        <time>2010-12-04T09:05:10Z</time>
      </trkpt>
      <trkpt lat="46.32034" lon="-0.32699">
        <ele>77.1047</ele>
        <time>2010-12-04T09:05:11Z</time>
      </trkpt>
      <trkpt lat="46.32035" lon="-0.32698">
        <ele>77.1049</ele>
        <time>2010-12-04T09:05:12Z</time>
      </trkpt>
      <trkpt lat="46.32035" lon="-0.32696">
        <ele>77.1047</ele>
        <time>2010-12-04T09:05:13Z</time>
      </trkpt>
      <trkpt lat="46.32037" lon="-0.32694">
        <ele>77.1038</ele>
        <time>2010-12-04T09:05:14Z</time>
      </trkpt>
      <trkpt lat="46.32037" lon="-0.32692">
        <ele>77.1026</ele>
        <time>2010-12-04T09:05:15Z</time>
      </trkpt>
      <trkpt lat="46.32038" lon="-0.3269">
        <ele>77.1022</ele>
        <time>2010-12-04T09:05:16Z</time>
      </trkpt>
      <trkpt lat="46.32039" lon="-0.32688">
        <ele>77.1024</ele>
        <time>2010-12-04T09:05:17Z</time>
      </trkpt>
      <trkpt lat="46.3204" lon="-0.32686">
        <ele>77.1033</ele>
        <time>2010-12-04T09:05:18Z</time>
      </trkpt>
      <trkpt lat="46.3204" lon="-0.32684">
        <ele>77.1049</ele>
        <time>2010-12-04T09:05:19Z</time>
      </trkpt>
      <trkpt lat="46.32041" lon="-0.32682">
        <ele>77.1065</ele>
        <time>2010-12-04T09:05:20Z</time>
      </trkpt>
      <trkpt lat="46.32042" lon="-0.3268">
        <ele>77.1096</ele>
        <time>2010-12-04T09:05:21Z</time>
      </trkpt>
      <trkpt lat="46.32043" lon="-0.32678">
        <ele>77.1126</ele>
        <time>2010-12-04T09:05:22Z</time>
      </trkpt>
      <trkpt lat="46.32044" lon="-0.32677">
        <ele>77.1155</ele>
        <time>2010-12-04T09:05:23Z</time>
      </trkpt>
      <trkpt lat="46.32044" lon="-0.32675">
        <ele>77.1192</ele>
        <time>2010-12-04T09:05:24Z</time>
      </trkpt>
      <trkpt lat="46.32045" lon="-0.32674">
        <ele>77.1192</ele>
        <time>2010-12-04T09:05:25Z</time>
      </trkpt>
      <trkpt lat="46.32045" lon="-0.32672">
        <ele>77.1228</ele>
        <time>2010-12-04T09:05:26Z</time>
      </trkpt>
      <trkpt lat="46.32046" lon="-0.32671">
        <ele>77.1264</ele>
        <time>2010-12-04T09:05:27Z</time>
      </trkpt>
      <trkpt lat="46.32047" lon="-0.32669">
        <ele>77.1311</ele>
        <time>2010-12-04T09:05:28Z</time>
      </trkpt>
      <trkpt lat="46.32048" lon="-0.32667">
        <ele>77.1375</ele>
        <time>2010-12-04T09:05:29Z</time>
      </trkpt>
      <trkpt lat="46.32048" lon="-0.32666">
        <ele>77.1441</ele>
        <time>2010-12-04T09:05:30Z</time>
      </trkpt>
      <trkpt lat="46.32048" lon="-0.32664">
        <ele>77.1484</ele>
        <time>2010-12-04T09:05:31Z</time>
      </trkpt>
      <trkpt lat="46.3205" lon="-0.32662">
        <ele>77.1511</ele>
        <time>2010-12-04T09:05:32Z</time>
      </trkpt>
      <trkpt lat="46.3205" lon="-0.3266">
        <ele>77.1538</ele>
        <time>2010-12-04T09:05:33Z</time>
      </trkpt>
      <trkpt lat="46.32051" lon="-0.32658">
        <ele>77.1562</ele>
        <time>2010-12-04T09:05:34Z</time>
      </trkpt>
      <trkpt lat="46.32052" lon="-0.32657">
        <ele>77.1584</ele>
        <time>2010-12-04T09:05:35Z</time>
      </trkpt>
      <trkpt lat="46.32052" lon="-0.32655">
        <ele>77.1602</ele>
        <time>2010-12-04T09:05:36Z</time>
      </trkpt>
      <trkpt lat="46.32053" lon="-0.32653">
        <ele>77.1636</ele>
        <time>2010-12-04T09:05:37Z</time>
      </trkpt>
      <trkpt lat="46.32053" lon="-0.32652">
        <ele>77.161</ele>
        <time>2010-12-04T09:05:38Z</time>
      </trkpt>
      <trkpt lat="46.32054" lon="-0.3265">
        <ele>77.1524</ele>
        <time>2010-12-04T09:05:39Z</time>
      </trkpt>
      <trkpt lat="46.32055" lon="-0.32649">
        <ele>77.1443</ele>
        <time>2010-12-04T09:05:40Z</time>
      </trkpt>
      <trkpt lat="46.32055" lon="-0.32647">
        <ele>77.1358</ele>
        <time>2010-12-04T09:05:41Z</time>
      </trkpt>
      <trkpt lat="46.32056" lon="-0.32646">
        <ele>77.1278</ele>
        <time>2010-12-04T09:05:42Z</time>
      </trkpt>
      <trkpt lat="46.32056" lon="-0.32644">
        <ele>77.1173</ele>
        <time>2010-12-04T09:05:43Z</time>
      </trkpt>
      <trkpt lat="46.32057" lon="-0.32642">
        <ele>77.1072</ele>
        <time>2010-12-04T09:05:44Z</time>
      </trkpt>
      <trkpt lat="46.32058" lon="-0.3264">
        <ele>77.0982</ele>
        <time>2010-12-04T09:05:45Z</time>
      </trkpt>
      <trkpt lat="46.32059" lon="-0.32638">
        <ele>77.0888</ele>
        <time>2010-12-04T09:05:46Z</time>
      </trkpt>
      <trkpt lat="46.3206" lon="-0.32636">
        <ele>77.0784</ele>
        <time>2010-12-04T09:05:47Z</time>
      </trkpt>
      <trkpt lat="46.3206" lon="-0.32634">
        <ele>77.0638</ele>
        <time>2010-12-04T09:05:48Z</time>
      </trkpt>
      <trkpt lat="46.32061" lon="-0.32633">
        <ele>77.0458</ele>
        <time>2010-12-04T09:05:49Z</time>
      </trkpt>
      <trkpt lat="46.32061" lon="-0.32631">
        <ele>77.0278</ele>
        <time>2010-12-04T09:05:50Z</time>
      </trkpt>
      <trkpt lat="46.32062" lon="-0.32629">
        <ele>77.0086</ele>
        <time>2010-12-04T09:05:51Z</time>
      </trkpt>
      <trkpt lat="46.32063" lon="-0.32627">
        <ele>76.9894</ele>
        <time>2010-12-04T09:05:52Z</time>
      </trkpt>
      <trkpt lat="46.32063" lon="-0.32625">
        <ele>76.9709</ele>
        <time>2010-12-04T09:05:53Z</time>
      </trkpt>
      <trkpt lat="46.32064" lon="-0.32623">
        <ele>76.955</ele>
        <time>2010-12-04T09:05:54Z</time>
      </trkpt>
      <trkpt lat="46.32064" lon="-0.32621">
        <ele>76.9437</ele>
        <time>2010-12-04T09:05:55Z</time>
      </trkpt>
      <trkpt lat="46.32065" lon="-0.32619">
        <ele>76.9355</ele>
        <time>2010-12-04T09:05:56Z</time>
      </trkpt>
      <trkpt lat="46.32066" lon="-0.32617">
        <ele>76.9307</ele>
        <time>2010-12-04T09:05:57Z</time>
      </trkpt>
      <trkpt lat="46.32066" lon="-0.32615">
        <ele>76.9295</ele>
        <time>2010-12-04T09:05:58Z</time>
      </trkpt>
      <trkpt lat="46.32067" lon="-0.32613">
        <ele>76.9287</ele>
        <time>2010-12-04T09:05:59Z</time>
      </trkpt>
      <trkpt lat="46.32068" lon="-0.32611">
        <ele>76.9283</ele>
        <time>2010-12-04T09:06:00Z</time>
      </trkpt>
      <trkpt lat="46.32069" lon="-0.32609">
        <ele>76.9275</ele>
        <time>2010-12-04T09:06:01Z</time>
      </trkpt>
      <trkpt lat="46.3207" lon="-0.32608">
        <ele>76.9313</ele>
        <time>2010-12-04T09:06:02Z</time>
      </trkpt>
      <trkpt lat="46.32071" lon="-0.32606">
        <ele>76.9365</ele>
        <time>2010-12-04T09:06:03Z</time>
      </trkpt>
      <trkpt lat="46.32071" lon="-0.32605">
        <ele>76.9484</ele>
        <time>2010-12-04T09:06:04Z</time>
      </trkpt>
      <trkpt lat="46.32071" lon="-0.32604">
        <ele>76.9661</ele>
        <time>2010-12-04T09:06:05Z</time>
      </trkpt>
      <trkpt lat="46.32071" lon="-0.32602">
        <ele>76.9866</ele>
        <time>2010-12-04T09:06:06Z</time>
      </trkpt>
      <trkpt lat="46.32071" lon="-0.32601">
        <ele>77.0042</ele>
        <time>2010-12-04T09:06:07Z</time>
      </trkpt>
      <trkpt lat="46.32071" lon="-0.32599">
        <ele>77.0167</ele>
        <time>2010-12-04T09:06:08Z</time>
      </trkpt>
      <trkpt lat="46.32072" lon="-0.32597">
        <ele>77.026</ele>
        <time>2010-12-04T09:06:09Z</time>
      </trkpt>
      <trkpt lat="46.32072" lon="-0.32594">
        <ele>77.0376</ele>
        <time>2010-12-04T09:06:10Z</time>
      </trkpt>
      <trkpt lat="46.32072" lon="-0.32592">
        <ele>77.0487</ele>
        <time>2010-12-04T09:06:11Z</time>
      </trkpt>
      <trkpt lat="46.32073" lon="-0.3259">
        <ele>77.0634</ele>
        <time>2010-12-04T09:06:12Z</time>
      </trkpt>
      <trkpt lat="46.32073" lon="-0.32587">
        <ele>77.0752</ele>
        <time>2010-12-04T09:06:13Z</time>
      </trkpt>
      <trkpt lat="46.32074" lon="-0.32585">
        <ele>77.0851</ele>
        <time>2010-12-04T09:06:14Z</time>
      </trkpt>
      <trkpt lat="46.32074" lon="-0.32583">
        <ele>77.0972</ele>
        <time>2010-12-04T09:06:15Z</time>
      </trkpt>
      <trkpt lat="46.32075" lon="-0.32581">
        <ele>77.108</ele>
        <time>2010-12-04T09:06:16Z</time>
      </trkpt>
      <trkpt lat="46.32076" lon="-0.32579">
        <ele>77.1181</ele>
        <time>2010-12-04T09:06:17Z</time>
      </trkpt>
      <trkpt lat="46.32076" lon="-0.32578">
        <ele>77.128</ele>
        <time>2010-12-04T09:06:18Z</time>
      </trkpt>
      <trkpt lat="46.32076" lon="-0.32576">
        <ele>77.138</ele>
        <time>2010-12-04T09:06:19Z</time>
      </trkpt>
      <trkpt lat="46.32075" lon="-0.32575">
        <ele>77.1479</ele>
        <time>2010-12-04T09:06:20Z</time>
      </trkpt>
      <trkpt lat="46.32075" lon="-0.32573">
        <ele>77.1583</ele>
        <time>2010-12-04T09:06:21Z</time>
      </trkpt>
      <trkpt lat="46.32074" lon="-0.32572">
        <ele>77.1691</ele>
        <time>2010-12-04T09:06:22Z</time>
      </trkpt>
      <trkpt lat="46.32073" lon="-0.32571">
        <ele>77.1797</ele>
        <time>2010-12-04T09:06:23Z</time>
      </trkpt>
      <trkpt lat="46.32072" lon="-0.3257">
        <ele>77.1881</ele>
        <time>2010-12-04T09:06:24Z</time>
      </trkpt>
      <trkpt lat="46.32071" lon="-0.32569">
        <ele>77.1982</ele>
        <time>2010-12-04T09:06:25Z</time>
      </trkpt>
      <trkpt lat="46.3207" lon="-0.32568">
        <ele>77.2074</ele>
        <time>2010-12-04T09:06:26Z</time>
      </trkpt>
      <trkpt lat="46.32069" lon="-0.32568">
        <ele>77.2169</ele>
        <time>2010-12-04T09:06:27Z</time>
      </trkpt>
      <trkpt lat="46.32068" lon="-0.32568">
        <ele>77.2252</ele>
        <time>2010-12-04T09:06:28Z</time>
      </trkpt>
      <trkpt lat="46.32066" lon="-0.32569">
        <ele>77.2331</ele>
        <time>2010-12-04T09:06:29Z</time>
      </trkpt>
      <trkpt lat="46.32066" lon="-0.32569">
        <ele>77.2405</ele>
        <time>2010-12-04T09:06:30Z</time>
      </trkpt>
      <trkpt lat="46.32064" lon="-0.3257">
        <ele>77.246</ele>
        <time>2010-12-04T09:06:31Z</time>
      </trkpt>
      <trkpt lat="46.32063" lon="-0.3257">
        <ele>77.2514</ele>
        <time>2010-12-04T09:06:32Z</time>
      </trkpt>
      <trkpt lat="46.32062" lon="-0.3257">
        <ele>77.2426</ele>
        <time>2010-12-04T09:06:33Z</time>
      </trkpt>
      <trkpt lat="46.32061" lon="-0.3257">
        <ele>77.2321</ele>
        <time>2010-12-04T09:06:34Z</time>
      </trkpt>
      <trkpt lat="46.3206" lon="-0.32571">
        <ele>77.2263</ele>
        <time>2010-12-04T09:06:35Z</time>
      </trkpt>
      <trkpt lat="46.32058" lon="-0.32571">
        <ele>77.2281</ele>
        <time>2010-12-04T09:06:36Z</time>
      </trkpt>
      <trkpt lat="46.32057" lon="-0.32571">
        <ele>77.2363</ele>
        <time>2010-12-04T09:06:37Z</time>
      </trkpt>
      <trkpt lat="46.32056" lon="-0.32572">
        <ele>77.2456</ele>
        <time>2010-12-04T09:06:38Z</time>
      </trkpt>
      <trkpt lat="46.32054" lon="-0.32572">
        <ele>77.2572</ele>
        <time>2010-12-04T09:06:39Z</time>
      </trkpt>
      <trkpt lat="46.32053" lon="-0.32572">
        <ele>77.2747</ele>
        <time>2010-12-04T09:06:40Z</time>
      </trkpt>
      <trkpt lat="46.32052" lon="-0.32573">
        <ele>77.2913</ele>
        <time>2010-12-04T09:06:41Z</time>
      </trkpt>
      <trkpt lat="46.32051" lon="-0.32573">
        <ele>77.3058</ele>
        <time>2010-12-04T09:06:42Z</time>
      </trkpt>
      <trkpt lat="46.3205" lon="-0.32573">
        <ele>77.3102</ele>
        <time>2010-12-04T09:06:43Z</time>
      </trkpt>
      <trkpt lat="46.32048" lon="-0.32574">
        <ele>77.3169</ele>
        <time>2010-12-04T09:06:44Z</time>
      </trkpt>
      <trkpt lat="46.32047" lon="-0.32574">
        <ele>77.3242</ele>
        <time>2010-12-04T09:06:45Z</time>
      </trkpt>
      <trkpt lat="46.32045" lon="-0.32575">
        <ele>77.3324</ele>
        <time>2010-12-04T09:06:46Z</time>
      </trkpt>
      <trkpt lat="46.32044" lon="-0.32576">
        <ele>77.3382</ele>
        <time>2010-12-04T09:06:47Z</time>
      </trkpt>
      <trkpt lat="46.32042" lon="-0.32577">
        <ele>77.34</ele>
        <time>2010-12-04T09:06:48Z</time>
      </trkpt>
      <trkpt lat="46.32041" lon="-0.32578">
        <ele>77.3405</ele>
        <time>2010-12-04T09:06:49Z</time>
      </trkpt>
      <trkpt lat="46.3204" lon="-0.32578">
        <ele>77.3391</ele>
        <time>2010-12-04T09:06:50Z</time>
      </trkpt>
      <trkpt lat="46.32039" lon="-0.32579">
        <ele>77.342</ele>
        <time>2010-12-04T09:06:51Z</time>
      </trkpt>
      <trkpt lat="46.32038" lon="-0.32579">
        <ele>77.3436</ele>
        <time>2010-12-04T09:06:52Z</time>
      </trkpt>
      <trkpt lat="46.32037" lon="-0.3258">
        <ele>77.3459</ele>
        <time>2010-12-04T09:06:53Z</time>
      </trkpt>
      <trkpt lat="46.32035" lon="-0.3258">
        <ele>77.3452</ele>
        <time>2010-12-04T09:06:54Z</time>
      </trkpt>
      <trkpt lat="46.32034" lon="-0.3258">
        <ele>77.3467</ele>
        <time>2010-12-04T09:06:55Z</time>
      </trkpt>
      <trkpt lat="46.32033" lon="-0.32581">
        <ele>77.3501</ele>
        <time>2010-12-04T09:06:56Z</time>
      </trkpt>
      <trkpt lat="46.32032" lon="-0.32581">
        <ele>77.3561</ele>
        <time>2010-12-04T09:06:57Z</time>
      </trkpt>
      <trkpt lat="46.32031" lon="-0.32581">
        <ele>77.3628</ele>
        <time>2010-12-04T09:06:58Z</time>
      </trkpt>
      <trkpt lat="46.3203" lon="-0.32582">
        <ele>77.3656</ele>
        <time>2010-12-04T09:06:59Z</time>
      </trkpt>
      <trkpt lat="46.32029" lon="-0.32582">
        <ele>77.3663</ele>
        <time>2010-12-04T09:07:00Z</time>
      </trkpt>
      <trkpt lat="46.32028" lon="-0.32583">
        <ele>77.3664</ele>
        <time>2010-12-04T09:07:01Z</time>
      </trkpt>
      <trkpt lat="46.32027" lon="-0.32583">
        <ele>77.368</ele>
        <time>2010-12-04T09:07:02Z</time>
      </trkpt>
      <trkpt lat="46.32026" lon="-0.32584">
        <ele>77.3715</ele>
        <time>2010-12-04T09:07:03Z</time>
      </trkpt>
      <trkpt lat="46.32024" lon="-0.32584">
        <ele>77.3803</ele>
        <time>2010-12-04T09:07:04Z</time>
      </trkpt>
      <trkpt lat="46.32023" lon="-0.32585">
        <ele>77.3918</ele>
        <time>2010-12-04T09:07:05Z</time>
      </trkpt>
      <trkpt lat="46.32022" lon="-0.32585">
        <ele>77.4045</ele>
        <time>2010-12-04T09:07:06Z</time>
      </trkpt>
      <trkpt lat="46.32021" lon="-0.32586">
        <ele>77.4127</ele>
        <time>2010-12-04T09:07:07Z</time>
      </trkpt>
      <trkpt lat="46.32019" lon="-0.32586">
        <ele>77.4229</ele>
        <time>2010-12-04T09:07:08Z</time>
      </trkpt>
      <trkpt lat="46.32018" lon="-0.32586">
        <ele>77.4309</ele>
        <time>2010-12-04T09:07:09Z</time>
      </trkpt>
      <trkpt lat="46.32017" lon="-0.32586">
        <ele>77.4371</ele>
        <time>2010-12-04T09:07:10Z</time>
      </trkpt>
      <trkpt lat="46.32016" lon="-0.32587">
        <ele>77.4454</ele>
        <time>2010-12-04T09:07:11Z</time>
      </trkpt>
      <trkpt lat="46.32015" lon="-0.32587">
        <ele>77.4482</ele>
        <time>2010-12-04T09:07:12Z</time>
      </trkpt>
      <trkpt lat="46.32013" lon="-0.32587">
        <ele>77.4483</ele>
        <time>2010-12-04T09:07:13Z</time>
      </trkpt>
      <trkpt lat="46.32011" lon="-0.32588">
        <ele>77.4497</ele>
        <time>2010-12-04T09:07:14Z</time>
      </trkpt>
      <trkpt lat="46.3201" lon="-0.32589">
        <ele>77.4657</ele>
        <time>2010-12-04T09:07:15Z</time>
      </trkpt>
      <trkpt lat="46.32008" lon="-0.32589">
        <ele>77.5018</ele>
        <time>2010-12-04T09:07:16Z</time>
      </trkpt>
      <trkpt lat="46.32006" lon="-0.3259">
        <ele>77.5364</ele>
        <time>2010-12-04T09:07:17Z</time>
      </trkpt>
      <trkpt lat="46.32004" lon="-0.32591">
        <ele>77.5641</ele>
        <time>2010-12-04T09:07:18Z</time>
      </trkpt>
      <trkpt lat="46.32002" lon="-0.32591">
        <ele>77.5895</ele>
        <time>2010-12-04T09:07:19Z</time>
      </trkpt>
      <trkpt lat="46.32001" lon="-0.32592">
        <ele>77.6131</ele>
        <time>2010-12-04T09:07:20Z</time>
      </trkpt>
      <trkpt lat="46.31999" lon="-0.32592">
        <ele>77.6297</ele>
        <time>2010-12-04T09:07:21Z</time>
      </trkpt>
      <trkpt lat="46.31997" lon="-0.32592">
        <ele>77.6478</ele>
        <time>2010-12-04T09:07:22Z</time>
      </trkpt>
      <trkpt lat="46.31995" lon="-0.32593">
        <ele>77.6669</ele>
        <time>2010-12-04T09:07:23Z</time>
      </trkpt>
      <trkpt lat="46.31994" lon="-0.32593">
        <ele>77.6908</ele>
        <time>2010-12-04T09:07:24Z</time>
      </trkpt>
      <trkpt lat="46.31992" lon="-0.32594">
        <ele>77.721</ele>
        <time>2010-12-04T09:07:25Z</time>
      </trkpt>
      <trkpt lat="46.3199" lon="-0.32594">
        <ele>77.752</ele>
        <time>2010-12-04T09:07:26Z</time>
      </trkpt>
      <trkpt lat="46.31988" lon="-0.32594">
        <ele>77.7839</ele>
        <time>2010-12-04T09:07:27Z</time>
      </trkpt>
      <trkpt lat="46.31987" lon="-0.32595">
        <ele>77.8145</ele>
        <time>2010-12-04T09:07:28Z</time>
      </trkpt>
      <trkpt lat="46.31985" lon="-0.32595">
        <ele>77.8462</ele>
        <time>2010-12-04T09:07:29Z</time>
      </trkpt>
      <trkpt lat="46.31984" lon="-0.32596">
        <ele>77.8757</ele>
        <time>2010-12-04T09:07:30Z</time>
      </trkpt>
      <trkpt lat="46.31982" lon="-0.32596">
        <ele>77.9015</ele>
        <time>2010-12-04T09:07:31Z</time>
      </trkpt>
      <trkpt lat="46.3198" lon="-0.32596">
        <ele>77.9133</ele>
        <time>2010-12-04T09:07:32Z</time>
      </trkpt>
      <trkpt lat="46.31978" lon="-0.32596">
        <ele>77.9279</ele>
        <time>2010-12-04T09:07:33Z</time>
      </trkpt>
      <trkpt lat="46.31977" lon="-0.32597">
        <ele>77.9435</ele>
        <time>2010-12-04T09:07:34Z</time>
      </trkpt>
      <trkpt lat="46.31976" lon="-0.32597">
        <ele>77.9603</ele>
        <time>2010-12-04T09:07:35Z</time>
      </trkpt>
      <trkpt lat="46.31975" lon="-0.32597">
        <ele>77.9772</ele>
        <time>2010-12-04T09:07:36Z</time>
      </trkpt>
      <trkpt lat="46.31974" lon="-0.32598">
        <ele>77.9929</ele>
        <time>2010-12-04T09:07:37Z</time>
      </trkpt>
      <trkpt lat="46.31972" lon="-0.32599">
        <ele>78.0096</ele>
        <time>2010-12-04T09:07:38Z</time>
      </trkpt>
      <trkpt lat="46.31971" lon="-0.32599">
        <ele>78.0329</ele>
        <time>2010-12-04T09:07:39Z</time>
      </trkpt>
      <trkpt lat="46.31969" lon="-0.326">
        <ele>78.056</ele>
        <time>2010-12-04T09:07:40Z</time>
      </trkpt>
      <trkpt lat="46.31968" lon="-0.32601">
        <ele>78.0716</ele>
        <time>2010-12-04T09:07:41Z</time>
      </trkpt>
      <trkpt lat="46.31966" lon="-0.32601">
        <ele>78.0911</ele>
        <time>2010-12-04T09:07:42Z</time>
      </trkpt>
      <trkpt lat="46.31964" lon="-0.32602">
        <ele>78.1097</ele>
        <time>2010-12-04T09:07:43Z</time>
      </trkpt>
      <trkpt lat="46.31962" lon="-0.32602">
        <ele>78.1281</ele>
        <time>2010-12-04T09:07:44Z</time>
      </trkpt>
      <trkpt lat="46.3196" lon="-0.32602">
        <ele>78.147</ele>
        <time>2010-12-04T09:07:45Z</time>
      </trkpt>
      <trkpt lat="46.31958" lon="-0.32603">
        <ele>78.1654</ele>
        <time>2010-12-04T09:07:46Z</time>
      </trkpt>
      <trkpt lat="46.31957" lon="-0.32603">
        <ele>78.1853</ele>
        <time>2010-12-04T09:07:47Z</time>
      </trkpt>
      <trkpt lat="46.31955" lon="-0.32603">
        <ele>78.1946</ele>
        <time>2010-12-04T09:07:48Z</time>
      </trkpt>
      <trkpt lat="46.31953" lon="-0.32603">
        <ele>78.2059</ele>
        <time>2010-12-04T09:07:49Z</time>
      </trkpt>
      <trkpt lat="46.31952" lon="-0.32603">
        <ele>78.2214</ele>
        <time>2010-12-04T09:07:50Z</time>
      </trkpt>
      <trkpt lat="46.31951" lon="-0.32603">
        <ele>78.2406</ele>
        <time>2010-12-04T09:07:51Z</time>
      </trkpt>
      <trkpt lat="46.3195" lon="-0.32603">
        <ele>78.2624</ele>
        <time>2010-12-04T09:07:52Z</time>
      </trkpt>
      <trkpt lat="46.31948" lon="-0.32603">
        <ele>78.2863</ele>
        <time>2010-12-04T09:07:53Z</time>
      </trkpt>
      <trkpt lat="46.31947" lon="-0.32602">
        <ele>78.3115</ele>
        <time>2010-12-04T09:07:54Z</time>
      </trkpt>
      <trkpt lat="46.31945" lon="-0.32602">
        <ele>78.3362</ele>
        <time>2010-12-04T09:07:55Z</time>
      </trkpt>
      <trkpt lat="46.31944" lon="-0.32602">
        <ele>78.3616</ele>
        <time>2010-12-04T09:07:56Z</time>
      </trkpt>
      <trkpt lat="46.31942" lon="-0.32602">
        <ele>78.3723</ele>
        <time>2010-12-04T09:07:57Z</time>
      </trkpt>
      <trkpt lat="46.31941" lon="-0.32602">
        <ele>78.3732</ele>
        <time>2010-12-04T09:07:58Z</time>
      </trkpt>
      <trkpt lat="46.31939" lon="-0.32602">
        <ele>78.3772</ele>
        <time>2010-12-04T09:07:59Z</time>
      </trkpt>
      <trkpt lat="46.31937" lon="-0.32602">
        <ele>78.3846</ele>
        <time>2010-12-04T09:08:00Z</time>
      </trkpt>
      <trkpt lat="46.31936" lon="-0.32603">
        <ele>78.3945</ele>
        <time>2010-12-04T09:08:01Z</time>
      </trkpt>
      <trkpt lat="46.31934" lon="-0.32603">
        <ele>78.407</ele>
        <time>2010-12-04T09:08:02Z</time>
      </trkpt>
      <trkpt lat="46.31932" lon="-0.32604">
        <ele>78.4222</ele>
        <time>2010-12-04T09:08:03Z</time>
      </trkpt>
      <trkpt lat="46.31931" lon="-0.32604">
        <ele>78.4397</ele>
        <time>2010-12-04T09:08:04Z</time>
      </trkpt>
      <trkpt lat="46.31929" lon="-0.32604">
        <ele>78.4638</ele>
        <time>2010-12-04T09:08:05Z</time>
      </trkpt>
      <trkpt lat="46.31928" lon="-0.32604">
        <ele>78.4886</ele>
        <time>2010-12-04T09:08:06Z</time>
      </trkpt>
      <trkpt lat="46.31926" lon="-0.32604">
        <ele>78.5153</ele>
        <time>2010-12-04T09:08:07Z</time>
      </trkpt>
      <trkpt lat="46.31925" lon="-0.32605">
        <ele>78.5462</ele>
        <time>2010-12-04T09:08:08Z</time>
      </trkpt>
      <trkpt lat="46.31923" lon="-0.32605">
        <ele>78.5778</ele>
        <time>2010-12-04T09:08:09Z</time>
      </trkpt>
      <trkpt lat="46.31922" lon="-0.32605">
        <ele>78.608</ele>
        <time>2010-12-04T09:08:10Z</time>
      </trkpt>
      <trkpt lat="46.31921" lon="-0.32605">
        <ele>78.6362</ele>
        <time>2010-12-04T09:08:11Z</time>
      </trkpt>
      <trkpt lat="46.3192" lon="-0.32605">
        <ele>78.662</ele>
        <time>2010-12-04T09:08:12Z</time>
      </trkpt>
      <trkpt lat="46.31918" lon="-0.32605">
        <ele>78.6857</ele>
        <time>2010-12-04T09:08:13Z</time>
      </trkpt>
      <trkpt lat="46.31917" lon="-0.32605">
        <ele>78.7085</ele>
        <time>2010-12-04T09:08:14Z</time>
      </trkpt>
      <trkpt lat="46.31916" lon="-0.32606">
        <ele>78.7285</ele>
        <time>2010-12-04T09:08:15Z</time>
      </trkpt>
      <trkpt lat="46.31914" lon="-0.32606">
        <ele>78.7477</ele>
        <time>2010-12-04T09:08:16Z</time>
      </trkpt>
      <trkpt lat="46.31912" lon="-0.32606">
        <ele>78.7668</ele>
        <time>2010-12-04T09:08:17Z</time>
      </trkpt>
      <trkpt lat="46.3191" lon="-0.32606">
        <ele>78.7851</ele>
        <time>2010-12-04T09:08:18Z</time>
      </trkpt>
      <trkpt lat="46.31909" lon="-0.32606">
        <ele>78.8028</ele>
        <time>2010-12-04T09:08:19Z</time>
      </trkpt>
      <trkpt lat="46.31907" lon="-0.32606">
        <ele>78.8206</ele>
        <time>2010-12-04T09:08:20Z</time>
      </trkpt>
      <trkpt lat="46.31906" lon="-0.32606">
        <ele>78.8367</ele>
        <time>2010-12-04T09:08:21Z</time>
      </trkpt>
      <trkpt lat="46.31904" lon="-0.32606">
        <ele>78.8535</ele>
        <time>2010-12-04T09:08:22Z</time>
      </trkpt>
      <trkpt lat="46.31903" lon="-0.32607">
        <ele>78.8701</ele>
        <time>2010-12-04T09:08:23Z</time>
      </trkpt>
      <trkpt lat="46.31901" lon="-0.32607">
        <ele>78.8874</ele>
        <time>2010-12-04T09:08:24Z</time>
      </trkpt>
      <trkpt lat="46.319" lon="-0.32607">
        <ele>78.8996</ele>
        <time>2010-12-04T09:08:25Z</time>
      </trkpt>
      <trkpt lat="46.31898" lon="-0.32608">
        <ele>78.9152</ele>
        <time>2010-12-04T09:08:26Z</time>
      </trkpt>
      <trkpt lat="46.31897" lon="-0.32608">
        <ele>78.9294</ele>
        <time>2010-12-04T09:08:27Z</time>
      </trkpt>
      <trkpt lat="46.31895" lon="-0.32608">
        <ele>78.942</ele>
        <time>2010-12-04T09:08:28Z</time>
      </trkpt>
      <trkpt lat="46.31893" lon="-0.32608">
        <ele>78.9533</ele>
        <time>2010-12-04T09:08:29Z</time>
      </trkpt>
      <trkpt lat="46.31892" lon="-0.32609">
        <ele>78.965</ele>
        <time>2010-12-04T09:08:30Z</time>
      </trkpt>
      <trkpt lat="46.3189" lon="-0.32609">
        <ele>78.9773</ele>
        <time>2010-12-04T09:08:31Z</time>
      </trkpt>
      <trkpt lat="46.31888" lon="-0.32609">
        <ele>78.9906</ele>
        <time>2010-12-04T09:08:32Z</time>
      </trkpt>
      <trkpt lat="46.31887" lon="-0.32609">
        <ele>79.0052</ele>
        <time>2010-12-04T09:08:33Z</time>
      </trkpt>
      <trkpt lat="46.31885" lon="-0.32609">
        <ele>79.0235</ele>
        <time>2010-12-04T09:08:34Z</time>
      </trkpt>
      <trkpt lat="46.31884" lon="-0.32609">
        <ele>79.0414</ele>
        <time>2010-12-04T09:08:35Z</time>
      </trkpt>
      <trkpt lat="46.31882" lon="-0.32609">
        <ele>79.0595</ele>
        <time>2010-12-04T09:08:36Z</time>
      </trkpt>
      <trkpt lat="46.31881" lon="-0.32609">
        <ele>79.0759</ele>
        <time>2010-12-04T09:08:37Z</time>
      </trkpt>
      <trkpt lat="46.31879" lon="-0.32609">
        <ele>79.0921</ele>
        <time>2010-12-04T09:08:38Z</time>
      </trkpt>
      <trkpt lat="46.31878" lon="-0.32609">
        <ele>79.1076</ele>
        <time>2010-12-04T09:08:39Z</time>
      </trkpt>
      <trkpt lat="46.31876" lon="-0.32609">
        <ele>79.1261</ele>
        <time>2010-12-04T09:08:40Z</time>
      </trkpt>
      <trkpt lat="46.31874" lon="-0.32609">
        <ele>79.143</ele>
        <time>2010-12-04T09:08:41Z</time>
      </trkpt>
      <trkpt lat="46.31873" lon="-0.32609">
        <ele>79.1576</ele>
        <time>2010-12-04T09:08:42Z</time>
      </trkpt>
      <trkpt lat="46.31871" lon="-0.32609">
        <ele>79.1684</ele>
        <time>2010-12-04T09:08:43Z</time>
      </trkpt>
      <trkpt lat="46.3187" lon="-0.32609">
        <ele>79.1756</ele>
        <time>2010-12-04T09:08:44Z</time>
      </trkpt>
      <trkpt lat="46.31868" lon="-0.3261">
        <ele>79.1801</ele>
        <time>2010-12-04T09:08:45Z</time>
      </trkpt>
      <trkpt lat="46.31867" lon="-0.3261">
        <ele>79.1825</ele>
        <time>2010-12-04T09:08:46Z</time>
      </trkpt>
      <trkpt lat="46.31865" lon="-0.3261">
        <ele>79.1841</ele>
        <time>2010-12-04T09:08:47Z</time>
      </trkpt>
      <trkpt lat="46.31863" lon="-0.32611">
        <ele>79.1842</ele>
        <time>2010-12-04T09:08:48Z</time>
      </trkpt>
      <trkpt lat="46.31862" lon="-0.32611">
        <ele>79.1815</ele>
        <time>2010-12-04T09:08:49Z</time>
      </trkpt>
      <trkpt lat="46.31861" lon="-0.32611">
        <ele>79.1806</ele>
        <time>2010-12-04T09:08:50Z</time>
      </trkpt>
      <trkpt lat="46.31859" lon="-0.32611">
        <ele>79.178</ele>
        <time>2010-12-04T09:08:51Z</time>
      </trkpt>
      <trkpt lat="46.31858" lon="-0.32612">
        <ele>79.1741</ele>
        <time>2010-12-04T09:08:52Z</time>
      </trkpt>
      <trkpt lat="46.31857" lon="-0.32613">
        <ele>79.168</ele>
        <time>2010-12-04T09:08:53Z</time>
      </trkpt>
      <trkpt lat="46.31855" lon="-0.32613">
        <ele>79.1605</ele>
        <time>2010-12-04T09:08:54Z</time>
      </trkpt>
      <trkpt lat="46.31854" lon="-0.32614">
        <ele>79.1519</ele>
        <time>2010-12-04T09:08:55Z</time>
      </trkpt>
      <trkpt lat="46.31852" lon="-0.32614">
        <ele>79.1416</ele>
        <time>2010-12-04T09:08:56Z</time>
      </trkpt>
      <trkpt lat="46.31851" lon="-0.32614">
        <ele>79.1284</ele>
        <time>2010-12-04T09:08:57Z</time>
      </trkpt>
      <trkpt lat="46.31849" lon="-0.32615">
        <ele>79.1108</ele>
        <time>2010-12-04T09:08:58Z</time>
      </trkpt>
      <trkpt lat="46.31848" lon="-0.32615">
        <ele>79.0915</ele>
        <time>2010-12-04T09:08:59Z</time>
      </trkpt>
      <trkpt lat="46.31846" lon="-0.32615">
        <ele>79.0728</ele>
        <time>2010-12-04T09:09:00Z</time>
      </trkpt>
      <trkpt lat="46.31844" lon="-0.32615">
        <ele>79.0525</ele>
        <time>2010-12-04T09:09:01Z</time>
      </trkpt>
      <trkpt lat="46.31843" lon="-0.32615">
        <ele>79.0305</ele>
        <time>2010-12-04T09:09:02Z</time>
      </trkpt>
      <trkpt lat="46.31842" lon="-0.32614">
        <ele>79.0085</ele>
        <time>2010-12-04T09:09:03Z</time>
      </trkpt>
      <trkpt lat="46.3184" lon="-0.32614">
        <ele>78.984</ele>
        <time>2010-12-04T09:09:04Z</time>
      </trkpt>
      <trkpt lat="46.31839" lon="-0.32614">
        <ele>78.9585</ele>
        <time>2010-12-04T09:09:05Z</time>
      </trkpt>
      <trkpt lat="46.31838" lon="-0.32614">
        <ele>78.9324</ele>
        <time>2010-12-04T09:09:06Z</time>
      </trkpt>
      <trkpt lat="46.31836" lon="-0.32613">
        <ele>78.9064</ele>
        <time>2010-12-04T09:09:07Z</time>
      </trkpt>
      <trkpt lat="46.31834" lon="-0.32613">
        <ele>78.8796</ele>
        <time>2010-12-04T09:09:08Z</time>
      </trkpt>
      <trkpt lat="46.31833" lon="-0.32613">
        <ele>78.8503</ele>
        <time>2010-12-04T09:09:09Z</time>
      </trkpt>
      <trkpt lat="46.31832" lon="-0.32614">
        <ele>78.8202</ele>
        <time>2010-12-04T09:09:10Z</time>
      </trkpt>
      <trkpt lat="46.3183" lon="-0.32614">
        <ele>78.7885</ele>
        <time>2010-12-04T09:09:11Z</time>
      </trkpt>
      <trkpt lat="46.31829" lon="-0.32615">
        <ele>78.7561</ele>
        <time>2010-12-04T09:09:12Z</time>
      </trkpt>
      <trkpt lat="46.31827" lon="-0.32615">
        <ele>78.7229</ele>
        <time>2010-12-04T09:09:13Z</time>
      </trkpt>
      <trkpt lat="46.31826" lon="-0.32615">
        <ele>78.687</ele>
        <time>2010-12-04T09:09:14Z</time>
      </trkpt>
      <trkpt lat="46.31825" lon="-0.32615">
        <ele>78.6531</ele>
        <time>2010-12-04T09:09:15Z</time>
      </trkpt>
      <trkpt lat="46.31823" lon="-0.32615">
        <ele>78.6242</ele>
        <time>2010-12-04T09:09:16Z</time>
      </trkpt>
      <trkpt lat="46.31821" lon="-0.32615">
        <ele>78.5959</ele>
        <time>2010-12-04T09:09:17Z</time>
      </trkpt>
      <trkpt lat="46.3182" lon="-0.32615">
        <ele>78.5671</ele>
        <time>2010-12-04T09:09:18Z</time>
      </trkpt>
      <trkpt lat="46.31818" lon="-0.32615">
        <ele>78.5409</ele>
        <time>2010-12-04T09:09:19Z</time>
      </trkpt>
      <trkpt lat="46.31816" lon="-0.32615">
        <ele>78.519</ele>
        <time>2010-12-04T09:09:20Z</time>
      </trkpt>
      <trkpt lat="46.31815" lon="-0.32616">
        <ele>78.4998</ele>
        <time>2010-12-04T09:09:21Z</time>
      </trkpt>
      <trkpt lat="46.31813" lon="-0.32616">
        <ele>78.4813</ele>
        <time>2010-12-04T09:09:22Z</time>
      </trkpt>
      <trkpt lat="46.3181" lon="-0.32616">
        <ele>78.4689</ele>
        <time>2010-12-04T09:09:23Z</time>
      </trkpt>
      <trkpt lat="46.31809" lon="-0.32617">
        <ele>78.4598</ele>
        <time>2010-12-04T09:09:24Z</time>
      </trkpt>
      <trkpt lat="46.31807" lon="-0.32618">
        <ele>78.4534</ele>
        <time>2010-12-04T09:09:25Z</time>
      </trkpt>
      <trkpt lat="46.31805" lon="-0.32618">
        <ele>78.4485</ele>
        <time>2010-12-04T09:09:26Z</time>
      </trkpt>
      <trkpt lat="46.31803" lon="-0.32618">
        <ele>78.4435</ele>
        <time>2010-12-04T09:09:27Z</time>
      </trkpt>
      <trkpt lat="46.31802" lon="-0.32619">
        <ele>78.4372</ele>
        <time>2010-12-04T09:09:28Z</time>
      </trkpt>
      <trkpt lat="46.318" lon="-0.32619">
        <ele>78.4321</ele>
        <time>2010-12-04T09:09:29Z</time>
      </trkpt>
      <trkpt lat="46.31798" lon="-0.3262">
        <ele>78.426</ele>
        <time>2010-12-04T09:09:30Z</time>
      </trkpt>
      <trkpt lat="46.31796" lon="-0.3262">
        <ele>78.4194</ele>
        <time>2010-12-04T09:09:31Z</time>
      </trkpt>
      <trkpt lat="46.31794" lon="-0.32621">
        <ele>78.4137</ele>
        <time>2010-12-04T09:09:32Z</time>
      </trkpt>
      <trkpt lat="46.31792" lon="-0.32621">
        <ele>78.4093</ele>
        <time>2010-12-04T09:09:33Z</time>
      </trkpt>
      <trkpt lat="46.31791" lon="-0.32622">
        <ele>78.4071</ele>
        <time>2010-12-04T09:09:34Z</time>
      </trkpt>
      <trkpt lat="46.31789" lon="-0.32622">
        <ele>78.4069</ele>
        <time>2010-12-04T09:09:35Z</time>
      </trkpt>
      <trkpt lat="46.31788" lon="-0.32623">
        <ele>78.4071</ele>
        <time>2010-12-04T09:09:36Z</time>
      </trkpt>
      <trkpt lat="46.31786" lon="-0.32623">
        <ele>78.4049</ele>
        <time>2010-12-04T09:09:37Z</time>
      </trkpt>
      <trkpt lat="46.31785" lon="-0.32624">
        <ele>78.3998</ele>
        <time>2010-12-04T09:09:38Z</time>
      </trkpt>
      <trkpt lat="46.31784" lon="-0.32625">
        <ele>78.3941</ele>
        <time>2010-12-04T09:09:39Z</time>
      </trkpt>
      <trkpt lat="46.31783" lon="-0.32625">
        <ele>78.3877</ele>
        <time>2010-12-04T09:09:40Z</time>
      </trkpt>
      <trkpt lat="46.31781" lon="-0.32625">
        <ele>78.3812</ele>
        <time>2010-12-04T09:09:41Z</time>
      </trkpt>
      <trkpt lat="46.3178" lon="-0.32625">
        <ele>78.3729</ele>
        <time>2010-12-04T09:09:42Z</time>
      </trkpt>
      <trkpt lat="46.31779" lon="-0.32626">
        <ele>78.3652</ele>
        <time>2010-12-04T09:09:43Z</time>
      </trkpt>
      <trkpt lat="46.31777" lon="-0.32627">
        <ele>78.3563</ele>
        <time>2010-12-04T09:09:44Z</time>
      </trkpt>
      <trkpt lat="46.31776" lon="-0.32627">
        <ele>78.3467</ele>
        <time>2010-12-04T09:09:45Z</time>
      </trkpt>
      <trkpt lat="46.31774" lon="-0.32628">
        <ele>78.3361</ele>
        <time>2010-12-04T09:09:46Z</time>
      </trkpt>
      <trkpt lat="46.31773" lon="-0.32628">
        <ele>78.3251</ele>
        <time>2010-12-04T09:09:47Z</time>
      </trkpt>
      <trkpt lat="46.31772" lon="-0.32629">
        <ele>78.3134</ele>
        <time>2010-12-04T09:09:48Z</time>
      </trkpt>
      <trkpt lat="46.3177" lon="-0.3263">
        <ele>78.3015</ele>
        <time>2010-12-04T09:09:49Z</time>
      </trkpt>
      <trkpt lat="46.31768" lon="-0.32631">
        <ele>78.2926</ele>
        <time>2010-12-04T09:09:50Z</time>
      </trkpt>
      <trkpt lat="46.31767" lon="-0.32631">
        <ele>78.284</ele>
        <time>2010-12-04T09:09:51Z</time>
      </trkpt>
      <trkpt lat="46.31765" lon="-0.32632">
        <ele>78.2765</ele>
        <time>2010-12-04T09:09:52Z</time>
      </trkpt>
      <trkpt lat="46.31763" lon="-0.32633">
        <ele>78.2696</ele>
        <time>2010-12-04T09:09:53Z</time>
      </trkpt>
      <trkpt lat="46.31761" lon="-0.32634">
        <ele>78.2643</ele>
        <time>2010-12-04T09:09:54Z</time>
      </trkpt>
      <trkpt lat="46.3176" lon="-0.32635">
        <ele>78.2628</ele>
        <time>2010-12-04T09:09:55Z</time>
      </trkpt>
      <trkpt lat="46.31758" lon="-0.32636">
        <ele>78.2609</ele>
        <time>2010-12-04T09:09:56Z</time>
      </trkpt>
      <trkpt lat="46.31757" lon="-0.32637">
        <ele>78.2596</ele>
        <time>2010-12-04T09:09:57Z</time>
      </trkpt>
      <trkpt lat="46.31755" lon="-0.32638">
        <ele>78.2572</ele>
        <time>2010-12-04T09:09:58Z</time>
      </trkpt>
      <trkpt lat="46.31753" lon="-0.32639">
        <ele>78.2605</ele>
        <time>2010-12-04T09:09:59Z</time>
      </trkpt>
      <trkpt lat="46.31752" lon="-0.3264">
        <ele>78.2669</ele>
        <time>2010-12-04T09:10:00Z</time>
      </trkpt>
      <trkpt lat="46.3175" lon="-0.32641">
        <ele>78.2749</ele>
        <time>2010-12-04T09:10:01Z</time>
      </trkpt>
      <trkpt lat="46.31748" lon="-0.32642">
        <ele>78.2846</ele>
        <time>2010-12-04T09:10:02Z</time>
      </trkpt>
      <trkpt lat="46.31747" lon="-0.32643">
        <ele>78.2941</ele>
        <time>2010-12-04T09:10:03Z</time>
      </trkpt>
      <trkpt lat="46.31746" lon="-0.32643">
        <ele>78.2999</ele>
        <time>2010-12-04T09:10:04Z</time>
      </trkpt>
      <trkpt lat="46.31744" lon="-0.32644">
        <ele>78.2982</ele>
        <time>2010-12-04T09:10:05Z</time>
      </trkpt>
      <trkpt lat="46.31743" lon="-0.32645">
        <ele>78.2903</ele>
        <time>2010-12-04T09:10:06Z</time>
      </trkpt>
      <trkpt lat="46.31742" lon="-0.32646">
        <ele>78.2802</ele>
        <time>2010-12-04T09:10:07Z</time>
      </trkpt>
      <trkpt lat="46.31741" lon="-0.32647">
        <ele>78.2696</ele>
        <time>2010-12-04T09:10:08Z</time>
      </trkpt>
      <trkpt lat="46.31739" lon="-0.32648">
        <ele>78.2583</ele>
        <time>2010-12-04T09:10:09Z</time>
      </trkpt>
      <trkpt lat="46.31738" lon="-0.32648">
        <ele>78.2464</ele>
        <time>2010-12-04T09:10:10Z</time>
      </trkpt>
      <trkpt lat="46.31737" lon="-0.32649">
        <ele>78.2334</ele>
        <time>2010-12-04T09:10:11Z</time>
      </trkpt>
      <trkpt lat="46.31735" lon="-0.3265">
        <ele>78.2198</ele>
        <time>2010-12-04T09:10:12Z</time>
      </trkpt>
      <trkpt lat="46.31734" lon="-0.3265">
        <ele>78.2057</ele>
        <time>2010-12-04T09:10:13Z</time>
      </trkpt>
      <trkpt lat="46.31733" lon="-0.32651">
        <ele>78.1912</ele>
        <time>2010-12-04T09:10:14Z</time>
      </trkpt>
      <trkpt lat="46.31731" lon="-0.32651">
        <ele>78.1765</ele>
        <time>2010-12-04T09:10:15Z</time>
      </trkpt>
      <trkpt lat="46.3173" lon="-0.32652">
        <ele>78.162</ele>
        <time>2010-12-04T09:10:16Z</time>
      </trkpt>
      <trkpt lat="46.31728" lon="-0.32653">
        <ele>78.1485</ele>
        <time>2010-12-04T09:10:17Z</time>
      </trkpt>
      <trkpt lat="46.31727" lon="-0.32653">
        <ele>78.1333</ele>
        <time>2010-12-04T09:10:18Z</time>
      </trkpt>
      <trkpt lat="46.31725" lon="-0.32654">
        <ele>78.1159</ele>
        <time>2010-12-04T09:10:19Z</time>
      </trkpt>
      <trkpt lat="46.31724" lon="-0.32655">
        <ele>78.096</ele>
        <time>2010-12-04T09:10:20Z</time>
      </trkpt>
      <trkpt lat="46.31722" lon="-0.32655">
        <ele>78.0763</ele>
        <time>2010-12-04T09:10:21Z</time>
      </trkpt>
      <trkpt lat="46.31721" lon="-0.32656">
        <ele>78.0571</ele>
        <time>2010-12-04T09:10:22Z</time>
      </trkpt>
      <trkpt lat="46.3172" lon="-0.32657">
        <ele>78.0389</ele>
        <time>2010-12-04T09:10:23Z</time>
      </trkpt>
      <trkpt lat="46.31718" lon="-0.32657">
        <ele>78.0209</ele>
        <time>2010-12-04T09:10:24Z</time>
      </trkpt>
      <trkpt lat="46.31717" lon="-0.32658">
        <ele>78.0025</ele>
        <time>2010-12-04T09:10:25Z</time>
      </trkpt>
      <trkpt lat="46.31715" lon="-0.32658">
        <ele>77.9822</ele>
        <time>2010-12-04T09:10:26Z</time>
      </trkpt>
      <trkpt lat="46.31714" lon="-0.32659">
        <ele>77.9635</ele>
        <time>2010-12-04T09:10:27Z</time>
      </trkpt>
      <trkpt lat="46.31712" lon="-0.32659">
        <ele>77.9449</ele>
        <time>2010-12-04T09:10:28Z</time>
      </trkpt>
      <trkpt lat="46.31711" lon="-0.3266">
        <ele>77.925</ele>
        <time>2010-12-04T09:10:29Z</time>
      </trkpt>
      <trkpt lat="46.31709" lon="-0.3266">
        <ele>77.9055</ele>
        <time>2010-12-04T09:10:30Z</time>
      </trkpt>
      <trkpt lat="46.31708" lon="-0.32661">
        <ele>77.8853</ele>
        <time>2010-12-04T09:10:31Z</time>
      </trkpt>
      <trkpt lat="46.31706" lon="-0.32662">
        <ele>77.8642</ele>
        <time>2010-12-04T09:10:32Z</time>
      </trkpt>
      <trkpt lat="46.31705" lon="-0.32663">
        <ele>77.8412</ele>
        <time>2010-12-04T09:10:33Z</time>
      </trkpt>
      <trkpt lat="46.31703" lon="-0.32664">
        <ele>77.8155</ele>
        <time>2010-12-04T09:10:34Z</time>
      </trkpt>
      <trkpt lat="46.31701" lon="-0.32664">
        <ele>77.788</ele>
        <time>2010-12-04T09:10:35Z</time>
      </trkpt>
      <trkpt lat="46.317" lon="-0.32666">
        <ele>77.7601</ele>
        <time>2010-12-04T09:10:36Z</time>
      </trkpt>
      <trkpt lat="46.31698" lon="-0.32666">
        <ele>77.7328</ele>
        <time>2010-12-04T09:10:37Z</time>
      </trkpt>
      <trkpt lat="46.31697" lon="-0.32667">
        <ele>77.7058</ele>
        <time>2010-12-04T09:10:38Z</time>
      </trkpt>
      <trkpt lat="46.31696" lon="-0.32668">
        <ele>77.6785</ele>
        <time>2010-12-04T09:10:39Z</time>
      </trkpt>
      <trkpt lat="46.31694" lon="-0.32669">
        <ele>77.6508</ele>
        <time>2010-12-04T09:10:40Z</time>
      </trkpt>
      <trkpt lat="46.31693" lon="-0.3267">
        <ele>77.6231</ele>
        <time>2010-12-04T09:10:41Z</time>
      </trkpt>
      <trkpt lat="46.31691" lon="-0.32671">
        <ele>77.5982</ele>
        <time>2010-12-04T09:10:42Z</time>
      </trkpt>
      <trkpt lat="46.3169" lon="-0.32672">
        <ele>77.577</ele>
        <time>2010-12-04T09:10:43Z</time>
      </trkpt>
      <trkpt lat="46.31689" lon="-0.32673">
        <ele>77.557</ele>
        <time>2010-12-04T09:10:44Z</time>
      </trkpt>
      <trkpt lat="46.31688" lon="-0.32674">
        <ele>77.5398</ele>
        <time>2010-12-04T09:10:45Z</time>
      </trkpt>
      <trkpt lat="46.31686" lon="-0.32675">
        <ele>77.5251</ele>
        <time>2010-12-04T09:10:46Z</time>
      </trkpt>
      <trkpt lat="46.31686" lon="-0.32676">
        <ele>77.5115</ele>
        <time>2010-12-04T09:10:47Z</time>
      </trkpt>
      <trkpt lat="46.31685" lon="-0.32677">
        <ele>77.4997</ele>
        <time>2010-12-04T09:10:48Z</time>
      </trkpt>
      <trkpt lat="46.31683" lon="-0.32678">
        <ele>77.4938</ele>
        <time>2010-12-04T09:10:49Z</time>
      </trkpt>
      <trkpt lat="46.31682" lon="-0.32679">
        <ele>77.4893</ele>
        <time>2010-12-04T09:10:50Z</time>
      </trkpt>
      <trkpt lat="46.31681" lon="-0.3268">
        <ele>77.4835</ele>
        <time>2010-12-04T09:10:51Z</time>
      </trkpt>
      <trkpt lat="46.3168" lon="-0.32681">
        <ele>77.4781</ele>
        <time>2010-12-04T09:10:52Z</time>
      </trkpt>
      <trkpt lat="46.31678" lon="-0.32682">
        <ele>77.4724</ele>
        <time>2010-12-04T09:10:53Z</time>
      </trkpt>
      <trkpt lat="46.31677" lon="-0.32683">
        <ele>77.4669</ele>
        <time>2010-12-04T09:10:54Z</time>
      </trkpt>
      <trkpt lat="46.31675" lon="-0.32684">
        <ele>77.4615</ele>
        <time>2010-12-04T09:10:55Z</time>
      </trkpt>
      <trkpt lat="46.31674" lon="-0.32685">
        <ele>77.4574</ele>
        <time>2010-12-04T09:10:56Z</time>
      </trkpt>
      <trkpt lat="46.31673" lon="-0.32686">
        <ele>77.4538</ele>
        <time>2010-12-04T09:10:57Z</time>
      </trkpt>
      <trkpt lat="46.31672" lon="-0.32688">
        <ele>77.4502</ele>
        <time>2010-12-04T09:10:58Z</time>
      </trkpt>
      <trkpt lat="46.3167" lon="-0.32689">
        <ele>77.4463</ele>
        <time>2010-12-04T09:10:59Z</time>
      </trkpt>
      <trkpt lat="46.31669" lon="-0.3269">
        <ele>77.4378</ele>
        <time>2010-12-04T09:11:00Z</time>
      </trkpt>
      <trkpt lat="46.31668" lon="-0.32691">
        <ele>77.4269</ele>
        <time>2010-12-04T09:11:01Z</time>
      </trkpt>
      <trkpt lat="46.31667" lon="-0.32692">
        <ele>77.4126</ele>
        <time>2010-12-04T09:11:02Z</time>
      </trkpt>
      <trkpt lat="46.31665" lon="-0.32694">
        <ele>77.3981</ele>
        <time>2010-12-04T09:11:03Z</time>
      </trkpt>
      <trkpt lat="46.31664" lon="-0.32695">
        <ele>77.3809</ele>
        <time>2010-12-04T09:11:04Z</time>
      </trkpt>
      <trkpt lat="46.31663" lon="-0.32696">
        <ele>77.3623</ele>
        <time>2010-12-04T09:11:05Z</time>
      </trkpt>
      <trkpt lat="46.31662" lon="-0.32697">
        <ele>77.3447</ele>
        <time>2010-12-04T09:11:06Z</time>
      </trkpt>
      <trkpt lat="46.31661" lon="-0.32698">
        <ele>77.3254</ele>
        <time>2010-12-04T09:11:07Z</time>
      </trkpt>
      <trkpt lat="46.31659" lon="-0.32699">
        <ele>77.3043</ele>
        <time>2010-12-04T09:11:08Z</time>
      </trkpt>
      <trkpt lat="46.31658" lon="-0.327">
        <ele>77.2832</ele>
        <time>2010-12-04T09:11:09Z</time>
      </trkpt>
      <trkpt lat="46.31657" lon="-0.32701">
        <ele>77.2612</ele>
        <time>2010-12-04T09:11:10Z</time>
      </trkpt>
      <trkpt lat="46.31656" lon="-0.32703">
        <ele>77.239</ele>
        <time>2010-12-04T09:11:11Z</time>
      </trkpt>
      <trkpt lat="46.31655" lon="-0.32704">
        <ele>77.2158</ele>
        <time>2010-12-04T09:11:12Z</time>
      </trkpt>
      <trkpt lat="46.31653" lon="-0.32705">
        <ele>77.192</ele>
        <time>2010-12-04T09:11:13Z</time>
      </trkpt>
      <trkpt lat="46.31652" lon="-0.32707">
        <ele>77.1674</ele>
        <time>2010-12-04T09:11:14Z</time>
      </trkpt>
      <trkpt lat="46.31651" lon="-0.32708">
        <ele>77.1425</ele>
        <time>2010-12-04T09:11:15Z</time>
      </trkpt>
      <trkpt lat="46.31649" lon="-0.32709">
        <ele>77.1173</ele>
        <time>2010-12-04T09:11:16Z</time>
      </trkpt>
      <trkpt lat="46.31648" lon="-0.3271">
        <ele>77.0917</ele>
        <time>2010-12-04T09:11:17Z</time>
      </trkpt>
      <trkpt lat="46.31646" lon="-0.32712">
        <ele>77.0665</ele>
        <time>2010-12-04T09:11:18Z</time>
      </trkpt>
      <trkpt lat="46.31644" lon="-0.32713">
        <ele>77.0418</ele>
        <time>2010-12-04T09:11:19Z</time>
      </trkpt>
      <trkpt lat="46.31643" lon="-0.32714">
        <ele>77.0169</ele>
        <time>2010-12-04T09:11:20Z</time>
      </trkpt>
      <trkpt lat="46.31642" lon="-0.32715">
        <ele>76.9929</ele>
        <time>2010-12-04T09:11:21Z</time>
      </trkpt>
      <trkpt lat="46.3164" lon="-0.32716">
        <ele>76.9688</ele>
        <time>2010-12-04T09:11:22Z</time>
      </trkpt>
      <trkpt lat="46.31639" lon="-0.32717">
        <ele>76.9462</ele>
        <time>2010-12-04T09:11:23Z</time>
      </trkpt>
      <trkpt lat="46.31638" lon="-0.32719">
        <ele>76.9217</ele>
        <time>2010-12-04T09:11:24Z</time>
      </trkpt>
      <trkpt lat="46.31637" lon="-0.3272">
        <ele>76.8971</ele>
        <time>2010-12-04T09:11:25Z</time>
      </trkpt>
      <trkpt lat="46.31636" lon="-0.32722">
        <ele>76.8742</ele>
        <time>2010-12-04T09:11:26Z</time>
      </trkpt>
      <trkpt lat="46.31634" lon="-0.32723">
        <ele>76.8502</ele>
        <time>2010-12-04T09:11:27Z</time>
      </trkpt>
      <trkpt lat="46.31633" lon="-0.32725">
        <ele>76.823</ele>
        <time>2010-12-04T09:11:28Z</time>
      </trkpt>
      <trkpt lat="46.31632" lon="-0.32726">
        <ele>76.7943</ele>
        <time>2010-12-04T09:11:29Z</time>
      </trkpt>
      <trkpt lat="46.3163" lon="-0.32727">
        <ele>76.7643</ele>
        <time>2010-12-04T09:11:30Z</time>
      </trkpt>
      <trkpt lat="46.31628" lon="-0.32728">
        <ele>76.7331</ele>
        <time>2010-12-04T09:11:31Z</time>
      </trkpt>
      <trkpt lat="46.31627" lon="-0.32729">
        <ele>76.7013</ele>
        <time>2010-12-04T09:11:32Z</time>
      </trkpt>
      <trkpt lat="46.31626" lon="-0.32731">
        <ele>76.6685</ele>
        <time>2010-12-04T09:11:33Z</time>
      </trkpt>
      <trkpt lat="46.31624" lon="-0.32732">
        <ele>76.6357</ele>
        <time>2010-12-04T09:11:34Z</time>
      </trkpt>
      <trkpt lat="46.31623" lon="-0.32734">
        <ele>76.6038</ele>
        <time>2010-12-04T09:11:35Z</time>
      </trkpt>
      <trkpt lat="46.31622" lon="-0.32736">
        <ele>76.5713</ele>
        <time>2010-12-04T09:11:36Z</time>
      </trkpt>
      <trkpt lat="46.3162" lon="-0.32737">
        <ele>76.5389</ele>
        <time>2010-12-04T09:11:37Z</time>
      </trkpt>
      <trkpt lat="46.31619" lon="-0.32738">
        <ele>76.5066</ele>
        <time>2010-12-04T09:11:38Z</time>
      </trkpt>
      <trkpt lat="46.31617" lon="-0.3274">
        <ele>76.4743</ele>
        <time>2010-12-04T09:11:39Z</time>
      </trkpt>
      <trkpt lat="46.31616" lon="-0.32741">
        <ele>76.4423</ele>
        <time>2010-12-04T09:11:40Z</time>
      </trkpt>
      <trkpt lat="46.31615" lon="-0.32742">
        <ele>76.4132</ele>
        <time>2010-12-04T09:11:41Z</time>
      </trkpt>
      <trkpt lat="46.31614" lon="-0.32743">
        <ele>76.3858</ele>
        <time>2010-12-04T09:11:42Z</time>
      </trkpt>
      <trkpt lat="46.31612" lon="-0.32744">
        <ele>76.3596</ele>
        <time>2010-12-04T09:11:43Z</time>
      </trkpt>
      <trkpt lat="46.31611" lon="-0.32746">
        <ele>76.3364</ele>
        <time>2010-12-04T09:11:44Z</time>
      </trkpt>
      <trkpt lat="46.3161" lon="-0.32747">
        <ele>76.313</ele>
        <time>2010-12-04T09:11:45Z</time>
      </trkpt>
      <trkpt lat="46.31608" lon="-0.32748">
        <ele>76.2901</ele>
        <time>2010-12-04T09:11:46Z</time>
      </trkpt>
      <trkpt lat="46.31607" lon="-0.32749">
        <ele>76.2701</ele>
        <time>2010-12-04T09:11:47Z</time>
      </trkpt>
      <trkpt lat="46.31606" lon="-0.32751">
        <ele>76.2524</ele>
        <time>2010-12-04T09:11:48Z</time>
      </trkpt>
      <trkpt lat="46.31604" lon="-0.32752">
        <ele>76.2357</ele>
        <time>2010-12-04T09:11:49Z</time>
      </trkpt>
      <trkpt lat="46.31603" lon="-0.32753">
        <ele>76.22</ele>
        <time>2010-12-04T09:11:50Z</time>
      </trkpt>
      <trkpt lat="46.31602" lon="-0.32754">
        <ele>76.2043</ele>
        <time>2010-12-04T09:11:51Z</time>
      </trkpt>
      <trkpt lat="46.31601" lon="-0.32756">
        <ele>76.1885</ele>
        <time>2010-12-04T09:11:52Z</time>
      </trkpt>
      <trkpt lat="46.31599" lon="-0.32757">
        <ele>76.1745</ele>
        <time>2010-12-04T09:11:53Z</time>
      </trkpt>
      <trkpt lat="46.31598" lon="-0.32758">
        <ele>76.1585</ele>
        <time>2010-12-04T09:11:54Z</time>
      </trkpt>
      <trkpt lat="46.31597" lon="-0.3276">
        <ele>76.1425</ele>
        <time>2010-12-04T09:11:55Z</time>
      </trkpt>
      <trkpt lat="46.31596" lon="-0.32761">
        <ele>76.1268</ele>
        <time>2010-12-04T09:11:56Z</time>
      </trkpt>
      <trkpt lat="46.31595" lon="-0.32762">
        <ele>76.111</ele>
        <time>2010-12-04T09:11:57Z</time>
      </trkpt>
      <trkpt lat="46.31593" lon="-0.32763">
        <ele>76.0947</ele>
        <time>2010-12-04T09:11:58Z</time>
      </trkpt>
      <trkpt lat="46.31592" lon="-0.32764">
        <ele>76.0779</ele>
        <time>2010-12-04T09:11:59Z</time>
      </trkpt>
      <trkpt lat="46.31591" lon="-0.32765">
        <ele>76.0598</ele>
        <time>2010-12-04T09:12:00Z</time>
      </trkpt>
      <trkpt lat="46.3159" lon="-0.32766">
        <ele>76.0405</ele>
        <time>2010-12-04T09:12:01Z</time>
      </trkpt>
      <trkpt lat="46.31589" lon="-0.32768">
        <ele>76.0202</ele>
        <time>2010-12-04T09:12:02Z</time>
      </trkpt>
      <trkpt lat="46.31588" lon="-0.32769">
        <ele>75.9985</ele>
        <time>2010-12-04T09:12:03Z</time>
      </trkpt>
      <trkpt lat="46.31587" lon="-0.3277">
        <ele>75.9777</ele>
        <time>2010-12-04T09:12:04Z</time>
      </trkpt>
      <trkpt lat="46.31586" lon="-0.32771">
        <ele>75.9583</ele>
        <time>2010-12-04T09:12:05Z</time>
      </trkpt>
      <trkpt lat="46.31585" lon="-0.32771">
        <ele>75.939</ele>
        <time>2010-12-04T09:12:06Z</time>
      </trkpt>
      <trkpt lat="46.31584" lon="-0.32772">
        <ele>75.9189</ele>
        <time>2010-12-04T09:12:07Z</time>
      </trkpt>
      <trkpt lat="46.31582" lon="-0.32773">
        <ele>75.8994</ele>
        <time>2010-12-04T09:12:08Z</time>
      </trkpt>
      <trkpt lat="46.31581" lon="-0.32774">
        <ele>75.8994</ele>
        <time>2010-12-04T09:12:09Z</time>
      </trkpt>
      <trkpt lat="46.3158" lon="-0.32775">
        <ele>75.8799</ele>
        <time>2010-12-04T09:12:10Z</time>
      </trkpt>
      <trkpt lat="46.31579" lon="-0.32776">
        <ele>75.8596</ele>
        <time>2010-12-04T09:12:11Z</time>
      </trkpt>
      <trkpt lat="46.31578" lon="-0.32777">
        <ele>75.8354</ele>
        <time>2010-12-04T09:12:12Z</time>
      </trkpt>
      <trkpt lat="46.31577" lon="-0.32778">
        <ele>75.8053</ele>
        <time>2010-12-04T09:12:13Z</time>
      </trkpt>
      <trkpt lat="46.31575" lon="-0.3278">
        <ele>75.7697</ele>
        <time>2010-12-04T09:12:14Z</time>
      </trkpt>
      <trkpt lat="46.31574" lon="-0.32781">
        <ele>75.7343</ele>
        <time>2010-12-04T09:12:15Z</time>
      </trkpt>
      <trkpt lat="46.31573" lon="-0.32782">
        <ele>75.6993</ele>
        <time>2010-12-04T09:12:16Z</time>
      </trkpt>
      <trkpt lat="46.31572" lon="-0.32784">
        <ele>75.6683</ele>
        <time>2010-12-04T09:12:17Z</time>
      </trkpt>
      <trkpt lat="46.3157" lon="-0.32785">
        <ele>75.6384</ele>
        <time>2010-12-04T09:12:18Z</time>
      </trkpt>
      <trkpt lat="46.3157" lon="-0.32786">
        <ele>75.6135</ele>
        <time>2010-12-04T09:12:19Z</time>
      </trkpt>
      <trkpt lat="46.31569" lon="-0.32787">
        <ele>75.5893</ele>
        <time>2010-12-04T09:12:20Z</time>
      </trkpt>
      <trkpt lat="46.31567" lon="-0.32789">
        <ele>75.5725</ele>
        <time>2010-12-04T09:12:21Z</time>
      </trkpt>
      <trkpt lat="46.31566" lon="-0.3279">
        <ele>75.5557</ele>
        <time>2010-12-04T09:12:22Z</time>
      </trkpt>
      <trkpt lat="46.31565" lon="-0.32791">
        <ele>75.539</ele>
        <time>2010-12-04T09:12:23Z</time>
      </trkpt>
      <trkpt lat="46.31564" lon="-0.32793">
        <ele>75.5225</ele>
        <time>2010-12-04T09:12:24Z</time>
      </trkpt>
      <trkpt lat="46.31563" lon="-0.32794">
        <ele>75.5041</ele>
        <time>2010-12-04T09:12:25Z</time>
      </trkpt>
      <trkpt lat="46.31562" lon="-0.32795">
        <ele>75.4837</ele>
        <time>2010-12-04T09:12:26Z</time>
      </trkpt>
      <trkpt lat="46.31561" lon="-0.32796">
        <ele>75.4632</ele>
        <time>2010-12-04T09:12:27Z</time>
      </trkpt>
      <trkpt lat="46.31559" lon="-0.32797">
        <ele>75.4387</ele>
        <time>2010-12-04T09:12:28Z</time>
      </trkpt>
      <trkpt lat="46.31558" lon="-0.32798">
        <ele>75.4073</ele>
        <time>2010-12-04T09:12:29Z</time>
      </trkpt>
      <trkpt lat="46.31556" lon="-0.328">
        <ele>75.3741</ele>
        <time>2010-12-04T09:12:30Z</time>
      </trkpt>
      <trkpt lat="46.31555" lon="-0.32801">
        <ele>75.3404</ele>
        <time>2010-12-04T09:12:31Z</time>
      </trkpt>
      <trkpt lat="46.31554" lon="-0.32802">
        <ele>75.306</ele>
        <time>2010-12-04T09:12:32Z</time>
      </trkpt>
      <trkpt lat="46.31552" lon="-0.32803">
        <ele>75.272</ele>
        <time>2010-12-04T09:12:33Z</time>
      </trkpt>
      <trkpt lat="46.31551" lon="-0.32804">
        <ele>75.2388</ele>
        <time>2010-12-04T09:12:34Z</time>
      </trkpt>
      <trkpt lat="46.3155" lon="-0.32805">
        <ele>75.2055</ele>
        <time>2010-12-04T09:12:35Z</time>
      </trkpt>
      <trkpt lat="46.31549" lon="-0.32807">
        <ele>75.1723</ele>
        <time>2010-12-04T09:12:36Z</time>
      </trkpt>
      <trkpt lat="46.31547" lon="-0.32808">
        <ele>75.1414</ele>
        <time>2010-12-04T09:12:37Z</time>
      </trkpt>
      <trkpt lat="46.31546" lon="-0.32809">
        <ele>75.1098</ele>
        <time>2010-12-04T09:12:38Z</time>
      </trkpt>
      <trkpt lat="46.31545" lon="-0.3281">
        <ele>75.0798</ele>
        <time>2010-12-04T09:12:39Z</time>
      </trkpt>
      <trkpt lat="46.31544" lon="-0.32811">
        <ele>75.0495</ele>
        <time>2010-12-04T09:12:40Z</time>
      </trkpt>
      <trkpt lat="46.31543" lon="-0.32811">
        <ele>75.0223</ele>
        <time>2010-12-04T09:12:41Z</time>
      </trkpt>
      <trkpt lat="46.31541" lon="-0.32812">
        <ele>74.9983</ele>
        <time>2010-12-04T09:12:42Z</time>
      </trkpt>
      <trkpt lat="46.3154" lon="-0.32813">
        <ele>74.9983</ele>
        <time>2010-12-04T09:12:43Z</time>
      </trkpt>
      <trkpt lat="46.31539" lon="-0.32814">
        <ele>74.9736</ele>
        <time>2010-12-04T09:12:44Z</time>
      </trkpt>
      <trkpt lat="46.31537" lon="-0.32815">
        <ele>74.9433</ele>
        <time>2010-12-04T09:12:45Z</time>
      </trkpt>
      <trkpt lat="46.31536" lon="-0.32816">
        <ele>74.9009</ele>
        <time>2010-12-04T09:12:46Z</time>
      </trkpt>
      <trkpt lat="46.31535" lon="-0.32817">
        <ele>74.8506</ele>
        <time>2010-12-04T09:12:47Z</time>
      </trkpt>
      <trkpt lat="46.31533" lon="-0.32818">
        <ele>74.7964</ele>
        <time>2010-12-04T09:12:48Z</time>
      </trkpt>
      <trkpt lat="46.31532" lon="-0.32819">
        <ele>74.7412</ele>
        <time>2010-12-04T09:12:49Z</time>
      </trkpt>
      <trkpt lat="46.31531" lon="-0.32821">
        <ele>74.6857</ele>
        <time>2010-12-04T09:12:50Z</time>
      </trkpt>
      <trkpt lat="46.3153" lon="-0.32822">
        <ele>74.632</ele>
        <time>2010-12-04T09:12:51Z</time>
      </trkpt>
      <trkpt lat="46.31529" lon="-0.32823">
        <ele>74.5825</ele>
        <time>2010-12-04T09:12:52Z</time>
      </trkpt>
      <trkpt lat="46.31527" lon="-0.32824">
        <ele>74.5351</ele>
        <time>2010-12-04T09:12:53Z</time>
      </trkpt>
      <trkpt lat="46.31525" lon="-0.32826">
        <ele>74.4899</ele>
        <time>2010-12-04T09:12:54Z</time>
      </trkpt>
      <trkpt lat="46.31524" lon="-0.32827">
        <ele>74.4472</ele>
        <time>2010-12-04T09:12:55Z</time>
      </trkpt>
      <trkpt lat="46.31522" lon="-0.32828">
        <ele>74.4068</ele>
        <time>2010-12-04T09:12:56Z</time>
      </trkpt>
      <trkpt lat="46.31521" lon="-0.3283">
        <ele>74.3697</ele>
        <time>2010-12-04T09:12:57Z</time>
      </trkpt>
      <trkpt lat="46.31519" lon="-0.32831">
        <ele>74.3326</ele>
        <time>2010-12-04T09:12:58Z</time>
      </trkpt>
      <trkpt lat="46.31518" lon="-0.32833">
        <ele>74.297</ele>
        <time>2010-12-04T09:12:59Z</time>
      </trkpt>
      <trkpt lat="46.31517" lon="-0.32834">
        <ele>74.2623</ele>
        <time>2010-12-04T09:13:00Z</time>
      </trkpt>
      <trkpt lat="46.31516" lon="-0.32836">
        <ele>74.2276</ele>
        <time>2010-12-04T09:13:01Z</time>
      </trkpt>
      <trkpt lat="46.31514" lon="-0.32837">
        <ele>74.1926</ele>
        <time>2010-12-04T09:13:02Z</time>
      </trkpt>
      <trkpt lat="46.31513" lon="-0.32839">
        <ele>74.161</ele>
        <time>2010-12-04T09:13:03Z</time>
      </trkpt>
      <trkpt lat="46.31512" lon="-0.3284">
        <ele>74.161</ele>
        <time>2010-12-04T09:13:04Z</time>
      </trkpt>
      <trkpt lat="46.3151" lon="-0.32841">
        <ele>74.1352</ele>
        <time>2010-12-04T09:13:05Z</time>
      </trkpt>
      <trkpt lat="46.31509" lon="-0.32841">
        <ele>74.1084</ele>
        <time>2010-12-04T09:13:06Z</time>
      </trkpt>
      <trkpt lat="46.31508" lon="-0.32842">
        <ele>74.0841</ele>
        <time>2010-12-04T09:13:07Z</time>
      </trkpt>
      <trkpt lat="46.31506" lon="-0.32843">
        <ele>74.0604</ele>
        <time>2010-12-04T09:13:08Z</time>
      </trkpt>
      <trkpt lat="46.31505" lon="-0.32844">
        <ele>74.0357</ele>
        <time>2010-12-04T09:13:09Z</time>
      </trkpt>
      <trkpt lat="46.31503" lon="-0.32845">
        <ele>74.0132</ele>
        <time>2010-12-04T09:13:10Z</time>
      </trkpt>
      <trkpt lat="46.31501" lon="-0.32845">
        <ele>73.9907</ele>
        <time>2010-12-04T09:13:11Z</time>
      </trkpt>
      <trkpt lat="46.315" lon="-0.32846">
        <ele>73.9656</ele>
        <time>2010-12-04T09:13:12Z</time>
      </trkpt>
      <trkpt lat="46.31499" lon="-0.32846">
        <ele>73.9446</ele>
        <time>2010-12-04T09:13:13Z</time>
      </trkpt>
      <trkpt lat="46.31498" lon="-0.32847">
        <ele>73.9265</ele>
        <time>2010-12-04T09:13:14Z</time>
      </trkpt>
      <trkpt lat="46.31497" lon="-0.32847">
        <ele>73.9104</ele>
        <time>2010-12-04T09:13:15Z</time>
      </trkpt>
      <trkpt lat="46.31496" lon="-0.32848">
        <ele>73.8929</ele>
        <time>2010-12-04T09:13:16Z</time>
      </trkpt>
      <trkpt lat="46.31495" lon="-0.32848">
        <ele>73.875</ele>
        <time>2010-12-04T09:13:17Z</time>
      </trkpt>
      <trkpt lat="46.31493" lon="-0.32849">
        <ele>73.8577</ele>
        <time>2010-12-04T09:13:18Z</time>
      </trkpt>
      <trkpt lat="46.31492" lon="-0.32849">
        <ele>73.8415</ele>
        <time>2010-12-04T09:13:19Z</time>
      </trkpt>
      <trkpt lat="46.31491" lon="-0.3285">
        <ele>73.8295</ele>
        <time>2010-12-04T09:13:20Z</time>
      </trkpt>
      <trkpt lat="46.3149" lon="-0.32851">
        <ele>73.8227</ele>
        <time>2010-12-04T09:13:21Z</time>
      </trkpt>
      <trkpt lat="46.31488" lon="-0.32851">
        <ele>73.8178</ele>
        <time>2010-12-04T09:13:22Z</time>
      </trkpt>
      <trkpt lat="46.31487" lon="-0.32852">
        <ele>73.8145</ele>
        <time>2010-12-04T09:13:23Z</time>
      </trkpt>
      <trkpt lat="46.31486" lon="-0.32853">
        <ele>73.8129</ele>
        <time>2010-12-04T09:13:24Z</time>
      </trkpt>
      <trkpt lat="46.31484" lon="-0.32854">
        <ele>73.8128</ele>
        <time>2010-12-04T09:13:25Z</time>
      </trkpt>
      <trkpt lat="46.31483" lon="-0.32855">
        <ele>73.8119</ele>
        <time>2010-12-04T09:13:26Z</time>
      </trkpt>
      <trkpt lat="46.31482" lon="-0.32855">
        <ele>73.8117</ele>
        <time>2010-12-04T09:13:27Z</time>
      </trkpt>
      <trkpt lat="46.31481" lon="-0.32856">
        <ele>73.8144</ele>
        <time>2010-12-04T09:13:28Z</time>
      </trkpt>
      <trkpt lat="46.31479" lon="-0.32856">
        <ele>73.8119</ele>
        <time>2010-12-04T09:13:29Z</time>
      </trkpt>
      <trkpt lat="46.31478" lon="-0.32856">
        <ele>73.807</ele>
        <time>2010-12-04T09:13:30Z</time>
      </trkpt>
      <trkpt lat="46.31477" lon="-0.32856">
        <ele>73.807</ele>
        <time>2010-12-04T09:13:31Z</time>
      </trkpt>
      <trkpt lat="46.31475" lon="-0.32857">
        <ele>73.8004</ele>
        <time>2010-12-04T09:13:32Z</time>
      </trkpt>
      <trkpt lat="46.31474" lon="-0.32857">
        <ele>73.7711</ele>
        <time>2010-12-04T09:13:33Z</time>
      </trkpt>
      <trkpt lat="46.31473" lon="-0.32858">
        <ele>73.7249</ele>
        <time>2010-12-04T09:13:34Z</time>
      </trkpt>
      <trkpt lat="46.31472" lon="-0.32859">
        <ele>73.6799</ele>
        <time>2010-12-04T09:13:35Z</time>
      </trkpt>
      <trkpt lat="46.31471" lon="-0.3286">
        <ele>73.6335</ele>
        <time>2010-12-04T09:13:36Z</time>
      </trkpt>
      <trkpt lat="46.31469" lon="-0.32861">
        <ele>73.5869</ele>
        <time>2010-12-04T09:13:37Z</time>
      </trkpt>
      <trkpt lat="46.31467" lon="-0.32862">
        <ele>73.542</ele>
        <time>2010-12-04T09:13:38Z</time>
      </trkpt>
      <trkpt lat="46.31466" lon="-0.32862">
        <ele>73.5001</ele>
        <time>2010-12-04T09:13:39Z</time>
      </trkpt>
      <trkpt lat="46.31465" lon="-0.32863">
        <ele>73.4588</ele>
        <time>2010-12-04T09:13:40Z</time>
      </trkpt>
      <trkpt lat="46.31463" lon="-0.32863">
        <ele>73.4186</ele>
        <time>2010-12-04T09:13:41Z</time>
      </trkpt>
      <trkpt lat="46.31462" lon="-0.32864">
        <ele>73.3798</ele>
        <time>2010-12-04T09:13:42Z</time>
      </trkpt>
      <trkpt lat="46.3146" lon="-0.32864">
        <ele>73.3478</ele>
        <time>2010-12-04T09:13:43Z</time>
      </trkpt>
      <trkpt lat="46.31459" lon="-0.32865">
        <ele>73.3174</ele>
        <time>2010-12-04T09:13:44Z</time>
      </trkpt>
      <trkpt lat="46.31457" lon="-0.32865">
        <ele>73.2871</ele>
        <time>2010-12-04T09:13:45Z</time>
      </trkpt>
      <trkpt lat="46.31456" lon="-0.32866">
        <ele>73.2572</ele>
        <time>2010-12-04T09:13:46Z</time>
      </trkpt>
      <trkpt lat="46.31454" lon="-0.32866">
        <ele>73.2309</ele>
        <time>2010-12-04T09:13:47Z</time>
      </trkpt>
      <trkpt lat="46.31453" lon="-0.32867">
        <ele>73.2061</ele>
        <time>2010-12-04T09:13:48Z</time>
      </trkpt>
      <trkpt lat="46.31451" lon="-0.32867">
        <ele>73.1826</ele>
        <time>2010-12-04T09:13:49Z</time>
      </trkpt>
      <trkpt lat="46.3145" lon="-0.32868">
        <ele>73.1617</ele>
        <time>2010-12-04T09:13:50Z</time>
      </trkpt>
      <trkpt lat="46.31448" lon="-0.32868">
        <ele>73.1446</ele>
        <time>2010-12-04T09:13:51Z</time>
      </trkpt>
      <trkpt lat="46.31447" lon="-0.32869">
        <ele>73.1292</ele>
        <time>2010-12-04T09:13:52Z</time>
      </trkpt>
      <trkpt lat="46.31445" lon="-0.32869">
        <ele>73.1145</ele>
        <time>2010-12-04T09:13:53Z</time>
      </trkpt>
      <trkpt lat="46.31444" lon="-0.3287">
        <ele>73.1095</ele>
        <time>2010-12-04T09:13:54Z</time>
      </trkpt>
      <trkpt lat="46.31443" lon="-0.3287">
        <ele>73.118</ele>
        <time>2010-12-04T09:13:55Z</time>
      </trkpt>
      <trkpt lat="46.31441" lon="-0.32871">
        <ele>73.1329</ele>
        <time>2010-12-04T09:13:56Z</time>
      </trkpt>
      <trkpt lat="46.3144" lon="-0.32871">
        <ele>73.1494</ele>
        <time>2010-12-04T09:13:57Z</time>
      </trkpt>
      <trkpt lat="46.31438" lon="-0.32872">
        <ele>73.1659</ele>
        <time>2010-12-04T09:13:58Z</time>
      </trkpt>
      <trkpt lat="46.31437" lon="-0.32872">
        <ele>73.1805</ele>
        <time>2010-12-04T09:13:59Z</time>
      </trkpt>
      <trkpt lat="46.31436" lon="-0.32872">
        <ele>73.1947</ele>
        <time>2010-12-04T09:14:00Z</time>
      </trkpt>
      <trkpt lat="46.31434" lon="-0.32872">
        <ele>73.2089</ele>
        <time>2010-12-04T09:14:01Z</time>
      </trkpt>
      <trkpt lat="46.31433" lon="-0.32872">
        <ele>73.2229</ele>
        <time>2010-12-04T09:14:02Z</time>
      </trkpt>
      <trkpt lat="46.31431" lon="-0.32873">
        <ele>73.2381</ele>
        <time>2010-12-04T09:14:03Z</time>
      </trkpt>
      <trkpt lat="46.3143" lon="-0.32873">
        <ele>73.2527</ele>
        <time>2010-12-04T09:14:04Z</time>
      </trkpt>
      <trkpt lat="46.31428" lon="-0.32874">
        <ele>73.2677</ele>
        <time>2010-12-04T09:14:05Z</time>
      </trkpt>
      <trkpt lat="46.31427" lon="-0.32874">
        <ele>73.2823</ele>
        <time>2010-12-04T09:14:06Z</time>
      </trkpt>
      <trkpt lat="46.31425" lon="-0.32875">
        <ele>73.2972</ele>
        <time>2010-12-04T09:14:07Z</time>
      </trkpt>
      <trkpt lat="46.31423" lon="-0.32875">
        <ele>73.3119</ele>
        <time>2010-12-04T09:14:08Z</time>
      </trkpt>
      <trkpt lat="46.31422" lon="-0.32875">
        <ele>73.3257</ele>
        <time>2010-12-04T09:14:09Z</time>
      </trkpt>
      <trkpt lat="46.3142" lon="-0.32876">
        <ele>73.3378</ele>
        <time>2010-12-04T09:14:10Z</time>
      </trkpt>
      <trkpt lat="46.31418" lon="-0.32876">
        <ele>73.3487</ele>
        <time>2010-12-04T09:14:11Z</time>
      </trkpt>
      <trkpt lat="46.31416" lon="-0.32876">
        <ele>73.3606</ele>
        <time>2010-12-04T09:14:12Z</time>
      </trkpt>
      <trkpt lat="46.31415" lon="-0.32876">
        <ele>73.3701</ele>
        <time>2010-12-04T09:14:13Z</time>
      </trkpt>
      <trkpt lat="46.31413" lon="-0.32877">
        <ele>73.3784</ele>
        <time>2010-12-04T09:14:14Z</time>
      </trkpt>
      <trkpt lat="46.31412" lon="-0.32877">
        <ele>73.3856</ele>
        <time>2010-12-04T09:14:15Z</time>
      </trkpt>
      <trkpt lat="46.31411" lon="-0.32877">
        <ele>73.3912</ele>
        <time>2010-12-04T09:14:16Z</time>
      </trkpt>
      <trkpt lat="46.31409" lon="-0.32877">
        <ele>73.3976</ele>
        <time>2010-12-04T09:14:17Z</time>
      </trkpt>
      <trkpt lat="46.31408" lon="-0.32877">
        <ele>73.4041</ele>
        <time>2010-12-04T09:14:18Z</time>
      </trkpt>
      <trkpt lat="46.31406" lon="-0.32877">
        <ele>73.411</ele>
        <time>2010-12-04T09:14:19Z</time>
      </trkpt>
      <trkpt lat="46.31405" lon="-0.32877">
        <ele>73.4173</ele>
        <time>2010-12-04T09:14:20Z</time>
      </trkpt>
      <trkpt lat="46.31403" lon="-0.32877">
        <ele>73.422</ele>
        <time>2010-12-04T09:14:21Z</time>
      </trkpt>
      <trkpt lat="46.31401" lon="-0.32877">
        <ele>73.4284</ele>
        <time>2010-12-04T09:14:22Z</time>
      </trkpt>
      <trkpt lat="46.314" lon="-0.32877">
        <ele>73.4295</ele>
        <time>2010-12-04T09:14:23Z</time>
      </trkpt>
      <trkpt lat="46.31398" lon="-0.32876">
        <ele>73.4218</ele>
        <time>2010-12-04T09:14:24Z</time>
      </trkpt>
      <trkpt lat="46.31397" lon="-0.32876">
        <ele>73.4143</ele>
        <time>2010-12-04T09:14:25Z</time>
      </trkpt>
      <trkpt lat="46.31395" lon="-0.32876">
        <ele>73.4088</ele>
        <time>2010-12-04T09:14:26Z</time>
      </trkpt>
      <trkpt lat="46.31394" lon="-0.32876">
        <ele>73.405</ele>
        <time>2010-12-04T09:14:27Z</time>
      </trkpt>
      <trkpt lat="46.31392" lon="-0.32876">
        <ele>73.4008</ele>
        <time>2010-12-04T09:14:28Z</time>
      </trkpt>
      <trkpt lat="46.31391" lon="-0.32876">
        <ele>73.3971</ele>
        <time>2010-12-04T09:14:29Z</time>
      </trkpt>
      <trkpt lat="46.31389" lon="-0.32876">
        <ele>73.3957</ele>
        <time>2010-12-04T09:14:30Z</time>
      </trkpt>
      <trkpt lat="46.31388" lon="-0.32876">
        <ele>73.3903</ele>
        <time>2010-12-04T09:14:31Z</time>
      </trkpt>
      <trkpt lat="46.31386" lon="-0.32876">
        <ele>73.3843</ele>
        <time>2010-12-04T09:14:32Z</time>
      </trkpt>
      <trkpt lat="46.31385" lon="-0.32876">
        <ele>73.3793</ele>
        <time>2010-12-04T09:14:33Z</time>
      </trkpt>
      <trkpt lat="46.31383" lon="-0.32876">
        <ele>73.3747</ele>
        <time>2010-12-04T09:14:34Z</time>
      </trkpt>
      <trkpt lat="46.31382" lon="-0.32876">
        <ele>73.3725</ele>
        <time>2010-12-04T09:14:35Z</time>
      </trkpt>
      <trkpt lat="46.3138" lon="-0.32876">
        <ele>73.3734</ele>
        <time>2010-12-04T09:14:36Z</time>
      </trkpt>
      <trkpt lat="46.31378" lon="-0.32876">
        <ele>73.375</ele>
        <time>2010-12-04T09:14:37Z</time>
      </trkpt>
      <trkpt lat="46.31377" lon="-0.32876">
        <ele>73.3781</ele>
        <time>2010-12-04T09:14:38Z</time>
      </trkpt>
      <trkpt lat="46.31375" lon="-0.32876">
        <ele>73.3831</ele>
        <time>2010-12-04T09:14:39Z</time>
      </trkpt>
      <trkpt lat="46.31373" lon="-0.32876">
        <ele>73.3887</ele>
        <time>2010-12-04T09:14:40Z</time>
      </trkpt>
      <trkpt lat="46.31372" lon="-0.32876">
        <ele>73.3948</ele>
        <time>2010-12-04T09:14:41Z</time>
      </trkpt>
      <trkpt lat="46.3137" lon="-0.32876">
        <ele>73.4026</ele>
        <time>2010-12-04T09:14:42Z</time>
      </trkpt>
      <trkpt lat="46.31369" lon="-0.32875">
        <ele>73.4064</ele>
        <time>2010-12-04T09:14:43Z</time>
      </trkpt>
      <trkpt lat="46.31368" lon="-0.32875">
        <ele>73.4129</ele>
        <time>2010-12-04T09:14:44Z</time>
      </trkpt>
      <trkpt lat="46.31366" lon="-0.32875">
        <ele>73.4212</ele>
        <time>2010-12-04T09:14:45Z</time>
      </trkpt>
      <trkpt lat="46.31365" lon="-0.32875">
        <ele>73.4315</ele>
        <time>2010-12-04T09:14:46Z</time>
      </trkpt>
      <trkpt lat="46.31363" lon="-0.32875">
        <ele>73.4411</ele>
        <time>2010-12-04T09:14:47Z</time>
      </trkpt>
      <trkpt lat="46.31362" lon="-0.32875">
        <ele>73.4495</ele>
        <time>2010-12-04T09:14:48Z</time>
      </trkpt>
      <trkpt lat="46.3136" lon="-0.32875">
        <ele>73.4553</ele>
        <time>2010-12-04T09:14:49Z</time>
      </trkpt>
      <trkpt lat="46.31359" lon="-0.32875">
        <ele>73.4584</ele>
        <time>2010-12-04T09:14:50Z</time>
      </trkpt>
      <trkpt lat="46.31357" lon="-0.32875">
        <ele>73.4608</ele>
        <time>2010-12-04T09:14:51Z</time>
      </trkpt>
      <trkpt lat="46.31355" lon="-0.32875">
        <ele>73.4603</ele>
        <time>2010-12-04T09:14:52Z</time>
      </trkpt>
      <trkpt lat="46.31354" lon="-0.32875">
        <ele>73.4576</ele>
        <time>2010-12-04T09:14:53Z</time>
      </trkpt>
      <trkpt lat="46.31353" lon="-0.32874">
        <ele>73.4539</ele>
        <time>2010-12-04T09:14:54Z</time>
      </trkpt>
      <trkpt lat="46.31351" lon="-0.32874">
        <ele>73.4504</ele>
        <time>2010-12-04T09:14:55Z</time>
      </trkpt>
      <trkpt lat="46.3135" lon="-0.32874">
        <ele>73.4472</ele>
        <time>2010-12-04T09:14:56Z</time>
      </trkpt>
      <trkpt lat="46.31348" lon="-0.32874">
        <ele>73.444</ele>
        <time>2010-12-04T09:14:57Z</time>
      </trkpt>
      <trkpt lat="46.31347" lon="-0.32874">
        <ele>73.4402</ele>
        <time>2010-12-04T09:14:58Z</time>
      </trkpt>
      <trkpt lat="46.31345" lon="-0.32874">
        <ele>73.4351</ele>
        <time>2010-12-04T09:14:59Z</time>
      </trkpt>
      <trkpt lat="46.31344" lon="-0.32874">
        <ele>73.4295</ele>
        <time>2010-12-04T09:15:00Z</time>
      </trkpt>
      <trkpt lat="46.31342" lon="-0.32874">
        <ele>73.4224</ele>
        <time>2010-12-04T09:15:01Z</time>
      </trkpt>
      <trkpt lat="46.3134" lon="-0.32874">
        <ele>73.4157</ele>
        <time>2010-12-04T09:15:02Z</time>
      </trkpt>
      <trkpt lat="46.31339" lon="-0.32874">
        <ele>73.4059</ele>
        <time>2010-12-04T09:15:03Z</time>
      </trkpt>
      <trkpt lat="46.31337" lon="-0.32874">
        <ele>73.3918</ele>
        <time>2010-12-04T09:15:04Z</time>
      </trkpt>
      <trkpt lat="46.31335" lon="-0.32873">
        <ele>73.3771</ele>
        <time>2010-12-04T09:15:05Z</time>
      </trkpt>
      <trkpt lat="46.31334" lon="-0.32872">
        <ele>73.3595</ele>
        <time>2010-12-04T09:15:06Z</time>
      </trkpt>
      <trkpt lat="46.31332" lon="-0.32872">
        <ele>73.3408</ele>
        <time>2010-12-04T09:15:07Z</time>
      </trkpt>
      <trkpt lat="46.31331" lon="-0.32872">
        <ele>73.3141</ele>
        <time>2010-12-04T09:15:08Z</time>
      </trkpt>
      <trkpt lat="46.31329" lon="-0.32871">
        <ele>73.2807</ele>
        <time>2010-12-04T09:15:09Z</time>
      </trkpt>
      <trkpt lat="46.31328" lon="-0.32871">
        <ele>73.2437</ele>
        <time>2010-12-04T09:15:10Z</time>
      </trkpt>
      <trkpt lat="46.31326" lon="-0.32871">
        <ele>73.2017</ele>
        <time>2010-12-04T09:15:11Z</time>
      </trkpt>
      <trkpt lat="46.31324" lon="-0.3287">
        <ele>73.1588</ele>
        <time>2010-12-04T09:15:12Z</time>
      </trkpt>
      <trkpt lat="46.31323" lon="-0.3287">
        <ele>73.1172</ele>
        <time>2010-12-04T09:15:13Z</time>
      </trkpt>
      <trkpt lat="46.31321" lon="-0.32871">
        <ele>73.0752</ele>
        <time>2010-12-04T09:15:14Z</time>
      </trkpt>
      <trkpt lat="46.3132" lon="-0.32871">
        <ele>73.0344</ele>
        <time>2010-12-04T09:15:15Z</time>
      </trkpt>
      <trkpt lat="46.31318" lon="-0.32871">
        <ele>72.9946</ele>
        <time>2010-12-04T09:15:16Z</time>
      </trkpt>
      <trkpt lat="46.31317" lon="-0.32871">
        <ele>72.9553</ele>
        <time>2010-12-04T09:15:17Z</time>
      </trkpt>
      <trkpt lat="46.31315" lon="-0.32871">
        <ele>72.9163</ele>
        <time>2010-12-04T09:15:18Z</time>
      </trkpt>
      <trkpt lat="46.31313" lon="-0.32871">
        <ele>72.8803</ele>
        <time>2010-12-04T09:15:19Z</time>
      </trkpt>
      <trkpt lat="46.31312" lon="-0.32871">
        <ele>72.8465</ele>
        <time>2010-12-04T09:15:20Z</time>
      </trkpt>
      <trkpt lat="46.3131" lon="-0.32871">
        <ele>72.8144</ele>
        <time>2010-12-04T09:15:21Z</time>
      </trkpt>
      <trkpt lat="46.31309" lon="-0.32871">
        <ele>72.784</ele>
        <time>2010-12-04T09:15:22Z</time>
      </trkpt>
      <trkpt lat="46.31307" lon="-0.32871">
        <ele>72.7541</ele>
        <time>2010-12-04T09:15:23Z</time>
      </trkpt>
      <trkpt lat="46.31306" lon="-0.32871">
        <ele>72.7265</ele>
        <time>2010-12-04T09:15:24Z</time>
      </trkpt>
      <trkpt lat="46.31304" lon="-0.32871">
        <ele>72.7015</ele>
        <time>2010-12-04T09:15:25Z</time>
      </trkpt>
      <trkpt lat="46.31303" lon="-0.32871">
        <ele>72.6764</ele>
        <time>2010-12-04T09:15:26Z</time>
      </trkpt>
      <trkpt lat="46.31301" lon="-0.32871">
        <ele>72.6528</ele>
        <time>2010-12-04T09:15:27Z</time>
      </trkpt>
      <trkpt lat="46.313" lon="-0.32871">
        <ele>72.6367</ele>
        <time>2010-12-04T09:15:28Z</time>
      </trkpt>
      <trkpt lat="46.31298" lon="-0.32871">
        <ele>72.6212</ele>
        <time>2010-12-04T09:15:29Z</time>
      </trkpt>
      <trkpt lat="46.31297" lon="-0.32871">
        <ele>72.6059</ele>
        <time>2010-12-04T09:15:30Z</time>
      </trkpt>
      <trkpt lat="46.31295" lon="-0.32871">
        <ele>72.5914</ele>
        <time>2010-12-04T09:15:31Z</time>
      </trkpt>
      <trkpt lat="46.31294" lon="-0.32871">
        <ele>72.5785</ele>
        <time>2010-12-04T09:15:32Z</time>
      </trkpt>
      <trkpt lat="46.31292" lon="-0.32871">
        <ele>72.5651</ele>
        <time>2010-12-04T09:15:33Z</time>
      </trkpt>
      <trkpt lat="46.31291" lon="-0.3287">
        <ele>72.5487</ele>
        <time>2010-12-04T09:15:34Z</time>
      </trkpt>
      <trkpt lat="46.3129" lon="-0.3287">
        <ele>72.5321</ele>
        <time>2010-12-04T09:15:35Z</time>
      </trkpt>
      <trkpt lat="46.31288" lon="-0.3287">
        <ele>72.5153</ele>
        <time>2010-12-04T09:15:36Z</time>
      </trkpt>
      <trkpt lat="46.31287" lon="-0.3287">
        <ele>72.5002</ele>
        <time>2010-12-04T09:15:37Z</time>
      </trkpt>
      <trkpt lat="46.31285" lon="-0.3287">
        <ele>72.4854</ele>
        <time>2010-12-04T09:15:38Z</time>
      </trkpt>
      <trkpt lat="46.31284" lon="-0.3287">
        <ele>72.4717</ele>
        <time>2010-12-04T09:15:39Z</time>
      </trkpt>
      <trkpt lat="46.31282" lon="-0.3287">
        <ele>72.4598</ele>
        <time>2010-12-04T09:15:40Z</time>
      </trkpt>
      <trkpt lat="46.31281" lon="-0.3287">
        <ele>72.4484</ele>
        <time>2010-12-04T09:15:41Z</time>
      </trkpt>
      <trkpt lat="46.3128" lon="-0.32871">
        <ele>72.4377</ele>
        <time>2010-12-04T09:15:42Z</time>
      </trkpt>
      <trkpt lat="46.31278" lon="-0.32871">
        <ele>72.4286</ele>
        <time>2010-12-04T09:15:43Z</time>
      </trkpt>
      <trkpt lat="46.31277" lon="-0.32871">
        <ele>72.4215</ele>
        <time>2010-12-04T09:15:44Z</time>
      </trkpt>
      <trkpt lat="46.31275" lon="-0.32872">
        <ele>72.4157</ele>
        <time>2010-12-04T09:15:45Z</time>
      </trkpt>
      <trkpt lat="46.31274" lon="-0.32872">
        <ele>72.4103</ele>
        <time>2010-12-04T09:15:46Z</time>
      </trkpt>
      <trkpt lat="46.31272" lon="-0.32872">
        <ele>72.4046</ele>
        <time>2010-12-04T09:15:47Z</time>
      </trkpt>
      <trkpt lat="46.31271" lon="-0.32873">
        <ele>72.3996</ele>
        <time>2010-12-04T09:15:48Z</time>
      </trkpt>
      <trkpt lat="46.31269" lon="-0.32873">
        <ele>72.395</ele>
        <time>2010-12-04T09:15:49Z</time>
      </trkpt>
      <trkpt lat="46.31268" lon="-0.32873">
        <ele>72.3899</ele>
        <time>2010-12-04T09:15:50Z</time>
      </trkpt>
      <trkpt lat="46.31266" lon="-0.32874">
        <ele>72.3844</ele>
        <time>2010-12-04T09:15:51Z</time>
      </trkpt>
      <trkpt lat="46.31265" lon="-0.32874">
        <ele>72.3787</ele>
        <time>2010-12-04T09:15:52Z</time>
      </trkpt>
      <trkpt lat="46.31263" lon="-0.32875">
        <ele>72.3733</ele>
        <time>2010-12-04T09:15:53Z</time>
      </trkpt>
      <trkpt lat="46.31261" lon="-0.32875">
        <ele>72.3696</ele>
        <time>2010-12-04T09:15:54Z</time>
      </trkpt>
      <trkpt lat="46.3126" lon="-0.32875">
        <ele>72.366</ele>
        <time>2010-12-04T09:15:55Z</time>
      </trkpt>
      <trkpt lat="46.31259" lon="-0.32876">
        <ele>72.3638</ele>
        <time>2010-12-04T09:15:56Z</time>
      </trkpt>
      <trkpt lat="46.31257" lon="-0.32876">
        <ele>72.3615</ele>
        <time>2010-12-04T09:15:57Z</time>
      </trkpt>
      <trkpt lat="46.31256" lon="-0.32876">
        <ele>72.3614</ele>
        <time>2010-12-04T09:15:58Z</time>
      </trkpt>
      <trkpt lat="46.31254" lon="-0.32877">
        <ele>72.3619</ele>
        <time>2010-12-04T09:15:59Z</time>
      </trkpt>
      <trkpt lat="46.31253" lon="-0.32877">
        <ele>72.3656</ele>
        <time>2010-12-04T09:16:00Z</time>
      </trkpt>
      <trkpt lat="46.31252" lon="-0.32877">
        <ele>72.3703</ele>
        <time>2010-12-04T09:16:01Z</time>
      </trkpt>
      <trkpt lat="46.3125" lon="-0.32878">
        <ele>72.3751</ele>
        <time>2010-12-04T09:16:02Z</time>
      </trkpt>
      <trkpt lat="46.31248" lon="-0.32878">
        <ele>72.3804</ele>
        <time>2010-12-04T09:16:03Z</time>
      </trkpt>
      <trkpt lat="46.31247" lon="-0.32878">
        <ele>72.3845</ele>
        <time>2010-12-04T09:16:04Z</time>
      </trkpt>
      <trkpt lat="46.31245" lon="-0.32878">
        <ele>72.3876</ele>
        <time>2010-12-04T09:16:05Z</time>
      </trkpt>
      <trkpt lat="46.31244" lon="-0.32878">
        <ele>72.3897</ele>
        <time>2010-12-04T09:16:06Z</time>
      </trkpt>
      <trkpt lat="46.31242" lon="-0.32879">
        <ele>72.3917</ele>
        <time>2010-12-04T09:16:07Z</time>
      </trkpt>
      <trkpt lat="46.3124" lon="-0.32879">
        <ele>72.3937</ele>
        <time>2010-12-04T09:16:08Z</time>
      </trkpt>
      <trkpt lat="46.31239" lon="-0.3288">
        <ele>72.3955</ele>
        <time>2010-12-04T09:16:09Z</time>
      </trkpt>
      <trkpt lat="46.31237" lon="-0.3288">
        <ele>72.396</ele>
        <time>2010-12-04T09:16:10Z</time>
      </trkpt>
      <trkpt lat="46.31236" lon="-0.32881">
        <ele>72.3972</ele>
        <time>2010-12-04T09:16:11Z</time>
      </trkpt>
      <trkpt lat="46.31234" lon="-0.32881">
        <ele>72.4</ele>
        <time>2010-12-04T09:16:12Z</time>
      </trkpt>
      <trkpt lat="46.31233" lon="-0.32882">
        <ele>72.4029</ele>
        <time>2010-12-04T09:16:13Z</time>
      </trkpt>
      <trkpt lat="46.31231" lon="-0.32882">
        <ele>72.4059</ele>
        <time>2010-12-04T09:16:14Z</time>
      </trkpt>
      <trkpt lat="46.3123" lon="-0.32883">
        <ele>72.41</ele>
        <time>2010-12-04T09:16:15Z</time>
      </trkpt>
      <trkpt lat="46.31228" lon="-0.32884">
        <ele>72.4151</ele>
        <time>2010-12-04T09:16:16Z</time>
      </trkpt>
      <trkpt lat="46.31227" lon="-0.32884">
        <ele>72.4216</ele>
        <time>2010-12-04T09:16:17Z</time>
      </trkpt>
      <trkpt lat="46.31225" lon="-0.32885">
        <ele>72.4289</ele>
        <time>2010-12-04T09:16:18Z</time>
      </trkpt>
      <trkpt lat="46.31224" lon="-0.32885">
        <ele>72.4368</ele>
        <time>2010-12-04T09:16:19Z</time>
      </trkpt>
      <trkpt lat="46.31222" lon="-0.32886">
        <ele>72.445</ele>
        <time>2010-12-04T09:16:20Z</time>
      </trkpt>
      <trkpt lat="46.31221" lon="-0.32886">
        <ele>72.4543</ele>
        <time>2010-12-04T09:16:21Z</time>
      </trkpt>
      <trkpt lat="46.3122" lon="-0.32887">
        <ele>72.4639</ele>
        <time>2010-12-04T09:16:22Z</time>
      </trkpt>
      <trkpt lat="46.31218" lon="-0.32887">
        <ele>72.473</ele>
        <time>2010-12-04T09:16:23Z</time>
      </trkpt>
      <trkpt lat="46.31216" lon="-0.32888">
        <ele>72.48</ele>
        <time>2010-12-04T09:16:24Z</time>
      </trkpt>
      <trkpt lat="46.31215" lon="-0.32888">
        <ele>72.4858</ele>
        <time>2010-12-04T09:16:25Z</time>
      </trkpt>
      <trkpt lat="46.31213" lon="-0.32888">
        <ele>72.4878</ele>
        <time>2010-12-04T09:16:26Z</time>
      </trkpt>
      <trkpt lat="46.31212" lon="-0.32889">
        <ele>72.4883</ele>
        <time>2010-12-04T09:16:27Z</time>
      </trkpt>
      <trkpt lat="46.3121" lon="-0.32889">
        <ele>72.4892</ele>
        <time>2010-12-04T09:16:28Z</time>
      </trkpt>
      <trkpt lat="46.31208" lon="-0.3289">
        <ele>72.4912</ele>
        <time>2010-12-04T09:16:29Z</time>
      </trkpt>
      <trkpt lat="46.31207" lon="-0.3289">
        <ele>72.4935</ele>
        <time>2010-12-04T09:16:30Z</time>
      </trkpt>
      <trkpt lat="46.31205" lon="-0.32891">
        <ele>72.4953</ele>
        <time>2010-12-04T09:16:31Z</time>
      </trkpt>
      <trkpt lat="46.31204" lon="-0.32891">
        <ele>72.4968</ele>
        <time>2010-12-04T09:16:32Z</time>
      </trkpt>
      <trkpt lat="46.31202" lon="-0.32891">
        <ele>72.4978</ele>
        <time>2010-12-04T09:16:33Z</time>
      </trkpt>
      <trkpt lat="46.31201" lon="-0.32892">
        <ele>72.4969</ele>
        <time>2010-12-04T09:16:34Z</time>
      </trkpt>
      <trkpt lat="46.312" lon="-0.32893">
        <ele>72.493</ele>
        <time>2010-12-04T09:16:35Z</time>
      </trkpt>
      <trkpt lat="46.31199" lon="-0.32893">
        <ele>72.4863</ele>
        <time>2010-12-04T09:16:36Z</time>
      </trkpt>
      <trkpt lat="46.31197" lon="-0.32894">
        <ele>72.4782</ele>
        <time>2010-12-04T09:16:37Z</time>
      </trkpt>
      <trkpt lat="46.31196" lon="-0.32895">
        <ele>72.469</ele>
        <time>2010-12-04T09:16:38Z</time>
      </trkpt>
      <trkpt lat="46.31195" lon="-0.32895">
        <ele>72.4598</ele>
        <time>2010-12-04T09:16:39Z</time>
      </trkpt>
      <trkpt lat="46.31194" lon="-0.32895">
        <ele>72.4502</ele>
        <time>2010-12-04T09:16:40Z</time>
      </trkpt>
      <trkpt lat="46.31192" lon="-0.32895">
        <ele>72.4413</ele>
        <time>2010-12-04T09:16:41Z</time>
      </trkpt>
      <trkpt lat="46.31191" lon="-0.32895">
        <ele>72.4227</ele>
        <time>2010-12-04T09:16:42Z</time>
      </trkpt>
      <trkpt lat="46.31189" lon="-0.32895">
        <ele>72.4031</ele>
        <time>2010-12-04T09:16:43Z</time>
      </trkpt>
      <trkpt lat="46.31188" lon="-0.32895">
        <ele>72.3839</ele>
        <time>2010-12-04T09:16:44Z</time>
      </trkpt>
      <trkpt lat="46.31187" lon="-0.32896">
        <ele>72.3653</ele>
        <time>2010-12-04T09:16:45Z</time>
      </trkpt>
      <trkpt lat="46.31185" lon="-0.32896">
        <ele>72.3465</ele>
        <time>2010-12-04T09:16:46Z</time>
      </trkpt>
      <trkpt lat="46.31184" lon="-0.32896">
        <ele>72.3273</ele>
        <time>2010-12-04T09:16:47Z</time>
      </trkpt>
      <trkpt lat="46.31182" lon="-0.32897">
        <ele>72.3073</ele>
        <time>2010-12-04T09:16:48Z</time>
      </trkpt>
      <trkpt lat="46.31181" lon="-0.32898">
        <ele>72.289</ele>
        <time>2010-12-04T09:16:49Z</time>
      </trkpt>
      <trkpt lat="46.31179" lon="-0.32899">
        <ele>72.2712</ele>
        <time>2010-12-04T09:16:50Z</time>
      </trkpt>
      <trkpt lat="46.31178" lon="-0.32899">
        <ele>72.2546</ele>
        <time>2010-12-04T09:16:51Z</time>
      </trkpt>
      <trkpt lat="46.31176" lon="-0.329">
        <ele>72.2386</ele>
        <time>2010-12-04T09:16:52Z</time>
      </trkpt>
      <trkpt lat="46.31175" lon="-0.329">
        <ele>72.2243</ele>
        <time>2010-12-04T09:16:53Z</time>
      </trkpt>
      <trkpt lat="46.31173" lon="-0.329">
        <ele>72.2119</ele>
        <time>2010-12-04T09:16:54Z</time>
      </trkpt>
      <trkpt lat="46.31172" lon="-0.32901">
        <ele>72.2004</ele>
        <time>2010-12-04T09:16:55Z</time>
      </trkpt>
      <trkpt lat="46.3117" lon="-0.32901">
        <ele>72.1888</ele>
        <time>2010-12-04T09:16:56Z</time>
      </trkpt>
      <trkpt lat="46.31169" lon="-0.32902">
        <ele>72.1783</ele>
        <time>2010-12-04T09:16:57Z</time>
      </trkpt>
      <trkpt lat="46.31168" lon="-0.32902">
        <ele>72.1684</ele>
        <time>2010-12-04T09:16:58Z</time>
      </trkpt>
      <trkpt lat="46.31166" lon="-0.32902">
        <ele>72.1538</ele>
        <time>2010-12-04T09:16:59Z</time>
      </trkpt>
      <trkpt lat="46.31165" lon="-0.32903">
        <ele>72.1392</ele>
        <time>2010-12-04T09:17:00Z</time>
      </trkpt>
      <trkpt lat="46.31163" lon="-0.32903">
        <ele>72.1197</ele>
        <time>2010-12-04T09:17:01Z</time>
      </trkpt>
      <trkpt lat="46.31162" lon="-0.32903">
        <ele>72.0978</ele>
        <time>2010-12-04T09:17:02Z</time>
      </trkpt>
      <trkpt lat="46.3116" lon="-0.32903">
        <ele>72.0756</ele>
        <time>2010-12-04T09:17:03Z</time>
      </trkpt>
      <trkpt lat="46.31158" lon="-0.32903">
        <ele>72.0544</ele>
        <time>2010-12-04T09:17:04Z</time>
      </trkpt>
      <trkpt lat="46.31157" lon="-0.32903">
        <ele>72.033</ele>
        <time>2010-12-04T09:17:05Z</time>
      </trkpt>
      <trkpt lat="46.31155" lon="-0.32904">
        <ele>72.0123</ele>
        <time>2010-12-04T09:17:06Z</time>
      </trkpt>
      <trkpt lat="46.31154" lon="-0.32904">
        <ele>71.9922</ele>
        <time>2010-12-04T09:17:07Z</time>
      </trkpt>
      <trkpt lat="46.31152" lon="-0.32905">
        <ele>71.9718</ele>
        <time>2010-12-04T09:17:08Z</time>
      </trkpt>
      <trkpt lat="46.3115" lon="-0.32905">
        <ele>71.9537</ele>
        <time>2010-12-04T09:17:09Z</time>
      </trkpt>
      <trkpt lat="46.31149" lon="-0.32906">
        <ele>71.9387</ele>
        <time>2010-12-04T09:17:10Z</time>
      </trkpt>
      <trkpt lat="46.31148" lon="-0.32906">
        <ele>71.9266</ele>
        <time>2010-12-04T09:17:11Z</time>
      </trkpt>
      <trkpt lat="46.31146" lon="-0.32906">
        <ele>71.9153</ele>
        <time>2010-12-04T09:17:12Z</time>
      </trkpt>
      <trkpt lat="46.31145" lon="-0.32907">
        <ele>71.9071</ele>
        <time>2010-12-04T09:17:13Z</time>
      </trkpt>
      <trkpt lat="46.31143" lon="-0.32907">
        <ele>71.8981</ele>
        <time>2010-12-04T09:17:14Z</time>
      </trkpt>
      <trkpt lat="46.31142" lon="-0.32908">
        <ele>71.8906</ele>
        <time>2010-12-04T09:17:15Z</time>
      </trkpt>
      <trkpt lat="46.31141" lon="-0.32908">
        <ele>71.8849</ele>
        <time>2010-12-04T09:17:16Z</time>
      </trkpt>
      <trkpt lat="46.31139" lon="-0.32908">
        <ele>71.8792</ele>
        <time>2010-12-04T09:17:17Z</time>
      </trkpt>
      <trkpt lat="46.31138" lon="-0.32908">
        <ele>71.8736</ele>
        <time>2010-12-04T09:17:18Z</time>
      </trkpt>
      <trkpt lat="46.31136" lon="-0.32908">
        <ele>71.8684</ele>
        <time>2010-12-04T09:17:19Z</time>
      </trkpt>
      <trkpt lat="46.31134" lon="-0.32908">
        <ele>71.8632</ele>
        <time>2010-12-04T09:17:20Z</time>
      </trkpt>
      <trkpt lat="46.31133" lon="-0.32909">
        <ele>71.8579</ele>
        <time>2010-12-04T09:17:21Z</time>
      </trkpt>
      <trkpt lat="46.31131" lon="-0.32909">
        <ele>71.8509</ele>
        <time>2010-12-04T09:17:22Z</time>
      </trkpt>
      <trkpt lat="46.3113" lon="-0.3291">
        <ele>71.8432</ele>
        <time>2010-12-04T09:17:23Z</time>
      </trkpt>
      <trkpt lat="46.31128" lon="-0.3291">
        <ele>71.8351</ele>
        <time>2010-12-04T09:17:24Z</time>
      </trkpt>
      <trkpt lat="46.31127" lon="-0.3291">
        <ele>71.8251</ele>
        <time>2010-12-04T09:17:25Z</time>
      </trkpt>
      <trkpt lat="46.31126" lon="-0.3291">
        <ele>71.8151</ele>
        <time>2010-12-04T09:17:26Z</time>
      </trkpt>
      <trkpt lat="46.31124" lon="-0.32911">
        <ele>71.805</ele>
        <time>2010-12-04T09:17:27Z</time>
      </trkpt>
      <trkpt lat="46.31123" lon="-0.32911">
        <ele>71.7921</ele>
        <time>2010-12-04T09:17:28Z</time>
      </trkpt>
      <trkpt lat="46.31121" lon="-0.32911">
        <ele>71.7793</ele>
        <time>2010-12-04T09:17:29Z</time>
      </trkpt>
      <trkpt lat="46.3112" lon="-0.32912">
        <ele>71.7626</ele>
        <time>2010-12-04T09:17:30Z</time>
      </trkpt>
      <trkpt lat="46.31118" lon="-0.32912">
        <ele>71.743</ele>
        <time>2010-12-04T09:17:31Z</time>
      </trkpt>
      <trkpt lat="46.31117" lon="-0.32912">
        <ele>71.7233</ele>
        <time>2010-12-04T09:17:32Z</time>
      </trkpt>
      <trkpt lat="46.31115" lon="-0.32912">
        <ele>71.698</ele>
        <time>2010-12-04T09:17:33Z</time>
      </trkpt>
      <trkpt lat="46.31114" lon="-0.32912">
        <ele>71.6735</ele>
        <time>2010-12-04T09:17:34Z</time>
      </trkpt>
      <trkpt lat="46.31112" lon="-0.32912">
        <ele>71.6498</ele>
        <time>2010-12-04T09:17:35Z</time>
      </trkpt>
      <trkpt lat="46.31111" lon="-0.32913">
        <ele>71.6265</ele>
        <time>2010-12-04T09:17:36Z</time>
      </trkpt>
      <trkpt lat="46.3111" lon="-0.32913">
        <ele>71.6058</ele>
        <time>2010-12-04T09:17:37Z</time>
      </trkpt>
      <trkpt lat="46.31109" lon="-0.32914">
        <ele>71.585</ele>
        <time>2010-12-04T09:17:38Z</time>
      </trkpt>
      <trkpt lat="46.31107" lon="-0.32914">
        <ele>71.564</ele>
        <time>2010-12-04T09:17:39Z</time>
      </trkpt>
      <trkpt lat="46.31105" lon="-0.32915">
        <ele>71.5436</ele>
        <time>2010-12-04T09:17:40Z</time>
      </trkpt>
      <trkpt lat="46.31104" lon="-0.32915">
        <ele>71.5241</ele>
        <time>2010-12-04T09:17:41Z</time>
      </trkpt>
      <trkpt lat="46.31103" lon="-0.32916">
        <ele>71.5067</ele>
        <time>2010-12-04T09:17:42Z</time>
      </trkpt>
      <trkpt lat="46.31101" lon="-0.32916">
        <ele>71.488</ele>
        <time>2010-12-04T09:17:43Z</time>
      </trkpt>
      <trkpt lat="46.311" lon="-0.32917">
        <ele>71.4717</ele>
        <time>2010-12-04T09:17:44Z</time>
      </trkpt>
      <trkpt lat="46.31098" lon="-0.32917">
        <ele>71.4566</ele>
        <time>2010-12-04T09:17:45Z</time>
      </trkpt>
      <trkpt lat="46.31097" lon="-0.32917">
        <ele>71.442</ele>
        <time>2010-12-04T09:17:46Z</time>
      </trkpt>
      <trkpt lat="46.31095" lon="-0.32918">
        <ele>71.4252</ele>
        <time>2010-12-04T09:17:47Z</time>
      </trkpt>
      <trkpt lat="46.31094" lon="-0.32918">
        <ele>71.4084</ele>
        <time>2010-12-04T09:17:48Z</time>
      </trkpt>
      <trkpt lat="46.31093" lon="-0.32918">
        <ele>71.3913</ele>
        <time>2010-12-04T09:17:49Z</time>
      </trkpt>
      <trkpt lat="46.31091" lon="-0.32919">
        <ele>71.3759</ele>
        <time>2010-12-04T09:17:50Z</time>
      </trkpt>
      <trkpt lat="46.31089" lon="-0.32919">
        <ele>71.3573</ele>
        <time>2010-12-04T09:17:51Z</time>
      </trkpt>
      <trkpt lat="46.31088" lon="-0.3292">
        <ele>71.3392</ele>
        <time>2010-12-04T09:17:52Z</time>
      </trkpt>
      <trkpt lat="46.31087" lon="-0.3292">
        <ele>71.3235</ele>
        <time>2010-12-04T09:17:53Z</time>
      </trkpt>
      <trkpt lat="46.31085" lon="-0.32921">
        <ele>71.313</ele>
        <time>2010-12-04T09:17:54Z</time>
      </trkpt>
      <trkpt lat="46.31084" lon="-0.32921">
        <ele>71.3041</ele>
        <time>2010-12-04T09:17:55Z</time>
      </trkpt>
      <trkpt lat="46.31083" lon="-0.32921">
        <ele>71.2957</ele>
        <time>2010-12-04T09:17:56Z</time>
      </trkpt>
      <trkpt lat="46.31081" lon="-0.32922">
        <ele>71.2901</ele>
        <time>2010-12-04T09:17:57Z</time>
      </trkpt>
      <trkpt lat="46.3108" lon="-0.32923">
        <ele>71.2835</ele>
        <time>2010-12-04T09:17:58Z</time>
      </trkpt>
      <trkpt lat="46.31078" lon="-0.32923">
        <ele>71.277</ele>
        <time>2010-12-04T09:17:59Z</time>
      </trkpt>
      <trkpt lat="46.31077" lon="-0.32923">
        <ele>71.2701</ele>
        <time>2010-12-04T09:18:00Z</time>
      </trkpt>
      <trkpt lat="46.31075" lon="-0.32924">
        <ele>71.263</ele>
        <time>2010-12-04T09:18:01Z</time>
      </trkpt>
      <trkpt lat="46.31074" lon="-0.32924">
        <ele>71.2543</ele>
        <time>2010-12-04T09:18:02Z</time>
      </trkpt>
      <trkpt lat="46.31073" lon="-0.32924">
        <ele>71.2456</ele>
        <time>2010-12-04T09:18:03Z</time>
      </trkpt>
      <trkpt lat="46.31071" lon="-0.32924">
        <ele>71.2369</ele>
        <time>2010-12-04T09:18:04Z</time>
      </trkpt>
      <trkpt lat="46.3107" lon="-0.32925">
        <ele>71.2288</ele>
        <time>2010-12-04T09:18:05Z</time>
      </trkpt>
      <trkpt lat="46.31068" lon="-0.32925">
        <ele>71.2188</ele>
        <time>2010-12-04T09:18:06Z</time>
      </trkpt>
      <trkpt lat="46.31067" lon="-0.32926">
        <ele>71.2088</ele>
        <time>2010-12-04T09:18:07Z</time>
      </trkpt>
      <trkpt lat="46.31066" lon="-0.32926">
        <ele>71.2004</ele>
        <time>2010-12-04T09:18:08Z</time>
      </trkpt>
      <trkpt lat="46.31064" lon="-0.32927">
        <ele>71.1899</ele>
        <time>2010-12-04T09:18:09Z</time>
      </trkpt>
      <trkpt lat="46.31063" lon="-0.32928">
        <ele>71.1808</ele>
        <time>2010-12-04T09:18:10Z</time>
      </trkpt>
      <trkpt lat="46.31061" lon="-0.32928">
        <ele>71.1669</ele>
        <time>2010-12-04T09:18:11Z</time>
      </trkpt>
      <trkpt lat="46.3106" lon="-0.32929">
        <ele>71.1501</ele>
        <time>2010-12-04T09:18:12Z</time>
      </trkpt>
      <trkpt lat="46.31058" lon="-0.3293">
        <ele>71.134</ele>
        <time>2010-12-04T09:18:13Z</time>
      </trkpt>
      <trkpt lat="46.31057" lon="-0.3293">
        <ele>71.1148</ele>
        <time>2010-12-04T09:18:14Z</time>
      </trkpt>
      <trkpt lat="46.31055" lon="-0.32931">
        <ele>71.0939</ele>
        <time>2010-12-04T09:18:15Z</time>
      </trkpt>
      <trkpt lat="46.31053" lon="-0.32931">
        <ele>71.0705</ele>
        <time>2010-12-04T09:18:16Z</time>
      </trkpt>
      <trkpt lat="46.31052" lon="-0.32932">
        <ele>71.0468</ele>
        <time>2010-12-04T09:18:17Z</time>
      </trkpt>
      <trkpt lat="46.3105" lon="-0.32933">
        <ele>71.0238</ele>
        <time>2010-12-04T09:18:18Z</time>
      </trkpt>
      <trkpt lat="46.31048" lon="-0.32934">
        <ele>71.0014</ele>
        <time>2010-12-04T09:18:19Z</time>
      </trkpt>
      <trkpt lat="46.31047" lon="-0.32934">
        <ele>70.9778</ele>
        <time>2010-12-04T09:18:20Z</time>
      </trkpt>
      <trkpt lat="46.31045" lon="-0.32934">
        <ele>70.9545</ele>
        <time>2010-12-04T09:18:21Z</time>
      </trkpt>
      <trkpt lat="46.31044" lon="-0.32935">
        <ele>70.9292</ele>
        <time>2010-12-04T09:18:22Z</time>
      </trkpt>
      <trkpt lat="46.31042" lon="-0.32935">
        <ele>70.9026</ele>
        <time>2010-12-04T09:18:23Z</time>
      </trkpt>
      <trkpt lat="46.31041" lon="-0.32935">
        <ele>70.8771</ele>
        <time>2010-12-04T09:18:24Z</time>
      </trkpt>
      <trkpt lat="46.31039" lon="-0.32936">
        <ele>70.8517</ele>
        <time>2010-12-04T09:18:25Z</time>
      </trkpt>
      <trkpt lat="46.31038" lon="-0.32937">
        <ele>70.8264</ele>
        <time>2010-12-04T09:18:26Z</time>
      </trkpt>
      <trkpt lat="46.31036" lon="-0.32938">
        <ele>70.8003</ele>
        <time>2010-12-04T09:18:27Z</time>
      </trkpt>
      <trkpt lat="46.31035" lon="-0.32939">
        <ele>70.7739</ele>
        <time>2010-12-04T09:18:28Z</time>
      </trkpt>
      <trkpt lat="46.31034" lon="-0.32939">
        <ele>70.7476</ele>
        <time>2010-12-04T09:18:29Z</time>
      </trkpt>
      <trkpt lat="46.31032" lon="-0.3294">
        <ele>70.7216</ele>
        <time>2010-12-04T09:18:30Z</time>
      </trkpt>
      <trkpt lat="46.31031" lon="-0.32941">
        <ele>70.696</ele>
        <time>2010-12-04T09:18:31Z</time>
      </trkpt>
      <trkpt lat="46.3103" lon="-0.32942">
        <ele>70.6695</ele>
        <time>2010-12-04T09:18:32Z</time>
      </trkpt>
      <trkpt lat="46.31028" lon="-0.32943">
        <ele>70.6412</ele>
        <time>2010-12-04T09:18:33Z</time>
      </trkpt>
      <trkpt lat="46.31027" lon="-0.32944">
        <ele>70.6132</ele>
        <time>2010-12-04T09:18:34Z</time>
      </trkpt>
      <trkpt lat="46.31026" lon="-0.32945">
        <ele>70.5821</ele>
        <time>2010-12-04T09:18:35Z</time>
      </trkpt>
      <trkpt lat="46.31024" lon="-0.32946">
        <ele>70.5485</ele>
        <time>2010-12-04T09:18:36Z</time>
      </trkpt>
      <trkpt lat="46.31023" lon="-0.32947">
        <ele>70.5126</ele>
        <time>2010-12-04T09:18:37Z</time>
      </trkpt>
      <trkpt lat="46.31022" lon="-0.32948">
        <ele>70.4752</ele>
        <time>2010-12-04T09:18:38Z</time>
      </trkpt>
      <trkpt lat="46.3102" lon="-0.32949">
        <ele>70.4379</ele>
        <time>2010-12-04T09:18:39Z</time>
      </trkpt>
      <trkpt lat="46.31019" lon="-0.3295">
        <ele>70.4011</ele>
        <time>2010-12-04T09:18:40Z</time>
      </trkpt>
      <trkpt lat="46.31018" lon="-0.32951">
        <ele>70.3641</ele>
        <time>2010-12-04T09:18:41Z</time>
      </trkpt>
      <trkpt lat="46.31017" lon="-0.32952">
        <ele>70.3286</ele>
        <time>2010-12-04T09:18:42Z</time>
      </trkpt>
      <trkpt lat="46.31015" lon="-0.32953">
        <ele>70.2933</ele>
        <time>2010-12-04T09:18:43Z</time>
      </trkpt>
      <trkpt lat="46.31014" lon="-0.32954">
        <ele>70.2579</ele>
        <time>2010-12-04T09:18:44Z</time>
      </trkpt>
      <trkpt lat="46.31012" lon="-0.32955">
        <ele>70.2232</ele>
        <time>2010-12-04T09:18:45Z</time>
      </trkpt>
      <trkpt lat="46.31011" lon="-0.32955">
        <ele>70.1898</ele>
        <time>2010-12-04T09:18:46Z</time>
      </trkpt>
      <trkpt lat="46.3101" lon="-0.32956">
        <ele>70.1553</ele>
        <time>2010-12-04T09:18:47Z</time>
      </trkpt>
      <trkpt lat="46.31009" lon="-0.32957">
        <ele>70.1218</ele>
        <time>2010-12-04T09:18:48Z</time>
      </trkpt>
      <trkpt lat="46.31007" lon="-0.32957">
        <ele>70.0889</ele>
        <time>2010-12-04T09:18:49Z</time>
      </trkpt>
      <trkpt lat="46.31006" lon="-0.32958">
        <ele>70.0539</ele>
        <time>2010-12-04T09:18:50Z</time>
      </trkpt>
      <trkpt lat="46.31005" lon="-0.32959">
        <ele>70.0166</ele>
        <time>2010-12-04T09:18:51Z</time>
      </trkpt>
      <trkpt lat="46.31003" lon="-0.32959">
        <ele>69.9809</ele>
        <time>2010-12-04T09:18:52Z</time>
      </trkpt>
      <trkpt lat="46.31002" lon="-0.3296">
        <ele>69.9452</ele>
        <time>2010-12-04T09:18:53Z</time>
      </trkpt>
      <trkpt lat="46.31001" lon="-0.32961">
        <ele>69.9103</ele>
        <time>2010-12-04T09:18:54Z</time>
      </trkpt>
      <trkpt lat="46.31" lon="-0.32962">
        <ele>69.8726</ele>
        <time>2010-12-04T09:18:55Z</time>
      </trkpt>
      <trkpt lat="46.30998" lon="-0.32963">
        <ele>69.8316</ele>
        <time>2010-12-04T09:18:56Z</time>
      </trkpt>
      <trkpt lat="46.30997" lon="-0.32964">
        <ele>69.7931</ele>
        <time>2010-12-04T09:18:57Z</time>
      </trkpt>
      <trkpt lat="46.30995" lon="-0.32966">
        <ele>69.7504</ele>
        <time>2010-12-04T09:18:58Z</time>
      </trkpt>
      <trkpt lat="46.30994" lon="-0.32967">
        <ele>69.7086</ele>
        <time>2010-12-04T09:18:59Z</time>
      </trkpt>
      <trkpt lat="46.30993" lon="-0.32968">
        <ele>69.6689</ele>
        <time>2010-12-04T09:19:00Z</time>
      </trkpt>
      <trkpt lat="46.30991" lon="-0.32969">
        <ele>69.631</ele>
        <time>2010-12-04T09:19:01Z</time>
      </trkpt>
      <trkpt lat="46.3099" lon="-0.3297">
        <ele>69.5939</ele>
        <time>2010-12-04T09:19:02Z</time>
      </trkpt>
      <trkpt lat="46.30989" lon="-0.32971">
        <ele>69.556</ele>
        <time>2010-12-04T09:19:03Z</time>
      </trkpt>
      <trkpt lat="46.30988" lon="-0.32972">
        <ele>69.5175</ele>
        <time>2010-12-04T09:19:04Z</time>
      </trkpt>
      <trkpt lat="46.30987" lon="-0.32973">
        <ele>69.4784</ele>
        <time>2010-12-04T09:19:05Z</time>
      </trkpt>
      <trkpt lat="46.30985" lon="-0.32974">
        <ele>69.4399</ele>
        <time>2010-12-04T09:19:06Z</time>
      </trkpt>
      <trkpt lat="46.30984" lon="-0.32974">
        <ele>69.4014</ele>
        <time>2010-12-04T09:19:07Z</time>
      </trkpt>
      <trkpt lat="46.30982" lon="-0.32975">
        <ele>69.3633</ele>
        <time>2010-12-04T09:19:08Z</time>
      </trkpt>
      <trkpt lat="46.30981" lon="-0.32976">
        <ele>69.3262</ele>
        <time>2010-12-04T09:19:09Z</time>
      </trkpt>
      <trkpt lat="46.3098" lon="-0.32977">
        <ele>69.2894</ele>
        <time>2010-12-04T09:19:10Z</time>
      </trkpt>
      <trkpt lat="46.30979" lon="-0.32978">
        <ele>69.2508</ele>
        <time>2010-12-04T09:19:11Z</time>
      </trkpt>
      <trkpt lat="46.30978" lon="-0.32979">
        <ele>69.2112</ele>
        <time>2010-12-04T09:19:12Z</time>
      </trkpt>
      <trkpt lat="46.30977" lon="-0.3298">
        <ele>69.1672</ele>
        <time>2010-12-04T09:19:13Z</time>
      </trkpt>
      <trkpt lat="46.30975" lon="-0.32981">
        <ele>69.1199</ele>
        <time>2010-12-04T09:19:14Z</time>
      </trkpt>
      <trkpt lat="46.30974" lon="-0.32983">
        <ele>69.0704</ele>
        <time>2010-12-04T09:19:15Z</time>
      </trkpt>
      <trkpt lat="46.30973" lon="-0.32984">
        <ele>69.0195</ele>
        <time>2010-12-04T09:19:16Z</time>
      </trkpt>
      <trkpt lat="46.30972" lon="-0.32985">
        <ele>68.9678</ele>
        <time>2010-12-04T09:19:17Z</time>
      </trkpt>
      <trkpt lat="46.30971" lon="-0.32987">
        <ele>68.9179</ele>
        <time>2010-12-04T09:19:18Z</time>
      </trkpt>
      <trkpt lat="46.3097" lon="-0.32988">
        <ele>68.8683</ele>
        <time>2010-12-04T09:19:19Z</time>
      </trkpt>
      <trkpt lat="46.3097" lon="-0.3299">
        <ele>68.8191</ele>
        <time>2010-12-04T09:19:20Z</time>
      </trkpt>
      <trkpt lat="46.30969" lon="-0.32991">
        <ele>68.7671</ele>
        <time>2010-12-04T09:19:21Z</time>
      </trkpt>
      <trkpt lat="46.30967" lon="-0.32993">
        <ele>68.7127</ele>
        <time>2010-12-04T09:19:22Z</time>
      </trkpt>
      <trkpt lat="46.30967" lon="-0.32994">
        <ele>68.6585</ele>
        <time>2010-12-04T09:19:23Z</time>
      </trkpt>
      <trkpt lat="46.30965" lon="-0.32996">
        <ele>68.6089</ele>
        <time>2010-12-04T09:19:24Z</time>
      </trkpt>
      <trkpt lat="46.30965" lon="-0.32997">
        <ele>68.5567</ele>
        <time>2010-12-04T09:19:25Z</time>
      </trkpt>
      <trkpt lat="46.30964" lon="-0.32999">
        <ele>68.5027</ele>
        <time>2010-12-04T09:19:26Z</time>
      </trkpt>
      <trkpt lat="46.30962" lon="-0.33001">
        <ele>68.447</ele>
        <time>2010-12-04T09:19:27Z</time>
      </trkpt>
      <trkpt lat="46.30962" lon="-0.33003">
        <ele>68.386</ele>
        <time>2010-12-04T09:19:28Z</time>
      </trkpt>
      <trkpt lat="46.30961" lon="-0.33004">
        <ele>68.3213</ele>
        <time>2010-12-04T09:19:29Z</time>
      </trkpt>
      <trkpt lat="46.3096" lon="-0.33006">
        <ele>68.2528</ele>
        <time>2010-12-04T09:19:30Z</time>
      </trkpt>
      <trkpt lat="46.30959" lon="-0.33008">
        <ele>68.1827</ele>
        <time>2010-12-04T09:19:31Z</time>
      </trkpt>
      <trkpt lat="46.30958" lon="-0.3301">
        <ele>68.1089</ele>
        <time>2010-12-04T09:19:32Z</time>
      </trkpt>
      <trkpt lat="46.30957" lon="-0.33012">
        <ele>68.0331</ele>
        <time>2010-12-04T09:19:33Z</time>
      </trkpt>
      <trkpt lat="46.30956" lon="-0.33014">
        <ele>67.9568</ele>
        <time>2010-12-04T09:19:34Z</time>
      </trkpt>
      <trkpt lat="46.30955" lon="-0.33016">
        <ele>67.8806</ele>
        <time>2010-12-04T09:19:35Z</time>
      </trkpt>
      <trkpt lat="46.30954" lon="-0.33018">
        <ele>67.8036</ele>
        <time>2010-12-04T09:19:36Z</time>
      </trkpt>
      <trkpt lat="46.30954" lon="-0.3302">
        <ele>67.7269</ele>
        <time>2010-12-04T09:19:37Z</time>
      </trkpt>
      <trkpt lat="46.30953" lon="-0.33022">
        <ele>67.6523</ele>
        <time>2010-12-04T09:19:38Z</time>
      </trkpt>
      <trkpt lat="46.30953" lon="-0.33024">
        <ele>67.578</ele>
        <time>2010-12-04T09:19:39Z</time>
      </trkpt>
      <trkpt lat="46.30952" lon="-0.33026">
        <ele>67.5044</ele>
        <time>2010-12-04T09:19:40Z</time>
      </trkpt>
      <trkpt lat="46.30951" lon="-0.33028">
        <ele>67.4306</ele>
        <time>2010-12-04T09:19:41Z</time>
      </trkpt>
      <trkpt lat="46.30951" lon="-0.3303">
        <ele>67.3587</ele>
        <time>2010-12-04T09:19:42Z</time>
      </trkpt>
      <trkpt lat="46.30951" lon="-0.33031">
        <ele>67.2868</ele>
        <time>2010-12-04T09:19:43Z</time>
      </trkpt>
      <trkpt lat="46.3095" lon="-0.33033">
        <ele>67.2144</ele>
        <time>2010-12-04T09:19:44Z</time>
      </trkpt>
      <trkpt lat="46.3095" lon="-0.33035">
        <ele>67.1452</ele>
        <time>2010-12-04T09:19:45Z</time>
      </trkpt>
      <trkpt lat="46.3095" lon="-0.33037">
        <ele>67.0761</ele>
        <time>2010-12-04T09:19:46Z</time>
      </trkpt>
      <trkpt lat="46.30949" lon="-0.33039">
        <ele>67.0072</ele>
        <time>2010-12-04T09:19:47Z</time>
      </trkpt>
      <trkpt lat="46.30949" lon="-0.33042">
        <ele>66.9377</ele>
        <time>2010-12-04T09:19:48Z</time>
      </trkpt>
      <trkpt lat="46.30949" lon="-0.33043">
        <ele>66.8694</ele>
        <time>2010-12-04T09:19:49Z</time>
      </trkpt>
      <trkpt lat="46.30949" lon="-0.33045">
        <ele>66.8023</ele>
        <time>2010-12-04T09:19:50Z</time>
      </trkpt>
      <trkpt lat="46.30948" lon="-0.33047">
        <ele>66.7362</ele>
        <time>2010-12-04T09:19:51Z</time>
      </trkpt>
      <trkpt lat="46.30948" lon="-0.33048">
        <ele>66.6719</ele>
        <time>2010-12-04T09:19:52Z</time>
      </trkpt>
      <trkpt lat="46.30948" lon="-0.33049">
        <ele>66.6053</ele>
        <time>2010-12-04T09:19:53Z</time>
      </trkpt>
      <trkpt lat="46.30948" lon="-0.33051">
        <ele>66.5341</ele>
        <time>2010-12-04T09:19:54Z</time>
      </trkpt>
      <trkpt lat="46.30947" lon="-0.33052">
        <ele>66.4618</ele>
        <time>2010-12-04T09:19:55Z</time>
      </trkpt>
      <trkpt lat="46.30946" lon="-0.33054">
        <ele>66.3925</ele>
        <time>2010-12-04T09:19:56Z</time>
      </trkpt>
      <trkpt lat="46.30946" lon="-0.33056">
        <ele>66.3267</ele>
        <time>2010-12-04T09:19:57Z</time>
      </trkpt>
      <trkpt lat="46.30946" lon="-0.33058">
        <ele>66.2627</ele>
        <time>2010-12-04T09:19:58Z</time>
      </trkpt>
      <trkpt lat="46.30945" lon="-0.3306">
        <ele>66.2013</ele>
        <time>2010-12-04T09:19:59Z</time>
      </trkpt>
      <trkpt lat="46.30944" lon="-0.33062">
        <ele>66.1414</ele>
        <time>2010-12-04T09:20:00Z</time>
      </trkpt>
      <trkpt lat="46.30944" lon="-0.33064">
        <ele>66.0774</ele>
        <time>2010-12-04T09:20:01Z</time>
      </trkpt>
      <trkpt lat="46.30943" lon="-0.33067">
        <ele>66.0084</ele>
        <time>2010-12-04T09:20:02Z</time>
      </trkpt>
      <trkpt lat="46.30943" lon="-0.33069">
        <ele>65.9365</ele>
        <time>2010-12-04T09:20:03Z</time>
      </trkpt>
      <trkpt lat="46.30942" lon="-0.33071">
        <ele>65.8617</ele>
        <time>2010-12-04T09:20:04Z</time>
      </trkpt>
      <trkpt lat="46.30942" lon="-0.33073">
        <ele>65.7849</ele>
        <time>2010-12-04T09:20:05Z</time>
      </trkpt>
      <trkpt lat="46.30941" lon="-0.33075">
        <ele>65.7081</ele>
        <time>2010-12-04T09:20:06Z</time>
      </trkpt>
      <trkpt lat="46.3094" lon="-0.33078">
        <ele>65.6316</ele>
        <time>2010-12-04T09:20:07Z</time>
      </trkpt>
      <trkpt lat="46.3094" lon="-0.3308">
        <ele>65.556</ele>
        <time>2010-12-04T09:20:08Z</time>
      </trkpt>
      <trkpt lat="46.30938" lon="-0.33082">
        <ele>65.481</ele>
        <time>2010-12-04T09:20:09Z</time>
      </trkpt>
      <trkpt lat="46.30938" lon="-0.33084">
        <ele>65.4072</ele>
        <time>2010-12-04T09:20:10Z</time>
      </trkpt>
      <trkpt lat="46.30937" lon="-0.33086">
        <ele>65.3361</ele>
        <time>2010-12-04T09:20:11Z</time>
      </trkpt>
      <trkpt lat="46.30936" lon="-0.33088">
        <ele>65.2666</ele>
        <time>2010-12-04T09:20:12Z</time>
      </trkpt>
      <trkpt lat="46.30935" lon="-0.3309">
        <ele>65.1982</ele>
        <time>2010-12-04T09:20:13Z</time>
      </trkpt>
      <trkpt lat="46.30935" lon="-0.33092">
        <ele>65.1303</ele>
        <time>2010-12-04T09:20:14Z</time>
      </trkpt>
      <trkpt lat="46.30934" lon="-0.33094">
        <ele>65.0642</ele>
        <time>2010-12-04T09:20:15Z</time>
      </trkpt>
      <trkpt lat="46.30933" lon="-0.33096">
        <ele>64.999</ele>
        <time>2010-12-04T09:20:16Z</time>
      </trkpt>
      <trkpt lat="46.30933" lon="-0.33097">
        <ele>64.9334</ele>
        <time>2010-12-04T09:20:17Z</time>
      </trkpt>
      <trkpt lat="46.30932" lon="-0.33099">
        <ele>64.8659</ele>
        <time>2010-12-04T09:20:18Z</time>
      </trkpt>
      <trkpt lat="46.30932" lon="-0.33101">
        <ele>64.7983</ele>
        <time>2010-12-04T09:20:19Z</time>
      </trkpt>
      <trkpt lat="46.30931" lon="-0.33103">
        <ele>64.7326</ele>
        <time>2010-12-04T09:20:20Z</time>
      </trkpt>
      <trkpt lat="46.30931" lon="-0.33105">
        <ele>64.668</ele>
        <time>2010-12-04T09:20:21Z</time>
      </trkpt>
      <trkpt lat="46.3093" lon="-0.33107">
        <ele>64.6065</ele>
        <time>2010-12-04T09:20:22Z</time>
      </trkpt>
      <trkpt lat="46.3093" lon="-0.33109">
        <ele>64.5483</ele>
        <time>2010-12-04T09:20:23Z</time>
      </trkpt>
      <trkpt lat="46.30929" lon="-0.33111">
        <ele>64.4927</ele>
        <time>2010-12-04T09:20:24Z</time>
      </trkpt>
      <trkpt lat="46.30928" lon="-0.33113">
        <ele>64.4396</ele>
        <time>2010-12-04T09:20:25Z</time>
      </trkpt>
      <trkpt lat="46.30928" lon="-0.33114">
        <ele>64.3894</ele>
        <time>2010-12-04T09:20:26Z</time>
      </trkpt>
      <trkpt lat="46.30927" lon="-0.33116">
        <ele>64.3416</ele>
        <time>2010-12-04T09:20:27Z</time>
      </trkpt>
      <trkpt lat="46.30927" lon="-0.33118">
        <ele>64.2968</ele>
        <time>2010-12-04T09:20:28Z</time>
      </trkpt>
      <trkpt lat="46.30926" lon="-0.33119">
        <ele>64.2552</ele>
        <time>2010-12-04T09:20:29Z</time>
      </trkpt>
      <trkpt lat="46.30925" lon="-0.33121">
        <ele>64.2166</ele>
        <time>2010-12-04T09:20:30Z</time>
      </trkpt>
      <trkpt lat="46.30925" lon="-0.33123">
        <ele>64.1797</ele>
        <time>2010-12-04T09:20:31Z</time>
      </trkpt>
      <trkpt lat="46.30924" lon="-0.33125">
        <ele>64.1457</ele>
        <time>2010-12-04T09:20:32Z</time>
      </trkpt>
      <trkpt lat="46.30924" lon="-0.33127">
        <ele>64.1143</ele>
        <time>2010-12-04T09:20:33Z</time>
      </trkpt>
      <trkpt lat="46.30923" lon="-0.33128">
        <ele>64.0853</ele>
        <time>2010-12-04T09:20:34Z</time>
      </trkpt>
      <trkpt lat="46.30922" lon="-0.3313">
        <ele>64.0586</ele>
        <time>2010-12-04T09:20:35Z</time>
      </trkpt>
      <trkpt lat="46.30921" lon="-0.33132">
        <ele>64.0321</ele>
        <time>2010-12-04T09:20:36Z</time>
      </trkpt>
      <trkpt lat="46.3092" lon="-0.33134">
        <ele>64.0068</ele>
        <time>2010-12-04T09:20:37Z</time>
      </trkpt>
      <trkpt lat="46.3092" lon="-0.33136">
        <ele>63.9821</ele>
        <time>2010-12-04T09:20:38Z</time>
      </trkpt>
      <trkpt lat="46.30919" lon="-0.33138">
        <ele>63.958</ele>
        <time>2010-12-04T09:20:39Z</time>
      </trkpt>
      <trkpt lat="46.30919" lon="-0.3314">
        <ele>63.9337</ele>
        <time>2010-12-04T09:20:40Z</time>
      </trkpt>
      <trkpt lat="46.30918" lon="-0.33142">
        <ele>63.9103</ele>
        <time>2010-12-04T09:20:41Z</time>
      </trkpt>
      <trkpt lat="46.30917" lon="-0.33144">
        <ele>63.8882</ele>
        <time>2010-12-04T09:20:42Z</time>
      </trkpt>
      <trkpt lat="46.30917" lon="-0.33145">
        <ele>63.8661</ele>
        <time>2010-12-04T09:20:43Z</time>
      </trkpt>
      <trkpt lat="46.30916" lon="-0.33147">
        <ele>63.8451</ele>
        <time>2010-12-04T09:20:44Z</time>
      </trkpt>
      <trkpt lat="46.30916" lon="-0.33149">
        <ele>63.8264</ele>
        <time>2010-12-04T09:20:45Z</time>
      </trkpt>
      <trkpt lat="46.30915" lon="-0.3315">
        <ele>63.8087</ele>
        <time>2010-12-04T09:20:46Z</time>
      </trkpt>
      <trkpt lat="46.30914" lon="-0.33152">
        <ele>63.7923</ele>
        <time>2010-12-04T09:20:47Z</time>
      </trkpt>
      <trkpt lat="46.30914" lon="-0.33154">
        <ele>63.7766</ele>
        <time>2010-12-04T09:20:48Z</time>
      </trkpt>
      <trkpt lat="46.30913" lon="-0.33155">
        <ele>63.7622</ele>
        <time>2010-12-04T09:20:49Z</time>
      </trkpt>
      <trkpt lat="46.30912" lon="-0.33157">
        <ele>63.7473</ele>
        <time>2010-12-04T09:20:50Z</time>
      </trkpt>
      <trkpt lat="46.30912" lon="-0.33159">
        <ele>63.7335</ele>
        <time>2010-12-04T09:20:51Z</time>
      </trkpt>
      <trkpt lat="46.30911" lon="-0.33161">
        <ele>63.7209</ele>
        <time>2010-12-04T09:20:52Z</time>
      </trkpt>
      <trkpt lat="46.3091" lon="-0.33162">
        <ele>63.7086</ele>
        <time>2010-12-04T09:20:53Z</time>
      </trkpt>
      <trkpt lat="46.30909" lon="-0.33164">
        <ele>63.6976</ele>
        <time>2010-12-04T09:20:54Z</time>
      </trkpt>
      <trkpt lat="46.30908" lon="-0.33166">
        <ele>63.6885</ele>
        <time>2010-12-04T09:20:55Z</time>
      </trkpt>
      <trkpt lat="46.30907" lon="-0.33168">
        <ele>63.6816</ele>
        <time>2010-12-04T09:20:56Z</time>
      </trkpt>
      <trkpt lat="46.30906" lon="-0.3317">
        <ele>63.6759</ele>
        <time>2010-12-04T09:20:57Z</time>
      </trkpt>
      <trkpt lat="46.30906" lon="-0.33172">
        <ele>63.6699</ele>
        <time>2010-12-04T09:20:58Z</time>
      </trkpt>
      <trkpt lat="46.30904" lon="-0.33173">
        <ele>63.6651</ele>
        <time>2010-12-04T09:20:59Z</time>
      </trkpt>
      <trkpt lat="46.30904" lon="-0.33175">
        <ele>63.66</ele>
        <time>2010-12-04T09:21:00Z</time>
      </trkpt>
      <trkpt lat="46.30903" lon="-0.33177">
        <ele>63.6546</ele>
        <time>2010-12-04T09:21:01Z</time>
      </trkpt>
      <trkpt lat="46.30902" lon="-0.33179">
        <ele>63.6499</ele>
        <time>2010-12-04T09:21:02Z</time>
      </trkpt>
      <trkpt lat="46.30901" lon="-0.3318">
        <ele>63.6458</ele>
        <time>2010-12-04T09:21:03Z</time>
      </trkpt>
      <trkpt lat="46.30901" lon="-0.33182">
        <ele>63.6419</ele>
        <time>2010-12-04T09:21:04Z</time>
      </trkpt>
      <trkpt lat="46.309" lon="-0.33184">
        <ele>63.6382</ele>
        <time>2010-12-04T09:21:05Z</time>
      </trkpt>
      <trkpt lat="46.30899" lon="-0.33186">
        <ele>63.6356</ele>
        <time>2010-12-04T09:21:06Z</time>
      </trkpt>
      <trkpt lat="46.30899" lon="-0.33187">
        <ele>63.6331</ele>
        <time>2010-12-04T09:21:07Z</time>
      </trkpt>
      <trkpt lat="46.30898" lon="-0.33189">
        <ele>63.6299</ele>
        <time>2010-12-04T09:21:08Z</time>
      </trkpt>
      <trkpt lat="46.30897" lon="-0.3319">
        <ele>63.6262</ele>
        <time>2010-12-04T09:21:09Z</time>
      </trkpt>
      <trkpt lat="46.30897" lon="-0.33192">
        <ele>63.6226</ele>
        <time>2010-12-04T09:21:10Z</time>
      </trkpt>
      <trkpt lat="46.30896" lon="-0.33194">
        <ele>63.6181</ele>
        <time>2010-12-04T09:21:11Z</time>
      </trkpt>
      <trkpt lat="46.30895" lon="-0.33195">
        <ele>63.6134</ele>
        <time>2010-12-04T09:21:12Z</time>
      </trkpt>
      <trkpt lat="46.30894" lon="-0.33197">
        <ele>63.6084</ele>
        <time>2010-12-04T09:21:13Z</time>
      </trkpt>
      <trkpt lat="46.30893" lon="-0.33199">
        <ele>63.603</ele>
        <time>2010-12-04T09:21:14Z</time>
      </trkpt>
      <trkpt lat="46.30893" lon="-0.33201">
        <ele>63.599</ele>
        <time>2010-12-04T09:21:15Z</time>
      </trkpt>
      <trkpt lat="46.30891" lon="-0.33202">
        <ele>63.5945</ele>
        <time>2010-12-04T09:21:16Z</time>
      </trkpt>
      <trkpt lat="46.30891" lon="-0.33204">
        <ele>63.5889</ele>
        <time>2010-12-04T09:21:17Z</time>
      </trkpt>
      <trkpt lat="46.3089" lon="-0.33206">
        <ele>63.5827</ele>
        <time>2010-12-04T09:21:18Z</time>
      </trkpt>
      <trkpt lat="46.30888" lon="-0.33207">
        <ele>63.5755</ele>
        <time>2010-12-04T09:21:19Z</time>
      </trkpt>
      <trkpt lat="46.30888" lon="-0.33209">
        <ele>63.5693</ele>
        <time>2010-12-04T09:21:20Z</time>
      </trkpt>
      <trkpt lat="46.30887" lon="-0.3321">
        <ele>63.5638</ele>
        <time>2010-12-04T09:21:21Z</time>
      </trkpt>
      <trkpt lat="46.30886" lon="-0.33212">
        <ele>63.5595</ele>
        <time>2010-12-04T09:21:22Z</time>
      </trkpt>
      <trkpt lat="46.30885" lon="-0.33213">
        <ele>63.5566</ele>
        <time>2010-12-04T09:21:23Z</time>
      </trkpt>
      <trkpt lat="46.30884" lon="-0.33215">
        <ele>63.5552</ele>
        <time>2010-12-04T09:21:24Z</time>
      </trkpt>
      <trkpt lat="46.30884" lon="-0.33217">
        <ele>63.556</ele>
        <time>2010-12-04T09:21:25Z</time>
      </trkpt>
      <trkpt lat="46.30883" lon="-0.33219">
        <ele>63.5587</ele>
        <time>2010-12-04T09:21:26Z</time>
      </trkpt>
      <trkpt lat="46.30883" lon="-0.3322">
        <ele>63.5621</ele>
        <time>2010-12-04T09:21:27Z</time>
      </trkpt>
      <trkpt lat="46.30882" lon="-0.33222">
        <ele>63.5614</ele>
        <time>2010-12-04T09:21:28Z</time>
      </trkpt>
      <trkpt lat="46.30882" lon="-0.33224">
        <ele>63.5586</ele>
        <time>2010-12-04T09:21:29Z</time>
      </trkpt>
      <trkpt lat="46.30881" lon="-0.33226">
        <ele>63.5547</ele>
        <time>2010-12-04T09:21:30Z</time>
      </trkpt>
      <trkpt lat="46.30881" lon="-0.33228">
        <ele>63.5503</ele>
        <time>2010-12-04T09:21:31Z</time>
      </trkpt>
      <trkpt lat="46.3088" lon="-0.3323">
        <ele>63.5454</ele>
        <time>2010-12-04T09:21:32Z</time>
      </trkpt>
      <trkpt lat="46.3088" lon="-0.33232">
        <ele>63.541</ele>
        <time>2010-12-04T09:21:33Z</time>
      </trkpt>
      <trkpt lat="46.30879" lon="-0.33234">
        <ele>63.5367</ele>
        <time>2010-12-04T09:21:34Z</time>
      </trkpt>
      <trkpt lat="46.30878" lon="-0.33236">
        <ele>63.5336</ele>
        <time>2010-12-04T09:21:35Z</time>
      </trkpt>
      <trkpt lat="46.30878" lon="-0.33238">
        <ele>63.5316</ele>
        <time>2010-12-04T09:21:36Z</time>
      </trkpt>
      <trkpt lat="46.30877" lon="-0.33239">
        <ele>63.5308</ele>
        <time>2010-12-04T09:21:37Z</time>
      </trkpt>
      <trkpt lat="46.30876" lon="-0.33241">
        <ele>63.5313</ele>
        <time>2010-12-04T09:21:38Z</time>
      </trkpt>
      <trkpt lat="46.30875" lon="-0.33243">
        <ele>63.5322</ele>
        <time>2010-12-04T09:21:39Z</time>
      </trkpt>
      <trkpt lat="46.30875" lon="-0.33245">
        <ele>63.5341</ele>
        <time>2010-12-04T09:21:40Z</time>
      </trkpt>
      <trkpt lat="46.30874" lon="-0.33246">
        <ele>63.5353</ele>
        <time>2010-12-04T09:21:41Z</time>
      </trkpt>
      <trkpt lat="46.30873" lon="-0.33248">
        <ele>63.5359</ele>
        <time>2010-12-04T09:21:42Z</time>
      </trkpt>
      <trkpt lat="46.30872" lon="-0.33249">
        <ele>63.5361</ele>
        <time>2010-12-04T09:21:43Z</time>
      </trkpt>
      <trkpt lat="46.30871" lon="-0.33251">
        <ele>63.5365</ele>
        <time>2010-12-04T09:21:44Z</time>
      </trkpt>
      <trkpt lat="46.3087" lon="-0.33253">
        <ele>63.5368</ele>
        <time>2010-12-04T09:21:45Z</time>
      </trkpt>
      <trkpt lat="46.30869" lon="-0.33255">
        <ele>63.5385</ele>
        <time>2010-12-04T09:21:46Z</time>
      </trkpt>
      <trkpt lat="46.30868" lon="-0.33257">
        <ele>63.5412</ele>
        <time>2010-12-04T09:21:47Z</time>
      </trkpt>
      <trkpt lat="46.30867" lon="-0.33258">
        <ele>63.545</ele>
        <time>2010-12-04T09:21:48Z</time>
      </trkpt>
      <trkpt lat="46.30866" lon="-0.3326">
        <ele>63.5494</ele>
        <time>2010-12-04T09:21:49Z</time>
      </trkpt>
      <trkpt lat="46.30865" lon="-0.33262">
        <ele>63.5543</ele>
        <time>2010-12-04T09:21:50Z</time>
      </trkpt>
      <trkpt lat="46.30864" lon="-0.33263">
        <ele>63.5594</ele>
        <time>2010-12-04T09:21:51Z</time>
      </trkpt>
      <trkpt lat="46.30863" lon="-0.33264">
        <ele>63.5648</ele>
        <time>2010-12-04T09:21:52Z</time>
      </trkpt>
      <trkpt lat="46.30862" lon="-0.33266">
        <ele>63.5707</ele>
        <time>2010-12-04T09:21:53Z</time>
      </trkpt>
      <trkpt lat="46.30861" lon="-0.33267">
        <ele>63.5768</ele>
        <time>2010-12-04T09:21:54Z</time>
      </trkpt>
      <trkpt lat="46.3086" lon="-0.33268">
        <ele>63.5815</ele>
        <time>2010-12-04T09:21:55Z</time>
      </trkpt>
      <trkpt lat="46.30859" lon="-0.3327">
        <ele>63.5842</ele>
        <time>2010-12-04T09:21:56Z</time>
      </trkpt>
      <trkpt lat="46.30857" lon="-0.33271">
        <ele>63.5852</ele>
        <time>2010-12-04T09:21:57Z</time>
      </trkpt>
      <trkpt lat="46.30856" lon="-0.33273">
        <ele>63.5867</ele>
        <time>2010-12-04T09:21:58Z</time>
      </trkpt>
      <trkpt lat="46.30854" lon="-0.33275">
        <ele>63.5883</ele>
        <time>2010-12-04T09:21:59Z</time>
      </trkpt>
      <trkpt lat="46.30853" lon="-0.33276">
        <ele>63.5888</ele>
        <time>2010-12-04T09:22:00Z</time>
      </trkpt>
      <trkpt lat="46.30852" lon="-0.33278">
        <ele>63.5895</ele>
        <time>2010-12-04T09:22:01Z</time>
      </trkpt>
      <trkpt lat="46.30851" lon="-0.33279">
        <ele>63.5894</ele>
        <time>2010-12-04T09:22:02Z</time>
      </trkpt>
      <trkpt lat="46.3085" lon="-0.33281">
        <ele>63.589</ele>
        <time>2010-12-04T09:22:03Z</time>
      </trkpt>
      <trkpt lat="46.30849" lon="-0.33282">
        <ele>63.5876</ele>
        <time>2010-12-04T09:22:04Z</time>
      </trkpt>
      <trkpt lat="46.30848" lon="-0.33283">
        <ele>63.5868</ele>
        <time>2010-12-04T09:22:05Z</time>
      </trkpt>
      <trkpt lat="46.30847" lon="-0.33285">
        <ele>63.5851</ele>
        <time>2010-12-04T09:22:06Z</time>
      </trkpt>
      <trkpt lat="46.30846" lon="-0.33286">
        <ele>63.5855</ele>
        <time>2010-12-04T09:22:07Z</time>
      </trkpt>
      <trkpt lat="46.30845" lon="-0.33287">
        <ele>63.5895</ele>
        <time>2010-12-04T09:22:08Z</time>
      </trkpt>
      <trkpt lat="46.30843" lon="-0.33288">
        <ele>63.5927</ele>
        <time>2010-12-04T09:22:09Z</time>
      </trkpt>
      <trkpt lat="46.30843" lon="-0.33289">
        <ele>63.598</ele>
        <time>2010-12-04T09:22:10Z</time>
      </trkpt>
      <trkpt lat="46.30841" lon="-0.3329">
        <ele>63.6032</ele>
        <time>2010-12-04T09:22:11Z</time>
      </trkpt>
      <trkpt lat="46.30841" lon="-0.3329">
        <ele>63.6112</ele>
        <time>2010-12-04T09:22:12Z</time>
      </trkpt>
      <trkpt lat="46.3084" lon="-0.33291">
        <ele>63.627</ele>
        <time>2010-12-04T09:22:13Z</time>
      </trkpt>
      <trkpt lat="46.30839" lon="-0.33292">
        <ele>63.6494</ele>
        <time>2010-12-04T09:22:14Z</time>
      </trkpt>
      <trkpt lat="46.30838" lon="-0.33293">
        <ele>63.674</ele>
        <time>2010-12-04T09:22:15Z</time>
      </trkpt>
      <trkpt lat="46.30838" lon="-0.33294">
        <ele>63.7023</ele>
        <time>2010-12-04T09:22:16Z</time>
      </trkpt>
      <trkpt lat="46.30837" lon="-0.33296">
        <ele>63.7322</ele>
        <time>2010-12-04T09:22:17Z</time>
      </trkpt>
      <trkpt lat="46.30836" lon="-0.33297">
        <ele>63.7607</ele>
        <time>2010-12-04T09:22:18Z</time>
      </trkpt>
      <trkpt lat="46.30835" lon="-0.33298">
        <ele>63.7872</ele>
        <time>2010-12-04T09:22:19Z</time>
      </trkpt>
      <trkpt lat="46.30834" lon="-0.33299">
        <ele>63.8102</ele>
        <time>2010-12-04T09:22:20Z</time>
      </trkpt>
      <trkpt lat="46.30833" lon="-0.333">
        <ele>63.8318</ele>
        <time>2010-12-04T09:22:21Z</time>
      </trkpt>
      <trkpt lat="46.30832" lon="-0.33302">
        <ele>63.8462</ele>
        <time>2010-12-04T09:22:22Z</time>
      </trkpt>
      <trkpt lat="46.30831" lon="-0.33303">
        <ele>63.8506</ele>
        <time>2010-12-04T09:22:23Z</time>
      </trkpt>
      <trkpt lat="46.30829" lon="-0.33304">
        <ele>63.8519</ele>
        <time>2010-12-04T09:22:24Z</time>
      </trkpt>
      <trkpt lat="46.30828" lon="-0.33305">
        <ele>63.849</ele>
        <time>2010-12-04T09:22:25Z</time>
      </trkpt>
      <trkpt lat="46.30827" lon="-0.33307">
        <ele>63.8483</ele>
        <time>2010-12-04T09:22:26Z</time>
      </trkpt>
      <trkpt lat="46.30825" lon="-0.33308">
        <ele>63.8505</ele>
        <time>2010-12-04T09:22:27Z</time>
      </trkpt>
      <trkpt lat="46.30823" lon="-0.33309">
        <ele>63.8511</ele>
        <time>2010-12-04T09:22:28Z</time>
      </trkpt>
      <trkpt lat="46.30821" lon="-0.3331">
        <ele>63.8513</ele>
        <time>2010-12-04T09:22:29Z</time>
      </trkpt>
      <trkpt lat="46.30819" lon="-0.33311">
        <ele>63.8516</ele>
        <time>2010-12-04T09:22:30Z</time>
      </trkpt>
      <trkpt lat="46.30817" lon="-0.33312">
        <ele>63.8579</ele>
        <time>2010-12-04T09:22:31Z</time>
      </trkpt>
      <trkpt lat="46.30816" lon="-0.33312">
        <ele>63.8673</ele>
        <time>2010-12-04T09:22:32Z</time>
      </trkpt>
      <trkpt lat="46.30814" lon="-0.33313">
        <ele>63.8832</ele>
        <time>2010-12-04T09:22:33Z</time>
      </trkpt>
      <trkpt lat="46.30813" lon="-0.33313">
        <ele>63.9048</ele>
        <time>2010-12-04T09:22:34Z</time>
      </trkpt>
      <trkpt lat="46.30812" lon="-0.33314">
        <ele>63.9306</ele>
        <time>2010-12-04T09:22:35Z</time>
      </trkpt>
      <trkpt lat="46.30811" lon="-0.33314">
        <ele>63.9617</ele>
        <time>2010-12-04T09:22:36Z</time>
      </trkpt>
      <trkpt lat="46.30809" lon="-0.33315">
        <ele>63.9966</ele>
        <time>2010-12-04T09:22:37Z</time>
      </trkpt>
      <trkpt lat="46.30808" lon="-0.33315">
        <ele>64.032</ele>
        <time>2010-12-04T09:22:38Z</time>
      </trkpt>
      <trkpt lat="46.30806" lon="-0.33315">
        <ele>64.0716</ele>
        <time>2010-12-04T09:22:39Z</time>
      </trkpt>
      <trkpt lat="46.30805" lon="-0.33316">
        <ele>64.1123</ele>
        <time>2010-12-04T09:22:40Z</time>
      </trkpt>
      <trkpt lat="46.30804" lon="-0.33317">
        <ele>64.1576</ele>
        <time>2010-12-04T09:22:41Z</time>
      </trkpt>
      <trkpt lat="46.30803" lon="-0.33318">
        <ele>64.2057</ele>
        <time>2010-12-04T09:22:42Z</time>
      </trkpt>
      <trkpt lat="46.30801" lon="-0.33319">
        <ele>64.2548</ele>
        <time>2010-12-04T09:22:43Z</time>
      </trkpt>
      <trkpt lat="46.308" lon="-0.3332">
        <ele>64.3033</ele>
        <time>2010-12-04T09:22:44Z</time>
      </trkpt>
      <trkpt lat="46.30798" lon="-0.33321">
        <ele>64.3502</ele>
        <time>2010-12-04T09:22:45Z</time>
      </trkpt>
      <trkpt lat="46.30797" lon="-0.33321">
        <ele>64.3979</ele>
        <time>2010-12-04T09:22:46Z</time>
      </trkpt>
      <trkpt lat="46.30795" lon="-0.33322">
        <ele>64.4474</ele>
        <time>2010-12-04T09:22:47Z</time>
      </trkpt>
      <trkpt lat="46.30794" lon="-0.33322">
        <ele>64.4989</ele>
        <time>2010-12-04T09:22:48Z</time>
      </trkpt>
      <trkpt lat="46.30793" lon="-0.33322">
        <ele>64.5487</ele>
        <time>2010-12-04T09:22:49Z</time>
      </trkpt>
      <trkpt lat="46.30792" lon="-0.33322">
        <ele>64.6025</ele>
        <time>2010-12-04T09:22:50Z</time>
      </trkpt>
      <trkpt lat="46.30791" lon="-0.33323">
        <ele>64.6582</ele>
        <time>2010-12-04T09:22:51Z</time>
      </trkpt>
      <trkpt lat="46.3079" lon="-0.33323">
        <ele>64.716</ele>
        <time>2010-12-04T09:22:52Z</time>
      </trkpt>
      <trkpt lat="46.30789" lon="-0.33323">
        <ele>64.7766</ele>
        <time>2010-12-04T09:22:53Z</time>
      </trkpt>
      <trkpt lat="46.30788" lon="-0.33324">
        <ele>64.8379</ele>
        <time>2010-12-04T09:22:54Z</time>
      </trkpt>
      <trkpt lat="46.30786" lon="-0.33325">
        <ele>64.8994</ele>
        <time>2010-12-04T09:22:55Z</time>
      </trkpt>
      <trkpt lat="46.30785" lon="-0.33326">
        <ele>64.9588</ele>
        <time>2010-12-04T09:22:56Z</time>
      </trkpt>
      <trkpt lat="46.30784" lon="-0.33328">
        <ele>65.0153</ele>
        <time>2010-12-04T09:22:57Z</time>
      </trkpt>
      <trkpt lat="46.30782" lon="-0.33329">
        <ele>65.0756</ele>
        <time>2010-12-04T09:22:58Z</time>
      </trkpt>
      <trkpt lat="46.3078" lon="-0.3333">
        <ele>65.1312</ele>
        <time>2010-12-04T09:22:59Z</time>
      </trkpt>
      <trkpt lat="46.30779" lon="-0.33331">
        <ele>65.1817</ele>
        <time>2010-12-04T09:23:00Z</time>
      </trkpt>
      <trkpt lat="46.30777" lon="-0.33332">
        <ele>65.2298</ele>
        <time>2010-12-04T09:23:01Z</time>
      </trkpt>
      <trkpt lat="46.30776" lon="-0.33333">
        <ele>65.2749</ele>
        <time>2010-12-04T09:23:02Z</time>
      </trkpt>
      <trkpt lat="46.30774" lon="-0.33334">
        <ele>65.3172</ele>
        <time>2010-12-04T09:23:03Z</time>
      </trkpt>
      <trkpt lat="46.30772" lon="-0.33334">
        <ele>65.3575</ele>
        <time>2010-12-04T09:23:04Z</time>
      </trkpt>
      <trkpt lat="46.30771" lon="-0.33335">
        <ele>65.3964</ele>
        <time>2010-12-04T09:23:05Z</time>
      </trkpt>
      <trkpt lat="46.3077" lon="-0.33335">
        <ele>65.4351</ele>
        <time>2010-12-04T09:23:06Z</time>
      </trkpt>
      <trkpt lat="46.30769" lon="-0.33336">
        <ele>65.4777</ele>
        <time>2010-12-04T09:23:07Z</time>
      </trkpt>
      <trkpt lat="46.30767" lon="-0.33336">
        <ele>65.5203</ele>
        <time>2010-12-04T09:23:08Z</time>
      </trkpt>
      <trkpt lat="46.30766" lon="-0.33337">
        <ele>65.5645</ele>
        <time>2010-12-04T09:23:09Z</time>
      </trkpt>
      <trkpt lat="46.30764" lon="-0.33337">
        <ele>65.6081</ele>
        <time>2010-12-04T09:23:10Z</time>
      </trkpt>
      <trkpt lat="46.30762" lon="-0.33338">
        <ele>65.6493</ele>
        <time>2010-12-04T09:23:11Z</time>
      </trkpt>
      <trkpt lat="46.3076" lon="-0.33338">
        <ele>65.6869</ele>
        <time>2010-12-04T09:23:12Z</time>
      </trkpt>
      <trkpt lat="46.30759" lon="-0.33338">
        <ele>65.7232</ele>
        <time>2010-12-04T09:23:13Z</time>
      </trkpt>
      <trkpt lat="46.30757" lon="-0.33339">
        <ele>65.7613</ele>
        <time>2010-12-04T09:23:14Z</time>
      </trkpt>
      <trkpt lat="46.30756" lon="-0.33339">
        <ele>65.8001</ele>
        <time>2010-12-04T09:23:15Z</time>
      </trkpt>
      <trkpt lat="46.30754" lon="-0.3334">
        <ele>65.8432</ele>
        <time>2010-12-04T09:23:16Z</time>
      </trkpt>
      <trkpt lat="46.30753" lon="-0.33341">
        <ele>65.8882</ele>
        <time>2010-12-04T09:23:17Z</time>
      </trkpt>
      <trkpt lat="46.30751" lon="-0.33342">
        <ele>65.9357</ele>
        <time>2010-12-04T09:23:18Z</time>
      </trkpt>
      <trkpt lat="46.30749" lon="-0.33342">
        <ele>65.9839</ele>
        <time>2010-12-04T09:23:19Z</time>
      </trkpt>
      <trkpt lat="46.30748" lon="-0.33343">
        <ele>66.0327</ele>
        <time>2010-12-04T09:23:20Z</time>
      </trkpt>
      <trkpt lat="46.30747" lon="-0.33344">
        <ele>66.082</ele>
        <time>2010-12-04T09:23:21Z</time>
      </trkpt>
      <trkpt lat="46.30745" lon="-0.33344">
        <ele>66.1301</ele>
        <time>2010-12-04T09:23:22Z</time>
      </trkpt>
      <trkpt lat="46.30743" lon="-0.33345">
        <ele>66.1797</ele>
        <time>2010-12-04T09:23:23Z</time>
      </trkpt>
      <trkpt lat="46.30742" lon="-0.33345">
        <ele>66.2299</ele>
        <time>2010-12-04T09:23:24Z</time>
      </trkpt>
      <trkpt lat="46.3074" lon="-0.33346">
        <ele>66.2804</ele>
        <time>2010-12-04T09:23:25Z</time>
      </trkpt>
      <trkpt lat="46.30739" lon="-0.33347">
        <ele>66.3313</ele>
        <time>2010-12-04T09:23:26Z</time>
      </trkpt>
      <trkpt lat="46.30737" lon="-0.33348">
        <ele>66.3855</ele>
        <time>2010-12-04T09:23:27Z</time>
      </trkpt>
      <trkpt lat="46.30736" lon="-0.33349">
        <ele>66.4424</ele>
        <time>2010-12-04T09:23:28Z</time>
      </trkpt>
      <trkpt lat="46.30734" lon="-0.3335">
        <ele>66.4987</ele>
        <time>2010-12-04T09:23:29Z</time>
      </trkpt>
      <trkpt lat="46.30733" lon="-0.3335">
        <ele>66.5565</ele>
        <time>2010-12-04T09:23:30Z</time>
      </trkpt>
      <trkpt lat="46.30731" lon="-0.33351">
        <ele>66.6156</ele>
        <time>2010-12-04T09:23:31Z</time>
      </trkpt>
      <trkpt lat="46.3073" lon="-0.33351">
        <ele>66.6762</ele>
        <time>2010-12-04T09:23:32Z</time>
      </trkpt>
      <trkpt lat="46.30729" lon="-0.33352">
        <ele>66.7366</ele>
        <time>2010-12-04T09:23:33Z</time>
      </trkpt>
      <trkpt lat="46.30727" lon="-0.33352">
        <ele>66.7971</ele>
        <time>2010-12-04T09:23:34Z</time>
      </trkpt>
      <trkpt lat="46.30726" lon="-0.33352">
        <ele>66.8566</ele>
        <time>2010-12-04T09:23:35Z</time>
      </trkpt>
      <trkpt lat="46.30724" lon="-0.33353">
        <ele>66.9144</ele>
        <time>2010-12-04T09:23:36Z</time>
      </trkpt>
      <trkpt lat="46.30723" lon="-0.33354">
        <ele>66.9715</ele>
        <time>2010-12-04T09:23:37Z</time>
      </trkpt>
      <trkpt lat="46.30721" lon="-0.33354">
        <ele>67.0286</ele>
        <time>2010-12-04T09:23:38Z</time>
      </trkpt>
      <trkpt lat="46.3072" lon="-0.33355">
        <ele>67.0858</ele>
        <time>2010-12-04T09:23:39Z</time>
      </trkpt>
      <trkpt lat="46.30718" lon="-0.33356">
        <ele>67.143</ele>
        <time>2010-12-04T09:23:40Z</time>
      </trkpt>
      <trkpt lat="46.30717" lon="-0.33356">
        <ele>67.1996</ele>
        <time>2010-12-04T09:23:41Z</time>
      </trkpt>
      <trkpt lat="46.30716" lon="-0.33357">
        <ele>67.2542</ele>
        <time>2010-12-04T09:23:42Z</time>
      </trkpt>
      <trkpt lat="46.30714" lon="-0.33357">
        <ele>67.3105</ele>
        <time>2010-12-04T09:23:43Z</time>
      </trkpt>
      <trkpt lat="46.30713" lon="-0.33358">
        <ele>67.3655</ele>
        <time>2010-12-04T09:23:44Z</time>
      </trkpt>
      <trkpt lat="46.30711" lon="-0.33358">
        <ele>67.4213</ele>
        <time>2010-12-04T09:23:45Z</time>
      </trkpt>
      <trkpt lat="46.3071" lon="-0.33359">
        <ele>67.4771</ele>
        <time>2010-12-04T09:23:46Z</time>
      </trkpt>
      <trkpt lat="46.30708" lon="-0.3336">
        <ele>67.5325</ele>
        <time>2010-12-04T09:23:47Z</time>
      </trkpt>
      <trkpt lat="46.30707" lon="-0.3336">
        <ele>67.5892</ele>
        <time>2010-12-04T09:23:48Z</time>
      </trkpt>
      <trkpt lat="46.30705" lon="-0.33361">
        <ele>67.6452</ele>
        <time>2010-12-04T09:23:49Z</time>
      </trkpt>
      <trkpt lat="46.30704" lon="-0.33361">
        <ele>67.7009</ele>
        <time>2010-12-04T09:23:50Z</time>
      </trkpt>
      <trkpt lat="46.30703" lon="-0.33362">
        <ele>67.7539</ele>
        <time>2010-12-04T09:23:51Z</time>
      </trkpt>
      <trkpt lat="46.30701" lon="-0.33362">
        <ele>67.8058</ele>
        <time>2010-12-04T09:23:52Z</time>
      </trkpt>
      <trkpt lat="46.307" lon="-0.33363">
        <ele>67.8567</ele>
        <time>2010-12-04T09:23:53Z</time>
      </trkpt>
      <trkpt lat="46.30698" lon="-0.33364">
        <ele>67.9042</ele>
        <time>2010-12-04T09:23:54Z</time>
      </trkpt>
      <trkpt lat="46.30697" lon="-0.33364">
        <ele>67.949</ele>
        <time>2010-12-04T09:23:55Z</time>
      </trkpt>
      <trkpt lat="46.30696" lon="-0.33364">
        <ele>67.9914</ele>
        <time>2010-12-04T09:23:56Z</time>
      </trkpt>
      <trkpt lat="46.30695" lon="-0.33365">
        <ele>68.0322</ele>
        <time>2010-12-04T09:23:57Z</time>
      </trkpt>
      <trkpt lat="46.30693" lon="-0.33366">
        <ele>68.0718</ele>
        <time>2010-12-04T09:23:58Z</time>
      </trkpt>
      <trkpt lat="46.30692" lon="-0.33366">
        <ele>68.1097</ele>
        <time>2010-12-04T09:23:59Z</time>
      </trkpt>
      <trkpt lat="46.30691" lon="-0.33367">
        <ele>68.1461</ele>
        <time>2010-12-04T09:24:00Z</time>
      </trkpt>
      <trkpt lat="46.3069" lon="-0.33367">
        <ele>68.1806</ele>
        <time>2010-12-04T09:24:01Z</time>
      </trkpt>
      <trkpt lat="46.30688" lon="-0.33368">
        <ele>68.2103</ele>
        <time>2010-12-04T09:24:02Z</time>
      </trkpt>
      <trkpt lat="46.30687" lon="-0.33368">
        <ele>68.2389</ele>
        <time>2010-12-04T09:24:03Z</time>
      </trkpt>
      <trkpt lat="46.30686" lon="-0.33368">
        <ele>68.2674</ele>
        <time>2010-12-04T09:24:04Z</time>
      </trkpt>
      <trkpt lat="46.30685" lon="-0.33369">
        <ele>68.2959</ele>
        <time>2010-12-04T09:24:05Z</time>
      </trkpt>
      <trkpt lat="46.30684" lon="-0.33369">
        <ele>68.3244</ele>
        <time>2010-12-04T09:24:06Z</time>
      </trkpt>
      <trkpt lat="46.30684" lon="-0.3337">
        <ele>68.3528</ele>
        <time>2010-12-04T09:24:07Z</time>
      </trkpt>
      <trkpt lat="46.30682" lon="-0.33371">
        <ele>68.3815</ele>
        <time>2010-12-04T09:24:08Z</time>
      </trkpt>
      <trkpt lat="46.30682" lon="-0.33372">
        <ele>68.4079</ele>
        <time>2010-12-04T09:24:09Z</time>
      </trkpt>
      <trkpt lat="46.30681" lon="-0.33373">
        <ele>68.4344</ele>
        <time>2010-12-04T09:24:10Z</time>
      </trkpt>
      <trkpt lat="46.3068" lon="-0.33374">
        <ele>68.4557</ele>
        <time>2010-12-04T09:24:11Z</time>
      </trkpt>
      <trkpt lat="46.30679" lon="-0.33376">
        <ele>68.4771</ele>
        <time>2010-12-04T09:24:12Z</time>
      </trkpt>
      <trkpt lat="46.30677" lon="-0.33377">
        <ele>68.4938</ele>
        <time>2010-12-04T09:24:13Z</time>
      </trkpt>
      <trkpt lat="46.30676" lon="-0.33378">
        <ele>68.5065</ele>
        <time>2010-12-04T09:24:14Z</time>
      </trkpt>
      <trkpt lat="46.30675" lon="-0.33379">
        <ele>68.5163</ele>
        <time>2010-12-04T09:24:15Z</time>
      </trkpt>
      <trkpt lat="46.30673" lon="-0.33379">
        <ele>68.5257</ele>
        <time>2010-12-04T09:24:16Z</time>
      </trkpt>
      <trkpt lat="46.30672" lon="-0.3338">
        <ele>68.5383</ele>
        <time>2010-12-04T09:24:17Z</time>
      </trkpt>
      <trkpt lat="46.30671" lon="-0.33381">
        <ele>68.5581</ele>
        <time>2010-12-04T09:24:18Z</time>
      </trkpt>
      <trkpt lat="46.30669" lon="-0.33382">
        <ele>68.5833</ele>
        <time>2010-12-04T09:24:19Z</time>
      </trkpt>
      <trkpt lat="46.30668" lon="-0.33383">
        <ele>68.6094</ele>
        <time>2010-12-04T09:24:20Z</time>
      </trkpt>
      <trkpt lat="46.30666" lon="-0.33384">
        <ele>68.6306</ele>
        <time>2010-12-04T09:24:21Z</time>
      </trkpt>
      <trkpt lat="46.30664" lon="-0.33385">
        <ele>68.6489</ele>
        <time>2010-12-04T09:24:22Z</time>
      </trkpt>
      <trkpt lat="46.30662" lon="-0.33385">
        <ele>68.6671</ele>
        <time>2010-12-04T09:24:23Z</time>
      </trkpt>
      <trkpt lat="46.3066" lon="-0.33386">
        <ele>68.687</ele>
        <time>2010-12-04T09:24:24Z</time>
      </trkpt>
      <trkpt lat="46.30659" lon="-0.33386">
        <ele>68.7065</ele>
        <time>2010-12-04T09:24:25Z</time>
      </trkpt>
      <trkpt lat="46.30657" lon="-0.33387">
        <ele>68.7259</ele>
        <time>2010-12-04T09:24:26Z</time>
      </trkpt>
      <trkpt lat="46.30655" lon="-0.33388">
        <ele>68.7448</ele>
        <time>2010-12-04T09:24:27Z</time>
      </trkpt>
      <trkpt lat="46.30654" lon="-0.3339">
        <ele>68.7615</ele>
        <time>2010-12-04T09:24:28Z</time>
      </trkpt>
      <trkpt lat="46.30652" lon="-0.33391">
        <ele>68.7792</ele>
        <time>2010-12-04T09:24:29Z</time>
      </trkpt>
      <trkpt lat="46.3065" lon="-0.33392">
        <ele>68.7969</ele>
        <time>2010-12-04T09:24:30Z</time>
      </trkpt>
      <trkpt lat="46.30649" lon="-0.33393">
        <ele>68.8155</ele>
        <time>2010-12-04T09:24:31Z</time>
      </trkpt>
      <trkpt lat="46.30648" lon="-0.33393">
        <ele>68.84</ele>
        <time>2010-12-04T09:24:32Z</time>
      </trkpt>
      <trkpt lat="46.30646" lon="-0.33394">
        <ele>68.8689</ele>
        <time>2010-12-04T09:24:33Z</time>
      </trkpt>
      <trkpt lat="46.30645" lon="-0.33394">
        <ele>68.9035</ele>
        <time>2010-12-04T09:24:34Z</time>
      </trkpt>
      <trkpt lat="46.30644" lon="-0.33395">
        <ele>68.9446</ele>
        <time>2010-12-04T09:24:35Z</time>
      </trkpt>
      <trkpt lat="46.30642" lon="-0.33396">
        <ele>68.9914</ele>
        <time>2010-12-04T09:24:36Z</time>
      </trkpt>
      <trkpt lat="46.30641" lon="-0.33398">
        <ele>69.0408</ele>
        <time>2010-12-04T09:24:37Z</time>
      </trkpt>
      <trkpt lat="46.3064" lon="-0.33399">
        <ele>69.093</ele>
        <time>2010-12-04T09:24:38Z</time>
      </trkpt>
      <trkpt lat="46.30639" lon="-0.334">
        <ele>69.1458</ele>
        <time>2010-12-04T09:24:39Z</time>
      </trkpt>
      <trkpt lat="46.30637" lon="-0.33401">
        <ele>69.1981</ele>
        <time>2010-12-04T09:24:40Z</time>
      </trkpt>
      <trkpt lat="46.30636" lon="-0.33402">
        <ele>69.2463</ele>
        <time>2010-12-04T09:24:41Z</time>
      </trkpt>
      <trkpt lat="46.30634" lon="-0.33403">
        <ele>69.2908</ele>
        <time>2010-12-04T09:24:42Z</time>
      </trkpt>
      <trkpt lat="46.30632" lon="-0.33404">
        <ele>69.3387</ele>
        <time>2010-12-04T09:24:43Z</time>
      </trkpt>
      <trkpt lat="46.30631" lon="-0.33405">
        <ele>69.3938</ele>
        <time>2010-12-04T09:24:44Z</time>
      </trkpt>
      <trkpt lat="46.3063" lon="-0.33407">
        <ele>69.4431</ele>
        <time>2010-12-04T09:24:45Z</time>
      </trkpt>
      <trkpt lat="46.30629" lon="-0.33408">
        <ele>69.4868</ele>
        <time>2010-12-04T09:24:46Z</time>
      </trkpt>
      <trkpt lat="46.30628" lon="-0.33409">
        <ele>69.5288</ele>
        <time>2010-12-04T09:24:47Z</time>
      </trkpt>
      <trkpt lat="46.30627" lon="-0.3341">
        <ele>69.57</ele>
        <time>2010-12-04T09:24:48Z</time>
      </trkpt>
      <trkpt lat="46.30626" lon="-0.33411">
        <ele>69.6106</ele>
        <time>2010-12-04T09:24:49Z</time>
      </trkpt>
      <trkpt lat="46.30624" lon="-0.33412">
        <ele>69.6494</ele>
        <time>2010-12-04T09:24:50Z</time>
      </trkpt>
      <trkpt lat="46.30623" lon="-0.33413">
        <ele>69.6843</ele>
        <time>2010-12-04T09:24:51Z</time>
      </trkpt>
      <trkpt lat="46.30622" lon="-0.33414">
        <ele>69.7185</ele>
        <time>2010-12-04T09:24:52Z</time>
      </trkpt>
      <trkpt lat="46.30621" lon="-0.33415">
        <ele>69.7561</ele>
        <time>2010-12-04T09:24:53Z</time>
      </trkpt>
      <trkpt lat="46.30619" lon="-0.33416">
        <ele>69.7942</ele>
        <time>2010-12-04T09:24:54Z</time>
      </trkpt>
      <trkpt lat="46.30618" lon="-0.33417">
        <ele>69.8325</ele>
        <time>2010-12-04T09:24:55Z</time>
      </trkpt>
      <trkpt lat="46.30617" lon="-0.33419">
        <ele>69.87</ele>
        <time>2010-12-04T09:24:56Z</time>
      </trkpt>
      <trkpt lat="46.30616" lon="-0.3342">
        <ele>69.9064</ele>
        <time>2010-12-04T09:24:57Z</time>
      </trkpt>
      <trkpt lat="46.30615" lon="-0.33422">
        <ele>69.9446</ele>
        <time>2010-12-04T09:24:58Z</time>
      </trkpt>
      <trkpt lat="46.30614" lon="-0.33423">
        <ele>69.987</ele>
        <time>2010-12-04T09:24:59Z</time>
      </trkpt>
      <trkpt lat="46.30613" lon="-0.33425">
        <ele>70.03</ele>
        <time>2010-12-04T09:25:00Z</time>
      </trkpt>
      <trkpt lat="46.30612" lon="-0.33427">
        <ele>70.0747</ele>
        <time>2010-12-04T09:25:01Z</time>
      </trkpt>
      <trkpt lat="46.30612" lon="-0.33429">
        <ele>70.1185</ele>
        <time>2010-12-04T09:25:02Z</time>
      </trkpt>
      <trkpt lat="46.30611" lon="-0.33431">
        <ele>70.1611</ele>
        <time>2010-12-04T09:25:03Z</time>
      </trkpt>
      <trkpt lat="46.30611" lon="-0.33433">
        <ele>70.2009</ele>
        <time>2010-12-04T09:25:04Z</time>
      </trkpt>
      <trkpt lat="46.30611" lon="-0.33436">
        <ele>70.2376</ele>
        <time>2010-12-04T09:25:05Z</time>
      </trkpt>
      <trkpt lat="46.30611" lon="-0.33438">
        <ele>70.2737</ele>
        <time>2010-12-04T09:25:06Z</time>
      </trkpt>
      <trkpt lat="46.30611" lon="-0.3344">
        <ele>70.31</ele>
        <time>2010-12-04T09:25:07Z</time>
      </trkpt>
      <trkpt lat="46.30611" lon="-0.33442">
        <ele>70.3481</ele>
        <time>2010-12-04T09:25:08Z</time>
      </trkpt>
      <trkpt lat="46.30611" lon="-0.33443">
        <ele>70.389</ele>
        <time>2010-12-04T09:25:09Z</time>
      </trkpt>
      <trkpt lat="46.30611" lon="-0.33445">
        <ele>70.4309</ele>
        <time>2010-12-04T09:25:10Z</time>
      </trkpt>
      <trkpt lat="46.30612" lon="-0.33447">
        <ele>70.4704</ele>
        <time>2010-12-04T09:25:11Z</time>
      </trkpt>
      <trkpt lat="46.30613" lon="-0.33448">
        <ele>70.5087</ele>
        <time>2010-12-04T09:25:12Z</time>
      </trkpt>
      <trkpt lat="46.30613" lon="-0.3345">
        <ele>70.5466</ele>
        <time>2010-12-04T09:25:13Z</time>
      </trkpt>
      <trkpt lat="46.30614" lon="-0.33452">
        <ele>70.5844</ele>
        <time>2010-12-04T09:25:14Z</time>
      </trkpt>
      <trkpt lat="46.30614" lon="-0.33454">
        <ele>70.6223</ele>
        <time>2010-12-04T09:25:15Z</time>
      </trkpt>
      <trkpt lat="46.30615" lon="-0.33456">
        <ele>70.6585</ele>
        <time>2010-12-04T09:25:16Z</time>
      </trkpt>
      <trkpt lat="46.30616" lon="-0.33458">
        <ele>70.6922</ele>
        <time>2010-12-04T09:25:17Z</time>
      </trkpt>
      <trkpt lat="46.30616" lon="-0.3346">
        <ele>70.723</ele>
        <time>2010-12-04T09:25:18Z</time>
      </trkpt>
      <trkpt lat="46.30617" lon="-0.33462">
        <ele>70.7519</ele>
        <time>2010-12-04T09:25:19Z</time>
      </trkpt>
      <trkpt lat="46.30618" lon="-0.33464">
        <ele>70.7813</ele>
        <time>2010-12-04T09:25:20Z</time>
      </trkpt>
      <trkpt lat="46.30618" lon="-0.33467">
        <ele>70.8087</ele>
        <time>2010-12-04T09:25:21Z</time>
      </trkpt>
      <trkpt lat="46.30619" lon="-0.33469">
        <ele>70.836</ele>
        <time>2010-12-04T09:25:22Z</time>
      </trkpt>
      <trkpt lat="46.30619" lon="-0.33471">
        <ele>70.8629</ele>
        <time>2010-12-04T09:25:23Z</time>
      </trkpt>
      <trkpt lat="46.30619" lon="-0.33473">
        <ele>70.8895</ele>
        <time>2010-12-04T09:25:24Z</time>
      </trkpt>
      <trkpt lat="46.3062" lon="-0.33475">
        <ele>70.9106</ele>
        <time>2010-12-04T09:25:25Z</time>
      </trkpt>
      <trkpt lat="46.3062" lon="-0.33477">
        <ele>70.9313</ele>
        <time>2010-12-04T09:25:26Z</time>
      </trkpt>
      <trkpt lat="46.3062" lon="-0.33479">
        <ele>70.9514</ele>
        <time>2010-12-04T09:25:27Z</time>
      </trkpt>
      <trkpt lat="46.30619" lon="-0.3348">
        <ele>70.9702</ele>
        <time>2010-12-04T09:25:28Z</time>
      </trkpt>
      <trkpt lat="46.30618" lon="-0.33481">
        <ele>70.99</ele>
        <time>2010-12-04T09:25:29Z</time>
      </trkpt>
      <trkpt lat="46.30618" lon="-0.33483">
        <ele>71.0115</ele>
        <time>2010-12-04T09:25:30Z</time>
      </trkpt>
      <trkpt lat="46.30616" lon="-0.33484">
        <ele>71.0323</ele>
        <time>2010-12-04T09:25:31Z</time>
      </trkpt>
      <trkpt lat="46.30615" lon="-0.33485">
        <ele>71.0562</ele>
        <time>2010-12-04T09:25:32Z</time>
      </trkpt>
      <trkpt lat="46.30614" lon="-0.33485">
        <ele>71.0798</ele>
        <time>2010-12-04T09:25:33Z</time>
      </trkpt>
      <trkpt lat="46.30613" lon="-0.33487">
        <ele>71.1009</ele>
        <time>2010-12-04T09:25:34Z</time>
      </trkpt>
      <trkpt lat="46.30612" lon="-0.33488">
        <ele>71.1178</ele>
        <time>2010-12-04T09:25:35Z</time>
      </trkpt>
      <trkpt lat="46.30611" lon="-0.33489">
        <ele>71.1316</ele>
        <time>2010-12-04T09:25:36Z</time>
      </trkpt>
      <trkpt lat="46.3061" lon="-0.3349">
        <ele>71.1465</ele>
        <time>2010-12-04T09:25:37Z</time>
      </trkpt>
      <trkpt lat="46.30608" lon="-0.33491">
        <ele>71.1587</ele>
        <time>2010-12-04T09:25:38Z</time>
      </trkpt>
      <trkpt lat="46.30607" lon="-0.33492">
        <ele>71.1678</ele>
        <time>2010-12-04T09:25:39Z</time>
      </trkpt>
      <trkpt lat="46.30606" lon="-0.33493">
        <ele>71.1753</ele>
        <time>2010-12-04T09:25:40Z</time>
      </trkpt>
      <trkpt lat="46.30605" lon="-0.33493">
        <ele>71.1814</ele>
        <time>2010-12-04T09:25:41Z</time>
      </trkpt>
      <trkpt lat="46.30603" lon="-0.33494">
        <ele>71.1887</ele>
        <time>2010-12-04T09:25:42Z</time>
      </trkpt>
      <trkpt lat="46.30602" lon="-0.33494">
        <ele>71.1967</ele>
        <time>2010-12-04T09:25:43Z</time>
      </trkpt>
      <trkpt lat="46.30601" lon="-0.33494">
        <ele>71.2074</ele>
        <time>2010-12-04T09:25:44Z</time>
      </trkpt>
      <trkpt lat="46.306" lon="-0.33494">
        <ele>71.2178</ele>
        <time>2010-12-04T09:25:45Z</time>
      </trkpt>
      <trkpt lat="46.30599" lon="-0.33495">
        <ele>71.2289</ele>
        <time>2010-12-04T09:25:46Z</time>
      </trkpt>
      <trkpt lat="46.30598" lon="-0.33495">
        <ele>71.2419</ele>
        <time>2010-12-04T09:25:47Z</time>
      </trkpt>
      <trkpt lat="46.30597" lon="-0.33496">
        <ele>71.2568</ele>
        <time>2010-12-04T09:25:48Z</time>
      </trkpt>
      <trkpt lat="46.30596" lon="-0.33497">
        <ele>71.2738</ele>
        <time>2010-12-04T09:25:49Z</time>
      </trkpt>
      <trkpt lat="46.30594" lon="-0.33498">
        <ele>71.2911</ele>
        <time>2010-12-04T09:25:50Z</time>
      </trkpt>
      <trkpt lat="46.30594" lon="-0.33499">
        <ele>71.3064</ele>
        <time>2010-12-04T09:25:51Z</time>
      </trkpt>
      <trkpt lat="46.30592" lon="-0.33501">
        <ele>71.3237</ele>
        <time>2010-12-04T09:25:52Z</time>
      </trkpt>
      <trkpt lat="46.30592" lon="-0.33503">
        <ele>71.3388</ele>
        <time>2010-12-04T09:25:53Z</time>
      </trkpt>
      <trkpt lat="46.3059" lon="-0.33505">
        <ele>71.3527</ele>
        <time>2010-12-04T09:25:54Z</time>
      </trkpt>
      <trkpt lat="46.30589" lon="-0.33507">
        <ele>71.3683</ele>
        <time>2010-12-04T09:25:55Z</time>
      </trkpt>
      <trkpt lat="46.30589" lon="-0.33509">
        <ele>71.3785</ele>
        <time>2010-12-04T09:25:56Z</time>
      </trkpt>
      <trkpt lat="46.30588" lon="-0.33511">
        <ele>71.3844</ele>
        <time>2010-12-04T09:25:57Z</time>
      </trkpt>
      <trkpt lat="46.30587" lon="-0.33513">
        <ele>71.3869</ele>
        <time>2010-12-04T09:25:58Z</time>
      </trkpt>
      <trkpt lat="46.30587" lon="-0.33515">
        <ele>71.3916</ele>
        <time>2010-12-04T09:25:59Z</time>
      </trkpt>
      <trkpt lat="46.30587" lon="-0.33517">
        <ele>71.3991</ele>
        <time>2010-12-04T09:26:00Z</time>
      </trkpt>
      <trkpt lat="46.30587" lon="-0.33519">
        <ele>71.4098</ele>
        <time>2010-12-04T09:26:01Z</time>
      </trkpt>
      <trkpt lat="46.30587" lon="-0.33521">
        <ele>71.4242</ele>
        <time>2010-12-04T09:26:02Z</time>
      </trkpt>
      <trkpt lat="46.30587" lon="-0.33523">
        <ele>71.4412</ele>
        <time>2010-12-04T09:26:03Z</time>
      </trkpt>
      <trkpt lat="46.30587" lon="-0.33525">
        <ele>71.4586</ele>
        <time>2010-12-04T09:26:04Z</time>
      </trkpt>
      <trkpt lat="46.30588" lon="-0.33526">
        <ele>71.4767</ele>
        <time>2010-12-04T09:26:05Z</time>
      </trkpt>
      <trkpt lat="46.30589" lon="-0.33528">
        <ele>71.4958</ele>
        <time>2010-12-04T09:26:06Z</time>
      </trkpt>
      <trkpt lat="46.30589" lon="-0.3353">
        <ele>71.5145</ele>
        <time>2010-12-04T09:26:07Z</time>
      </trkpt>
      <trkpt lat="46.30589" lon="-0.33531">
        <ele>71.5327</ele>
        <time>2010-12-04T09:26:08Z</time>
      </trkpt>
      <trkpt lat="46.3059" lon="-0.33533">
        <ele>71.5509</ele>
        <time>2010-12-04T09:26:09Z</time>
      </trkpt>
      <trkpt lat="46.3059" lon="-0.33535">
        <ele>71.5684</ele>
        <time>2010-12-04T09:26:10Z</time>
      </trkpt>
      <trkpt lat="46.30591" lon="-0.33536">
        <ele>71.5843</ele>
        <time>2010-12-04T09:26:11Z</time>
      </trkpt>
      <trkpt lat="46.30591" lon="-0.33538">
        <ele>71.6147</ele>
        <time>2010-12-04T09:26:12Z</time>
      </trkpt>
      <trkpt lat="46.30592" lon="-0.33541">
        <ele>71.6551</ele>
        <time>2010-12-04T09:26:13Z</time>
      </trkpt>
      <trkpt lat="46.30592" lon="-0.33543">
        <ele>71.6994</ele>
        <time>2010-12-04T09:26:14Z</time>
      </trkpt>
      <trkpt lat="46.30592" lon="-0.33545">
        <ele>71.7442</ele>
        <time>2010-12-04T09:26:15Z</time>
      </trkpt>
      <trkpt lat="46.30592" lon="-0.33547">
        <ele>71.788</ele>
        <time>2010-12-04T09:26:16Z</time>
      </trkpt>
      <trkpt lat="46.30593" lon="-0.33549">
        <ele>71.833</ele>
        <time>2010-12-04T09:26:17Z</time>
      </trkpt>
      <trkpt lat="46.30593" lon="-0.33552">
        <ele>71.8751</ele>
        <time>2010-12-04T09:26:18Z</time>
      </trkpt>
      <trkpt lat="46.30594" lon="-0.33554">
        <ele>71.914</ele>
        <time>2010-12-04T09:26:19Z</time>
      </trkpt>
      <trkpt lat="46.30594" lon="-0.33556">
        <ele>71.9491</ele>
        <time>2010-12-04T09:26:20Z</time>
      </trkpt>
      <trkpt lat="46.30595" lon="-0.33559">
        <ele>71.9835</ele>
        <time>2010-12-04T09:26:21Z</time>
      </trkpt>
      <trkpt lat="46.30595" lon="-0.33561">
        <ele>72.0151</ele>
        <time>2010-12-04T09:26:22Z</time>
      </trkpt>
      <trkpt lat="46.30596" lon="-0.33563">
        <ele>72.0446</ele>
        <time>2010-12-04T09:26:23Z</time>
      </trkpt>
      <trkpt lat="46.30596" lon="-0.33565">
        <ele>72.072</ele>
        <time>2010-12-04T09:26:24Z</time>
      </trkpt>
      <trkpt lat="46.30597" lon="-0.33567">
        <ele>72.0985</ele>
        <time>2010-12-04T09:26:25Z</time>
      </trkpt>
      <trkpt lat="46.30597" lon="-0.33569">
        <ele>72.1241</ele>
        <time>2010-12-04T09:26:26Z</time>
      </trkpt>
      <trkpt lat="46.30597" lon="-0.33569">
        <ele>72.1453</ele>
        <time>2010-12-04T09:26:27Z</time>
      </trkpt>
      <trkpt lat="46.30597" lon="-0.33571">
        <ele>72.1708</ele>
        <time>2010-12-04T09:26:28Z</time>
      </trkpt>
      <trkpt lat="46.30598" lon="-0.33573">
        <ele>72.1993</ele>
        <time>2010-12-04T09:26:29Z</time>
      </trkpt>
      <trkpt lat="46.30598" lon="-0.33575">
        <ele>72.2299</ele>
        <time>2010-12-04T09:26:30Z</time>
      </trkpt>
      <trkpt lat="46.30598" lon="-0.33577">
        <ele>72.2628</ele>
        <time>2010-12-04T09:26:31Z</time>
      </trkpt>
      <trkpt lat="46.30599" lon="-0.33579">
        <ele>72.2978</ele>
        <time>2010-12-04T09:26:32Z</time>
      </trkpt>
      <trkpt lat="46.30599" lon="-0.33581">
        <ele>72.3344</ele>
        <time>2010-12-04T09:26:33Z</time>
      </trkpt>
      <trkpt lat="46.30598" lon="-0.33582">
        <ele>72.3709</ele>
        <time>2010-12-04T09:26:34Z</time>
      </trkpt>
      <trkpt lat="46.30598" lon="-0.33584">
        <ele>72.4056</ele>
        <time>2010-12-04T09:26:35Z</time>
      </trkpt>
      <trkpt lat="46.30598" lon="-0.33586">
        <ele>72.443</ele>
        <time>2010-12-04T09:26:36Z</time>
      </trkpt>
      <trkpt lat="46.30598" lon="-0.33587">
        <ele>72.4781</ele>
        <time>2010-12-04T09:26:37Z</time>
      </trkpt>
      <trkpt lat="46.30597" lon="-0.33591">
        <ele>72.5132</ele>
        <time>2010-12-04T09:26:38Z</time>
      </trkpt>
      <trkpt lat="46.30597" lon="-0.33592">
        <ele>72.5471</ele>
        <time>2010-12-04T09:26:39Z</time>
      </trkpt>
      <trkpt lat="46.30596" lon="-0.33594">
        <ele>72.58</ele>
        <time>2010-12-04T09:26:40Z</time>
      </trkpt>
      <trkpt lat="46.30595" lon="-0.33595">
        <ele>72.6127</ele>
        <time>2010-12-04T09:26:41Z</time>
      </trkpt>
      <trkpt lat="46.30595" lon="-0.33596">
        <ele>72.6412</ele>
        <time>2010-12-04T09:26:42Z</time>
      </trkpt>
      <trkpt lat="46.30594" lon="-0.33598">
        <ele>72.6701</ele>
        <time>2010-12-04T09:26:43Z</time>
      </trkpt>
      <trkpt lat="46.30594" lon="-0.33599">
        <ele>72.6999</ele>
        <time>2010-12-04T09:26:44Z</time>
      </trkpt>
      <trkpt lat="46.30593" lon="-0.33601">
        <ele>72.7305</ele>
        <time>2010-12-04T09:26:45Z</time>
      </trkpt>
      <trkpt lat="46.30593" lon="-0.33603">
        <ele>72.7605</ele>
        <time>2010-12-04T09:26:46Z</time>
      </trkpt>
      <trkpt lat="46.30593" lon="-0.33605">
        <ele>72.7891</ele>
        <time>2010-12-04T09:26:47Z</time>
      </trkpt>
      <trkpt lat="46.30592" lon="-0.33607">
        <ele>72.8228</ele>
        <time>2010-12-04T09:26:48Z</time>
      </trkpt>
      <trkpt lat="46.30592" lon="-0.33609">
        <ele>72.8623</ele>
        <time>2010-12-04T09:26:49Z</time>
      </trkpt>
      <trkpt lat="46.30592" lon="-0.33611">
        <ele>72.9023</ele>
        <time>2010-12-04T09:26:50Z</time>
      </trkpt>
      <trkpt lat="46.30591" lon="-0.33614">
        <ele>72.934</ele>
        <time>2010-12-04T09:26:51Z</time>
      </trkpt>
      <trkpt lat="46.3059" lon="-0.33616">
        <ele>72.9632</ele>
        <time>2010-12-04T09:26:52Z</time>
      </trkpt>
      <trkpt lat="46.3059" lon="-0.33619">
        <ele>72.9848</ele>
        <time>2010-12-04T09:26:53Z</time>
      </trkpt>
      <trkpt lat="46.30589" lon="-0.33621">
        <ele>73.0078</ele>
        <time>2010-12-04T09:26:54Z</time>
      </trkpt>
      <trkpt lat="46.30588" lon="-0.33623">
        <ele>73.0314</ele>
        <time>2010-12-04T09:26:55Z</time>
      </trkpt>
      <trkpt lat="46.30587" lon="-0.33624">
        <ele>73.0537</ele>
        <time>2010-12-04T09:26:56Z</time>
      </trkpt>
      <trkpt lat="46.30587" lon="-0.33626">
        <ele>73.0758</ele>
        <time>2010-12-04T09:26:57Z</time>
      </trkpt>
      <trkpt lat="46.30586" lon="-0.33628">
        <ele>73.0947</ele>
        <time>2010-12-04T09:26:58Z</time>
      </trkpt>
      <trkpt lat="46.30586" lon="-0.3363">
        <ele>73.1124</ele>
        <time>2010-12-04T09:26:59Z</time>
      </trkpt>
      <trkpt lat="46.30585" lon="-0.33632">
        <ele>73.1268</ele>
        <time>2010-12-04T09:27:00Z</time>
      </trkpt>
      <trkpt lat="46.30584" lon="-0.33634">
        <ele>73.1437</ele>
        <time>2010-12-04T09:27:01Z</time>
      </trkpt>
      <trkpt lat="46.30584" lon="-0.33636">
        <ele>73.1617</ele>
        <time>2010-12-04T09:27:02Z</time>
      </trkpt>
      <trkpt lat="46.30584" lon="-0.33638">
        <ele>73.18</ele>
        <time>2010-12-04T09:27:03Z</time>
      </trkpt>
      <trkpt lat="46.30583" lon="-0.3364">
        <ele>73.1976</ele>
        <time>2010-12-04T09:27:04Z</time>
      </trkpt>
      <trkpt lat="46.30583" lon="-0.33642">
        <ele>73.2157</ele>
        <time>2010-12-04T09:27:05Z</time>
      </trkpt>
      <trkpt lat="46.30583" lon="-0.33645">
        <ele>73.2315</ele>
        <time>2010-12-04T09:27:06Z</time>
      </trkpt>
      <trkpt lat="46.30583" lon="-0.33647">
        <ele>73.2474</ele>
        <time>2010-12-04T09:27:07Z</time>
      </trkpt>
      <trkpt lat="46.30582" lon="-0.33649">
        <ele>73.2669</ele>
        <time>2010-12-04T09:27:08Z</time>
      </trkpt>
      <trkpt lat="46.30582" lon="-0.33651">
        <ele>73.2853</ele>
        <time>2010-12-04T09:27:09Z</time>
      </trkpt>
      <trkpt lat="46.30582" lon="-0.33653">
        <ele>73.3022</ele>
        <time>2010-12-04T09:27:10Z</time>
      </trkpt>
      <trkpt lat="46.30582" lon="-0.33655">
        <ele>73.319</ele>
        <time>2010-12-04T09:27:11Z</time>
      </trkpt>
      <trkpt lat="46.30581" lon="-0.33657">
        <ele>73.3355</ele>
        <time>2010-12-04T09:27:12Z</time>
      </trkpt>
      <trkpt lat="46.30581" lon="-0.3366">
        <ele>73.3524</ele>
        <time>2010-12-04T09:27:13Z</time>
      </trkpt>
      <trkpt lat="46.30581" lon="-0.33662">
        <ele>73.3698</ele>
        <time>2010-12-04T09:27:14Z</time>
      </trkpt>
      <trkpt lat="46.30581" lon="-0.33664">
        <ele>73.3906</ele>
        <time>2010-12-04T09:27:15Z</time>
      </trkpt>
      <trkpt lat="46.3058" lon="-0.33666">
        <ele>73.4125</ele>
        <time>2010-12-04T09:27:16Z</time>
      </trkpt>
      <trkpt lat="46.3058" lon="-0.33668">
        <ele>73.436</ele>
        <time>2010-12-04T09:27:17Z</time>
      </trkpt>
      <trkpt lat="46.3058" lon="-0.3367">
        <ele>73.4604</ele>
        <time>2010-12-04T09:27:18Z</time>
      </trkpt>
      <trkpt lat="46.3058" lon="-0.33672">
        <ele>73.4855</ele>
        <time>2010-12-04T09:27:19Z</time>
      </trkpt>
      <trkpt lat="46.3058" lon="-0.33674">
        <ele>73.5122</ele>
        <time>2010-12-04T09:27:20Z</time>
      </trkpt>
      <trkpt lat="46.30579" lon="-0.33676">
        <ele>73.5389</ele>
        <time>2010-12-04T09:27:21Z</time>
      </trkpt>
      <trkpt lat="46.30579" lon="-0.33678">
        <ele>73.5649</ele>
        <time>2010-12-04T09:27:22Z</time>
      </trkpt>
      <trkpt lat="46.30579" lon="-0.3368">
        <ele>73.591</ele>
        <time>2010-12-04T09:27:23Z</time>
      </trkpt>
      <trkpt lat="46.30579" lon="-0.33682">
        <ele>73.6182</ele>
        <time>2010-12-04T09:27:24Z</time>
      </trkpt>
      <trkpt lat="46.30578" lon="-0.33684">
        <ele>73.6451</ele>
        <time>2010-12-04T09:27:25Z</time>
      </trkpt>
      <trkpt lat="46.30578" lon="-0.33686">
        <ele>73.6742</ele>
        <time>2010-12-04T09:27:26Z</time>
      </trkpt>
      <trkpt lat="46.30578" lon="-0.33688">
        <ele>73.7056</ele>
        <time>2010-12-04T09:27:27Z</time>
      </trkpt>
      <trkpt lat="46.30578" lon="-0.3369">
        <ele>73.7349</ele>
        <time>2010-12-04T09:27:28Z</time>
      </trkpt>
      <trkpt lat="46.30578" lon="-0.33692">
        <ele>73.7618</ele>
        <time>2010-12-04T09:27:29Z</time>
      </trkpt>
      <trkpt lat="46.30577" lon="-0.33694">
        <ele>73.7895</ele>
        <time>2010-12-04T09:27:30Z</time>
      </trkpt>
      <trkpt lat="46.30577" lon="-0.33696">
        <ele>73.8164</ele>
        <time>2010-12-04T09:27:31Z</time>
      </trkpt>
      <trkpt lat="46.30577" lon="-0.33699">
        <ele>73.8418</ele>
        <time>2010-12-04T09:27:32Z</time>
      </trkpt>
      <trkpt lat="46.30576" lon="-0.33701">
        <ele>73.8646</ele>
        <time>2010-12-04T09:27:33Z</time>
      </trkpt>
      <trkpt lat="46.30576" lon="-0.33703">
        <ele>73.8859</ele>
        <time>2010-12-04T09:27:34Z</time>
      </trkpt>
      <trkpt lat="46.30576" lon="-0.33705">
        <ele>73.9062</ele>
        <time>2010-12-04T09:27:35Z</time>
      </trkpt>
      <trkpt lat="46.30576" lon="-0.33706">
        <ele>73.927</ele>
        <time>2010-12-04T09:27:36Z</time>
      </trkpt>
      <trkpt lat="46.30575" lon="-0.33708">
        <ele>73.9489</ele>
        <time>2010-12-04T09:27:37Z</time>
      </trkpt>
      <trkpt lat="46.30575" lon="-0.3371">
        <ele>73.9719</ele>
        <time>2010-12-04T09:27:38Z</time>
      </trkpt>
      <trkpt lat="46.30574" lon="-0.33712">
        <ele>73.9943</ele>
        <time>2010-12-04T09:27:39Z</time>
      </trkpt>
      <trkpt lat="46.30574" lon="-0.33714">
        <ele>74.017</ele>
        <time>2010-12-04T09:27:40Z</time>
      </trkpt>
      <trkpt lat="46.30574" lon="-0.33716">
        <ele>74.0374</ele>
        <time>2010-12-04T09:27:41Z</time>
      </trkpt>
      <trkpt lat="46.30574" lon="-0.33718">
        <ele>74.058</ele>
        <time>2010-12-04T09:27:42Z</time>
      </trkpt>
      <trkpt lat="46.30573" lon="-0.33721">
        <ele>74.0742</ele>
        <time>2010-12-04T09:27:43Z</time>
      </trkpt>
      <trkpt lat="46.30573" lon="-0.33723">
        <ele>74.0924</ele>
        <time>2010-12-04T09:27:44Z</time>
      </trkpt>
      <trkpt lat="46.30573" lon="-0.33725">
        <ele>74.1068</ele>
        <time>2010-12-04T09:27:45Z</time>
      </trkpt>
      <trkpt lat="46.30573" lon="-0.33728">
        <ele>74.1185</ele>
        <time>2010-12-04T09:27:46Z</time>
      </trkpt>
      <trkpt lat="46.30573" lon="-0.3373">
        <ele>74.1284</ele>
        <time>2010-12-04T09:27:47Z</time>
      </trkpt>
      <trkpt lat="46.30573" lon="-0.33732">
        <ele>74.136</ele>
        <time>2010-12-04T09:27:48Z</time>
      </trkpt>
      <trkpt lat="46.30573" lon="-0.33734">
        <ele>74.1437</ele>
        <time>2010-12-04T09:27:49Z</time>
      </trkpt>
      <trkpt lat="46.30573" lon="-0.33736">
        <ele>74.1522</ele>
        <time>2010-12-04T09:27:50Z</time>
      </trkpt>
      <trkpt lat="46.30573" lon="-0.33738">
        <ele>74.1609</ele>
        <time>2010-12-04T09:27:51Z</time>
      </trkpt>
      <trkpt lat="46.30573" lon="-0.3374">
        <ele>74.1707</ele>
        <time>2010-12-04T09:27:52Z</time>
      </trkpt>
      <trkpt lat="46.30573" lon="-0.33742">
        <ele>74.1812</ele>
        <time>2010-12-04T09:27:53Z</time>
      </trkpt>
      <trkpt lat="46.30573" lon="-0.33744">
        <ele>74.193</ele>
        <time>2010-12-04T09:27:54Z</time>
      </trkpt>
      <trkpt lat="46.30572" lon="-0.33746">
        <ele>74.2039</ele>
        <time>2010-12-04T09:27:55Z</time>
      </trkpt>
      <trkpt lat="46.30571" lon="-0.33748">
        <ele>74.2148</ele>
        <time>2010-12-04T09:27:56Z</time>
      </trkpt>
      <trkpt lat="46.30571" lon="-0.33749">
        <ele>74.2257</ele>
        <time>2010-12-04T09:27:57Z</time>
      </trkpt>
      <trkpt lat="46.30571" lon="-0.33751">
        <ele>74.2374</ele>
        <time>2010-12-04T09:27:58Z</time>
      </trkpt>
      <trkpt lat="46.3057" lon="-0.33753">
        <ele>74.2489</ele>
        <time>2010-12-04T09:27:59Z</time>
      </trkpt>
      <trkpt lat="46.3057" lon="-0.33755">
        <ele>74.2603</ele>
        <time>2010-12-04T09:28:00Z</time>
      </trkpt>
      <trkpt lat="46.3057" lon="-0.33757">
        <ele>74.27</ele>
        <time>2010-12-04T09:28:01Z</time>
      </trkpt>
      <trkpt lat="46.30569" lon="-0.33759">
        <ele>74.2811</ele>
        <time>2010-12-04T09:28:02Z</time>
      </trkpt>
      <trkpt lat="46.30568" lon="-0.33761">
        <ele>74.2921</ele>
        <time>2010-12-04T09:28:03Z</time>
      </trkpt>
      <trkpt lat="46.30568" lon="-0.33763">
        <ele>74.3039</ele>
        <time>2010-12-04T09:28:04Z</time>
      </trkpt>
      <trkpt lat="46.30568" lon="-0.33765">
        <ele>74.3177</ele>
        <time>2010-12-04T09:28:05Z</time>
      </trkpt>
      <trkpt lat="46.30567" lon="-0.33767">
        <ele>74.3325</ele>
        <time>2010-12-04T09:28:06Z</time>
      </trkpt>
      <trkpt lat="46.30567" lon="-0.33769">
        <ele>74.3486</ele>
        <time>2010-12-04T09:28:07Z</time>
      </trkpt>
      <trkpt lat="46.30567" lon="-0.33771">
        <ele>74.3631</ele>
        <time>2010-12-04T09:28:08Z</time>
      </trkpt>
      <trkpt lat="46.30566" lon="-0.33773">
        <ele>74.3761</ele>
        <time>2010-12-04T09:28:09Z</time>
      </trkpt>
      <trkpt lat="46.30566" lon="-0.33776">
        <ele>74.3873</ele>
        <time>2010-12-04T09:28:10Z</time>
      </trkpt>
      <trkpt lat="46.30567" lon="-0.33778">
        <ele>74.3964</ele>
        <time>2010-12-04T09:28:11Z</time>
      </trkpt>
      <trkpt lat="46.30568" lon="-0.3378">
        <ele>74.4025</ele>
        <time>2010-12-04T09:28:12Z</time>
      </trkpt>
      <trkpt lat="46.30568" lon="-0.33782">
        <ele>74.4077</ele>
        <time>2010-12-04T09:28:13Z</time>
      </trkpt>
      <trkpt lat="46.30569" lon="-0.33784">
        <ele>74.4144</ele>
        <time>2010-12-04T09:28:14Z</time>
      </trkpt>
      <trkpt lat="46.3057" lon="-0.33786">
        <ele>74.4224</ele>
        <time>2010-12-04T09:28:15Z</time>
      </trkpt>
      <trkpt lat="46.3057" lon="-0.33788">
        <ele>74.4319</ele>
        <time>2010-12-04T09:28:16Z</time>
      </trkpt>
      <trkpt lat="46.30571" lon="-0.3379">
        <ele>74.4415</ele>
        <time>2010-12-04T09:28:17Z</time>
      </trkpt>
      <trkpt lat="46.30571" lon="-0.33792">
        <ele>74.4518</ele>
        <time>2010-12-04T09:28:18Z</time>
      </trkpt>
      <trkpt lat="46.30571" lon="-0.33794">
        <ele>74.4616</ele>
        <time>2010-12-04T09:28:19Z</time>
      </trkpt>
      <trkpt lat="46.30571" lon="-0.33796">
        <ele>74.4696</ele>
        <time>2010-12-04T09:28:20Z</time>
      </trkpt>
      <trkpt lat="46.30572" lon="-0.33798">
        <ele>74.4764</ele>
        <time>2010-12-04T09:28:21Z</time>
      </trkpt>
      <trkpt lat="46.30573" lon="-0.338">
        <ele>74.4819</ele>
        <time>2010-12-04T09:28:22Z</time>
      </trkpt>
      <trkpt lat="46.30573" lon="-0.33802">
        <ele>74.4865</ele>
        <time>2010-12-04T09:28:23Z</time>
      </trkpt>
      <trkpt lat="46.30574" lon="-0.33804">
        <ele>74.492</ele>
        <time>2010-12-04T09:28:24Z</time>
      </trkpt>
      <trkpt lat="46.30574" lon="-0.33806">
        <ele>74.4952</ele>
        <time>2010-12-04T09:28:25Z</time>
      </trkpt>
      <trkpt lat="46.30574" lon="-0.33808">
        <ele>74.4981</ele>
        <time>2010-12-04T09:28:26Z</time>
      </trkpt>
      <trkpt lat="46.30574" lon="-0.33811">
        <ele>74.5004</ele>
        <time>2010-12-04T09:28:27Z</time>
      </trkpt>
      <trkpt lat="46.30574" lon="-0.33813">
        <ele>74.5017</ele>
        <time>2010-12-04T09:28:28Z</time>
      </trkpt>
      <trkpt lat="46.30574" lon="-0.33815">
        <ele>74.5009</ele>
        <time>2010-12-04T09:28:29Z</time>
      </trkpt>
      <trkpt lat="46.30574" lon="-0.33817">
        <ele>74.4997</ele>
        <time>2010-12-04T09:28:30Z</time>
      </trkpt>
      <trkpt lat="46.30573" lon="-0.33819">
        <ele>74.4986</ele>
        <time>2010-12-04T09:28:31Z</time>
      </trkpt>
      <trkpt lat="46.30573" lon="-0.33821">
        <ele>74.4939</ele>
        <time>2010-12-04T09:28:32Z</time>
      </trkpt>
      <trkpt lat="46.30573" lon="-0.33823">
        <ele>74.4845</ele>
        <time>2010-12-04T09:28:33Z</time>
      </trkpt>
      <trkpt lat="46.30572" lon="-0.33824">
        <ele>74.4737</ele>
        <time>2010-12-04T09:28:34Z</time>
      </trkpt>
      <trkpt lat="46.30571" lon="-0.33826">
        <ele>74.4605</ele>
        <time>2010-12-04T09:28:35Z</time>
      </trkpt>
      <trkpt lat="46.30571" lon="-0.33828">
        <ele>74.4464</ele>
        <time>2010-12-04T09:28:36Z</time>
      </trkpt>
      <trkpt lat="46.30571" lon="-0.33829">
        <ele>74.4323</ele>
        <time>2010-12-04T09:28:37Z</time>
      </trkpt>
      <trkpt lat="46.3057" lon="-0.3383">
        <ele>74.4181</ele>
        <time>2010-12-04T09:28:38Z</time>
      </trkpt>
      <trkpt lat="46.3057" lon="-0.33832">
        <ele>74.4025</ele>
        <time>2010-12-04T09:28:39Z</time>
      </trkpt>
      <trkpt lat="46.30569" lon="-0.33833">
        <ele>74.3836</ele>
        <time>2010-12-04T09:28:40Z</time>
      </trkpt>
      <trkpt lat="46.30569" lon="-0.33835">
        <ele>74.3645</ele>
        <time>2010-12-04T09:28:41Z</time>
      </trkpt>
      <trkpt lat="46.30568" lon="-0.33837">
        <ele>74.3408</ele>
        <time>2010-12-04T09:28:42Z</time>
      </trkpt>
      <trkpt lat="46.30567" lon="-0.33839">
        <ele>74.3179</ele>
        <time>2010-12-04T09:28:43Z</time>
      </trkpt>
      <trkpt lat="46.30566" lon="-0.33841">
        <ele>74.2963</ele>
        <time>2010-12-04T09:28:44Z</time>
      </trkpt>
      <trkpt lat="46.30566" lon="-0.33843">
        <ele>74.2749</ele>
        <time>2010-12-04T09:28:45Z</time>
      </trkpt>
      <trkpt lat="46.30566" lon="-0.33845">
        <ele>74.2549</ele>
        <time>2010-12-04T09:28:46Z</time>
      </trkpt>
      <trkpt lat="46.30565" lon="-0.33847">
        <ele>74.2356</ele>
        <time>2010-12-04T09:28:47Z</time>
      </trkpt>
      <trkpt lat="46.30565" lon="-0.33849">
        <ele>74.2155</ele>
        <time>2010-12-04T09:28:48Z</time>
      </trkpt>
      <trkpt lat="46.30564" lon="-0.33851">
        <ele>74.1943</ele>
        <time>2010-12-04T09:28:49Z</time>
      </trkpt>
      <trkpt lat="46.30563" lon="-0.33853">
        <ele>74.1716</ele>
        <time>2010-12-04T09:28:50Z</time>
      </trkpt>
      <trkpt lat="46.30563" lon="-0.33855">
        <ele>74.1481</ele>
        <time>2010-12-04T09:28:51Z</time>
      </trkpt>
      <trkpt lat="46.30563" lon="-0.33857">
        <ele>74.1232</ele>
        <time>2010-12-04T09:28:52Z</time>
      </trkpt>
      <trkpt lat="46.30562" lon="-0.33859">
        <ele>74.0965</ele>
        <time>2010-12-04T09:28:53Z</time>
      </trkpt>
      <trkpt lat="46.30561" lon="-0.33861">
        <ele>74.0683</ele>
        <time>2010-12-04T09:28:54Z</time>
      </trkpt>
      <trkpt lat="46.30561" lon="-0.33863">
        <ele>74.0389</ele>
        <time>2010-12-04T09:28:55Z</time>
      </trkpt>
      <trkpt lat="46.30561" lon="-0.33865">
        <ele>74.009</ele>
        <time>2010-12-04T09:28:56Z</time>
      </trkpt>
      <trkpt lat="46.3056" lon="-0.33867">
        <ele>73.9772</ele>
        <time>2010-12-04T09:28:57Z</time>
      </trkpt>
      <trkpt lat="46.3056" lon="-0.33869">
        <ele>73.9472</ele>
        <time>2010-12-04T09:28:58Z</time>
      </trkpt>
      <trkpt lat="46.3056" lon="-0.33872">
        <ele>73.9134</ele>
        <time>2010-12-04T09:28:59Z</time>
      </trkpt>
      <trkpt lat="46.30559" lon="-0.33874">
        <ele>73.8735</ele>
        <time>2010-12-04T09:29:00Z</time>
      </trkpt>
      <trkpt lat="46.30559" lon="-0.33877">
        <ele>73.8368</ele>
        <time>2010-12-04T09:29:01Z</time>
      </trkpt>
      <trkpt lat="46.30558" lon="-0.33879">
        <ele>73.8004</ele>
        <time>2010-12-04T09:29:02Z</time>
      </trkpt>
      <trkpt lat="46.30558" lon="-0.33881">
        <ele>73.7708</ele>
        <time>2010-12-04T09:29:03Z</time>
      </trkpt>
      <trkpt lat="46.30557" lon="-0.33883">
        <ele>73.7434</ele>
        <time>2010-12-04T09:29:04Z</time>
      </trkpt>
      <trkpt lat="46.30557" lon="-0.33885">
        <ele>73.7198</ele>
        <time>2010-12-04T09:29:05Z</time>
      </trkpt>
      <trkpt lat="46.30556" lon="-0.33886">
        <ele>73.6992</ele>
        <time>2010-12-04T09:29:06Z</time>
      </trkpt>
      <trkpt lat="46.30556" lon="-0.33888">
        <ele>73.6793</ele>
        <time>2010-12-04T09:29:07Z</time>
      </trkpt>
      <trkpt lat="46.30555" lon="-0.3389">
        <ele>73.6606</ele>
        <time>2010-12-04T09:29:08Z</time>
      </trkpt>
      <trkpt lat="46.30555" lon="-0.33892">
        <ele>73.6413</ele>
        <time>2010-12-04T09:29:09Z</time>
      </trkpt>
      <trkpt lat="46.30555" lon="-0.33893">
        <ele>73.6216</ele>
        <time>2010-12-04T09:29:10Z</time>
      </trkpt>
      <trkpt lat="46.30555" lon="-0.33895">
        <ele>73.6025</ele>
        <time>2010-12-04T09:29:11Z</time>
      </trkpt>
      <trkpt lat="46.30554" lon="-0.33897">
        <ele>73.5831</ele>
        <time>2010-12-04T09:29:12Z</time>
      </trkpt>
      <trkpt lat="46.30554" lon="-0.33899">
        <ele>73.5637</ele>
        <time>2010-12-04T09:29:13Z</time>
      </trkpt>
      <trkpt lat="46.30554" lon="-0.33901">
        <ele>73.5445</ele>
        <time>2010-12-04T09:29:14Z</time>
      </trkpt>
      <trkpt lat="46.30554" lon="-0.33903">
        <ele>73.5237</ele>
        <time>2010-12-04T09:29:15Z</time>
      </trkpt>
      <trkpt lat="46.30553" lon="-0.33905">
        <ele>73.5028</ele>
        <time>2010-12-04T09:29:16Z</time>
      </trkpt>
      <trkpt lat="46.30553" lon="-0.33907">
        <ele>73.48</ele>
        <time>2010-12-04T09:29:17Z</time>
      </trkpt>
      <trkpt lat="46.30552" lon="-0.33909">
        <ele>73.4569</ele>
        <time>2010-12-04T09:29:18Z</time>
      </trkpt>
      <trkpt lat="46.30552" lon="-0.33911">
        <ele>73.4344</ele>
        <time>2010-12-04T09:29:19Z</time>
      </trkpt>
      <trkpt lat="46.30552" lon="-0.33913">
        <ele>73.4129</ele>
        <time>2010-12-04T09:29:20Z</time>
      </trkpt>
      <trkpt lat="46.30551" lon="-0.33916">
        <ele>73.3921</ele>
        <time>2010-12-04T09:29:21Z</time>
      </trkpt>
      <trkpt lat="46.3055" lon="-0.33918">
        <ele>73.3731</ele>
        <time>2010-12-04T09:29:22Z</time>
      </trkpt>
      <trkpt lat="46.3055" lon="-0.3392">
        <ele>73.3577</ele>
        <time>2010-12-04T09:29:23Z</time>
      </trkpt>
      <trkpt lat="46.3055" lon="-0.33921">
        <ele>73.3417</ele>
        <time>2010-12-04T09:29:24Z</time>
      </trkpt>
      <trkpt lat="46.30549" lon="-0.33923">
        <ele>73.3293</ele>
        <time>2010-12-04T09:29:25Z</time>
      </trkpt>
      <trkpt lat="46.30549" lon="-0.33924">
        <ele>73.3163</ele>
        <time>2010-12-04T09:29:26Z</time>
      </trkpt>
      <trkpt lat="46.30548" lon="-0.33926">
        <ele>73.3025</ele>
        <time>2010-12-04T09:29:27Z</time>
      </trkpt>
      <trkpt lat="46.30547" lon="-0.33927">
        <ele>73.2879</ele>
        <time>2010-12-04T09:29:28Z</time>
      </trkpt>
      <trkpt lat="46.30545" lon="-0.33928">
        <ele>73.2756</ele>
        <time>2010-12-04T09:29:29Z</time>
      </trkpt>
      <trkpt lat="46.30544" lon="-0.33929">
        <ele>73.2643</ele>
        <time>2010-12-04T09:29:30Z</time>
      </trkpt>
      <trkpt lat="46.30542" lon="-0.3393">
        <ele>73.2523</ele>
        <time>2010-12-04T09:29:31Z</time>
      </trkpt>
      <trkpt lat="46.30541" lon="-0.3393">
        <ele>73.2406</ele>
        <time>2010-12-04T09:29:32Z</time>
      </trkpt>
      <trkpt lat="46.30539" lon="-0.33931">
        <ele>73.2285</ele>
        <time>2010-12-04T09:29:33Z</time>
      </trkpt>
      <trkpt lat="46.30537" lon="-0.33931">
        <ele>73.215</ele>
        <time>2010-12-04T09:29:34Z</time>
      </trkpt>
      <trkpt lat="46.30536" lon="-0.33931">
        <ele>73.1995</ele>
        <time>2010-12-04T09:29:35Z</time>
      </trkpt>
      <trkpt lat="46.30535" lon="-0.33932">
        <ele>73.184</ele>
        <time>2010-12-04T09:29:36Z</time>
      </trkpt>
      <trkpt lat="46.30534" lon="-0.33932">
        <ele>73.1677</ele>
        <time>2010-12-04T09:29:37Z</time>
      </trkpt>
      <trkpt lat="46.30533" lon="-0.33932">
        <ele>73.1432</ele>
        <time>2010-12-04T09:29:38Z</time>
      </trkpt>
      <trkpt lat="46.30533" lon="-0.33931">
        <ele>73.1093</ele>
        <time>2010-12-04T09:29:39Z</time>
      </trkpt>
      <trkpt lat="46.30531" lon="-0.33931">
        <ele>73.0518</ele>
        <time>2010-12-04T09:29:40Z</time>
      </trkpt>
      <trkpt lat="46.30531" lon="-0.33931">
        <ele>72.9736</ele>
        <time>2010-12-04T09:29:41Z</time>
      </trkpt>
      <trkpt lat="46.3053" lon="-0.3393">
        <ele>72.8737</ele>
        <time>2010-12-04T09:29:42Z</time>
      </trkpt>
      <trkpt lat="46.30529" lon="-0.3393">
        <ele>72.756</ele>
        <time>2010-12-04T09:29:43Z</time>
      </trkpt>
      <trkpt lat="46.30527" lon="-0.33929">
        <ele>72.6302</ele>
        <time>2010-12-04T09:29:44Z</time>
      </trkpt>
      <trkpt lat="46.30526" lon="-0.33929">
        <ele>72.4894</ele>
        <time>2010-12-04T09:29:45Z</time>
      </trkpt>
      <trkpt lat="46.30525" lon="-0.3393">
        <ele>72.3397</ele>
        <time>2010-12-04T09:29:46Z</time>
      </trkpt>
      <trkpt lat="46.30524" lon="-0.3393">
        <ele>72.1829</ele>
        <time>2010-12-04T09:29:47Z</time>
      </trkpt>
      <trkpt lat="46.30523" lon="-0.3393">
        <ele>72.0227</ele>
        <time>2010-12-04T09:29:48Z</time>
      </trkpt>
      <trkpt lat="46.30522" lon="-0.3393">
        <ele>71.8674</ele>
        <time>2010-12-04T09:29:49Z</time>
      </trkpt>
      <trkpt lat="46.30521" lon="-0.3393">
        <ele>71.7152</ele>
        <time>2010-12-04T09:29:50Z</time>
      </trkpt>
      <trkpt lat="46.3052" lon="-0.33931">
        <ele>71.5639</ele>
        <time>2010-12-04T09:29:51Z</time>
      </trkpt>
      <trkpt lat="46.30518" lon="-0.33931">
        <ele>71.4242</ele>
        <time>2010-12-04T09:29:52Z</time>
      </trkpt>
      <trkpt lat="46.30516" lon="-0.33931">
        <ele>71.2845</ele>
        <time>2010-12-04T09:29:53Z</time>
      </trkpt>
      <trkpt lat="46.30515" lon="-0.33932">
        <ele>71.1471</ele>
        <time>2010-12-04T09:29:54Z</time>
      </trkpt>
      <trkpt lat="46.30513" lon="-0.33932">
        <ele>71.0119</ele>
        <time>2010-12-04T09:29:55Z</time>
      </trkpt>
      <trkpt lat="46.30512" lon="-0.33933">
        <ele>70.8816</ele>
        <time>2010-12-04T09:29:56Z</time>
      </trkpt>
      <trkpt lat="46.3051" lon="-0.33935">
        <ele>70.7495</ele>
        <time>2010-12-04T09:29:57Z</time>
      </trkpt>
      <trkpt lat="46.3051" lon="-0.33937">
        <ele>70.6139</ele>
        <time>2010-12-04T09:29:58Z</time>
      </trkpt>
      <trkpt lat="46.30509" lon="-0.33939">
        <ele>70.4904</ele>
        <time>2010-12-04T09:29:59Z</time>
      </trkpt>
      <trkpt lat="46.30508" lon="-0.33941">
        <ele>70.3774</ele>
        <time>2010-12-04T09:30:00Z</time>
      </trkpt>
      <trkpt lat="46.30507" lon="-0.33943">
        <ele>70.2687</ele>
        <time>2010-12-04T09:30:01Z</time>
      </trkpt>
      <trkpt lat="46.30507" lon="-0.33946">
        <ele>70.1596</ele>
        <time>2010-12-04T09:30:02Z</time>
      </trkpt>
      <trkpt lat="46.30506" lon="-0.33949">
        <ele>70.0548</ele>
        <time>2010-12-04T09:30:03Z</time>
      </trkpt>
    </trkseg>
  </trk>
</gpx>